# Wetter Temperatur Luftdruck Luftfeuchtigkeit Sichtweite Windgeschwindigkeit Windrichtung Zeit
1 Clear 19 1018 60 10000 1.54 290 10:50 14.08.2022
2 Clouds 19 1018 59 10000 4.02 360 08:51 14.08.2022
3 Clouds 21 1019 56 10000 4.12 220 06:22 14.08.2022
4 Clear 23 1018 47 10000 3.6 80 02:49 14.08.2022
5 Clear 26 1017 37 10000 6.71 49 23:53 13.08.2022
6 Clear 27 1017 36 10000 2.68 40 22:52 13.08.2022
7 Clouds 26 1018 37 10000 5.14 10 21:19 13.08.2022
8 Clouds 26 1019 38 10000 4.12 360 20:43 13.08.2022
9 Clouds 25 1019 41 10000 4.63 360 19:44 13.08.2022
10 Clouds 24 1020 44 10000 5.14 20 17:59 13.08.2022
11 Clear 22 1019 47 10000 6.17 10 15:40 13.08.2022
12 Clear 20 1020 55 10000 5.66 360 14:28 13.08.2022
13 Clear 19 1019 58 10000 4.63 360 13:41 13.08.2022
14 Clear 18 1018 58 10000 5.14 360 11:53 13.08.2022
15 Clear 19 1018 55 10000 5.66 10 10:31 13.08.2022
16 Clear 20 1018 51 10000 6.17 360 09:19 13.08.2022
17 Clear 23 1017 38 10000 7.2 350 05:57 13.08.2022
18 Clouds 28 1015 35 10000 3.58 43 00:30 13.08.2022
19 Clear 29 1015 31 10000 5.66 20 22:23 12.08.2022
20 Clear 29 1015 31 10000 4.12 40 21:20 12.08.2022
21 Clear 28 1016 35 10000 4.63 350 19:44 12.08.2022
22 Clouds 28 1016 38 10000 4.63 330 18:58 12.08.2022
23 Clouds 27 1016 43 10000 2.68 30 17:57 12.08.2022
24 Clear 24 1016 52 10000 7.2 20 16:24 12.08.2022
25 Clear 23 1016 59 10000 5.66 10 14:50 12.08.2022
26 Clouds 22 1015 63 10000 6.69 20 12:59 12.08.2022
27 Clouds 22 1014 61 10000 6.69 360 11:39 12.08.2022
28 Clear 24 1013 51 10000 7.2 350 08:47 12.08.2022
29 Clouds 25 1013 49 10000 8.23 350 07:44 12.08.2022
30 Clouds 26 1011 68 10000 4.12 180 03:41 12.08.2022
31 Clear 30 1011 48 10000 3.58 126 00:31 12.08.2022
32 Clear 31 1011 43 10000 5.14 320 23:42 11.08.2022
33 Clear 31 1011 40 10000 4.63 320 22:37 11.08.2022
34 Clear 31 1011 41 10000 4.63 310 21:52 11.08.2022
35 Clear 31 1011 41 10000 4.63 310 21:23 11.08.2022
36 Clouds 31 1012 44 10000 4.63 260 20:30 11.08.2022
37 Clear 30 1012 49 10000 4.63 290 19:33 11.08.2022
38 Clear 29 1013 53 10000 3.09 340 18:41 11.08.2022
39 Clouds 26 1013 74 10000 3.6 350 16:46 11.08.2022
40 Mist 24 1013 85 6437 3.58 333 15:42 11.08.2022
41 Mist 24 1013 85 6437 3.58 333 15:42 11.08.2022
42 Mist 22 1013 89 4023 3.6 350 14:20 11.08.2022
43 Clouds 24 1013 82 10000 3.09 40 11:53 11.08.2022
44 Clouds 24 1014 80 10000 0.45 73 08:48 11.08.2022
45 Clouds 25 1015 75 10000 4.12 190 05:44 11.08.2022
46 Clouds 26 1015 75 10000 5.14 190 02:26 11.08.2022
47 Clouds 30 1015 58 10000 1.79 234 22:59 10.08.2022
48 Clouds 30 1016 52 10000 6.17 280 21:46 10.08.2022
49 Clouds 30 1016 53 10000 2.24 288 20:56 10.08.2022
50 Clouds 29 1016 52 10000 3.09 40 20:27 10.08.2022
51 Clouds 29 1018 51 10000 3.09 50 18:48 10.08.2022
52 Clouds 28 1018 54 10000 4.63 60 17:27 10.08.2022
53 Clouds 25 1018 62 10000 4.92 31 14:36 10.08.2022
54 Clear 24 1017 65 10000 4.63 60 13:32 10.08.2022
55 Clouds 25 1016 61 10000 7.15 23 10:50 10.08.2022
56 Clear 27 1015 67 10000 5.36 22 08:39 10.08.2022
57 Clouds 27 1015 71 10000 4.12 290 07:35 10.08.2022
58 Clouds 28 1015 70 10000 4.12 300 04:50 10.08.2022
59 Thunderstorm 30 1013 62 10000 4.12 310 01:33 10.08.2022
60 Clouds 35 1011 44 10000 7.72 270 23:31 09.08.2022
61 Clouds 35 1012 45 10000 8.49 282 22:45 09.08.2022
62 Clouds 36 1011 45 10000 8.94 275 21:24 09.08.2022
63 Clouds 35 1012 49 10000 8.49 281 19:28 09.08.2022
64 Clear 33 1013 57 10000 7.72 280 17:39 09.08.2022
65 Clear 33 1013 57 10000 7.72 280 17:21 09.08.2022
66 Clear 32 1013 62 10000 4.63 250 16:30 09.08.2022
67 Clear 30 1013 70 10000 5.66 230 15:26 09.08.2022
68 Clear 27 1013 81 10000 6.17 230 11:49 09.08.2022
69 Clear 28 1013 77 10000 4.63 260 08:54 09.08.2022
70 Clouds 28 1013 75 10000 5.36 223 07:59 09.08.2022
71 Clear 29 1013 71 10000 4.47 264 06:55 09.08.2022
72 Clear 31 1013 58 10000 4.12 250 01:57 09.08.2022
73 Clouds 34 1013 51 10000 7.72 240 23:26 08.08.2022
74 Clouds 34 1013 50 10000 5.36 238 22:52 08.08.2022
75 Clouds 34 1014 50 10000 8.75 250 21:47 08.08.2022
76 Clouds 34 1014 52 10000 7.2 240 20:43 08.08.2022
77 Clouds 34 1015 55 10000 7.72 240 19:50 08.08.2022
78 Clouds 32 1016 60 10000 7.2 210 18:19 08.08.2022
79 Clouds 29 1017 73 10000 4.47 226 15:57 08.08.2022
80 Clouds 29 1017 76 10000 6.17 240 15:38 08.08.2022
81 Clouds 26 1018 83 10000 4.92 194 12:35 08.08.2022
82 Clear 26 1017 82 10000 5.14 220 11:32 08.08.2022
83 Clear 27 1018 74 10000 5.66 220 08:26 08.08.2022
84 Clear 28 1019 64 10000 7.2 200 05:33 08.08.2022
85 Clear 31 1018 53 10000 5.36 250 01:55 08.08.2022
86 Clear 31 1020 67 10000 8.75 210 21:51 07.08.2022
87 Clouds 31 1019 68 10000 8.75 210 21:32 07.08.2022
88 Rain 33 1019 56 10000 11.32 230 20:25 07.08.2022
89 Clouds 33 1020 56 10000 3.58 0 19:53 07.08.2022
90 Clouds 33 1020 53 10000 7.72 220 19:29 07.08.2022
91 Clouds 32 1021 61 10000 4.02 159 17:59 07.08.2022
92 Clouds 30 1022 69 10000 6.17 240 16:53 07.08.2022
93 Clouds 29 1022 76 10000 5.66 230 15:49 07.08.2022
94 Clouds 27 1022 83 10000 6.69 220 14:34 07.08.2022
95 Clear 26 1022 81 10000 5.81 197 12:51 07.08.2022
96 Clouds 26 1022 79 10000 5.66 230 10:57 07.08.2022
97 Clear 26 1022 79 10000 6.17 220 10:21 07.08.2022
98 Clouds 28 1022 67 10000 4.02 210 04:58 07.08.2022
99 Clear 29 1021 64 10000 5.66 240 03:18 07.08.2022
100 Clouds 32 1021 49 10000 7.2 210 23:30 06.08.2022
101 Clear 32 1021 49 10000 7.72 220 22:20 06.08.2022
102 Clear 33 1022 51 10000 6.69 240 20:24 06.08.2022
103 Clear 32 1023 54 10000 6.17 210 19:38 06.08.2022
104 Clear 31 1023 58 10000 5.66 200 18:22 06.08.2022
105 Clear 29 1023 66 10000 3.6 190 16:40 06.08.2022
106 Clear 26 1023 74 10000 3.6 260 14:31 06.08.2022
107 Clear 25 1023 77 10000 3.6 230 13:40 06.08.2022
108 Clouds 24 1022 80 10000 3.09 260 11:24 06.08.2022
109 Clouds 25 1022 77 10000 2.68 223 09:51 06.08.2022
110 Clouds 25 1021 73 10000 4.63 240 08:28 06.08.2022
111 Clouds 28 1021 67 10000 2.68 154 03:51 06.08.2022
112 Clear 32 1020 54 10000 5.14 180 23:34 05.08.2022
113 Clear 33 1019 51 10000 5.14 190 22:22 05.08.2022
114 Clear 30 1021 61 10000 3.09 190 19:32 05.08.2022
115 Clear 29 1021 66 10000 3.09 220 18:44 05.08.2022
116 Clouds 28 1021 71 10000 2.24 165 17:54 05.08.2022
117 Clear 27 1021 70 10000 4.63 230 16:49 05.08.2022
118 Clear 27 1021 70 10000 4.63 230 16:49 05.08.2022
119 Clouds 26 1020 71 10000 3.09 240 15:22 05.08.2022
120 Clear 26 1020 73 10000 3.6 220 14:19 05.08.2022
121 Clouds 25 1020 72 10000 2.68 360 13:23 05.08.2022
122 Clear 25 1019 72 10000 3.6 280 12:29 05.08.2022
123 Clouds 25 1018 73 10000 4.92 221 10:51 05.08.2022
124 Clear 26 1018 68 10000 4.47 245 08:27 05.08.2022
125 Clouds 26 1018 70 10000 3.13 360 06:56 05.08.2022
126 Clouds 26 1018 70 10000 3.13 360 06:56 05.08.2022
127 Clear 31 1016 64 10000 7.2 170 00:46 05.08.2022
128 Clear 33 1016 54 10000 8.75 180 22:32 04.08.2022
129 Clear 34 1016 50 10000 7.72 170 21:27 04.08.2022
130 Clouds 34 1016 48 10000 7.2 160 20:44 04.08.2022
131 Clear 34 1017 48 10000 4.63 210 19:49 04.08.2022
132 Clear 33 1017 51 10000 1.79 208 18:51 04.08.2022
133 Clear 33 1018 50 10000 4.63 220 18:32 04.08.2022
134 Clouds 27 1018 67 10000 2.57 220 14:39 04.08.2022
135 Clouds 24 1018 77 10000 2.24 360 13:22 04.08.2022
136 Clouds 24 1017 73 10000 4.02 360 11:33 04.08.2022
137 Clear 25 1016 76 10000 1.79 360 07:56 04.08.2022
138 Clear 25 1017 79 10000 2.57 190 07:27 04.08.2022
139 Clear 27 1015 71 10000 5.14 180 02:42 04.08.2022
140 Clear 30 1014 53 10000 4.92 168 23:52 03.08.2022
141 Clear 31 1015 48 10000 6.17 180 23:33 03.08.2022
142 Clear 32 1015 37 10000 4.12 240 21:26 03.08.2022
143 Clear 32 1016 38 10000 5.66 310 20:19 03.08.2022
144 Clear 30 1016 46 10000 4.12 240 18:40 03.08.2022
145 Clear 27 1016 60 10000 2.57 360 16:27 03.08.2022
146 Clear 27 1016 61 10000 1.79 43 15:53 03.08.2022
147 Clear 23 1015 70 10000 3.09 20 13:38 03.08.2022
148 Clear 24 1014 67 10000 4.92 326 10:44 03.08.2022
149 Clear 26 1013 62 10000 6.17 350 07:21 03.08.2022
150 Clear 28 1011 57 10000 2.57 360 04:22 03.08.2022
151 Clouds 29 1010 52 10000 3.09 290 03:23 03.08.2022
152 Clear 32 1009 47 10000 6.69 250 00:49 03.08.2022
153 Clear 33 1008 47 10000 6.69 270 22:36 02.08.2022
154 Clouds 33 1009 48 10000 5.14 270 21:51 02.08.2022
155 Clouds 32 1009 53 10000 5.66 260 20:29 02.08.2022
156 Clear 30 1010 64 10000 6.69 260 17:52 02.08.2022
157 Clouds 24 1010 84 10000 4.63 230 14:46 02.08.2022
158 Clear 21 1010 88 10000 3.6 190 10:50 02.08.2022
159 Clear 21 1011 88 10000 4.12 190 08:54 02.08.2022
160 Clear 21 1011 88 10000 3.09 200 07:52 02.08.2022
161 Clear 22 1011 87 10000 4.12 210 05:40 02.08.2022
162 Clear 22 1012 88 10000 4.12 200 03:40 02.08.2022
163 Clouds 24 1013 80 10000 2.57 270 23:35 01.08.2022
164 Drizzle 23 1013 82 10000 2.57 260 22:22 01.08.2022
165 Haze 23 1014 86 10000 3.09 50 20:47 01.08.2022
166 Mist 22 1014 87 4023 3.09 40 19:22 01.08.2022
167 Mist 22 1015 89 8047 3.09 60 17:57 01.08.2022
168 Clouds 22 1015 86 3219 3.09 50 16:52 01.08.2022
169 Mist 21 1016 88 8047 3.09 60 15:52 01.08.2022
170 Mist 21 1015 88 8047 4.92 59 15:30 01.08.2022
171 Mist 21 1015 90 9656 4.92 56 13:45 01.08.2022
172 Rain 20 1016 89 4828 5.36 13 11:49 01.08.2022
173 Rain 20 1016 89 4828 5.36 13 11:49 01.08.2022
174 Rain 22 1017 86 2414 4.12 300 09:39 01.08.2022
175 Rain 23 1017 77 10000 4.12 320 08:21 01.08.2022
176 Clear 25 1018 72 10000 3.09 170 04:47 01.08.2022
177 Clouds 26 1019 74 10000 5.14 170 02:32 01.08.2022
178 Clouds 28 1019 60 10000 5.36 172 23:54 31.07.2022
179 Clear 29 1019 48 10000 5.66 170 22:36 31.07.2022
180 Clear 29 1019 48 10000 5.66 170 22:36 31.07.2022
181 Clear 30 1021 44 10000 6.69 170 21:24 31.07.2022
182 Clouds 30 1021 44 10000 4.63 150 19:41 31.07.2022
183 Clear 28 1022 48 10000 2.57 50 17:47 31.07.2022
184 Clear 26 1023 54 10000 3.09 70 15:37 31.07.2022
185 Clear 23 1022 62 10000 2.57 20 13:42 31.07.2022
186 Clear 21 1022 64 10000 1.79 274 11:55 31.07.2022
187 Clear 22 1021 60 10000 3.09 20 09:36 31.07.2022
188 Clear 25 1021 51 10000 4.12 360 06:48 31.07.2022
189 Clear 27 1019 45 10000 4.02 326 02:58 31.07.2022
190 Clouds 31 1016 36 10000 4.92 297 23:36 30.07.2022
191 Clouds 31 1017 36 10000 7.2 310 22:19 30.07.2022
192 Clouds 31 1017 36 10000 7.2 320 21:48 30.07.2022
193 Clouds 31 1017 37 10000 6.69 310 20:57 30.07.2022
194 Clouds 30 1016 39 10000 6.69 260 19:59 30.07.2022
195 Clear 30 1017 39 10000 6.26 304 18:53 30.07.2022
196 Clear 29 1017 42 10000 6.71 283 17:44 30.07.2022
197 Clouds 26 1016 52 10000 7.15 309 15:50 30.07.2022
198 Clear 26 1016 54 10000 7.6 312 15:22 30.07.2022
199 Clear 23 1015 65 10000 5.14 320 13:18 30.07.2022
200 Clouds 23 1014 72 10000 4.63 310 12:19 30.07.2022
201 Clouds 24 1013 71 10000 5.14 320 10:31 30.07.2022
202 Clouds 24 1013 71 10000 5.14 320 10:31 30.07.2022
203 Clouds 24 1013 71 10000 5.14 320 10:31 30.07.2022
204 Clouds 24 1013 71 10000 4.02 307 09:54 30.07.2022
205 Clouds 25 1012 70 10000 3.58 360 07:55 30.07.2022
206 Rain 26 1012 64 10000 2.24 297 02:57 30.07.2022
207 Clouds 27 1012 60 10000 5.66 300 02:24 30.07.2022
208 Clouds 29 1013 53 10000 6.17 240 22:44 29.07.2022
209 Clouds 29 1014 54 10000 6.69 240 21:24 29.07.2022
210 Clouds 29 1013 55 10000 6.17 230 20:39 29.07.2022
211 Clear 29 1014 54 10000 3.09 260 18:26 29.07.2022
212 Clear 27 1013 70 10000 2.68 198 15:38 29.07.2022
213 Clear 24 1012 77 10000 3.13 360 13:37 29.07.2022
214 Clear 23 1011 79 10000 3.6 290 11:28 29.07.2022
215 Clear 25 1010 79 10000 4.63 260 08:50 29.07.2022
216 Clear 25 1010 77 10000 4.92 270 08:20 29.07.2022
217 Clouds 29 1008 64 10000 5.66 230 02:29 29.07.2022
218 Clear 30 1009 72 10000 8.23 180 23:18 28.07.2022
219 Clouds 31 1009 67 10000 5.66 180 21:29 28.07.2022
220 Clear 31 1010 62 10000 5.14 190 20:45 28.07.2022
221 Clear 31 1011 63 10000 3.6 230 19:44 28.07.2022
222 Clear 31 1011 64 10000 3.6 230 19:25 28.07.2022
223 Clear 29 1011 74 10000 2.57 0 17:44 28.07.2022
224 Clear 28 1011 75 10000 3.09 220 17:19 28.07.2022
225 Clouds 28 1011 76 10000 3.09 250 16:39 28.07.2022
226 Clouds 24 1011 89 10000 3.6 180 13:47 28.07.2022
227 Clouds 23 1011 90 10000 3.13 224 12:33 28.07.2022
228 Clear 25 1012 77 10000 4.12 170 07:33 28.07.2022
229 Clear 25 1012 74 10000 3.13 160 05:37 28.07.2022
230 Clear 25 1012 74 10000 2.57 180 05:18 28.07.2022
231 Clear 28 1012 53 10000 6.17 190 23:19 27.07.2022
232 Clear 30 1013 45 10000 5.14 130 21:30 27.07.2022
233 Clear 29 1014 44 10000 5.66 160 19:46 27.07.2022
234 Clear 29 1014 44 10000 5.66 160 19:19 27.07.2022
235 Clear 27 1014 47 10000 3.6 50 16:31 27.07.2022
236 Clear 26 1014 51 10000 1.54 260 15:51 27.07.2022
237 Clouds 24 1015 59 10000 2.57 50 14:41 27.07.2022
238 Clouds 23 1015 65 10000 2.57 60 13:34 27.07.2022
239 Clear 21 1015 67 10000 1.54 70 09:29 27.07.2022
240 Clear 22 1015 63 10000 2.06 250 07:47 27.07.2022
241 Clear 24 1015 57 10000 3.09 270 04:53 27.07.2022
242 Clear 27 1015 46 10000 6.17 280 23:21 26.07.2022
243 Clear 27 1015 44 10000 6.17 280 21:49 26.07.2022
244 Clear 27 1016 45 10000 4.63 260 20:49 26.07.2022
245 Clear 26 1016 48 10000 5.66 270 19:22 26.07.2022
246 Clear 26 1016 51 10000 3.09 270 18:40 26.07.2022
247 Clear 26 1016 50 10000 3.09 40 17:47 26.07.2022
248 Clouds 24 1017 57 10000 3.6 330 15:43 26.07.2022
249 Clear 24 1017 60 10000 2.68 309 14:43 26.07.2022
250 Clear 22 1015 65 10000 4.12 10 12:32 26.07.2022
251 Clear 23 1015 69 10000 5.66 40 10:20 26.07.2022
252 Clouds 25 1013 78 10000 6.17 50 08:27 26.07.2022
253 Clouds 29 1011 65 10000 4.12 260 01:52 26.07.2022
254 Clouds 29 1010 66 10000 3.13 257 01:52 26.07.2022
255 Clouds 31 1010 61 10000 6.69 240 00:20 26.07.2022
256 Clouds 28 1011 76 10000 4.12 160 22:40 25.07.2022
257 Clouds 28 1011 77 10000 4.12 160 22:40 25.07.2022
258 Thunderstorm 29 1011 67 10000 1.54 0 21:43 25.07.2022
259 Clouds 29 1011 72 10000 3.09 320 20:43 25.07.2022
260 Clouds 29 1011 73 10000 3.09 320 20:24 25.07.2022
261 Thunderstorm 30 1012 67 10000 7.72 310 19:24 25.07.2022
262 Clear 30 1012 64 10000 6.17 220 17:42 25.07.2022
263 Clear 30 1012 65 10000 7.72 240 16:44 25.07.2022
264 Clear 28 1011 75 10000 8.75 210 13:27 25.07.2022
265 Clear 28 1012 77 10000 6.17 200 10:54 25.07.2022
266 Clear 28 1013 73 10000 4.92 165 07:53 25.07.2022
267 Clear 34 1013 43 10000 8.05 233 00:57 25.07.2022
268 Clouds 35 1013 41 10000 7.2 160 23:45 24.07.2022
269 Clouds 35 1014 40 10000 8.75 160 22:47 24.07.2022
270 Clouds 36 1014 36 10000 8.75 230 21:42 24.07.2022
271 Smoke 35 1015 36 10000 5.36 259 20:59 24.07.2022
272 Smoke 36 1015 35 10000 5.14 250 20:41 24.07.2022
273 Clear 35 1016 36 10000 5.36 266 19:23 24.07.2022
274 Clear 34 1016 39 10000 7.2 270 18:26 24.07.2022
275 Clouds 30 1016 50 10000 7.72 250 15:55 24.07.2022
276 Clouds 28 1017 56 10000 6.69 260 14:57 24.07.2022
277 Clear 27 1016 65 10000 5.66 240 13:50 24.07.2022
278 Clear 26 1015 72 10000 2.57 220 12:28 24.07.2022
279 Clear 26 1015 71 10000 3.6 230 11:31 24.07.2022
280 Clear 27 1016 66 10000 4.92 190 09:55 24.07.2022
281 Clear 27 1015 63 10000 3.09 220 08:29 24.07.2022
282 Clear 28 1016 61 10000 2.57 220 07:44 24.07.2022
283 Clear 29 1016 62 10000 2.68 191 03:35 24.07.2022
284 Clear 33 1015 42 10000 6.17 180 23:36 23.07.2022
285 Clear 35 1016 32 10000 2.24 324 20:51 23.07.2022
286 Clear 34 1016 35 10000 3.09 280 19:31 23.07.2022
287 Clear 34 1016 38 10000 2.24 101 18:49 23.07.2022
288 Clear 32 1016 42 10000 3.6 250 17:28 23.07.2022
289 Clear 31 1016 47 10000 3.6 350 16:30 23.07.2022
290 Clear 29 1016 54 10000 3.09 310 15:22 23.07.2022
291 Clouds 29 1016 56 10000 4.92 43 14:56 23.07.2022
292 Clear 28 1016 60 10000 4.12 320 14:24 23.07.2022
293 Clear 28 1016 60 10000 4.12 320 14:24 23.07.2022
294 Clear 25 1016 70 10000 3.09 300 12:44 23.07.2022
295 Clear 26 1015 66 10000 4.12 240 10:45 23.07.2022
296 Clear 26 1014 67 10000 4.12 240 09:54 23.07.2022
297 Clear 27 1014 62 10000 4.47 360 08:31 23.07.2022
298 Clear 28 1013 58 10000 1.54 320 03:38 23.07.2022
299 Clouds 30 1011 53 10000 7.6 332 00:41 23.07.2022
300 Clear 34 1011 40 10000 7.2 180 22:32 22.07.2022
301 Clear 35 1011 35 10000 4.47 200 20:51 22.07.2022
302 Clouds 34 1012 32 10000 5.14 250 19:34 22.07.2022
303 Clear 33 1013 37 10000 4.47 275 18:28 22.07.2022
304 Clouds 31 1012 46 10000 5.36 283 16:49 22.07.2022
305 Clear 29 1011 56 10000 3.6 220 14:51 22.07.2022
306 Clear 26 1009 67 10000 2.57 320 11:22 22.07.2022
307 Clear 27 1008 62 10000 4.12 300 09:25 22.07.2022
308 Clear 28 1007 61 10000 3.6 240 08:29 22.07.2022
309 Clear 30 1007 50 10000 6.17 260 05:19 22.07.2022
310 Clouds 34 1003 43 10000 8.05 274 00:48 22.07.2022
311 Clouds 34 1003 51 10000 9.26 250 22:25 21.07.2022
312 Clouds 34 1003 55 10000 8.23 250 21:33 21.07.2022
313 Clear 34 1003 57 10000 8.75 160 19:27 21.07.2022
314 Clouds 33 1005 59 10000 5.66 250 17:41 21.07.2022
315 Clouds 32 1005 60 10000 5.66 250 17:19 21.07.2022
316 Clouds 32 1005 60 10000 5.66 250 17:19 21.07.2022
317 Clear 29 1005 72 10000 4.63 230 15:22 21.07.2022
318 Clear 28 1005 75 10000 5.14 220 14:37 21.07.2022
319 Clear 25 1004 80 10000 3.6 150 12:28 21.07.2022
320 Clear 25 1004 79 10000 3.13 164 11:19 21.07.2022
321 Clear 26 1005 72 10000 4.12 210 09:38 21.07.2022
322 Clear 26 1005 72 10000 3.13 169 08:52 21.07.2022
323 Clear 27 1006 71 10000 3.6 200 07:50 21.07.2022
324 Clear 28 1006 64 10000 6.17 210 06:24 21.07.2022
325 Clear 33 1005 50 10000 7.15 168 00:48 21.07.2022
326 Clouds 34 1006 46 10000 6.17 180 22:22 20.07.2022
327 Clouds 35 1007 45 10000 9.26 160 21:30 20.07.2022
328 Clear 35 1008 45 10000 4.12 190 19:54 20.07.2022
329 Clear 35 1008 44 10000 5.66 260 19:25 20.07.2022
330 Clear 35 1008 47 10000 0.45 138 18:52 20.07.2022
331 Clear 34 1008 47 10000 2.06 300 18:27 20.07.2022
332 Clear 31 1009 56 10000 3.6 310 16:46 20.07.2022
333 Clear 30 1009 58 10000 4.12 310 15:32 20.07.2022
334 Clear 28 1009 64 10000 3.09 330 14:26 20.07.2022
335 Clear 25 1008 69 10000 3.09 230 12:34 20.07.2022
336 Clear 25 1008 67 10000 4.12 240 10:24 20.07.2022
337 Clear 29 1009 56 10000 6.26 229 05:44 20.07.2022
338 Clouds 33 1006 46 10000 8.05 283 00:54 20.07.2022
339 Clouds 33 1007 45 10000 6.71 283 00:36 20.07.2022
340 Clear 33 1007 44 10000 8.05 279 22:35 19.07.2022
341 Clouds 33 1007 44 10000 4.92 292 21:53 19.07.2022
342 Clear 33 1008 43 10000 7.6 270 20:49 19.07.2022
343 Clear 32 1008 45 10000 5.66 250 19:22 19.07.2022
344 Clear 31 1009 47 10000 5.66 250 18:35 19.07.2022
345 Clear 30 1009 53 10000 6.71 292 17:53 19.07.2022
346 Clouds 26 1009 69 10000 6.69 260 15:26 19.07.2022
347 Clear 24 1009 79 10000 5.14 240 13:33 19.07.2022
348 Clear 23 1008 80 10000 6.69 250 11:32 19.07.2022
349 Clear 23 1007 81 10000 5.36 238 09:51 19.07.2022
350 Clear 24 1008 82 10000 5.36 349 08:46 19.07.2022
351 Clouds 24 1008 82 10000 6.26 359 07:46 19.07.2022
352 Clouds 24 1008 82 10000 6.26 327 07:18 19.07.2022
353 Clouds 25 1007 80 10000 8.94 342 05:18 19.07.2022
354 Mist 26 1007 84 10000 5.81 174 02:38 19.07.2022
355 Mist 26 1008 82 10000 5.14 10 23:57 18.07.2022
356 Mist 26 1008 84 10000 7.2 130 23:20 18.07.2022
357 Clouds 26 1009 83 10000 6.69 50 22:27 18.07.2022
358 Rain 27 1010 79 10000 4.63 50 21:24 18.07.2022
359 Clouds 28 1010 76 10000 9.26 190 20:45 18.07.2022
360 Thunderstorm 27 1013 78 10000 6.71 134 18:50 18.07.2022
361 Mist 26 1013 83 10000 4.63 40 16:45 18.07.2022
362 Mist 25 1014 87 10000 3.6 60 15:34 18.07.2022
363 Clouds 24 1015 85 10000 3.6 150 13:40 18.07.2022
364 Thunderstorm 24 1015 85 10000 2.57 170 12:21 18.07.2022
365 Clouds 24 1015 83 10000 0.89 150 09:56 18.07.2022
366 Clouds 25 1016 80 10000 2.06 170 08:19 18.07.2022
367 Clouds 25 1016 77 10000 2.24 305 06:39 18.07.2022
368 Clear 28 1015 69 10000 5.66 140 23:19 17.07.2022
369 Clear 28 1017 65 10000 4.12 150 22:32 17.07.2022
370 Clear 29 1017 62 10000 4.12 190 21:43 17.07.2022
371 Clouds 29 1016 62 10000 4.12 150 20:46 17.07.2022
372 Clouds 29 1016 62 10000 4.12 150 20:18 17.07.2022
373 Clouds 29 1016 63 10000 4.63 170 19:26 17.07.2022
374 Clouds 28 1017 66 10000 3.09 140 18:22 17.07.2022
375 Clouds 27 1017 69 10000 3.09 240 17:37 17.07.2022
376 Clouds 26 1017 70 10000 1.54 200 16:50 17.07.2022
377 Clouds 26 1017 72 10000 2.57 290 16:25 17.07.2022
378 Clouds 24 1017 78 10000 2.06 220 14:32 17.07.2022
379 Clouds 22 1017 81 10000 2.06 270 13:28 17.07.2022
380 Rain 22 1016 82 10000 2.24 172 10:59 17.07.2022
381 Clouds 23 1017 80 10000 5.14 240 08:50 17.07.2022
382 Clear 24 1017 82 10000 3.58 138 03:43 17.07.2022
383 Clouds 25 1017 81 10000 4.12 180 02:21 17.07.2022
384 Clouds 26 1016 70 10000 4.92 136 23:20 16.07.2022
385 Clouds 27 1017 73 10000 3.6 150 21:25 16.07.2022
386 Clouds 28 1019 63 10000 5.14 50 19:25 16.07.2022
387 Clear 28 1019 67 10000 4.12 60 18:27 16.07.2022
388 Clouds 26 1020 73 10000 4.12 50 16:31 16.07.2022
389 Smoke 23 1020 82 10000 4.02 37 13:47 16.07.2022
390 Clouds 22 1020 86 10000 0.89 320 10:53 16.07.2022
391 Clouds 22 1020 85 10000 3.09 190 09:33 16.07.2022
392 Clouds 22 1020 84 10000 2.06 180 08:43 16.07.2022
393 Clouds 22 1020 84 10000 3.13 156 08:19 16.07.2022
394 Clouds 23 1020 79 10000 4.02 146 03:58 16.07.2022
395 Clear 24 1020 72 10000 5.14 170 02:40 16.07.2022
396 Clear 28 1020 56 10000 4.12 160 23:30 15.07.2022
397 Clear 28 1020 50 10000 5.81 177 22:40 15.07.2022
398 Clear 29 1020 47 10000 5.14 150 21:29 15.07.2022
399 Clouds 28 1021 46 10000 4.12 140 20:26 15.07.2022
400 Clouds 28 1021 46 10000 5.14 50 18:40 15.07.2022
401 Clouds 27 1021 47 10000 5.14 50 17:38 15.07.2022
402 Clouds 23 1020 61 10000 6.17 10 14:54 15.07.2022
403 Clouds 22 1019 60 10000 4.02 15 12:58 15.07.2022
404 Clouds 22 1019 59 10000 4.63 20 11:27 15.07.2022
405 Clouds 23 1019 56 10000 5.36 21 09:44 15.07.2022
406 Clouds 25 1018 52 10000 4.63 360 06:30 15.07.2022
407 Clouds 30 1014 44 10000 4.02 338 00:58 15.07.2022
408 Clouds 30 1014 42 10000 6.17 310 00:21 15.07.2022
409 Clouds 31 1014 44 10000 4.47 28 22:52 14.07.2022
410 Clouds 31 1015 43 10000 2.68 312 21:51 14.07.2022
411 Clouds 31 1014 42 10000 4.63 290 21:30 14.07.2022
412 Clouds 31 1015 46 10000 3.09 50 20:45 14.07.2022
413 Clouds 31 1014 46 10000 3.58 319 20:24 14.07.2022
414 Clear 30 1015 47 10000 4.12 330 19:19 14.07.2022
415 Clear 27 1014 63 10000 4.47 49 16:23 14.07.2022
416 Clear 26 1014 66 10000 4.12 50 15:50 14.07.2022
417 Clouds 24 1014 72 10000 4.12 10 14:43 14.07.2022
418 Clouds 23 1014 77 10000 4.63 20 13:32 14.07.2022
419 Clear 22 1013 78 10000 4.63 360 12:18 14.07.2022
420 Clear 22 1013 77 10000 4.63 50 11:25 14.07.2022
421 Clear 23 1013 75 10000 4.63 60 10:39 14.07.2022
422 Clear 24 1012 73 10000 3.6 40 08:21 14.07.2022
423 Clear 26 1012 67 10000 6.17 180 03:36 14.07.2022
424 Clear 29 1011 53 10000 6.71 169 00:54 14.07.2022
425 Clear 31 1012 47 10000 5.66 170 23:38 13.07.2022
426 Clouds 32 1011 39 10000 5.66 260 22:26 13.07.2022
427 Clear 32 1011 38 10000 4.12 280 21:32 13.07.2022
428 Clouds 32 1012 36 10000 5.66 280 20:38 13.07.2022
429 Clear 30 1012 42 10000 1.79 160 17:59 13.07.2022
430 Clear 30 1013 43 10000 2.57 310 17:20 13.07.2022
431 Clear 28 1013 50 10000 4.47 46 15:59 13.07.2022
432 Clear 25 1011 65 10000 3.13 356 13:50 13.07.2022
433 Clear 24 1010 74 10000 3.6 10 11:30 13.07.2022
434 Clear 24 1009 77 10000 3.09 340 10:44 13.07.2022
435 Clear 25 1009 73 10000 5.36 310 09:29 13.07.2022
436 Clear 25 1009 73 10000 2.68 276 08:23 13.07.2022
437 Clear 27 1007 61 10000 4.63 260 04:36 13.07.2022
438 Clear 29 1005 49 10000 9.26 240 00:47 13.07.2022
439 Clouds 31 1006 55 10000 8.05 214 22:47 12.07.2022
440 Clouds 32 1006 54 10000 8.23 220 21:49 12.07.2022
441 Clouds 32 1006 54 10000 7.2 240 20:53 12.07.2022
442 Clouds 32 1007 54 10000 7.2 240 20:21 12.07.2022
443 Clear 30 1007 56 10000 5.66 210 18:51 12.07.2022
444 Clear 28 1008 60 10000 7.2 210 17:23 12.07.2022
445 Clear 25 1009 70 10000 6.69 240 15:32 12.07.2022
446 Clouds 22 1010 83 10000 5.14 240 13:43 12.07.2022
447 Clouds 21 1010 85 10000 6.69 220 11:55 12.07.2022
448 Clear 21 1010 81 10000 4.63 200 10:45 12.07.2022
449 Clear 21 1011 76 10000 5.81 182 09:18 12.07.2022
450 Clear 21 1011 70 10000 4.12 240 07:55 12.07.2022
451 Clear 22 1011 64 10000 3.58 181 05:53 12.07.2022
452 Clear 22 1011 63 10000 7.2 200 05:34 12.07.2022
453 Clear 25 1011 56 10000 9.39 168 01:36 12.07.2022
454 Clear 28 1012 50 10000 9.39 153 22:50 11.07.2022
455 Clear 29 1013 49 10000 6.69 170 21:37 11.07.2022
456 Clear 28 1014 46 10000 7.72 160 20:33 11.07.2022
457 Clear 28 1014 45 10000 5.66 190 19:32 11.07.2022
458 Clear 28 1015 47 10000 4.63 200 18:31 11.07.2022
459 Clear 27 1015 48 10000 4.63 260 17:31 11.07.2022
460 Clear 24 1016 57 10000 4.12 250 15:34 11.07.2022
461 Clear 21 1016 73 10000 3.09 210 13:37 11.07.2022
462 Clear 19 1016 79 10000 2.57 250 11:38 11.07.2022
463 Clear 19 1016 79 10000 4.12 220 10:18 11.07.2022
464 Clouds 19 1016 78 10000 3.58 198 09:41 11.07.2022
465 Clear 20 1016 78 10000 4.12 220 08:33 11.07.2022
466 Clear 22 1017 67 10000 5.81 159 03:23 11.07.2022
467 Clear 26 1016 52 10000 6.69 190 00:20 11.07.2022
468 Clouds 27 1018 50 10000 3.09 140 22:56 10.07.2022
469 Clouds 27 1018 45 10000 4.63 230 21:41 10.07.2022
470 Clouds 28 1018 41 10000 5.14 40 20:47 10.07.2022
471 Clear 27 1018 42 10000 5.66 40 19:50 10.07.2022
472 Clear 27 1019 43 10000 5.14 40 18:48 10.07.2022
473 Clear 25 1019 47 10000 5.66 40 17:37 10.07.2022
474 Clear 24 1019 48 10000 5.66 60 16:45 10.07.2022
475 Clear 22 1019 50 10000 4.63 60 15:28 10.07.2022
476 Clear 21 1019 51 10000 6.26 66 14:21 10.07.2022
477 Clear 19 1018 68 10000 6.17 20 12:29 10.07.2022
478 Clouds 19 1018 65 10000 6.71 357 11:20 10.07.2022
479 Clouds 21 1017 62 10000 2.57 50 08:45 10.07.2022
480 Clear 21 1017 66 10000 2.57 20 07:39 10.07.2022
481 Clear 24 1017 56 10000 5.14 180 02:47 10.07.2022
482 Clouds 28 1016 47 10000 3.09 240 22:51 09.07.2022
483 Clouds 29 1016 44 10000 4.12 150 22:24 09.07.2022
484 Clear 29 1017 44 10000 3.6 250 21:28 09.07.2022
485 Clouds 28 1017 48 10000 5.14 60 18:43 09.07.2022
486 Clear 27 1018 52 10000 5.66 20 17:48 09.07.2022
487 Clear 26 1017 56 10000 5.66 20 16:58 09.07.2022
488 Clear 25 1017 61 10000 5.81 32 15:42 09.07.2022
489 Clear 24 1017 64 10000 7.15 39 14:44 09.07.2022
490 Clouds 23 1017 68 10000 6.17 50 13:51 09.07.2022
491 Clear 22 1016 70 10000 5.36 350 12:53 09.07.2022
492 Clear 22 1016 76 10000 4.92 17 11:33 09.07.2022
493 Clear 22 1016 85 10000 2.06 10 10:23 09.07.2022
494 Clouds 22 1015 86 10000 1.34 360 07:54 09.07.2022
495 Clouds 22 1016 85 10000 3.09 190 06:58 09.07.2022
496 Clouds 23 1016 80 10000 3.09 0 04:34 09.07.2022
497 Rain 26 1014 74 10000 4.12 170 23:18 08.07.2022
498 Rain 28 1014 64 10000 6.69 200 21:59 08.07.2022
499 Clear 28 1015 61 10000 4.63 190 20:59 08.07.2022
500 Clear 28 1015 62 10000 4.63 190 20:25 08.07.2022
501 Clouds 27 1016 63 10000 5.66 270 18:32 08.07.2022
502 Clear 26 1017 64 10000 2.57 0 17:33 08.07.2022
503 Clear 23 1016 80 10000 3.58 203 14:55 08.07.2022
504 Fog 22 1016 80 10000 3.6 50 14:29 08.07.2022
505 Fog 20 1016 86 10000 2.57 40 12:28 08.07.2022
506 Clear 19 1015 86 10000 2.06 60 10:45 08.07.2022
507 Clear 20 1016 85 10000 2.06 270 08:55 08.07.2022
508 Clear 21 1016 82 10000 1.54 170 06:55 08.07.2022
509 Clear 22 1016 74 10000 4.47 106 03:22 08.07.2022
510 Clouds 26 1015 61 10000 8.05 122 23:45 07.07.2022
511 Clear 26 1015 61 10000 6.26 143 22:45 07.07.2022
512 Clouds 27 1015 58 10000 7.15 153 20:59 07.07.2022
513 Clouds 26 1017 56 10000 6.71 125 18:43 07.07.2022
514 Clouds 26 1016 61 10000 6.71 104 17:41 07.07.2022
515 Clouds 24 1016 68 10000 4.63 60 15:34 07.07.2022
516 Clouds 23 1015 72 10000 4.12 50 13:30 07.07.2022
517 Clouds 22 1015 73 10000 5.14 40 12:40 07.07.2022
518 Clouds 22 1015 72 10000 5.14 40 12:21 07.07.2022
519 Clouds 23 1015 71 10000 5.36 46 11:31 07.07.2022
520 Clouds 23 1014 71 10000 4.92 79 10:44 07.07.2022
521 Clouds 23 1014 69 10000 5.81 102 10:26 07.07.2022
522 Clear 24 1014 62 10000 3.13 64 07:58 07.07.2022
523 Clouds 26 1013 61 10000 3.6 50 04:44 07.07.2022
524 Clouds 29 1010 50 10000 6.71 321 23:37 06.07.2022
525 Clouds 30 1011 49 10000 2.24 0 23:19 06.07.2022
526 Clouds 30 1011 49 10000 2.24 0 23:19 06.07.2022
527 Clouds 30 1011 49 10000 2.24 0 22:57 06.07.2022
528 Clouds 30 1011 48 10000 5.66 330 22:39 06.07.2022
529 Clouds 30 1011 49 10000 7.2 300 21:46 06.07.2022
530 Clouds 29 1011 52 10000 5.66 260 19:41 06.07.2022
531 Clear 29 1010 53 10000 6.69 330 18:32 06.07.2022
532 Clouds 28 1010 61 10000 6.17 330 16:43 06.07.2022
533 Clouds 27 1010 69 10000 7.6 321 15:28 06.07.2022
534 Mist 24 1009 86 10000 7.6 360 12:44 06.07.2022
535 Clouds 23 1009 86 10000 5.81 244 11:49 06.07.2022
536 Clouds 23 1008 85 10000 4.47 271 10:22 06.07.2022
537 Clouds 23 1009 82 10000 5.14 210 08:41 06.07.2022
538 Clouds 23 1009 81 10000 6.17 220 07:39 06.07.2022
539 Clouds 23 1010 79 10000 5.14 200 05:37 06.07.2022
540 Clouds 25 1013 65 10000 8.23 180 22:49 05.07.2022
541 Clouds 26 1013 64 10000 8.23 180 22:27 05.07.2022
542 Clear 28 1015 50 10000 7.72 180 20:42 05.07.2022
543 Clear 29 1016 49 10000 8.23 160 19:44 05.07.2022
544 Clear 30 1016 46 10000 8.23 160 19:26 05.07.2022
545 Clear 30 1017 46 10000 6.17 190 17:48 05.07.2022
546 Clear 29 1017 47 10000 6.17 190 17:18 05.07.2022
547 Clear 26 1018 60 10000 4.12 230 15:39 05.07.2022
548 Clear 24 1019 60 10000 4.12 230 14:39 05.07.2022
549 Clear 22 1019 65 10000 4.47 174 12:52 05.07.2022
550 Clear 21 1019 63 10000 3.58 182 12:21 05.07.2022
551 Clear 21 1019 60 10000 2.57 220 10:45 05.07.2022
552 Clear 22 1019 58 10000 2.57 200 09:32 05.07.2022
553 Clear 22 1019 55 10000 3.58 220 08:19 05.07.2022
554 Clear 23 1020 54 10000 3.6 200 06:22 05.07.2022
555 Clear 24 1020 51 10000 3.6 170 04:28 05.07.2022
556 Clear 28 1019 39 10000 5.66 250 00:43 05.07.2022
557 Clear 29 1020 35 10000 5.66 230 23:36 04.07.2022
558 Clear 29 1020 33 10000 4.63 300 22:54 04.07.2022
559 Clear 29 1019 33 10000 1.34 192 21:56 04.07.2022
560 Clear 29 1020 32 10000 4.12 210 20:54 04.07.2022
561 Clear 29 1020 30 10000 5.14 280 20:35 04.07.2022
562 Clear 29 1020 31 10000 2.24 342 19:56 04.07.2022
563 Clear 29 1021 31 10000 4.12 340 19:36 04.07.2022
564 Clear 28 1021 33 10000 3.6 40 18:34 04.07.2022
565 Clear 26 1022 36 10000 3.6 40 16:36 04.07.2022
566 Clear 24 1022 42 10000 2.68 354 15:34 04.07.2022
567 Clear 20 1021 51 10000 3.09 340 13:41 04.07.2022
568 Clear 19 1020 54 10000 4.02 318 12:38 04.07.2022
569 Clear 20 1019 50 10000 4.92 330 10:39 04.07.2022
570 Clear 20 1019 49 10000 3.6 340 10:18 04.07.2022
571 Clear 21 1019 45 10000 4.63 340 08:31 04.07.2022
572 Clear 24 1018 38 10000 5.66 320 05:34 04.07.2022
573 Clear 29 1016 37 10000 6.17 320 00:43 04.07.2022
574 Clear 30 1016 37 10000 5.66 310 23:27 03.07.2022
575 Clear 30 1016 34 10000 5.14 340 22:23 03.07.2022
576 Clear 30 1016 35 10000 4.63 270 20:42 03.07.2022
577 Clouds 30 1016 39 10000 6.69 360 19:42 03.07.2022
578 Clouds 29 1017 40 10000 6.69 360 19:23 03.07.2022
579 Clear 27 1017 51 10000 5.36 30 17:45 03.07.2022
580 Clouds 26 1017 57 10000 5.36 41 16:58 03.07.2022
581 Clouds 25 1017 65 10000 4.47 53 15:25 03.07.2022
582 Clouds 24 1016 67 10000 3.09 10 14:37 03.07.2022
583 Clouds 24 1016 65 10000 3.09 60 13:49 03.07.2022
584 Clouds 24 1016 66 10000 3.6 50 12:42 03.07.2022
585 Clouds 24 1014 70 10000 6.17 50 11:40 03.07.2022
586 Clouds 24 1015 74 10000 3.6 40 10:40 03.07.2022
587 Clouds 24 1014 75 10000 4.92 37 10:20 03.07.2022
588 Clouds 25 1014 69 10000 2.06 100 07:37 03.07.2022
589 Clouds 25 1013 70 10000 3.09 10 05:26 03.07.2022
590 Clouds 31 1012 55 10000 8.23 230 00:25 03.07.2022
591 Clouds 31 1012 58 10000 5.14 290 22:36 02.07.2022
592 Clouds 31 1012 56 10000 6.17 270 21:43 02.07.2022
593 Clouds 31 1012 53 10000 4.63 260 20:21 02.07.2022
594 Clear 31 1013 53 10000 4.63 260 19:49 02.07.2022
595 Clouds 30 1013 59 10000 4.02 277 17:59 02.07.2022
596 Clear 30 1013 59 10000 4.63 260 17:37 02.07.2022
597 Clouds 27 1013 76 10000 4.63 240 15:37 02.07.2022
598 Clouds 25 1013 80 10000 4.02 179 12:56 02.07.2022
599 Clear 25 1012 78 10000 4.02 171 11:48 02.07.2022
600 Clouds 25 1012 77 10000 5.14 230 10:50 02.07.2022
601 Clear 25 1012 75 10000 4.63 210 09:49 02.07.2022
602 Clouds 25 1012 74 10000 6.17 210 08:37 02.07.2022
603 Clouds 25 1012 72 10000 6.17 210 08:19 02.07.2022
604 Clear 27 1014 61 10000 4.12 250 02:53 02.07.2022
605 Clouds 31 1014 52 10000 7.72 220 00:27 02.07.2022
606 Thunderstorm 33 1014 47 10000 7.2 240 22:59 01.07.2022
607 Clouds 33 1014 43 10000 6.69 250 22:29 01.07.2022
608 Clear 33 1015 44 10000 6.69 210 21:37 01.07.2022
609 Clouds 33 1015 46 10000 3.6 240 20:58 01.07.2022
610 Clouds 33 1016 47 10000 6.17 250 20:20 01.07.2022
611 Clouds 32 1016 52 10000 5.66 230 19:36 01.07.2022
612 Clouds 29 1018 66 10000 5.66 230 16:41 01.07.2022
613 Haze 25 1018 77 10000 3.6 210 14:31 01.07.2022
614 Clear 24 1019 79 10000 4.12 250 13:39 01.07.2022
615 Clear 22 1019 79 10000 4.02 208 10:54 01.07.2022
616 Clear 22 1019 76 10000 3.09 230 10:19 01.07.2022
617 Fog 23 1020 62 10000 2.68 187 07:32 01.07.2022
618 Clear 25 1020 62 10000 5.14 180 02:43 01.07.2022
619 Clear 30 1020 44 10000 3.6 220 23:52 30.06.2022
620 Clouds 30 1021 41 10000 5.14 270 22:51 30.06.2022
621 Clouds 30 1021 39 10000 6.69 250 22:32 30.06.2022
622 Clouds 31 1020 39 10000 6.69 250 22:32 30.06.2022
623 Clouds 30 1020 39 10000 5.66 320 21:54 30.06.2022
624 Clear 30 1021 38 10000 6.69 270 20:49 30.06.2022
625 Clear 30 1021 38 10000 6.69 270 20:21 30.06.2022
626 Clear 29 1022 40 10000 5.66 340 19:48 30.06.2022
627 Clouds 29 1022 42 10000 1.34 254 18:56 30.06.2022
628 Clear 28 1022 43 10000 6.17 230 18:22 30.06.2022
629 Clear 28 1023 44 10000 5.66 260 17:34 30.06.2022
630 Clear 26 1023 49 10000 3.6 320 16:22 30.06.2022
631 Clear 23 1023 60 10000 4.12 30 14:20 30.06.2022
632 Clear 21 1023 65 10000 3.6 360 13:29 30.06.2022
633 Clouds 20 1022 70 10000 3.09 10 12:34 30.06.2022
634 Clouds 20 1022 74 10000 2.57 200 11:23 30.06.2022
635 Clear 21 1021 74 10000 4.12 250 09:52 30.06.2022
636 Clear 21 1021 74 10000 4.12 250 09:29 30.06.2022
637 Clouds 22 1022 71 10000 5.14 230 07:41 30.06.2022
638 Clear 22 1021 71 10000 3.6 200 05:47 30.06.2022
639 Clear 26 1021 50 10000 6.69 170 00:27 30.06.2022
640 Clouds 27 1021 48 10000 7.2 180 23:19 29.06.2022
641 Clear 28 1021 45 10000 7.2 170 22:38 29.06.2022
642 Clear 29 1022 41 10000 4.63 220 21:34 29.06.2022
643 Clear 29 1023 38 10000 5.14 240 20:33 29.06.2022
644 Clear 28 1023 37 10000 4.12 230 19:36 29.06.2022
645 Clear 27 1023 42 10000 5.14 230 17:42 29.06.2022
646 Clear 26 1024 47 10000 4.63 270 16:36 29.06.2022
647 Clear 23 1024 61 10000 1.79 208 14:56 29.06.2022
648 Clear 18 1023 79 10000 2.06 230 12:40 29.06.2022
649 Clear 18 1023 74 10000 1.54 200 10:56 29.06.2022
650 Clear 18 1023 74 10000 2.57 230 09:32 29.06.2022
651 Clear 19 1023 73 10000 1.54 210 07:39 29.06.2022
652 Clouds 21 1022 66 10000 1.34 156 04:51 29.06.2022
653 Clouds 25 1020 45 10000 3.58 53 00:58 29.06.2022
654 Clear 25 1021 44 10000 4.12 40 00:36 29.06.2022
655 Clouds 26 1020 41 10000 3.58 46 22:54 28.06.2022
656 Clouds 26 1021 41 10000 4.12 330 22:30 28.06.2022
657 Clouds 26 1021 42 10000 2.68 288 21:54 28.06.2022
658 Clouds 26 1021 41 10000 4.12 320 21:32 28.06.2022
659 Clouds 25 1021 42 10000 3.6 310 20:44 28.06.2022
660 Clouds 25 1021 43 10000 6.17 340 19:34 28.06.2022
661 Clouds 25 1022 43 10000 2.68 22 18:53 28.06.2022
662 Clear 24 1021 44 10000 5.14 330 17:40 28.06.2022
663 Clear 22 1021 47 10000 5.66 10 16:21 28.06.2022
664 Clouds 21 1020 49 10000 5.14 360 15:42 28.06.2022
665 Clouds 20 1021 53 10000 4.92 4 14:21 28.06.2022
666 Clouds 19 1020 55 10000 4.02 340 13:54 28.06.2022
667 Clouds 19 1019 59 10000 4.92 360 12:57 28.06.2022
668 Clouds 19 1018 59 10000 5.14 350 11:18 28.06.2022
669 Fog 19 1018 65 10000 4.02 355 09:36 28.06.2022
670 Fog 20 1017 71 10000 4.63 20 08:44 28.06.2022
671 Fog 20 1017 78 10000 3.58 342 07:43 28.06.2022
672 Fog 20 1017 79 10000 4.47 317 07:19 28.06.2022
673 Clouds 23 1014 79 10000 3.09 270 01:32 28.06.2022
674 Mist 23 1014 83 9656 1.54 90 23:44 27.06.2022
675 Clouds 23 1013 84 10000 1.34 211 22:54 27.06.2022
676 Mist 22 1013 86 3219 4.12 350 21:38 27.06.2022
677 Mist 23 1014 84 6437 5.81 296 20:54 27.06.2022
678 Mist 24 1014 80 8047 4.12 220 19:40 27.06.2022
679 Rain 24 1014 80 4828 6.17 230 18:33 27.06.2022
680 Mist 24 1014 83 6437 5.66 220 16:37 27.06.2022
681 Rain 24 1014 77 10000 7.2 230 15:42 27.06.2022
682 Clouds 23 1014 79 10000 6.17 230 13:39 27.06.2022
683 Clouds 23 1014 79 10000 4.47 163 12:57 27.06.2022
684 Clouds 23 1014 75 10000 7.72 200 10:41 27.06.2022
685 Clouds 23 1015 72 10000 6.69 190 09:37 27.06.2022
686 Clouds 23 1016 69 10000 7.2 210 08:32 27.06.2022
687 Clouds 23 1016 67 10000 6.17 180 07:38 27.06.2022
688 Clear 25 1017 54 10000 5.66 190 04:21 27.06.2022
689 Clear 28 1016 49 10000 8.05 160 01:20 27.06.2022
690 Clear 30 1016 48 10000 8.23 170 22:47 26.06.2022
691 Clear 31 1017 46 10000 6.71 143 20:55 26.06.2022
692 Clouds 31 1018 45 10000 2.68 188 19:59 26.06.2022
693 Clear 31 1019 45 10000 5.66 240 18:33 26.06.2022
694 Smoke 30 1019 51 10000 5.14 250 17:37 26.06.2022
695 Clear 27 1020 64 10000 3.6 220 15:31 26.06.2022
696 Clear 24 1020 75 10000 2.68 277 13:55 26.06.2022
697 Clear 23 1020 76 10000 2.57 220 13:23 26.06.2022
698 Clear 22 1019 78 10000 3.6 220 11:39 26.06.2022
699 Clear 22 1019 77 10000 3.6 220 10:30 26.06.2022
700 Clear 22 1019 75 10000 3.6 200 09:45 26.06.2022
701 Clear 23 1019 74 10000 3.13 360 07:47 26.06.2022
702 Clear 25 1019 65 10000 4.12 170 04:29 26.06.2022
703 Clear 30 1018 48 10000 7.72 160 00:36 26.06.2022
704 Clear 30 1019 46 10000 7.72 160 00:18 26.06.2022
705 Clear 31 1019 40 10000 4.63 170 23:25 25.06.2022
706 Clear 32 1019 35 10000 3.09 50 22:28 25.06.2022
707 Clear 32 1020 38 10000 2.24 355 21:52 25.06.2022
708 Clear 32 1019 35 10000 3.6 330 21:20 25.06.2022
709 Clear 32 1019 34 10000 4.12 300 20:32 25.06.2022
710 Clouds 32 1019 38 10000 0.89 300 19:56 25.06.2022
711 Clear 30 1019 44 10000 4.12 320 18:22 25.06.2022
712 Clear 29 1020 47 10000 2.68 58 17:26 25.06.2022
713 Clear 28 1020 54 10000 3.6 30 16:25 25.06.2022
714 Clear 24 1019 70 10000 2.57 300 14:29 25.06.2022
715 Fog 20 1019 85 10000 1.54 0 12:45 25.06.2022
716 Fog 20 1018 85 10000 2.57 210 11:39 25.06.2022
717 Fog 21 1017 81 10000 2.24 276 09:24 25.06.2022
718 Fog 21 1017 80 10000 3.6 230 08:49 25.06.2022
719 Fog 21 1017 79 10000 4.47 360 08:20 25.06.2022
720 Fog 22 1017 78 10000 1.79 360 06:33 25.06.2022
721 Clear 25 1016 70 10000 7.72 160 00:44 25.06.2022
722 Clear 25 1016 70 10000 7.72 160 00:44 25.06.2022
723 Clouds 25 1016 66 10000 6.69 160 23:46 24.06.2022
724 Clear 26 1016 63 10000 5.66 150 22:22 24.06.2022
725 Clouds 27 1016 56 10000 3.6 250 21:22 24.06.2022
726 Clear 27 1016 56 10000 3.13 299 20:23 24.06.2022
727 Clouds 26 1016 58 10000 4.12 280 19:24 24.06.2022
728 Clouds 26 1016 62 10000 3.09 250 18:51 24.06.2022
729 Clouds 25 1017 61 10000 3.09 250 18:31 24.06.2022
730 Clear 24 1017 64 10000 3.6 270 17:47 24.06.2022
731 Clear 23 1017 68 10000 2.06 0 16:45 24.06.2022
732 Clear 23 1017 68 10000 2.06 0 16:45 24.06.2022
733 Mist 19 1017 83 8047 2.06 290 14:30 24.06.2022
734 Mist 19 1017 87 6437 1.79 306 13:58 24.06.2022
735 Mist 19 1017 87 6437 1.79 306 13:58 24.06.2022
736 Mist 18 1016 89 4828 2.57 320 12:49 24.06.2022
737 Mist 17 1016 90 6437 1.34 311 11:40 24.06.2022
738 Mist 17 1016 90 6437 1.54 310 10:34 24.06.2022
739 Fog 18 1016 89 10000 2.24 292 09:41 24.06.2022
740 Fog 18 1015 89 10000 1.34 281 08:53 24.06.2022
741 Fog 18 1015 88 10000 1.54 320 07:56 24.06.2022
742 Clear 18 1015 88 10000 0.89 169 06:42 24.06.2022
743 Clear 18 1015 86 10000 1.54 130 06:20 24.06.2022
744 Mist 19 1016 85 9656 2.24 197 04:41 24.06.2022
745 Clouds 22 1014 68 10000 4.12 130 23:19 23.06.2022
746 Clouds 22 1014 69 10000 4.12 120 22:40 23.06.2022
747 Clouds 22 1014 68 10000 6.26 125 20:59 23.06.2022
748 Clouds 22 1016 65 10000 5.66 60 20:36 23.06.2022
749 Clouds 23 1016 64 10000 4.63 50 19:40 23.06.2022
750 Clouds 21 1015 71 10000 6.26 135 17:54 23.06.2022
751 Clouds 21 1015 70 10000 5.66 40 17:33 23.06.2022
752 Clouds 21 1014 71 10000 5.66 120 16:23 23.06.2022
753 Clouds 20 1014 78 10000 7.15 127 15:25 23.06.2022
754 Clouds 18 1014 89 10000 4.12 110 13:46 23.06.2022
755 Mist 17 1014 90 10000 4.47 103 11:33 23.06.2022
756 Clouds 16 1014 92 10000 4.92 94 10:40 23.06.2022
757 Clouds 16 1015 90 10000 3.6 70 09:19 23.06.2022
758 Clouds 17 1015 90 10000 6.71 114 03:51 23.06.2022
759 Mist 17 1016 90 6437 5.81 77 00:27 23.06.2022
760 Mist 18 1016 88 6437 5.81 82 23:49 22.06.2022
761 Mist 18 1016 88 9656 5.36 106 22:53 22.06.2022
762 Mist 18 1017 86 4828 5.36 116 21:28 22.06.2022
763 Clouds 18 1016 83 10000 5.36 134 20:48 22.06.2022
764 Clouds 19 1017 81 10000 5.36 142 20:18 22.06.2022
765 Clouds 19 1017 80 10000 6.69 160 18:57 22.06.2022
766 Clouds 19 1017 80 10000 5.66 130 17:31 22.06.2022
767 Clouds 19 1017 80 10000 6.17 170 16:40 22.06.2022
768 Clouds 19 1017 79 10000 6.17 140 15:28 22.06.2022
769 Clouds 19 1017 79 10000 8.05 142 14:41 22.06.2022
770 Clouds 19 1017 83 10000 7.6 128 13:46 22.06.2022
771 Clouds 19 1016 84 10000 8.49 139 13:24 22.06.2022
772 Clouds 19 1016 84 10000 5.36 120 11:50 22.06.2022
773 Clouds 19 1017 84 10000 6.26 360 11:50 22.06.2022
774 Clouds 19 1016 83 10000 5.36 134 10:58 22.06.2022
775 Drizzle 19 1017 83 10000 5.36 360 10:36 22.06.2022
776 Clouds 19 1017 86 10000 3.58 124 08:57 22.06.2022
777 Clouds 19 1018 84 10000 3.13 360 06:39 22.06.2022
778 Clouds 21 1018 76 10000 5.81 109 01:52 22.06.2022
779 Clouds 22 1019 64 10000 3.99 150 00:56 22.06.2022
780 Clouds 25 1018 43 10000 4.63 60 22:40 21.06.2022
781 Clear 26 1020 40 10000 3.6 50 20:40 21.06.2022
782 Clear 25 1020 40 10000 5.14 60 19:20 21.06.2022
783 Clear 24 1021 45 10000 3.09 40 17:47 21.06.2022
784 Clear 23 1021 49 10000 3.6 40 16:36 21.06.2022
785 Clouds 18 1020 61 10000 1.34 295 11:56 21.06.2022
786 Clear 18 1019 58 10000 2.24 279 10:38 21.06.2022
787 Clear 18 1019 56 10000 2.06 300 09:20 21.06.2022
788 Clear 19 1019 52 10000 2.06 350 07:44 21.06.2022
789 Clear 21 1019 49 10000 3.09 140 04:43 21.06.2022
790 Clear 26 1018 29 10000 4.12 310 00:23 21.06.2022
791 Clear 26 1019 28 10000 6.69 340 22:21 20.06.2022
792 Clear 27 1019 28 10000 6.69 340 22:21 20.06.2022
793 Clear 26 1019 29 10000 6.69 300 21:37 20.06.2022
794 Clear 25 1019 29 10000 6.17 310 20:29 20.06.2022
795 Clear 25 1020 30 10000 3.09 320 19:36 20.06.2022
796 Clear 24 1020 33 10000 6.69 320 18:26 20.06.2022
797 Clouds 23 1020 38 10000 5.66 310 17:49 20.06.2022
798 Clear 21 1020 45 10000 6.17 300 16:36 20.06.2022
799 Clear 20 1020 48 10000 4.12 310 15:30 20.06.2022
800 Clear 15 1020 56 10000 4.63 300 12:32 20.06.2022
801 Clear 15 1019 55 10000 5.66 300 10:21 20.06.2022
802 Clear 15 1019 55 10000 5.66 300 10:21 20.06.2022
803 Clear 15 1019 54 10000 2.24 360 08:56 20.06.2022
804 Clear 16 1018 51 10000 3.58 330 07:52 20.06.2022
805 Clouds 18 1018 43 10000 6.17 320 05:21 20.06.2022
806 Clear 22 1014 31 10000 7.2 340 01:33 20.06.2022
807 Clear 23 1013 31 10000 9.26 330 00:19 20.06.2022
808 Clear 23 1013 31 10000 11.62 307 22:43 19.06.2022
809 Clear 23 1013 31 10000 11.62 296 21:48 19.06.2022
810 Clear 23 1013 31 10000 9.26 320 21:29 19.06.2022
811 Clear 22 1013 32 10000 10.29 310 20:30 19.06.2022
812 Clear 22 1014 35 10000 9.26 300 19:46 19.06.2022
813 Clouds 20 1014 39 10000 10.29 330 18:43 19.06.2022
814 Clouds 19 1014 43 10000 9.77 300 17:48 19.06.2022
815 Clouds 18 1014 45 10000 9.77 300 17:21 19.06.2022
816 Clear 17 1014 49 10000 6.26 300 16:34 19.06.2022
817 Clouds 16 1014 52 10000 7.2 320 15:38 19.06.2022
818 Clear 15 1014 55 10000 7.15 321 14:56 19.06.2022
819 Clear 14 1014 56 10000 6.69 320 14:19 19.06.2022
820 Clear 13 1013 55 10000 7.2 320 12:56 19.06.2022
821 Clear 13 1013 54 10000 7.6 314 10:54 19.06.2022
822 Clear 14 1012 55 10000 8.23 320 09:40 19.06.2022
823 Clouds 14 1012 58 10000 5.36 360 08:47 19.06.2022
824 Clear 14 1012 61 10000 4.02 293 07:59 19.06.2022
825 Clouds 15 1012 60 10000 5.14 350 05:36 19.06.2022
826 Clouds 17 1010 56 10000 11.32 340 01:29 19.06.2022
827 Clouds 17 1009 55 10000 11.18 316 00:24 19.06.2022
828 Clouds 18 1008 55 10000 14.31 309 23:36 18.06.2022
829 Clouds 19 1007 55 10000 11.18 307 22:36 18.06.2022
830 Clouds 20 1006 54 10000 12.96 304 20:57 18.06.2022
831 Clouds 20 1006 52 10000 11.62 314 20:38 18.06.2022
832 Clouds 20 1006 51 10000 9.77 330 19:38 18.06.2022
833 Clouds 20 1006 51 10000 11.18 317 18:45 18.06.2022
834 Clouds 19 1006 51 10000 10.8 310 17:35 18.06.2022
835 Clouds 20 1005 50 10000 10.73 300 16:47 18.06.2022
836 Clouds 20 1005 56 10000 9.77 330 15:33 18.06.2022
837 Clear 20 1005 57 10000 11.62 295 14:45 18.06.2022
838 Clear 20 1004 55 10000 10.28 295 13:23 18.06.2022
839 Clear 20 1003 53 10000 9.83 307 11:45 18.06.2022
840 Clear 22 1003 52 10000 7.2 300 10:47 18.06.2022
841 Clear 23 1003 47 10000 7.2 290 09:27 18.06.2022
842 Clear 23 1003 47 10000 8.75 290 08:30 18.06.2022
843 Clear 23 1003 46 10000 8.75 290 08:30 18.06.2022
844 Clear 23 1003 47 10000 5.66 310 06:49 18.06.2022
845 Clouds 26 1003 41 10000 5.66 340 03:46 18.06.2022
846 Clouds 30 1003 39 10000 8.94 302 01:26 18.06.2022
847 Clouds 30 1003 39 10000 8.94 302 01:26 18.06.2022
848 Clouds 31 1003 39 10000 9.39 296 00:48 18.06.2022
849 Clouds 31 1003 40 10000 6.26 315 23:58 17.06.2022
850 Clouds 31 1002 40 10000 8.23 310 23:24 17.06.2022
851 Clouds 32 1002 38 10000 9.83 291 21:27 17.06.2022
852 Clear 32 1004 39 10000 12.07 288 20:24 17.06.2022
853 Clouds 31 1005 58 10000 8.05 264 18:52 17.06.2022
854 Mist 29 1006 67 10000 5.14 220 17:46 17.06.2022
855 Mist 27 1007 75 10000 6.69 250 16:43 17.06.2022
856 Mist 26 1007 78 10000 6.69 250 16:18 17.06.2022
857 Mist 24 1008 84 10000 5.66 230 15:34 17.06.2022
858 Clouds 22 1008 86 10000 4.12 220 14:21 17.06.2022
859 Clouds 22 1009 86 10000 4.63 210 13:48 17.06.2022
860 Clouds 22 1008 86 10000 4.63 210 13:26 17.06.2022
861 Clouds 21 1009 85 10000 2.24 181 11:58 17.06.2022
862 Clouds 21 1010 84 10000 3.09 200 11:39 17.06.2022
863 Clouds 21 1010 84 10000 3.58 162 11:21 17.06.2022
864 Clouds 21 1012 84 10000 4.63 190 08:33 17.06.2022
865 Clouds 21 1011 85 10000 3.13 167 07:53 17.06.2022
866 Clouds 21 1013 84 10000 3.6 180 06:34 17.06.2022
867 Clouds 21 1015 83 10000 7.72 190 03:24 17.06.2022
868 Clouds 21 1016 82 10000 11.18 161 00:46 17.06.2022
869 Clouds 21 1016 79 10000 10.28 150 23:30 16.06.2022
870 Clouds 22 1017 76 10000 9.39 153 22:38 16.06.2022
871 Clouds 22 1017 76 10000 9.39 153 22:38 16.06.2022
872 Clouds 22 1019 74 10000 7.2 160 21:19 16.06.2022
873 Clouds 22 1019 74 10000 6.69 180 20:50 16.06.2022
874 Clouds 22 1020 75 10000 4.63 190 19:59 16.06.2022
875 Clouds 21 1021 76 10000 5.36 164 18:51 16.06.2022
876 Clouds 20 1021 81 10000 7.2 210 17:50 16.06.2022
877 Clouds 20 1021 83 10000 7.72 190 17:27 16.06.2022
878 Clouds 19 1022 87 10000 3.6 190 16:20 16.06.2022
879 Clouds 18 1022 88 10000 6.26 186 15:21 16.06.2022
880 Rain 18 1023 86 10000 6.26 160 14:27 16.06.2022
881 Clouds 19 1024 76 2816 4.47 311 12:56 16.06.2022
882 Clouds 20 1022 75 10000 4.12 170 12:34 16.06.2022
883 Clouds 19 1021 76 10000 3.58 153 11:48 16.06.2022
884 Clouds 19 1021 76 10000 3.6 180 10:42 16.06.2022
885 Clouds 19 1021 75 10000 4.12 180 09:43 16.06.2022
886 Clouds 19 1021 75 10000 4.12 180 09:19 16.06.2022
887 Clouds 19 1022 75 10000 2.24 188 07:57 16.06.2022
888 Clear 19 1022 75 10000 4.12 180 06:49 16.06.2022
889 Clear 20 1021 77 10000 6.26 154 04:27 16.06.2022
890 Clear 21 1020 74 10000 6.71 150 01:53 16.06.2022
891 Clear 22 1020 69 10000 6.71 155 01:32 16.06.2022
892 Clear 22 1020 67 10000 8.23 170 00:31 16.06.2022
893 Clear 24 1019 66 10000 7.72 180 23:23 15.06.2022
894 Clear 25 1020 63 10000 6.71 152 21:59 15.06.2022
895 Clear 26 1020 58 10000 5.81 154 21:20 15.06.2022
896 Clear 26 1020 57 10000 6.26 167 20:38 15.06.2022
897 Clear 26 1020 55 10000 6.17 140 20:18 15.06.2022
898 Clear 27 1020 49 10000 3.09 0 18:51 15.06.2022
899 Clear 27 1019 51 10000 2.06 50 17:55 15.06.2022
900 Clear 26 1019 50 10000 4.12 70 16:38 15.06.2022
901 Clear 24 1018 53 10000 5.81 64 15:26 15.06.2022
902 Clear 22 1017 65 10000 3.6 20 13:43 15.06.2022
903 Clear 20 1017 71 10000 3.13 37 12:53 15.06.2022
904 Clear 19 1016 72 10000 4.02 26 11:48 15.06.2022
905 Clear 19 1016 70 10000 2.06 20 10:23 15.06.2022
906 Clear 20 1015 68 10000 3.58 37 09:38 15.06.2022
907 Clear 21 1015 66 10000 2.06 320 08:27 15.06.2022
908 Clear 22 1015 61 10000 2.06 260 06:33 15.06.2022
909 Clear 24 1013 56 10000 3.09 40 03:30 15.06.2022
910 Clear 26 1012 49 10000 5.36 17 01:53 15.06.2022
911 Clear 28 1012 42 10000 4.92 23 00:50 15.06.2022
912 Clear 28 1012 39 10000 4.12 360 23:39 14.06.2022
913 Clouds 28 1013 40 10000 2.68 331 22:56 14.06.2022
914 Clear 28 1012 40 10000 3.6 360 22:18 14.06.2022
915 Clear 28 1013 41 10000 3.6 10 21:28 14.06.2022
916 Clear 27 1013 41 10000 2.68 0 20:48 14.06.2022
917 Clear 27 1013 41 10000 2.57 220 20:28 14.06.2022
918 Clear 25 1013 46 10000 3.6 40 18:54 14.06.2022
919 Drizzle 23 1013 52 10000 5.14 60 17:39 14.06.2022
920 Drizzle 22 1014 55 10000 4.12 50 16:43 14.06.2022
921 Clear 21 1014 57 10000 5.66 20 15:50 14.06.2022
922 Clouds 20 1014 58 10000 4.92 25 14:57 14.06.2022
923 Clear 20 1014 59 10000 5.14 50 14:30 14.06.2022
924 Clear 20 1014 57 10000 4.12 20 13:40 14.06.2022
925 Clear 20 1013 55 10000 4.47 24 12:42 14.06.2022
926 Clouds 20 1013 53 10000 5.36 29 11:31 14.06.2022
927 Clouds 21 1013 52 10000 4.47 32 10:47 14.06.2022
928 Clouds 21 1013 49 10000 5.36 26 09:48 14.06.2022
929 Clear 22 1013 46 10000 4.92 19 08:46 14.06.2022
930 Clear 23 1013 42 10000 4.63 350 07:31 14.06.2022
931 Clear 24 1013 41 10000 3.6 330 05:19 14.06.2022
932 Clear 27 1012 51 10000 2.68 32 02:49 14.06.2022
933 Clouds 29 1011 56 10000 5.14 310 00:32 14.06.2022
934 Clear 29 1011 60 10000 4.12 160 23:27 13.06.2022
935 Clear 29 1012 57 10000 5.66 300 22:26 13.06.2022
936 Clouds 29 1012 62 10000 5.14 160 21:49 13.06.2022
937 Clouds 28 1012 63 10000 4.12 160 20:42 13.06.2022
938 Clouds 28 1012 60 10000 4.63 70 19:34 13.06.2022
939 Clear 28 1014 61 10000 2.24 276 18:25 13.06.2022
940 Clouds 27 1013 64 10000 2.68 0 17:46 13.06.2022
941 Clouds 26 1013 69 10000 2.24 164 16:52 13.06.2022
942 Clear 25 1013 75 10000 1.54 0 15:39 13.06.2022
943 Mist 23 1013 80 9656 2.68 205 14:47 13.06.2022
944 Fog 21 1013 88 10000 2.57 250 13:54 13.06.2022
945 Fog 20 1012 90 10000 2.06 210 12:49 13.06.2022
946 Mist 20 1012 91 10000 1.54 260 11:34 13.06.2022
947 Mist 20 1012 90 10000 4.92 236 10:27 13.06.2022
948 Mist 20 1013 90 10000 3.58 215 09:42 13.06.2022
949 Clouds 20 1013 89 10000 5.14 220 08:24 13.06.2022
950 Clouds 20 1013 87 10000 4.02 131 06:33 13.06.2022
951 Clouds 21 1013 85 10000 3.6 180 03:28 13.06.2022
952 Clouds 22 1013 82 10000 5.66 170 01:38 13.06.2022
953 Clouds 22 1013 80 10000 5.66 170 00:22 13.06.2022
954 Clouds 22 1013 78 10000 5.66 170 23:31 12.06.2022
955 Clouds 22 1014 78 10000 6.71 165 22:23 12.06.2022
956 Clouds 22 1014 77 10000 8.49 156 21:39 12.06.2022
957 Clouds 22 1014 76 10000 4.63 170 20:40 12.06.2022
958 Clouds 21 1015 83 10000 6.69 190 19:41 12.06.2022
959 Mist 19 1015 89 10000 7.2 190 18:44 12.06.2022
960 Rain 18 1015 88 10000 5.36 189 16:44 12.06.2022
961 Clouds 18 1015 86 10000 5.36 134 15:32 12.06.2022
962 Rain 18 1016 83 10000 5.14 180 14:41 12.06.2022
963 Rain 18 1016 81 10000 9.39 181 14:18 12.06.2022
964 Clouds 19 1015 76 10000 4.02 221 13:43 12.06.2022
965 Clouds 18 1015 77 10000 1.56 218 11:58 12.06.2022
966 Clear 18 1015 76 10000 2.57 200 10:46 12.06.2022
967 Clear 18 1015 75 10000 2.57 250 09:36 12.06.2022
968 Clear 18 1015 74 10000 4.12 230 08:49 12.06.2022
969 Clear 18 1015 72 10000 4.63 220 07:49 12.06.2022
970 Clear 19 1014 70 10000 4.63 220 06:21 12.06.2022
971 Clouds 21 1014 59 10000 4.63 210 03:38 12.06.2022
972 Clouds 22 1013 59 10000 3.6 200 01:49 12.06.2022
973 Clouds 22 1013 60 10000 4.47 184 01:29 12.06.2022
974 Clouds 22 1012 63 10000 3.6 170 00:43 12.06.2022
975 Clouds 22 1012 63 10000 5.36 172 00:18 12.06.2022
976 Clouds 22 1012 63 10000 4.02 155 22:58 11.06.2022
977 Rain 22 1013 61 10000 4.47 162 22:31 11.06.2022
978 Clouds 23 1014 52 10000 2.57 60 21:18 11.06.2022
979 Clouds 23 1014 52 10000 2.57 60 21:18 11.06.2022
980 Clouds 24 1013 46 10000 5.14 60 20:26 11.06.2022
981 Clouds 24 1013 51 10000 3.6 290 19:33 11.06.2022
982 Clouds 24 1013 51 10000 3.6 290 19:33 11.06.2022
983 Clouds 23 1013 55 10000 3.09 70 18:43 11.06.2022
984 Clouds 23 1014 54 10000 3.58 52 18:25 11.06.2022
985 Clear 23 1014 53 10000 3.6 50 17:47 11.06.2022
986 Clear 23 1014 53 10000 3.6 50 17:25 11.06.2022
987 Clear 23 1014 53 10000 3.6 40 16:42 11.06.2022
988 Clouds 23 1013 55 10000 0.89 210 15:57 11.06.2022
989 Clear 21 1013 60 10000 4.12 50 14:43 11.06.2022
990 Clear 20 1013 64 10000 4.12 50 13:50 11.06.2022
991 Clouds 18 1012 68 10000 0.89 345 11:55 11.06.2022
992 Clear 19 1012 62 10000 2.06 80 10:30 11.06.2022
993 Clouds 20 1012 60 10000 3.09 40 09:41 11.06.2022
994 Clear 21 1012 57 10000 1.54 200 08:37 11.06.2022
995 Clear 21 1012 53 10000 2.68 360 06:33 11.06.2022
996 Clear 22 1012 48 10000 2.06 290 05:33 11.06.2022
997 Clear 23 1011 44 10000 3.09 260 02:55 11.06.2022
998 Clouds 24 1011 40 10000 4.63 300 01:41 11.06.2022
999 Clouds 25 1010 39 10000 4.02 293 00:55 11.06.2022
1000 Clouds 26 1010 37 10000 6.17 300 23:25 10.06.2022
1001 Clouds 26 1010 36 10000 7.72 270 22:20 10.06.2022
1002 Clouds 26 1010 36 10000 7.72 310 21:27 10.06.2022
1003 Clear 26 1010 37 10000 6.69 250 20:37 10.06.2022
1004 Clear 26 1010 37 10000 6.69 250 20:19 10.06.2022
1005 Clear 26 1010 37 10000 6.69 250 20:19 10.06.2022
1006 Clouds 25 1011 39 10000 6.69 270 19:19 10.06.2022
1007 Clear 24 1011 42 10000 6.17 280 18:30 10.06.2022
1008 Clear 23 1011 46 10000 5.66 320 17:43 10.06.2022
1009 Clear 23 1011 46 10000 5.66 320 17:21 10.06.2022
1010 Clear 22 1011 51 10000 5.66 290 16:26 10.06.2022
1011 Clear 21 1011 56 10000 5.14 320 15:38 10.06.2022
1012 Clear 19 1010 65 10000 5.81 304 13:58 10.06.2022
1013 Clear 17 1010 69 10000 4.47 235 12:57 10.06.2022
1014 Clear 16 1009 68 10000 5.66 290 11:59 10.06.2022
1015 Clear 17 1009 67 10000 5.14 300 10:45 10.06.2022
1016 Clear 17 1009 66 10000 4.47 360 09:56 10.06.2022
1017 Clear 18 1009 63 10000 5.66 300 08:47 10.06.2022
1018 Clear 18 1009 60 10000 5.66 320 07:31 10.06.2022
1019 Clear 19 1009 58 10000 8.75 310 06:45 10.06.2022
1020 Clear 19 1009 57 10000 8.75 310 06:26 10.06.2022
1021 Clouds 21 1008 55 10000 8.23 310 04:37 10.06.2022
1022 Clouds 24 1006 49 10000 8.49 302 01:59 10.06.2022
1023 Clouds 25 1005 48 10000 10.29 320 01:36 10.06.2022
1024 Clouds 26 1003 47 10000 10.28 288 23:57 09.06.2022
1025 Clouds 27 1003 49 10000 9.39 265 22:22 09.06.2022
1026 Clouds 27 1003 49 10000 10.29 250 21:37 09.06.2022
1027 Clear 27 1002 48 10000 8.94 289 20:58 09.06.2022
1028 Clouds 28 1002 46 10000 11.32 260 20:26 09.06.2022
1029 Clouds 28 1002 48 10000 12.07 276 19:31 09.06.2022
1030 Clouds 28 1002 48 10000 12.07 276 19:31 09.06.2022
1031 Clouds 28 1002 52 10000 10.8 260 18:34 09.06.2022
1032 Clouds 26 1002 62 10000 8.23 240 17:18 09.06.2022
1033 Clouds 25 1002 72 10000 7.6 284 16:21 09.06.2022
1034 Clouds 22 1002 87 10000 6.69 220 14:39 09.06.2022
1035 Clouds 22 1002 90 10000 5.81 141 13:55 09.06.2022
1036 Mist 21 1002 91 10000 5.81 201 13:29 09.06.2022
1037 Clouds 21 1002 92 10000 6.69 190 12:46 09.06.2022
1038 Rain 21 1003 92 10000 8.05 160 11:19 09.06.2022
1039 Rain 21 1005 92 10000 4.92 110 09:50 09.06.2022
1040 Rain 21 1005 92 10000 5.36 110 09:31 09.06.2022
1041 Rain 21 1007 90 6437 4.92 103 08:21 09.06.2022
1042 Rain 21 1008 86 10000 4.47 123 07:23 09.06.2022
1043 Clear 23 1010 75 10000 2.57 170 03:28 09.06.2022
1044 Clear 28 1010 38 10000 5.14 280 23:55 08.06.2022
1045 Clouds 29 1010 40 10000 4.02 282 22:59 08.06.2022
1046 Clear 29 1011 39 10000 6.17 260 22:27 08.06.2022
1047 Clouds 29 1011 41 10000 5.81 271 21:59 08.06.2022
1048 Clear 29 1011 40 10000 6.17 250 21:31 08.06.2022
1049 Clear 28 1011 43 10000 6.71 249 20:24 08.06.2022
1050 Clouds 28 1012 46 10000 6.69 260 19:40 08.06.2022
1051 Clouds 27 1012 52 10000 6.71 293 18:48 08.06.2022
1052 Clouds 26 1012 58 10000 6.17 260 17:35 08.06.2022
1053 Clouds 24 1011 70 10000 3.58 285 15:53 08.06.2022
1054 Clouds 22 1012 83 10000 5.14 250 14:31 08.06.2022
1055 Mist 21 1011 89 10000 4.92 268 12:46 08.06.2022
1056 Mist 20 1011 89 10000 5.81 360 11:35 08.06.2022
1057 Clouds 20 1011 89 10000 4.12 250 10:46 08.06.2022
1058 Mist 20 1011 89 10000 5.36 360 09:28 08.06.2022
1059 Clouds 20 1012 89 10000 5.14 190 08:52 08.06.2022
1060 Rain 19 1013 90 10000 7.2 180 06:43 08.06.2022
1061 Rain 20 1014 85 10000 9.26 170 04:41 08.06.2022
1062 Clouds 22 1014 74 10000 10.73 150 00:58 08.06.2022
1063 Clear 22 1015 71 10000 10.29 190 23:32 07.06.2022
1064 Clear 23 1015 68 10000 9.83 147 22:51 07.06.2022
1065 Clear 23 1015 65 10000 10.28 154 22:33 07.06.2022
1066 Clear 24 1015 64 10000 10.29 180 21:39 07.06.2022
1067 Clear 24 1016 63 10000 10.29 180 21:20 07.06.2022
1068 Clear 25 1016 60 10000 10.8 180 20:40 07.06.2022
1069 Clouds 26 1016 57 10000 8.94 158 19:51 07.06.2022
1070 Clear 25 1017 59 10000 7.2 170 18:25 07.06.2022
1071 Clear 24 1017 61 10000 7.72 180 17:33 07.06.2022
1072 Clear 23 1018 63 10000 6.69 200 16:44 07.06.2022
1073 Clouds 23 1017 65 10000 5.36 157 15:58 07.06.2022
1074 Clouds 22 1018 65 10000 5.14 180 15:36 07.06.2022
1075 Clouds 22 1018 66 10000 5.14 180 15:18 07.06.2022
1076 Clouds 21 1018 68 10000 5.66 210 14:42 07.06.2022
1077 Clear 19 1018 70 10000 4.02 360 13:38 07.06.2022
1078 Clear 18 1018 70 10000 3.6 200 13:20 07.06.2022
1079 Clear 16 1018 67 10000 2.06 270 11:55 07.06.2022
1080 Clear 17 1018 61 10000 4.12 190 10:48 07.06.2022
1081 Clouds 18 1018 54 10000 4.47 203 08:58 07.06.2022
1082 Clear 18 1018 49 10000 5.14 210 08:22 07.06.2022
1083 Clear 20 1018 46 10000 5.66 200 06:42 07.06.2022
1084 Clear 21 1018 48 10000 5.36 210 04:47 07.06.2022
1085 Clear 23 1017 42 10000 7.6 152 01:28 07.06.2022
1086 Clear 25 1017 38 10000 8.05 147 23:59 06.06.2022
1087 Clear 26 1017 37 10000 8.49 152 22:56 06.06.2022
1088 Clear 26 1017 36 10000 7.6 153 22:30 06.06.2022
1089 Clear 27 1018 32 10000 6.17 190 21:18 06.06.2022
1090 Clear 27 1019 32 10000 4.63 190 19:29 06.06.2022
1091 Clear 26 1019 34 10000 3.13 360 18:53 06.06.2022
1092 Clear 26 1018 35 10000 3.09 230 18:32 06.06.2022
1093 Clear 25 1018 36 10000 2.57 0 17:27 06.06.2022
1094 Clear 23 1018 41 10000 2.57 240 16:21 06.06.2022
1095 Clear 22 1017 44 10000 2.24 255 15:33 06.06.2022
1096 Clear 22 1017 44 10000 2.24 255 15:33 06.06.2022
1097 Clear 20 1017 49 10000 2.57 250 14:36 06.06.2022
1098 Clear 18 1017 58 10000 3.09 270 13:26 06.06.2022
1099 Clear 17 1017 54 10000 2.57 260 12:36 06.06.2022
1100 Clear 16 1017 56 10000 3.09 280 11:53 06.06.2022
1101 Clear 16 1016 51 10000 3.6 270 10:46 06.06.2022
1102 Clear 17 1016 50 10000 2.24 360 09:40 06.06.2022
1103 Clear 17 1016 49 10000 2.57 250 08:33 06.06.2022
1104 Clear 17 1016 50 10000 2.57 250 07:28 06.06.2022
1105 Clear 18 1016 49 10000 3.09 230 05:29 06.06.2022
1106 Clear 18 1016 49 10000 3.09 230 05:29 06.06.2022
1107 Clear 19 1015 47 10000 4.12 180 03:44 06.06.2022
1108 Clear 22 1015 42 10000 5.36 177 01:23 06.06.2022
1109 Clear 23 1015 38 10000 5.66 150 00:42 06.06.2022
1110 Clear 24 1015 34 10000 5.14 160 23:44 05.06.2022
1111 Clear 25 1015 33 10000 5.81 186 22:52 05.06.2022
1112 Clouds 24 1015 33 10000 3.58 169 20:59 05.06.2022
1113 Clear 24 1016 32 10000 4.63 30 19:50 05.06.2022
1114 Clear 23 1017 32 10000 3.6 360 18:30 05.06.2022
1115 Clear 23 1017 32 10000 3.6 360 18:30 05.06.2022
1116 Clear 23 1017 34 10000 2.57 210 17:55 05.06.2022
1117 Clear 22 1017 34 10000 4.63 40 17:27 05.06.2022
1118 Clouds 21 1017 36 10000 1.34 324 16:57 05.06.2022
1119 Clouds 21 1017 36 10000 4.47 36 16:37 05.06.2022
1120 Clouds 21 1017 36 10000 4.47 36 16:37 05.06.2022
1121 Clear 18 1016 43 10000 4.02 34 14:34 05.06.2022
1122 Clouds 15 1015 51 10000 2.24 37 12:59 05.06.2022
1123 Clear 15 1015 51 10000 3.6 70 11:49 05.06.2022
1124 Clear 15 1014 49 10000 3.6 60 10:43 05.06.2022
1125 Clear 16 1014 48 10000 4.02 39 10:22 05.06.2022
1126 Clear 18 1013 41 10000 5.66 360 08:41 05.06.2022
1127 Clear 18 1013 39 10000 5.66 360 08:20 05.06.2022
1128 Clear 20 1012 48 10000 3.09 360 05:23 05.06.2022
1129 Clear 21 1011 59 10000 3.6 330 04:30 05.06.2022
1130 Clear 23 1010 61 10000 4.12 150 01:45 05.06.2022
1131 Clear 23 1010 59 10000 4.12 150 01:45 05.06.2022
1132 Clear 25 1010 50 10000 5.66 330 01:22 05.06.2022
1133 Clear 25 1010 50 10000 5.66 330 01:22 05.06.2022
1134 Clouds 27 1010 41 10000 6.69 180 22:44 04.06.2022
1135 Clear 27 1011 41 10000 2.68 196 20:55 04.06.2022
1136 Clear 26 1012 41 10000 3.09 0 18:54 04.06.2022
1137 Clear 24 1012 41 10000 3.09 60 16:47 04.06.2022
1138 Clear 24 1012 43 10000 3.09 60 16:19 04.06.2022
1139 Clear 22 1012 53 10000 3.6 70 15:27 04.06.2022
1140 Clouds 19 1013 66 10000 3.13 24 13:54 04.06.2022
1141 Clear 16 1011 70 10000 1.79 269 11:23 04.06.2022
1142 Clouds 16 1011 71 10000 0.89 360 10:52 04.06.2022
1143 Clear 17 1012 64 10000 2.06 30 09:46 04.06.2022
1144 Clear 18 1011 59 10000 1.54 330 08:44 04.06.2022
1145 Clear 18 1011 58 10000 3.6 20 07:59 04.06.2022
1146 Clear 19 1010 56 10000 3.13 27 06:20 04.06.2022
1147 Clear 21 1009 63 10000 4.12 170 02:56 04.06.2022
1148 Clear 23 1008 68 10000 4.12 210 00:20 04.06.2022
1149 Clear 24 1008 68 10000 5.14 170 22:49 03.06.2022
1150 Clouds 24 1008 67 10000 4.12 160 21:43 03.06.2022
1151 Clouds 24 1008 70 10000 3.6 210 20:40 03.06.2022
1152 Clouds 23 1008 72 10000 3.09 150 19:19 03.06.2022
1153 Clouds 21 1008 79 10000 4.12 40 16:54 03.06.2022
1154 Clouds 20 1008 86 10000 2.68 105 15:51 03.06.2022
1155 Mist 18 1007 93 6437 3.58 41 13:51 03.06.2022
1156 Mist 18 1007 93 4828 5.66 50 11:54 03.06.2022
1157 Mist 19 1006 92 4023 6.17 40 09:56 03.06.2022
1158 Mist 19 1006 92 3219 6.17 40 09:29 03.06.2022
1159 Mist 19 1007 91 2816 2.57 40 07:43 03.06.2022
1160 Mist 19 1007 90 3219 2.57 80 06:49 03.06.2022
1161 Mist 19 1007 90 2816 2.57 80 06:27 03.06.2022
1162 Mist 21 1007 87 6437 2.06 50 02:58 03.06.2022
1163 Mist 22 1006 86 6437 7.72 360 23:39 02.06.2022
1164 Clouds 24 1004 73 4719 4.92 176 21:58 02.06.2022
1165 Clouds 26 1007 67 10000 3.6 40 20:38 02.06.2022
1166 Clouds 26 1007 67 10000 2.68 214 19:55 02.06.2022
1167 Clouds 26 1007 68 10000 2.57 150 19:37 02.06.2022
1168 Clouds 25 1007 72 10000 2.57 220 18:39 02.06.2022
1169 Clouds 22 1007 80 10000 2.24 136 16:28 02.06.2022
1170 Clouds 21 1008 84 10000 3.6 210 15:47 02.06.2022
1171 Mist 18 1009 91 9656 4.63 270 13:31 02.06.2022
1172 Mist 18 1008 94 8047 3.6 250 12:49 02.06.2022
1173 Mist 17 1007 93 6437 2.68 360 10:36 02.06.2022
1174 Mist 17 1008 95 2816 5.66 260 09:30 02.06.2022
1175 Mist 17 1009 93 4023 7.15 282 08:44 02.06.2022
1176 Mist 17 1009 93 4023 3.6 230 08:23 02.06.2022
1177 Mist 16 1010 92 8047 6.26 360 06:21 02.06.2022
1178 Rain 16 1012 91 9656 3.09 240 03:50 02.06.2022
1179 Mist 17 1012 84 9656 4.47 119 00:55 02.06.2022
1180 Clouds 18 1013 76 10000 5.14 50 22:58 01.06.2022
1181 Clouds 19 1013 75 10000 5.14 50 22:18 01.06.2022
1182 Clouds 20 1013 73 10000 5.14 40 21:24 01.06.2022
1183 Clouds 20 1014 70 10000 6.17 50 20:38 01.06.2022
1184 Clouds 20 1014 69 10000 3.6 160 19:52 01.06.2022
1185 Clouds 20 1014 70 10000 5.66 40 18:37 01.06.2022
1186 Clouds 19 1015 75 10000 4.12 40 16:58 01.06.2022
1187 Clouds 17 1016 78 10000 5.14 40 15:45 01.06.2022
1188 Clouds 17 1016 80 10000 5.14 40 14:50 01.06.2022
1189 Clouds 16 1015 81 10000 4.12 40 13:26 01.06.2022
1190 Clouds 16 1014 83 10000 7.72 50 11:23 01.06.2022
1191 Clouds 17 1015 81 10000 8.23 40 09:30 01.06.2022
1192 Clouds 18 1014 79 10000 6.71 51 08:19 01.06.2022
1193 Clear 19 1013 77 10000 6.17 40 07:20 01.06.2022
1194 Thunderstorm 24 1012 65 10000 7.2 50 04:53 01.06.2022
1195 Clouds 33 1012 37 10000 6.17 340 23:50 31.05.2022
1196 Clouds 34 1012 34 10000 5.14 270 22:43 31.05.2022
1197 Clouds 34 1012 36 10000 5.14 270 22:25 31.05.2022
1198 Clear 34 1012 35 10000 6.17 340 21:44 31.05.2022
1199 Clear 35 1013 36 10000 5.66 300 20:44 31.05.2022
1200 Clear 35 1013 37 10000 5.66 300 20:44 31.05.2022
1201 Clear 35 1013 37 10000 5.66 300 20:44 31.05.2022
1202 Clear 34 1014 39 10000 5.66 300 19:46 31.05.2022
1203 Clear 33 1014 41 10000 7.2 310 18:33 31.05.2022
1204 Clear 32 1014 41 10000 8.75 330 17:46 31.05.2022
1205 Clear 31 1015 46 10000 8.23 330 16:48 31.05.2022
1206 Clear 29 1015 53 10000 5.36 305 15:40 31.05.2022
1207 Clear 24 1016 71 10000 6.69 290 13:37 31.05.2022
1208 Clear 23 1016 74 10000 4.92 221 12:19 31.05.2022
1209 Clear 23 1015 77 10000 6.26 218 10:52 31.05.2022
1210 Clear 24 1016 73 10000 6.26 360 08:37 31.05.2022
1211 Clear 24 1016 70 10000 4.47 360 06:52 31.05.2022
1212 Clear 25 1017 65 10000 3.6 180 04:34 31.05.2022
1213 Clear 29 1017 51 10000 7.72 160 23:53 30.05.2022
1214 Clear 29 1017 50 10000 7.72 160 23:25 30.05.2022
1215 Clear 29 1017 48 10000 6.69 170 22:44 30.05.2022
1216 Clouds 30 1017 48 10000 6.17 180 21:47 30.05.2022
1217 Clouds 30 1018 47 10000 6.17 180 21:29 30.05.2022
1218 Clear 30 1019 47 10000 3.09 220 19:51 30.05.2022
1219 Clear 29 1019 50 10000 4.12 230 18:34 30.05.2022
1220 Clear 27 1020 53 10000 4.63 280 17:23 30.05.2022
1221 Clear 26 1020 57 10000 3.09 250 16:39 30.05.2022
1222 Fog 19 1020 80 10000 3.13 360 13:44 30.05.2022
1223 Fog 17 1019 86 10000 1.54 250 12:19 30.05.2022
1224 Clear 17 1019 82 10000 1.54 260 10:26 30.05.2022
1225 Clear 17 1019 80 10000 2.06 280 09:19 30.05.2022
1226 Clear 18 1019 69 10000 5.36 360 06:30 30.05.2022
1227 Clear 19 1019 69 10000 5.36 360 05:47 30.05.2022
1228 Clear 22 1018 64 10000 5.14 170 01:32 30.05.2022
1229 Clear 25 1018 46 10000 4.12 160 22:54 29.05.2022
1230 Clear 25 1018 47 10000 4.12 160 22:36 29.05.2022
1231 Clouds 25 1019 48 10000 2.24 294 20:53 29.05.2022
1232 Clear 24 1019 49 10000 3.13 233 19:31 29.05.2022
1233 Clouds 24 1019 51 10000 2.57 250 18:44 29.05.2022
1234 Clouds 23 1018 55 10000 2.57 250 17:31 29.05.2022
1235 Clear 21 1018 64 10000 2.06 280 15:48 29.05.2022
1236 Clouds 19 1018 67 10000 2.24 276 14:57 29.05.2022
1237 Clear 18 1017 71 10000 1.34 39 13:52 29.05.2022
1238 Clear 15 1015 78 10000 2.06 330 11:41 29.05.2022
1239 Clear 16 1015 77 10000 2.57 330 10:38 29.05.2022
1240 Clear 17 1014 74 10000 3.6 290 08:51 29.05.2022
1241 Clear 19 1013 71 10000 3.13 293 05:54 29.05.2022
1242 Clouds 20 1012 73 10000 3.6 290 04:45 29.05.2022
1243 Clouds 21 1011 75 10000 3.6 320 03:47 29.05.2022
1244 Clouds 23 1008 69 10000 4.63 260 23:50 28.05.2022
1245 Clouds 22 1008 70 10000 4.63 260 23:26 28.05.2022
1246 Rain 22 1008 73 10000 9.26 260 22:39 28.05.2022
1247 Clear 23 1007 68 10000 7.2 300 21:38 28.05.2022
1248 Clouds 20 1007 82 10000 6.17 310 19:49 28.05.2022
1249 Thunderstorm 24 1006 73 10000 8.23 290 18:54 28.05.2022
1250 Clouds 23 1006 76 10000 3.58 159 17:37 28.05.2022
1251 Clouds 22 1006 84 10000 3.09 220 16:43 28.05.2022
1252 Clouds 21 1006 89 10000 2.57 190 15:43 28.05.2022
1253 Rain 20 1006 89 10000 3.6 230 14:28 28.05.2022
1254 Clouds 19 1006 91 10000 2.57 220 12:57 28.05.2022
1255 Clouds 19 1006 91 10000 3.6 240 12:35 28.05.2022
1256 Mist 19 1005 92 10000 5.81 360 11:22 28.05.2022
1257 Clouds 19 1005 92 10000 4.92 360 10:21 28.05.2022
1258 Clouds 18 1006 93 10000 2.06 280 09:22 28.05.2022
1259 Rain 18 1007 94 6437 6.17 170 07:23 28.05.2022
1260 Clouds 19 1008 90 10000 4.63 170 06:26 28.05.2022
1261 Clouds 19 1010 89 10000 5.14 180 03:48 28.05.2022
1262 Clouds 20 1010 88 10000 4.92 162 00:33 28.05.2022
1263 Thunderstorm 20 1011 86 6437 7.72 240 23:32 27.05.2022
1264 Clouds 24 1011 71 10000 7.72 160 21:50 27.05.2022
1265 Clouds 24 1011 71 10000 7.72 160 21:50 27.05.2022
1266 Clouds 25 1011 70 5593 4.92 162 20:56 27.05.2022
1267 Clear 25 1012 66 10000 6.69 180 20:26 27.05.2022
1268 Clouds 25 1012 66 10000 4.63 170 19:51 27.05.2022
1269 Clouds 25 1013 67 10000 6.69 150 19:32 27.05.2022
1270 Clouds 25 1013 71 10000 6.69 150 18:29 27.05.2022
1271 Haze 23 1014 77 10000 3.6 180 16:42 27.05.2022
1272 Mist 20 1014 88 10000 4.12 180 15:34 27.05.2022
1273 Mist 19 1015 92 9656 4.12 180 14:44 27.05.2022
1274 Mist 18 1015 93 4828 2.68 169 13:30 27.05.2022
1275 Mist 18 1016 92 2012 2.06 180 11:41 27.05.2022
1276 Mist 18 1016 91 10000 3.6 170 11:23 27.05.2022
1277 Mist 18 1016 91 10000 3.58 144 10:32 27.05.2022
1278 Mist 18 1017 91 10000 2.57 170 09:37 27.05.2022
1279 Mist 18 1018 90 10000 3.13 150 08:19 27.05.2022
1280 Clouds 18 1019 85 10000 4.12 180 06:45 27.05.2022
1281 Clouds 19 1020 78 10000 6.26 154 02:53 27.05.2022
1282 Clouds 20 1021 73 10000 7.72 170 00:37 27.05.2022
1283 Clouds 20 1023 68 10000 7.72 160 22:47 26.05.2022
1284 Clouds 20 1023 66 10000 8.05 149 21:43 26.05.2022
1285 Clouds 20 1023 67 10000 6.71 155 20:59 26.05.2022
1286 Clouds 20 1025 61 10000 5.66 180 19:27 26.05.2022
1287 Clouds 20 1025 63 10000 5.66 170 18:21 26.05.2022
1288 Clouds 18 1026 68 10000 4.47 141 16:58 26.05.2022
1289 Clouds 17 1027 72 10000 4.02 144 15:49 26.05.2022
1290 Clear 16 1027 75 10000 3.13 134 14:48 26.05.2022
1291 Clear 14 1027 77 10000 3.13 360 13:23 26.05.2022
1292 Clear 12 1027 79 10000 2.68 126 11:38 26.05.2022
1293 Clear 13 1026 76 10000 3.09 110 10:37 26.05.2022
1294 Clear 12 1027 73 10000 3.6 120 09:37 26.05.2022
1295 Clouds 13 1027 67 10000 4.02 108 08:38 26.05.2022
1296 Clear 13 1028 57 10000 3.09 170 05:24 26.05.2022
1297 Clear 16 1028 57 10000 5.81 154 01:26 26.05.2022
1298 Clear 18 1028 56 10000 5.81 154 23:41 25.05.2022
1299 Clouds 19 1028 53 10000 7.15 151 22:48 25.05.2022
1300 Clear 20 1028 51 10000 5.81 151 21:37 25.05.2022
1301 Clear 20 1029 47 10000 5.66 220 20:39 25.05.2022
1302 Clear 21 1029 48 10000 3.6 60 19:31 25.05.2022
1303 Clear 20 1030 48 10000 4.12 260 18:23 25.05.2022
1304 Clear 18 1029 54 10000 4.12 40 16:42 25.05.2022
1305 Clear 18 1028 54 10000 4.12 40 16:21 25.05.2022
1306 Clear 17 1029 56 10000 3.6 40 15:24 25.05.2022
1307 Clear 16 1029 63 10000 3.6 50 14:38 25.05.2022
1308 Clear 15 1029 65 10000 3.6 50 14:19 25.05.2022
1309 Clear 13 1028 76 10000 3.6 40 12:52 25.05.2022
1310 Clouds 12 1027 75 10000 2.24 86 11:31 25.05.2022
1311 Clear 13 1028 73 10000 3.6 40 10:23 25.05.2022
1312 Clouds 13 1027 71 10000 0.89 67 08:53 25.05.2022
1313 Clouds 13 1026 71 10000 3.13 102 07:23 25.05.2022
1314 Clear 14 1027 68 10000 4.02 109 05:27 25.05.2022
1315 Clouds 18 1025 56 10000 5.14 50 00:38 25.05.2022
1316 Clouds 18 1026 52 10000 4.63 160 23:48 24.05.2022
1317 Clouds 19 1026 52 10000 1.79 215 22:58 24.05.2022
1318 Clouds 19 1026 55 10000 6.17 50 21:47 24.05.2022
1319 Clouds 19 1026 55 10000 6.17 50 21:23 24.05.2022
1320 Clouds 19 1025 56 10000 3.58 163 20:59 24.05.2022
1321 Clouds 19 1026 56 10000 6.69 40 19:20 24.05.2022
1322 Clouds 18 1026 59 10000 6.69 50 18:29 24.05.2022
1323 Clouds 18 1026 59 10000 7.72 50 16:39 24.05.2022
1324 Clouds 17 1026 65 10000 7.2 50 15:45 24.05.2022
1325 Clouds 16 1025 69 10000 6.17 60 14:38 24.05.2022
1326 Clear 16 1025 71 10000 5.81 51 13:46 24.05.2022
1327 Clear 16 1024 66 10000 4.12 50 12:24 24.05.2022
1328 Rain 16 1023 74 10000 5.36 120 09:52 24.05.2022
1329 Clouds 17 1023 67 10000 3.6 160 08:52 24.05.2022
1330 Clouds 17 1023 62 10000 4.02 115 07:56 24.05.2022
1331 Clouds 18 1023 57 10000 2.57 170 06:39 24.05.2022
1332 Clear 20 1022 45 10000 4.92 345 03:41 24.05.2022
1333 Clear 21 1022 40 10000 5.14 40 01:47 24.05.2022
1334 Clear 22 1021 36 10000 5.14 360 00:34 24.05.2022
1335 Clear 24 1021 32 10000 4.12 360 22:24 23.05.2022
1336 Clear 23 1022 33 10000 5.14 20 21:53 23.05.2022
1337 Clear 23 1022 35 10000 2.24 72 20:53 23.05.2022
1338 Clouds 23 1022 36 10000 1.79 342 19:56 23.05.2022
1339 Clear 22 1022 37 10000 5.66 350 19:27 23.05.2022
1340 Clear 22 1023 41 10000 6.17 10 18:41 23.05.2022
1341 Clouds 21 1022 42 10000 3.13 31 17:56 23.05.2022
1342 Clear 20 1023 46 10000 7.2 350 16:46 23.05.2022
1343 Clear 17 1022 58 10000 6.17 350 14:44 23.05.2022
1344 Clouds 17 1020 64 10000 6.71 312 11:58 23.05.2022
1345 Clear 17 1019 63 10000 8.23 340 11:20 23.05.2022
1346 Clear 18 1018 66 10000 8.94 310 09:48 23.05.2022
1347 Clouds 19 1018 68 10000 8.49 303 08:51 23.05.2022
1348 Clouds 21 1018 69 10000 8.05 304 07:46 23.05.2022
1349 Clear 22 1018 70 10000 4.12 310 06:43 23.05.2022
1350 Clouds 23 1017 64 10000 6.17 340 04:43 23.05.2022
1351 Clouds 27 1013 58 10000 12.35 300 02:19 23.05.2022
1352 Clouds 27 1014 57 10000 6.69 240 01:34 23.05.2022
1353 Clear 30 1014 53 10000 5.66 190 23:42 22.05.2022
1354 Clear 32 1014 48 10000 7.72 240 22:35 22.05.2022
1355 Clear 32 1015 46 10000 6.69 170 21:54 22.05.2022
1356 Clear 32 1016 41 10000 1.79 162 20:51 22.05.2022
1357 Clear 32 1015 45 10000 5.14 190 20:25 22.05.2022
1358 Clouds 32 1015 49 10000 3.13 147 19:56 22.05.2022
1359 Clear 30 1016 55 10000 3.09 240 18:55 22.05.2022
1360 Clear 29 1016 56 10000 4.63 250 18:24 22.05.2022
1361 Clouds 29 1017 58 10000 4.63 280 17:32 22.05.2022
1362 Clear 28 1017 64 10000 6.69 240 16:25 22.05.2022
1363 Clear 25 1017 75 10000 5.14 230 14:48 22.05.2022
1364 Clear 24 1016 80 10000 5.36 183 13:45 22.05.2022
1365 Clear 23 1016 80 10000 4.47 200 12:50 22.05.2022
1366 Clear 22 1015 79 10000 4.12 180 11:44 22.05.2022
1367 Clear 23 1016 74 10000 4.12 210 09:45 22.05.2022
1368 Clear 24 1017 71 10000 3.13 190 08:37 22.05.2022
1369 Clear 25 1017 68 10000 2.68 360 07:22 22.05.2022
1370 Clear 25 1017 66 10000 5.36 360 06:23 22.05.2022
1371 Clear 28 1015 59 10000 4.63 190 02:23 22.05.2022
1372 Clear 30 1016 51 10000 7.2 250 00:44 22.05.2022
1373 Clear 32 1016 47 10000 2.57 0 23:55 21.05.2022
1374 Clear 32 1016 47 10000 6.69 230 23:21 21.05.2022
1375 Clear 33 1016 47 10000 5.66 220 21:45 21.05.2022
1376 Clear 33 1016 47 10000 5.66 220 21:25 21.05.2022
1377 Clear 33 1017 48 10000 4.63 190 20:25 21.05.2022
1378 Clear 32 1016 52 10000 2.24 237 19:37 21.05.2022
1379 Clouds 29 1017 63 10000 1.79 349 17:57 21.05.2022
1380 Clouds 25 1017 81 10000 2.57 310 16:53 21.05.2022
1381 Fog 18 1017 97 402 1.54 220 14:38 21.05.2022
1382 Fog 17 1016 94 402 1.79 360 13:53 21.05.2022
1383 Fog 17 1015 94 402 2.24 360 12:57 21.05.2022
1384 Fog 17 1015 94 402 2.06 220 12:37 21.05.2022
1385 Mist 17 1014 94 2012 3.09 20 10:45 21.05.2022
1386 Mist 17 1014 94 2816 2.68 40 09:49 21.05.2022
1387 Mist 17 1014 93 1609 1.79 11 08:58 21.05.2022
1388 Mist 17 1014 94 1609 2.06 60 08:34 21.05.2022
1389 Clouds 18 1014 93 5390 1.34 111 05:29 21.05.2022
1390 Clouds 18 1013 93 10000 3.6 140 01:24 21.05.2022
1391 Rain 18 1014 90 1609 5.14 30 23:29 20.05.2022
1392 Clouds 18 1014 84 9656 5.14 110 22:26 20.05.2022
1393 Clouds 19 1014 80 10000 5.14 70 21:55 20.05.2022
1394 Clouds 20 1015 74 10000 6.17 40 20:58 20.05.2022
1395 Clouds 20 1015 74 10000 6.17 40 20:58 20.05.2022
1396 Clouds 20 1015 75 10000 6.17 40 20:29 20.05.2022
1397 Clouds 19 1015 76 10000 5.66 50 19:45 20.05.2022
1398 Clouds 19 1015 74 10000 5.81 118 18:48 20.05.2022
1399 Mist 20 1014 73 10000 5.14 50 17:47 20.05.2022
1400 Haze 19 1015 76 6437 4.12 40 16:22 20.05.2022
1401 Haze 18 1015 81 6437 2.57 40 15:53 20.05.2022
1402 Mist 15 1015 88 4023 3.09 40 14:32 20.05.2022
1403 Mist 14 1014 91 4023 2.57 40 13:56 20.05.2022
1404 Mist 13 1012 92 4023 2.57 50 11:51 20.05.2022
1405 Mist 13 1011 91 8047 3.58 97 10:34 20.05.2022
1406 Clear 13 1011 90 10000 2.06 180 08:59 20.05.2022
1407 Clear 13 1011 89 10000 3.09 160 07:42 20.05.2022
1408 Clear 14 1011 88 10000 3.6 160 06:39 20.05.2022
1409 Clouds 14 1011 85 10000 3.13 143 05:39 20.05.2022
1410 Clouds 19 1006 74 10000 3.6 200 01:29 20.05.2022
1411 Clear 19 1006 72 10000 3.09 250 23:31 19.05.2022
1412 Clouds 18 1006 77 10000 4.12 240 22:34 19.05.2022
1413 Clouds 17 1007 79 10000 3.09 200 21:49 19.05.2022
1414 Clouds 16 1007 80 10000 4.02 191 21:23 19.05.2022
1415 Clouds 16 1007 80 10000 4.47 205 20:43 19.05.2022
1416 Clouds 15 1007 84 10000 3.6 50 19:54 19.05.2022
1417 Clouds 14 1007 85 10000 3.6 50 18:59 19.05.2022
1418 Mist 14 1007 90 10000 4.12 40 17:36 19.05.2022
1419 Clouds 13 1008 93 10000 4.92 116 15:43 19.05.2022
1420 Clouds 13 1008 93 10000 5.81 103 14:39 19.05.2022
1421 Clouds 13 1008 93 10000 6.26 118 14:19 19.05.2022
1422 Rain 13 1009 93 8047 4.47 148 11:53 19.05.2022
1423 Rain 13 1010 88 10000 4.02 181 10:30 19.05.2022
1424 Rain 14 1012 81 10000 0 0 08:39 19.05.2022
1425 Rain 16 1012 67 10000 2.06 320 07:18 19.05.2022
1426 Clear 18 1011 54 10000 4.47 212 03:41 19.05.2022
1427 Clouds 20 1012 42 10000 5.14 280 00:57 19.05.2022
1428 Clear 22 1013 34 10000 6.17 230 23:35 18.05.2022
1429 Clear 22 1013 33 10000 4.63 330 22:43 18.05.2022
1430 Clear 22 1014 31 10000 4.92 281 21:42 18.05.2022
1431 Clear 22 1013 32 10000 4.12 290 21:20 18.05.2022
1432 Clear 21 1014 34 10000 5.66 300 20:19 18.05.2022
1433 Clear 20 1015 38 10000 2.57 0 18:53 18.05.2022
1434 Clear 18 1016 42 10000 5.66 310 17:42 18.05.2022
1435 Clear 18 1016 42 10000 5.66 310 17:24 18.05.2022
1436 Clear 18 1015 44 10000 7.15 292 16:53 18.05.2022
1437 Clear 16 1016 49 10000 8.05 300 15:52 18.05.2022
1438 Clear 16 1016 50 10000 5.66 310 15:33 18.05.2022
1439 Clear 15 1015 57 10000 5.66 320 14:21 18.05.2022
1440 Clear 13 1015 61 10000 5.36 305 12:55 18.05.2022
1441 Clear 13 1014 60 10000 6.17 300 12:24 18.05.2022
1442 Clear 13 1014 60 10000 5.66 310 11:33 18.05.2022
1443 Clear 14 1014 58 10000 6.69 310 10:43 18.05.2022
1444 Clear 15 1013 52 10000 6.26 300 08:25 18.05.2022
1445 Clear 15 1013 50 10000 5.81 303 07:27 18.05.2022
1446 Clear 18 1011 42 10000 8.05 321 03:59 18.05.2022
1447 Clear 23 1007 33 10000 6.26 301 00:51 18.05.2022
1448 Clouds 24 1006 33 10000 8.94 297 23:41 17.05.2022
1449 Clouds 25 1005 32 10000 14.4 290 21:23 17.05.2022
1450 Clouds 24 1006 33 10000 10.73 276 20:44 17.05.2022
1451 Clouds 24 1006 34 10000 10.29 280 19:45 17.05.2022
1452 Clouds 24 1006 35 10000 10.29 280 19:24 17.05.2022
1453 Clouds 22 1008 47 10000 8.23 260 17:49 17.05.2022
1454 Clear 21 1008 54 10000 5.66 230 16:57 17.05.2022
1455 Clear 20 1008 55 10000 5.81 261 16:24 17.05.2022
1456 Clouds 18 1008 65 10000 6.17 240 14:56 17.05.2022
1457 Clear 17 1009 69 10000 4.63 230 14:29 17.05.2022
1458 Clear 15 1008 72 10000 4.63 200 13:30 17.05.2022
1459 Clear 14 1007 72 10000 5.36 360 10:42 17.05.2022
1460 Clear 15 1006 65 10000 8.75 300 08:53 17.05.2022
1461 Clear 15 1006 64 10000 6.71 300 07:56 17.05.2022
1462 Clouds 17 1006 67 10000 7.15 297 06:27 17.05.2022
1463 Rain 19 1002 78 10000 4.92 254 01:59 17.05.2022
1464 Clouds 21 1001 71 10000 4.63 180 23:59 16.05.2022
1465 Thunderstorm 22 1000 72 10000 7.2 170 22:40 16.05.2022
1466 Clouds 20 1002 75 10000 7.72 170 21:31 16.05.2022
1467 Mist 21 1003 78 10000 6.69 160 20:44 16.05.2022
1468 Thunderstorm 22 1005 74 10000 6.17 160 19:19 16.05.2022
1469 Clouds 23 1006 76 10000 5.14 150 17:34 16.05.2022
1470 Clouds 22 1006 79 10000 4.63 180 15:42 16.05.2022
1471 Clear 19 1007 87 10000 3.6 180 13:48 16.05.2022
1472 Fog 18 1007 88 10000 2.06 190 12:46 16.05.2022
1473 Clear 18 1008 88 10000 3.09 200 10:47 16.05.2022
1474 Clouds 19 1008 85 10000 4.02 198 08:55 16.05.2022
1475 Clear 19 1009 82 10000 3.09 160 06:33 16.05.2022
1476 Clear 19 1009 82 10000 4.02 360 06:33 16.05.2022
1477 Clear 20 1009 78 10000 4.63 170 02:33 16.05.2022
1478 Clear 24 1009 71 10000 6.17 170 23:19 15.05.2022
1479 Clouds 24 1009 69 10000 7.72 160 22:28 15.05.2022
1480 Clouds 25 1010 66 10000 8.23 170 21:38 15.05.2022
1481 Clouds 25 1011 66 10000 3.09 210 20:53 15.05.2022
1482 Clouds 24 1012 73 10000 4.63 230 19:24 15.05.2022
1483 Mist 21 1013 85 6437 4.63 250 17:48 15.05.2022
1484 Mist 18 1014 93 4828 3.09 200 15:44 15.05.2022
1485 Mist 16 1013 94 3219 1.54 120 13:49 15.05.2022
1486 Fog 16 1012 94 805 2.57 170 12:22 15.05.2022
1487 Mist 16 1013 94 1207 1.54 270 11:38 15.05.2022
1488 Mist 16 1013 94 1207 1.54 270 11:38 15.05.2022
1489 Mist 16 1013 94 1207 1.54 270 11:38 15.05.2022
1490 Mist 16 1013 94 2414 2.06 250 10:20 15.05.2022
1491 Mist 16 1015 92 6437 4.12 190 07:46 15.05.2022
1492 Mist 16 1015 92 6437 3.6 170 06:57 15.05.2022
1493 Mist 16 1015 93 10000 3.6 170 04:44 15.05.2022
1494 Rain 18 1016 91 10000 2.57 180 00:48 15.05.2022
1495 Rain 19 1016 90 10000 4.47 136 23:38 14.05.2022
1496 Rain 19 1016 89 10000 3.09 120 22:45 14.05.2022
1497 Clouds 20 1017 82 10000 8.94 149 21:28 14.05.2022
1498 Clouds 21 1018 79 10000 5.14 180 20:44 14.05.2022
1499 Clouds 21 1019 78 10000 4.63 230 19:37 14.05.2022
1500 Clouds 22 1019 78 10000 4.63 230 19:19 14.05.2022
1501 Haze 21 1019 81 10000 3.09 180 17:56 14.05.2022
1502 Mist 20 1020 88 4828 2.57 50 16:37 14.05.2022
1503 Mist 17 1020 94 3219 2.06 250 14:59 14.05.2022
1504 Mist 17 1021 93 1207 2.06 100 14:30 14.05.2022
1505 Mist 16 1020 93 9656 2.06 60 12:23 14.05.2022
1506 Mist 16 1020 93 10000 3.58 191 10:54 14.05.2022
1507 Mist 16 1021 92 10000 3.6 60 10:20 14.05.2022
1508 Mist 16 1021 93 10000 2.57 50 09:53 14.05.2022
1509 Mist 16 1021 92 10000 0.45 247 08:46 14.05.2022
1510 Mist 16 1022 92 10000 3.09 180 05:43 14.05.2022
1511 Mist 17 1022 91 10000 4.02 143 02:32 14.05.2022
1512 Clouds 20 1023 83 10000 4.12 60 23:36 13.05.2022
1513 Clouds 20 1023 81 10000 3.6 140 22:57 13.05.2022
1514 Clouds 20 1024 80 10000 3.6 140 22:23 13.05.2022
1515 Clouds 21 1024 77 10000 5.66 60 21:39 13.05.2022
1516 Clouds 22 1023 76 10000 6.17 40 20:44 13.05.2022
1517 Clouds 21 1024 77 10000 6.17 40 20:24 13.05.2022
1518 Haze 21 1025 77 10000 7.72 50 19:25 13.05.2022
1519 Mist 18 1026 89 10000 7.2 40 17:50 13.05.2022
1520 Mist 18 1026 90 10000 7.2 40 17:27 13.05.2022
1521 Mist 17 1026 91 10000 4.02 46 16:18 13.05.2022
1522 Mist 16 1026 92 10000 4.63 30 15:20 13.05.2022
1523 Mist 15 1025 94 10000 4.92 51 13:41 13.05.2022
1524 Mist 15 1025 94 10000 6.71 40 12:28 13.05.2022
1525 Mist 16 1025 92 10000 6.26 53 10:53 13.05.2022
1526 Mist 16 1025 92 10000 3.6 60 09:34 13.05.2022
1527 Mist 15 1025 92 9656 4.12 40 08:24 13.05.2022
1528 Mist 15 1025 91 8047 2.57 60 07:48 13.05.2022
1529 Mist 15 1026 90 10000 4.12 110 06:33 13.05.2022
1530 Clear 17 1026 82 10000 4.12 220 02:48 13.05.2022
1531 Clear 20 1026 70 10000 3.09 50 00:24 13.05.2022
1532 Clouds 22 1026 64 10000 5.14 50 22:45 12.05.2022
1533 Clear 22 1027 64 10000 6.17 60 21:56 12.05.2022
1534 Clouds 21 1027 66 10000 5.66 50 20:29 12.05.2022
1535 Clouds 21 1026 70 10000 6.17 40 18:51 12.05.2022
1536 Clouds 18 1027 75 10000 6.17 50 17:23 12.05.2022
1537 Clouds 17 1026 75 10000 6.26 53 15:55 12.05.2022
1538 Clouds 16 1026 74 10000 5.81 65 14:40 12.05.2022
1539 Clouds 16 1025 74 10000 4.63 30 13:41 12.05.2022
1540 Clouds 14 1024 80 10000 4.12 50 10:46 12.05.2022
1541 Clouds 14 1024 79 10000 2.57 60 09:28 12.05.2022
1542 Clear 14 1024 79 10000 1.34 360 08:51 12.05.2022
1543 Clouds 14 1024 77 10000 2.57 40 07:40 12.05.2022
1544 Clouds 14 1024 77 10000 2.57 40 07:40 12.05.2022
1545 Clouds 14 1024 76 10000 1.54 240 06:19 12.05.2022
1546 Clouds 16 1024 67 10000 4.63 160 02:56 12.05.2022
1547 Clouds 21 1024 50 10000 3.6 50 00:35 12.05.2022
1548 Clouds 23 1024 44 10000 4.02 193 22:36 11.05.2022
1549 Clouds 23 1024 44 10000 4.12 60 21:50 11.05.2022
1550 Clouds 23 1025 43 10000 4.47 11 21:23 11.05.2022
1551 Clouds 19 1025 45 10000 5.66 50 18:49 11.05.2022
1552 Clouds 17 1025 41 10000 7.2 50 16:55 11.05.2022
1553 Clouds 16 1025 36 10000 9.39 46 15:37 11.05.2022
1554 Clouds 14 1025 33 10000 8.75 20 14:39 11.05.2022
1555 Clouds 14 1025 34 10000 8.75 20 14:18 11.05.2022
1556 Clear 12 1025 34 10000 8.49 13 11:54 11.05.2022
1557 Clear 12 1025 34 10000 6.17 20 11:19 11.05.2022
1558 Clear 13 1026 30 10000 5.14 20 08:46 11.05.2022
1559 Clear 14 1027 37 10000 5.81 51 05:31 11.05.2022
1560 Clouds 18 1026 33 10000 6.69 50 01:23 11.05.2022
1561 Clouds 21 1026 26 10000 8.05 48 22:32 10.05.2022
1562 Clouds 22 1026 24 10000 5.66 50 21:57 10.05.2022
1563 Clouds 22 1025 24 10000 7.15 51 20:58 10.05.2022
1564 Clear 22 1026 23 10000 7.2 60 20:18 10.05.2022
1565 Clear 20 1028 25 10000 8.23 60 18:27 10.05.2022
1566 Clear 18 1028 26 10000 7.72 40 17:34 10.05.2022
1567 Clear 15 1028 32 10000 9.39 32 15:41 10.05.2022
1568 Clear 11 1026 34 10000 11.18 52 12:48 10.05.2022
1569 Clear 11 1026 32 10000 6.69 30 11:51 10.05.2022
1570 Clear 11 1026 31 10000 8.75 40 11:21 10.05.2022
1571 Clear 11 1027 29 10000 5.66 30 10:54 10.05.2022
1572 Clear 11 1025 22 10000 7.2 40 09:27 10.05.2022
1573 Clear 12 1026 20 10000 8.49 7 07:32 10.05.2022
1574 Clear 15 1026 17 10000 10.73 37 04:34 10.05.2022
1575 Clouds 18 1024 22 10000 9.77 30 01:34 10.05.2022
1576 Clear 21 1023 20 10000 8.94 53 23:37 09.05.2022
1577 Clear 21 1023 19 10000 8.05 60 22:29 09.05.2022
1578 Clear 21 1022 20 10000 6.17 50 21:21 09.05.2022
1579 Clear 19 1023 23 10000 5.66 50 19:52 09.05.2022
1580 Clear 17 1023 27 10000 6.17 60 17:59 09.05.2022
1581 Clear 15 1024 28 10000 9.26 20 16:49 09.05.2022
1582 Clear 13 1024 33 10000 10.73 42 15:54 09.05.2022
1583 Clear 13 1024 34 10000 8.23 50 15:34 09.05.2022
1584 Clear 11 1023 35 10000 8.23 40 14:33 09.05.2022
1585 Clear 10 1023 39 10000 8.94 28 13:51 09.05.2022
1586 Clear 8 1022 40 10000 6.17 10 12:32 09.05.2022
1587 Clear 8 1022 39 10000 6.26 358 11:43 09.05.2022
1588 Clear 8 1021 39 10000 6.69 30 10:45 09.05.2022
1589 Clear 9 1021 38 10000 6.69 20 09:39 09.05.2022
1590 Clear 10 1021 35 10000 8.94 49 07:56 09.05.2022
1591 Clouds 12 1022 37 10000 8.49 54 04:33 09.05.2022
1592 Clouds 12 1022 37 10000 8.49 54 04:33 09.05.2022
1593 Clouds 12 1022 37 10000 8.49 54 04:33 09.05.2022
1594 Clouds 14 1019 34 10000 9.83 51 00:22 09.05.2022
1595 Clouds 15 1018 35 10000 8.49 50 22:58 08.05.2022
1596 Clouds 15 1019 37 10000 8.75 60 22:27 08.05.2022
1597 Clear 14 1019 42 10000 7.15 11 20:41 08.05.2022
1598 Clouds 14 1019 44 10000 9.39 35 19:53 08.05.2022
1599 Clouds 14 1019 45 10000 8.05 65 19:27 08.05.2022
1600 Clouds 13 1019 47 10000 8.75 50 18:25 08.05.2022
1601 Clouds 12 1020 48 10000 10.29 70 17:21 08.05.2022
1602 Clouds 10 1018 60 10000 11.62 37 15:43 08.05.2022
1603 Clouds 10 1018 61 10000 12.52 32 15:20 08.05.2022
1604 Clouds 8 1017 68 10000 10.8 50 12:45 08.05.2022
1605 Clouds 8 1016 62 10000 8.94 23 10:46 08.05.2022
1606 Clouds 8 1016 62 10000 9.39 50 10:21 08.05.2022
1607 Clouds 8 1016 62 10000 8.49 49 09:46 08.05.2022
1608 Clouds 8 1016 65 10000 9.83 40 07:41 08.05.2022
1609 Rain 8 1016 64 10000 9.83 53 04:56 08.05.2022
1610 Clouds 8 1015 73 10000 8.05 22 03:20 08.05.2022
1611 Rain 8 1012 80 10000 10.73 43 00:31 08.05.2022
1612 Rain 8 1012 82 10000 11.62 51 23:54 07.05.2022
1613 Rain 8 1011 87 10000 11.18 24 22:58 07.05.2022
1614 Rain 8 1011 87 10000 10.73 56 22:34 07.05.2022
1615 Rain 8 1012 89 10000 9.83 44 21:44 07.05.2022
1616 Rain 8 1011 91 6437 8.23 30 20:56 07.05.2022
1617 Rain 9 1010 91 4023 8.05 37 19:59 07.05.2022
1618 Rain 9 1010 92 4828 12.86 60 18:38 07.05.2022
1619 Clouds 10 1009 88 10000 8.75 40 15:58 07.05.2022
1620 Rain 10 1008 91 10000 9.26 70 14:46 07.05.2022
1621 Rain 10 1007 92 10000 7.2 30 11:19 07.05.2022
1622 Rain 10 1007 92 10000 9.83 53 09:39 07.05.2022
1623 Rain 10 1009 93 10000 7.72 50 07:54 07.05.2022
1624 Rain 10 1010 93 10000 5.66 40 06:44 07.05.2022
1625 Mist 10 1010 93 6437 4.92 49 05:41 07.05.2022
1626 Rain 10 1011 92 10000 4.12 40 03:54 07.05.2022
1627 Rain 11 1012 86 10000 5.36 103 23:39 06.05.2022
1628 Rain 12 1013 86 10000 4.12 80 22:33 06.05.2022
1629 Rain 13 1013 86 10000 4.63 50 21:47 06.05.2022
1630 Rain 13 1013 84 10000 4.12 60 20:37 06.05.2022
1631 Rain 14 1014 84 10000 4.12 60 19:42 06.05.2022
1632 Rain 14 1014 84 10000 4.12 60 19:19 06.05.2022
1633 Rain 14 1014 86 10000 3.13 96 18:24 06.05.2022
1634 Mist 14 1015 86 8047 2.57 0 17:27 06.05.2022
1635 Rain 14 1015 85 10000 2.68 6 15:49 06.05.2022
1636 Rain 14 1015 83 10000 2.06 60 14:58 06.05.2022
1637 Rain 14 1015 75 10000 1.54 170 13:31 06.05.2022
1638 Clouds 14 1015 72 10000 1.54 240 12:41 06.05.2022
1639 Clouds 14 1015 72 10000 1.54 160 11:49 06.05.2022
1640 Clouds 14 1015 70 10000 2.57 180 10:36 06.05.2022
1641 Clear 14 1016 69 10000 2.24 164 09:46 06.05.2022
1642 Clear 15 1015 66 10000 2.57 200 08:52 06.05.2022
1643 Clear 15 1016 65 10000 4.92 169 07:26 06.05.2022
1644 Clear 15 1017 63 10000 3.09 220 06:24 06.05.2022
1645 Clear 17 1017 56 10000 4.63 160 02:54 06.05.2022
1646 Clouds 18 1017 56 10000 3.6 160 01:57 06.05.2022
1647 Clear 22 1017 39 10000 3.6 80 22:45 05.05.2022
1648 Clear 22 1017 39 10000 3.6 80 22:45 05.05.2022
1649 Clear 22 1018 39 10000 3.09 60 21:32 05.05.2022
1650 Clear 22 1018 40 10000 3.6 60 20:27 05.05.2022
1651 Clear 20 1019 45 10000 3.6 270 18:36 05.05.2022
1652 Clear 18 1020 57 10000 5.14 350 16:40 05.05.2022
1653 Clouds 16 1019 68 10000 5.66 360 14:55 05.05.2022
1654 Clouds 14 1018 75 10000 5.14 20 13:27 05.05.2022
1655 Clouds 14 1018 76 10000 4.47 336 12:54 05.05.2022
1656 Clouds 14 1017 77 10000 2.68 355 10:53 05.05.2022
1657 Clouds 15 1017 77 10000 6.17 360 09:40 05.05.2022
1658 Drizzle 15 1016 77 10000 4.02 32 07:45 05.05.2022
1659 Drizzle 16 1016 80 10000 4.92 18 05:44 05.05.2022
1660 Clouds 17 1014 75 10000 3.09 240 02:20 05.05.2022
1661 Clear 18 1013 73 10000 3.09 250 01:35 05.05.2022
1662 Clouds 18 1013 75 10000 2.68 342 23:55 04.05.2022
1663 Clouds 18 1013 76 10000 2.57 240 22:54 04.05.2022
1664 Haze 16 1014 81 10000 2.57 220 21:59 04.05.2022
1665 Haze 16 1014 83 10000 2.57 220 21:30 04.05.2022
1666 Haze 15 1014 84 9656 2.06 250 20:42 04.05.2022
1667 Haze 14 1014 86 10000 3.09 80 19:56 04.05.2022
1668 Mist 13 1014 89 9656 3.6 50 19:31 04.05.2022
1669 Mist 12 1015 90 9656 4.63 60 18:22 04.05.2022
1670 Clouds 12 1016 90 10000 1.54 180 17:59 04.05.2022
1671 Mist 11 1015 93 8047 5.66 60 16:29 04.05.2022
1672 Rain 11 1016 91 10000 2.57 40 15:32 04.05.2022
1673 Mist 11 1015 91 10000 3.6 40 14:38 04.05.2022
1674 Mist 11 1015 91 10000 3.6 40 14:18 04.05.2022
1675 Rain 10 1016 92 10000 2.57 40 12:34 04.05.2022
1676 Rain 10 1016 92 10000 6.17 50 11:25 04.05.2022
1677 Drizzle 10 1018 90 10000 3.6 130 09:50 04.05.2022
1678 Clouds 10 1017 90 10000 5.81 124 08:56 04.05.2022
1679 Drizzle 10 1019 90 10000 5.81 108 07:33 04.05.2022
1680 Clouds 11 1020 80 10000 4.92 124 03:50 04.05.2022
1681 Clouds 12 1020 77 10000 6.26 126 02:33 04.05.2022
1682 Clouds 14 1021 71 10000 6.26 131 22:59 03.05.2022
1683 Clouds 15 1022 65 10000 6.17 50 21:47 03.05.2022
1684 Clouds 16 1021 64 10000 6.17 50 21:21 03.05.2022
1685 Clouds 16 1021 64 10000 6.17 50 21:21 03.05.2022
1686 Clear 17 1022 61 10000 6.17 40 20:39 03.05.2022
1687 Clear 17 1021 62 10000 5.66 50 19:21 03.05.2022
1688 Clear 17 1022 63 10000 5.14 50 18:42 03.05.2022
1689 Clouds 15 1021 67 10000 5.66 60 17:20 03.05.2022
1690 Clear 14 1022 70 10000 5.81 26 15:51 03.05.2022
1691 Clear 13 1021 77 10000 6.17 30 14:23 03.05.2022
1692 Clouds 11 1020 86 10000 4.12 20 12:35 03.05.2022
1693 Clouds 11 1020 85 10000 3.09 360 11:35 03.05.2022
1694 Clouds 11 1020 84 10000 3.09 20 10:26 03.05.2022
1695 Clouds 12 1019 85 10000 4.02 36 08:19 03.05.2022
1696 Clouds 12 1019 87 10000 3.6 30 06:45 03.05.2022
1697 Mist 12 1018 89 4828 4.92 16 01:59 03.05.2022
1698 Mist 13 1017 89 6437 4.63 30 23:19 02.05.2022
1699 Mist 13 1016 91 10000 8.23 40 22:28 02.05.2022
1700 Mist 13 1016 91 10000 7.2 40 21:37 02.05.2022
1701 Mist 13 1017 91 4828 5.66 40 19:30 02.05.2022
1702 Mist 12 1017 90 2414 6.17 40 18:26 02.05.2022
1703 Mist 12 1017 88 4023 5.14 40 17:41 02.05.2022
1704 Mist 12 1017 87 10000 5.81 96 16:43 02.05.2022
1705 Mist 12 1018 88 10000 5.14 30 15:41 02.05.2022
1706 Mist 12 1018 89 10000 4.92 80 14:51 02.05.2022
1707 Rain 11 1017 88 10000 6.17 280 13:42 02.05.2022
1708 Clouds 12 1017 78 10000 4.92 82 11:41 02.05.2022
1709 Clouds 13 1017 70 10000 3.58 360 09:45 02.05.2022
1710 Clouds 13 1018 71 10000 3.6 50 08:31 02.05.2022
1711 Clouds 13 1018 73 10000 2.57 100 06:56 02.05.2022
1712 Clear 16 1018 46 10000 6.17 160 00:47 02.05.2022
1713 Clear 16 1018 46 10000 6.17 160 00:47 02.05.2022
1714 Clear 16 1018 45 10000 6.17 160 00:22 02.05.2022
1715 Clear 18 1018 36 10000 6.26 171 22:55 01.05.2022
1716 Clear 19 1019 31 10000 5.66 180 21:45 01.05.2022
1717 Clear 19 1019 30 10000 5.66 120 20:50 01.05.2022
1718 Clear 19 1021 33 10000 4.63 170 19:27 01.05.2022
1719 Clear 19 1020 35 10000 3.09 230 18:53 01.05.2022
1720 Clear 18 1021 33 10000 3.6 40 17:51 01.05.2022
1721 Clear 16 1020 37 10000 4.63 60 16:38 01.05.2022
1722 Clear 16 1021 37 10000 4.63 60 16:18 01.05.2022
1723 Clear 13 1021 46 10000 4.12 50 14:54 01.05.2022
1724 Clear 9 1020 64 10000 2.06 90 12:52 01.05.2022
1725 Clear 8 1019 71 10000 2.06 60 10:36 01.05.2022
1726 Clear 9 1019 66 10000 3.09 190 08:50 01.05.2022
1727 Clear 10 1019 60 10000 1.54 280 06:51 01.05.2022
1728 Clear 13 1019 37 10000 3.6 190 02:46 01.05.2022
1729 Clear 19 1018 18 10000 3.6 260 22:51 30.04.2022
1730 Clear 19 1018 18 10000 3.6 260 22:51 30.04.2022
1731 Clear 19 1017 17 10000 5.66 320 21:33 30.04.2022
1732 Clear 18 1018 19 10000 6.69 290 20:22 30.04.2022
1733 Clear 17 1019 19 10000 6.17 340 19:31 30.04.2022
1734 Clear 15 1019 21 10000 5.14 330 17:37 30.04.2022
1735 Clear 13 1020 25 10000 6.26 302 16:28 30.04.2022
1736 Clear 12 1021 30 10000 4.12 320 15:19 30.04.2022
1737 Clear 10 1021 33 10000 4.12 320 14:30 30.04.2022
1738 Clear 7 1020 36 10000 2.68 312 11:59 30.04.2022
1739 Clear 7 1020 35 10000 3.6 320 11:32 30.04.2022
1740 Clear 8 1020 34 10000 4.12 320 10:30 30.04.2022
1741 Clear 9 1020 30 10000 6.17 330 08:26 30.04.2022
1742 Clear 12 1019 23 10000 8.23 340 04:58 30.04.2022
1743 Clear 16 1016 13 10000 9.39 314 00:34 30.04.2022
1744 Clear 17 1016 12 10000 10.8 330 23:29 29.04.2022
1745 Clear 17 1015 13 10000 9.83 288 22:29 29.04.2022
1746 Clear 17 1015 13 10000 9.83 288 22:29 29.04.2022
1747 Clear 17 1016 14 10000 9.26 310 21:26 29.04.2022
1748 Clear 16 1016 14 10000 11.32 310 20:36 29.04.2022
1749 Clear 15 1017 14 10000 9.77 330 19:33 29.04.2022
1750 Clear 12 1019 18 10000 9.83 330 17:38 29.04.2022
1751 Clear 11 1019 22 10000 8.94 304 16:43 29.04.2022
1752 Clear 7 1020 31 10000 8.49 301 14:38 29.04.2022
1753 Clear 7 1020 31 10000 8.49 301 14:38 29.04.2022
1754 Clear 7 1020 31 10000 8.49 301 14:38 29.04.2022
1755 Clear 7 1020 32 10000 7.2 310 14:19 29.04.2022
1756 Clear 5 1020 37 10000 7.2 300 12:41 29.04.2022
1757 Clear 5 1019 35 10000 6.26 300 10:57 29.04.2022
1758 Clear 6 1019 29 10000 7.72 300 08:18 29.04.2022
1759 Clear 7 1019 28 10000 5.66 300 07:27 29.04.2022
1760 Clear 7 1019 26 10000 7.6 307 06:35 29.04.2022
1761 Clear 9 1018 23 10000 12.52 338 03:28 29.04.2022
1762 Clear 13 1014 16 10000 12.52 304 00:18 29.04.2022
1763 Clear 14 1014 16 10000 12.96 333 23:26 28.04.2022
1764 Clear 14 1014 16 10000 9.77 320 22:40 28.04.2022
1765 Clear 14 1014 17 10000 13.41 300 21:46 28.04.2022
1766 Clear 13 1014 19 10000 13.86 298 20:51 28.04.2022
1767 Clear 13 1015 21 10000 7.72 330 19:59 28.04.2022
1768 Clear 12 1015 22 10000 11.62 308 19:40 28.04.2022
1769 Clear 12 1016 23 10000 11.32 320 19:20 28.04.2022
1770 Clear 11 1016 27 10000 11.32 310 18:23 28.04.2022
1771 Clear 9 1017 36 10000 4.92 49 16:59 28.04.2022
1772 Clouds 8 1017 40 10000 11.18 287 16:21 28.04.2022
1773 Clouds 8 1017 42 10000 14.75 305 15:57 28.04.2022
1774 Clouds 7 1017 43 10000 10.8 330 15:27 28.04.2022
1775 Clouds 5 1016 52 10000 9.83 305 13:44 28.04.2022
1776 Clouds 4 1016 54 10000 9.26 310 12:42 28.04.2022
1777 Clouds 4 1015 57 10000 10.28 311 11:53 28.04.2022
1778 Clouds 5 1016 56 10000 8.05 314 10:37 28.04.2022
1779 Clouds 5 1015 56 10000 8.05 295 09:52 28.04.2022
1780 Clouds 5 1016 54 10000 7.6 298 08:30 28.04.2022
1781 Clouds 5 1016 51 10000 5.81 299 06:58 28.04.2022
1782 Clear 6 1016 50 10000 10.28 307 05:55 28.04.2022
1783 Clouds 6 1016 48 10000 12.07 305 04:50 28.04.2022
1784 Clouds 6 1016 47 10000 10.8 310 04:31 28.04.2022
1785 Clouds 10 1014 41 10000 11.32 310 00:22 28.04.2022
1786 Clear 11 1013 35 10000 11.32 310 22:38 27.04.2022
1787 Clouds 12 1013 35 10000 11.83 320 21:51 27.04.2022
1788 Clouds 12 1013 36 10000 12.07 290 20:56 27.04.2022
1789 Clouds 12 1013 36 10000 11.32 310 20:35 27.04.2022
1790 Clouds 12 1012 36 10000 11.18 294 19:37 27.04.2022
1791 Clouds 13 1013 35 10000 9.83 306 18:56 27.04.2022
1792 Clouds 13 1013 35 10000 10.73 306 18:22 27.04.2022
1793 Clouds 12 1014 41 10000 12.07 284 16:29 27.04.2022
1794 Clear 10 1015 48 10000 11.18 294 14:31 27.04.2022
1795 Clear 9 1015 57 10000 9.77 300 12:23 27.04.2022
1796 Clouds 9 1014 63 10000 7.72 310 11:20 27.04.2022
1797 Clouds 10 1014 68 10000 9.26 310 09:19 27.04.2022
1798 Clouds 14 1013 86 10000 5.36 276 07:18 27.04.2022
1799 Rain 14 1014 87 10000 2.24 211 04:30 27.04.2022
1800 Clouds 15 1015 82 10000 3.13 24 01:32 27.04.2022
1801 Clouds 15 1015 79 10000 3.13 15 00:37 27.04.2022
1802 Mist 15 1015 75 10000 4.63 60 23:39 26.04.2022
1803 Mist 16 1015 75 10000 5.36 52 23:18 26.04.2022
1804 Drizzle 15 1015 76 10000 5.14 60 22:39 26.04.2022
1805 Mist 15 1016 78 10000 5.81 35 21:35 26.04.2022
1806 Clouds 15 1016 77 10000 4.12 40 20:52 26.04.2022
1807 Clouds 15 1016 78 10000 4.12 40 20:30 26.04.2022
1808 Clouds 15 1017 78 10000 3.6 50 19:32 26.04.2022
1809 Clouds 14 1017 78 10000 5.14 50 18:45 26.04.2022
1810 Clouds 14 1018 81 10000 3.09 40 17:59 26.04.2022
1811 Clouds 13 1019 82 10000 4.63 60 16:58 26.04.2022
1812 Haze 12 1020 82 10000 6.17 50 14:28 26.04.2022
1813 Drizzle 11 1020 80 10000 4.12 40 13:33 26.04.2022
1814 Clouds 11 1020 77 10000 3.13 96 11:57 26.04.2022
1815 Clouds 11 1020 72 10000 4.63 140 10:37 26.04.2022
1816 Clouds 11 1020 70 10000 4.12 150 09:25 26.04.2022
1817 Clouds 11 1021 69 10000 5.81 113 07:54 26.04.2022
1818 Clouds 11 1023 63 10000 5.36 110 04:33 26.04.2022
1819 Clouds 12 1023 57 10000 4.92 130 01:54 26.04.2022
1820 Clouds 13 1024 55 10000 5.81 135 00:26 26.04.2022
1821 Clouds 13 1024 51 10000 5.81 120 22:46 25.04.2022
1822 Clouds 13 1024 49 10000 6.71 105 21:43 25.04.2022
1823 Clouds 14 1025 44 10000 6.26 105 20:40 25.04.2022
1824 Clouds 14 1024 36 10000 7.15 107 18:58 25.04.2022
1825 Clouds 13 1024 38 10000 6.26 108 17:54 25.04.2022
1826 Clouds 13 1024 39 10000 5.14 40 17:23 25.04.2022
1827 Clouds 11 1025 51 10000 5.14 130 15:29 25.04.2022
1828 Clouds 10 1024 56 10000 5.14 60 14:46 25.04.2022
1829 Clouds 9 1024 63 10000 5.14 50 13:35 25.04.2022
1830 Clear 8 1024 65 10000 2.57 70 11:49 25.04.2022
1831 Clear 8 1023 63 10000 4.12 40 10:27 25.04.2022
1832 Clear 8 1023 60 10000 3.09 40 08:47 25.04.2022
1833 Clear 8 1023 58 10000 4.12 140 06:46 25.04.2022
1834 Clear 9 1024 56 10000 3.6 130 05:23 25.04.2022
1835 Clouds 11 1023 55 10000 6.26 107 00:58 25.04.2022
1836 Clear 13 1024 52 10000 6.71 104 23:52 24.04.2022
1837 Clear 13 1024 50 10000 6.26 111 22:52 24.04.2022
1838 Clear 14 1024 47 10000 7.2 140 22:31 24.04.2022
1839 Clear 14 1025 44 10000 6.69 140 21:42 24.04.2022
1840 Clear 15 1025 44 10000 6.69 140 21:18 24.04.2022
1841 Clear 15 1025 45 10000 6.17 130 20:37 24.04.2022
1842 Clear 15 1025 43 10000 6.69 40 19:48 24.04.2022
1843 Clear 15 1025 43 10000 6.71 124 18:20 24.04.2022
1844 Clear 15 1025 41 10000 7.6 124 17:37 24.04.2022
1845 Clear 15 1024 41 10000 6.69 40 17:19 24.04.2022
1846 Clear 15 1024 40 10000 8.94 124 16:35 24.04.2022
1847 Clouds 15 1024 44 10000 4.47 83 15:56 24.04.2022
1848 Clouds 15 1024 46 10000 5.14 100 15:31 24.04.2022
1849 Clouds 15 1024 46 10000 5.14 100 15:31 24.04.2022
1850 Clouds 15 1024 47 10000 5.14 100 15:31 24.04.2022
1851 Clouds 13 1025 59 10000 5.66 50 14:19 24.04.2022
1852 Clouds 11 1024 71 10000 5.66 50 13:25 24.04.2022
1853 Clear 10 1024 73 10000 3.6 50 12:35 24.04.2022
1854 Clouds 10 1024 74 10000 2.06 70 11:34 24.04.2022
1855 Clouds 11 1023 71 10000 2.57 40 10:30 24.04.2022
1856 Clear 11 1023 72 10000 2.06 50 09:29 24.04.2022
1857 Clouds 12 1024 67 10000 2.57 100 07:31 24.04.2022
1858 Clouds 13 1025 60 10000 2.57 150 04:43 24.04.2022
1859 Clouds 13 1024 60 10000 5.66 190 01:39 24.04.2022
1860 Clouds 14 1024 54 10000 4.63 170 00:30 24.04.2022
1861 Clouds 15 1024 46 10000 4.63 160 23:45 23.04.2022
1862 Clouds 16 1024 45 10000 4.63 160 23:22 23.04.2022
1863 Clouds 16 1024 45 10000 4.63 160 23:22 23.04.2022
1864 Clouds 17 1027 39 10000 4.02 261 21:54 23.04.2022
1865 Clouds 16 1027 38 10000 4.63 170 21:34 23.04.2022
1866 Clouds 16 1028 38 10000 4.47 360 20:57 23.04.2022
1867 Clouds 16 1029 38 10000 4.12 160 19:49 23.04.2022
1868 Clouds 16 1029 36 10000 4.12 160 19:19 23.04.2022
1869 Clouds 15 1029 39 10000 3.09 250 18:53 23.04.2022
1870 Clouds 15 1029 36 10000 3.6 50 18:24 23.04.2022
1871 Clouds 15 1030 37 10000 2.57 0 17:43 23.04.2022
1872 Clouds 14 1030 40 10000 2.68 175 16:43 23.04.2022
1873 Clouds 13 1030 44 10000 4.12 50 15:32 23.04.2022
1874 Clear 10 1030 50 10000 5.14 20 12:49 23.04.2022
1875 Clear 10 1029 50 10000 4.63 50 10:49 23.04.2022
1876 Clear 10 1029 48 10000 4.92 4 09:38 23.04.2022
1877 Clear 12 1030 43 10000 4.92 1 07:21 23.04.2022
1878 Clear 15 1029 32 10000 4.47 314 03:54 23.04.2022
1879 Clear 18 1027 26 10000 5.81 314 01:25 23.04.2022
1880 Clear 20 1026 22 10000 7.15 304 23:31 22.04.2022
1881 Clear 20 1026 22 10000 8.05 294 22:22 22.04.2022
1882 Clear 20 1027 21 10000 7.2 320 21:44 22.04.2022
1883 Clear 20 1027 22 10000 10.73 300 20:54 22.04.2022
1884 Clear 20 1028 21 10000 9.26 290 20:27 22.04.2022
1885 Clear 19 1028 24 10000 8.23 330 19:21 22.04.2022
1886 Clear 19 1029 29 10000 7.72 310 18:46 22.04.2022
1887 Clear 18 1029 36 10000 8.94 310 17:50 22.04.2022
1888 Clear 17 1028 45 10000 8.94 323 16:46 22.04.2022
1889 Clear 16 1028 58 10000 7.72 310 15:45 22.04.2022
1890 Clear 16 1028 62 10000 9.39 311 15:21 22.04.2022
1891 Clear 13 1028 71 10000 4.47 275 13:54 22.04.2022
1892 Clear 11 1028 72 10000 5.36 229 13:27 22.04.2022
1893 Clear 10 1027 71 10000 7.15 360 12:29 22.04.2022
1894 Clear 10 1026 71 10000 4.12 230 11:22 22.04.2022
1895 Clear 10 1026 70 10000 4.12 230 10:52 22.04.2022
1896 Clear 10 1026 70 10000 4.12 230 10:31 22.04.2022
1897 Clear 11 1026 70 10000 5.36 217 09:53 22.04.2022
1898 Clouds 11 1027 70 10000 4.47 262 08:56 22.04.2022
1899 Clear 11 1027 67 10000 4.92 202 07:44 22.04.2022
1900 Clouds 13 1027 63 10000 5.14 190 04:24 22.04.2022
1901 Clouds 12 1027 67 10000 6.26 160 00:53 22.04.2022
1902 Clouds 13 1027 61 10000 7.72 170 23:28 21.04.2022
1903 Clear 13 1028 58 10000 9.77 170 22:29 21.04.2022
1904 Clear 14 1029 50 10000 9.83 153 20:55 21.04.2022
1905 Clear 14 1030 47 10000 12.07 153 20:26 21.04.2022
1906 Clear 14 1032 49 10000 9.83 143 18:48 21.04.2022
1907 Clear 14 1032 49 10000 9.26 180 18:19 21.04.2022
1908 Clear 14 1032 59 10000 4.12 200 16:53 21.04.2022
1909 Clear 12 1033 59 10000 4.47 360 15:23 21.04.2022
1910 Clear 11 1034 64 10000 2.24 360 14:51 21.04.2022
1911 Clear 8 1035 75 10000 2.06 40 13:52 21.04.2022
1912 Clear 8 1034 79 10000 2.06 40 13:19 21.04.2022
1913 Clear 7 1033 81 10000 2.57 30 11:25 21.04.2022
1914 Clear 7 1032 77 10000 3.6 40 09:23 21.04.2022
1915 Clear 8 1032 76 10000 3.09 40 08:29 21.04.2022
1916 Clear 8 1032 71 10000 2.57 60 06:25 21.04.2022
1917 Clear 10 1031 60 10000 2.57 160 03:37 21.04.2022
1918 Clouds 10 1031 59 10000 0.89 168 02:56 21.04.2022
1919 Clear 11 1030 53 10000 4.63 170 02:38 21.04.2022
1920 Clear 15 1029 28 10000 6.17 310 00:25 21.04.2022
1921 Smoke 15 1028 27 10000 5.66 310 23:24 20.04.2022
1922 Clear 15 1028 27 10000 2.24 330 22:58 20.04.2022
1923 Clear 15 1028 26 10000 6.69 290 22:32 20.04.2022
1924 Clear 15 1028 26 10000 6.69 290 22:32 20.04.2022
1925 Clear 15 1027 27 10000 6.69 330 21:35 20.04.2022
1926 Clear 14 1027 29 10000 6.17 310 20:43 20.04.2022
1927 Clear 14 1027 30 10000 6.17 310 20:20 20.04.2022
1928 Clear 13 1027 32 10000 7.72 300 19:38 20.04.2022
1929 Clear 12 1027 35 10000 7.2 310 18:43 20.04.2022
1930 Clear 11 1027 38 10000 7.2 280 17:18 20.04.2022
1931 Clear 10 1027 41 10000 8.75 300 16:39 20.04.2022
1932 Clouds 8 1026 50 10000 3.58 0 14:55 20.04.2022
1933 Clouds 6 1023 55 10000 6.69 290 12:18 20.04.2022
1934 Clouds 6 1022 55 10000 6.17 260 11:36 20.04.2022
1935 Clouds 6 1021 57 10000 7.2 250 10:39 20.04.2022
1936 Clouds 6 1020 58 10000 7.72 260 09:28 20.04.2022
1937 Clear 6 1019 58 10000 8.23 250 08:27 20.04.2022
1938 Clear 6 1018 57 10000 7.2 250 07:44 20.04.2022
1939 Clear 6 1017 55 10000 10.29 250 05:29 20.04.2022
1940 Clouds 8 1012 60 10000 9.26 260 01:35 20.04.2022
1941 Clouds 9 1011 51 10000 9.77 270 00:21 20.04.2022
1942 Clouds 10 1010 46 10000 7.72 260 22:53 19.04.2022
1943 Clouds 9 1010 45 10000 10.8 260 22:23 19.04.2022
1944 Clouds 9 1009 46 10000 8.23 270 21:48 19.04.2022
1945 Clouds 9 1009 48 10000 5.81 284 20:57 19.04.2022
1946 Drizzle 9 1009 47 10000 8.75 280 20:37 19.04.2022
1947 Clouds 9 1008 50 10000 12.35 270 19:32 19.04.2022
1948 Clouds 8 1007 58 10000 10.8 260 18:30 19.04.2022
1949 Clouds 7 1005 67 10000 10.29 300 16:50 19.04.2022
1950 Clouds 7 1005 68 10000 10.29 300 16:25 19.04.2022
1951 Clouds 7 1005 73 10000 4.02 348 15:59 19.04.2022
1952 Clouds 6 1003 83 10000 8.23 280 14:46 19.04.2022
1953 Clouds 4 1001 93 10000 10.29 300 12:53 19.04.2022
1954 Clouds 4 1000 92 10000 9.26 300 12:34 19.04.2022
1955 Mist 5 999 93 6437 7.72 320 11:34 19.04.2022
1956 Rain 7 1000 93 6437 11.83 40 09:51 19.04.2022
1957 Rain 7 1004 92 4828 10.29 70 07:49 19.04.2022
1958 Rain 6 1015 78 10000 7.72 40 04:26 19.04.2022
1959 Rain 7 1019 71 10000 7.2 40 02:39 19.04.2022
1960 Clouds 8 1022 51 10000 4.63 60 23:51 18.04.2022
1961 Clouds 9 1023 51 10000 4.12 100 22:54 18.04.2022
1962 Clouds 9 1025 53 10000 7.72 160 21:28 18.04.2022
1963 Clear 9 1026 50 10000 6.69 130 20:40 18.04.2022
1964 Clear 9 1026 50 10000 6.69 130 20:22 18.04.2022
1965 Clear 10 1026 43 10000 7.72 150 19:40 18.04.2022
1966 Clear 11 1027 41 10000 6.17 140 18:49 18.04.2022
1967 Clear 11 1027 40 10000 5.14 120 17:49 18.04.2022
1968 Clear 11 1027 40 10000 5.14 120 17:49 18.04.2022
1969 Clear 10 1027 41 10000 5.14 120 17:20 18.04.2022
1970 Clear 10 1027 42 10000 6.69 100 16:40 18.04.2022
1971 Clear 9 1028 44 10000 4.12 30 15:43 18.04.2022
1972 Clear 7 1028 50 10000 6.69 60 14:28 18.04.2022
1973 Clear 5 1028 53 10000 7.2 40 13:25 18.04.2022
1974 Clear 4 1028 52 10000 3.6 20 12:27 18.04.2022
1975 Clear 4 1028 52 10000 3.09 330 11:20 18.04.2022
1976 Clear 4 1028 51 10000 3.09 350 10:28 18.04.2022
1977 Clear 4 1028 48 10000 3.6 320 09:30 18.04.2022
1978 Clear 5 1028 44 10000 3.6 340 07:34 18.04.2022
1979 Clouds 7 1026 36 10000 5.66 330 03:57 18.04.2022
1980 Clear 10 1022 30 10000 8.75 320 23:41 17.04.2022
1981 Clouds 10 1021 30 10000 9.26 320 22:39 17.04.2022
1982 Clouds 10 1021 32 10000 8.75 310 21:42 17.04.2022
1983 Clouds 10 1021 32 10000 8.75 310 21:21 17.04.2022
1984 Clouds 10 1021 33 10000 10.8 310 20:32 17.04.2022
1985 Clouds 9 1020 36 10000 10.8 310 19:21 17.04.2022
1986 Clouds 9 1020 40 10000 9.26 330 17:38 17.04.2022
1987 Clear 7 1019 48 10000 9.26 310 15:38 17.04.2022
1988 Clear 6 1019 56 10000 5.81 308 14:54 17.04.2022
1989 Clear 6 1018 66 10000 5.66 310 13:45 17.04.2022
1990 Clear 5 1018 69 10000 1.79 23 12:58 17.04.2022
1991 Clouds 5 1017 72 10000 3.58 360 11:53 17.04.2022
1992 Clear 6 1015 77 10000 4.63 330 10:45 17.04.2022
1993 Clear 6 1015 77 10000 4.63 330 10:27 17.04.2022
1994 Clouds 7 1015 79 10000 3.09 300 09:28 17.04.2022
1995 Smoke 7 1015 79 10000 4.63 320 08:42 17.04.2022
1996 Clouds 7 1014 83 10000 2.24 312 07:00 17.04.2022
1997 Rain 9 1013 80 10000 9.77 350 03:53 17.04.2022
1998 Clouds 14 1011 64 10000 4.92 360 00:55 17.04.2022
1999 Clear 18 1007 54 10000 4.12 160 23:50 16.04.2022
2000 Clear 19 1008 49 10000 6.69 170 22:27 16.04.2022
2001 Clear 20 1010 46 10000 5.66 170 21:29 16.04.2022
2002 Clouds 20 1012 41 10000 6.69 160 20:18 16.04.2022
2003 Clear 20 1014 35 10000 3.09 0 18:55 16.04.2022
2004 Clear 18 1015 39 10000 6.17 200 17:40 16.04.2022
2005 Clear 16 1015 42 10000 6.69 200 16:34 16.04.2022
2006 Clouds 15 1016 42 10000 7.72 250 15:43 16.04.2022
2007 Clear 14 1016 43 10000 4.47 360 14:55 16.04.2022
2008 Clouds 13 1016 42 10000 6.26 210 13:58 16.04.2022
2009 Clouds 13 1016 40 10000 6.26 360 13:28 16.04.2022
2010 Clouds 13 1016 39 10000 7.72 230 12:20 16.04.2022
2011 Clear 13 1016 41 10000 8.05 360 10:49 16.04.2022
2012 Clouds 13 1017 43 10000 3.58 0 09:56 16.04.2022
2013 Clouds 13 1017 43 10000 4.47 360 08:57 16.04.2022
2014 Clear 13 1018 41 10000 5.66 190 07:35 16.04.2022
2015 Clouds 13 1018 43 10000 5.81 360 06:58 16.04.2022
2016 Clear 16 1018 36 10000 7.2 190 02:46 16.04.2022
2017 Clear 18 1017 31 10000 10.29 180 00:30 16.04.2022
2018 Clear 19 1017 27 10000 8.23 180 22:58 15.04.2022
2019 Clear 19 1018 24 10000 9.77 180 22:32 15.04.2022
2020 Clear 20 1018 22 10000 8.23 240 21:50 15.04.2022
2021 Clear 20 1018 19 10000 8.23 240 21:18 15.04.2022
2022 Clear 20 1019 18 10000 5.66 240 20:21 15.04.2022
2023 Clear 19 1020 18 10000 8.23 270 19:39 15.04.2022
2024 Clear 19 1021 19 10000 2.57 220 18:53 15.04.2022
2025 Clear 18 1021 18 10000 5.66 310 18:25 15.04.2022
2026 Clear 18 1021 19 10000 7.2 280 17:34 15.04.2022
2027 Clear 17 1021 25 10000 8.23 290 16:37 15.04.2022
2028 Clear 16 1021 26 10000 8.23 290 16:18 15.04.2022
2029 Clear 14 1021 45 10000 4.63 300 14:44 15.04.2022
2030 Clear 11 1020 54 10000 2.57 260 13:40 15.04.2022
2031 Clear 11 1019 52 10000 1.54 270 12:40 15.04.2022
2032 Clouds 10 1019 52 10000 0.89 258 11:56 15.04.2022
2033 Clear 11 1019 51 10000 3.6 320 11:30 15.04.2022
2034 Clear 11 1018 49 10000 3.09 280 10:40 15.04.2022
2035 Clear 12 1018 45 10000 3.09 310 09:46 15.04.2022
2036 Clear 12 1017 43 10000 3.09 310 09:20 15.04.2022
2037 Clouds 14 1016 37 10000 5.66 330 07:32 15.04.2022
2038 Clouds 15 1015 40 10000 5.14 330 06:36 15.04.2022
2039 Clouds 17 1011 66 10000 6.17 330 02:48 15.04.2022
2040 Thunderstorm 22 1006 57 10000 5.66 310 23:31 14.04.2022
2041 Clouds 26 1005 45 10000 6.17 210 22:49 14.04.2022
2042 Clouds 27 1005 44 10000 6.17 210 22:30 14.04.2022
2043 Clouds 27 1005 46 10000 3.13 231 21:59 14.04.2022
2044 Clear 28 1006 42 10000 3.13 284 20:57 14.04.2022
2045 Clear 27 1007 42 10000 7.72 220 19:23 14.04.2022
2046 Clear 26 1008 43 10000 8.75 240 18:29 14.04.2022
2047 Clear 26 1008 45 10000 8.23 230 17:44 14.04.2022
2048 Clear 25 1008 50 10000 5.66 230 16:46 14.04.2022
2049 Clear 21 1008 60 10000 6.69 220 15:26 14.04.2022
2050 Clear 17 1008 76 10000 3.13 154 13:47 14.04.2022
2051 Clouds 15 1007 80 10000 0.89 154 12:58 14.04.2022
2052 Clouds 15 1008 79 10000 6.71 207 12:31 14.04.2022
2053 Clear 15 1007 80 10000 4.47 174 11:30 14.04.2022
2054 Clear 15 1007 80 10000 5.36 360 10:54 14.04.2022
2055 Clear 14 1008 80 10000 4.47 360 10:27 14.04.2022
2056 Clouds 15 1008 80 10000 4.92 360 09:26 14.04.2022
2057 Clear 16 1009 76 10000 4.47 360 07:36 14.04.2022
2058 Clouds 16 1010 74 10000 2.57 40 04:35 14.04.2022
2059 Clear 19 1012 66 10000 3.09 120 23:45 13.04.2022
2060 Clear 20 1013 65 10000 3.6 180 22:29 13.04.2022
2061 Clear 20 1013 66 10000 4.12 100 21:42 13.04.2022
2062 Clear 20 1015 66 10000 6.69 170 20:27 13.04.2022
2063 Clear 20 1015 61 10000 7.2 180 19:46 13.04.2022
2064 Clear 19 1017 57 10000 7.2 130 18:36 13.04.2022
2065 Clear 17 1018 56 10000 4.92 360 17:24 13.04.2022
2066 Clouds 16 1018 54 10000 4.12 60 16:49 13.04.2022
2067 Clouds 15 1020 56 10000 3.6 50 15:44 13.04.2022
2068 Clouds 15 1020 58 10000 3.6 50 15:21 13.04.2022
2069 Clouds 13 1019 62 10000 3.58 360 14:34 13.04.2022
2070 Clouds 12 1019 70 10000 3.6 60 13:37 13.04.2022
2071 Clouds 11 1019 73 10000 4.12 50 12:45 13.04.2022
2072 Clouds 11 1019 72 10000 3.6 40 11:25 13.04.2022
2073 Clouds 11 1018 72 10000 2.57 60 10:27 13.04.2022
2074 Clear 12 1018 72 10000 2.06 80 08:45 13.04.2022
2075 Clear 12 1018 69 10000 0 0 07:44 13.04.2022
2076 Clear 12 1018 69 10000 0 0 06:47 13.04.2022
2077 Clear 13 1018 68 10000 0 0 06:23 13.04.2022
2078 Clear 21 1016 38 10000 2.24 281 00:52 13.04.2022
2079 Clear 22 1016 36 10000 5.66 290 00:19 13.04.2022
2080 Clouds 22 1016 42 10000 5.14 290 22:33 12.04.2022
2081 Clouds 21 1015 43 10000 4.12 310 21:51 12.04.2022
2082 Clouds 20 1017 48 10000 5.66 330 20:48 12.04.2022
2083 Clouds 20 1016 50 10000 5.66 330 20:19 12.04.2022
2084 Clear 19 1016 56 10000 4.63 360 19:40 12.04.2022
2085 Clear 19 1016 57 10000 4.63 360 19:40 12.04.2022
2086 Clouds 17 1016 63 10000 3.13 313 18:56 12.04.2022
2087 Clouds 13 1015 75 10000 4.12 280 17:39 12.04.2022
2088 Clouds 11 1015 81 10000 3.6 280 16:46 12.04.2022
2089 Rain 11 1016 75 10000 3.6 260 15:34 12.04.2022
2090 Clouds 10 1016 72 10000 5.81 360 14:53 12.04.2022
2091 Clouds 10 1015 68 10000 3.6 230 13:50 12.04.2022
2092 Clouds 10 1015 69 10000 3.6 230 13:25 12.04.2022
2093 Clouds 10 1015 68 10000 2.24 180 12:18 12.04.2022
2094 Clouds 10 1015 69 10000 2.06 270 11:35 12.04.2022
2095 Clouds 10 1015 64 10000 3.6 170 09:47 12.04.2022
2096 Clouds 10 1016 61 10000 5.14 210 08:49 12.04.2022
2097 Clouds 11 1017 59 10000 5.66 200 06:47 12.04.2022
2098 Clouds 11 1017 60 10000 4.12 180 05:41 12.04.2022
2099 Clouds 11 1017 62 10000 5.66 170 02:37 12.04.2022
2100 Clear 13 1018 47 10000 7.2 170 23:24 11.04.2022
2101 Clear 14 1017 39 10000 6.17 190 22:33 11.04.2022
2102 Clear 15 1018 35 10000 5.14 220 21:23 11.04.2022
2103 Clear 15 1019 33 10000 3.09 230 20:35 11.04.2022
2104 Clouds 14 1019 35 10000 2.68 170 19:59 11.04.2022
2105 Clear 14 1020 34 10000 3.09 0 19:27 11.04.2022
2106 Clear 13 1020 36 10000 2.06 200 18:54 11.04.2022
2107 Clear 12 1020 40 10000 2.24 219 17:58 11.04.2022
2108 Clear 11 1021 41 10000 2.57 240 17:39 11.04.2022
2109 Clear 11 1021 40 10000 2.57 240 17:39 11.04.2022
2110 Clear 9 1021 45 10000 4.12 40 16:36 11.04.2022
2111 Clear 7 1020 54 10000 2.24 338 14:59 11.04.2022
2112 Clear 5 1020 59 10000 4.63 320 13:37 11.04.2022
2113 Clear 4 1019 60 10000 3.6 290 12:40 11.04.2022
2114 Clear 4 1019 59 10000 3.6 290 12:21 11.04.2022
2115 Clear 5 1017 57 10000 5.66 300 10:41 11.04.2022
2116 Clear 5 1017 57 10000 3.13 360 09:58 11.04.2022
2117 Clear 5 1016 53 10000 5.66 310 08:22 11.04.2022
2118 Clear 7 1014 51 10000 3.58 13 04:56 11.04.2022
2119 Clouds 9 1009 44 10000 9.77 310 23:55 10.04.2022
2120 Clouds 9 1008 44 10000 9.77 300 22:27 10.04.2022
2121 Clouds 9 1008 44 10000 9.77 300 22:27 10.04.2022
2122 Clouds 9 1007 47 10000 4.47 333 21:53 10.04.2022
2123 Clouds 9 1007 46 10000 4.12 250 20:55 10.04.2022
2124 Clouds 9 1008 45 10000 8.23 310 20:18 10.04.2022
2125 Clouds 9 1008 46 10000 9.77 310 19:36 10.04.2022
2126 Clouds 9 1008 47 10000 13.89 320 18:50 10.04.2022
2127 Clouds 9 1008 45 10000 13.89 320 18:26 10.04.2022
2128 Clouds 9 1008 46 10000 9.77 320 17:44 10.04.2022
2129 Clouds 9 1008 46 10000 4.92 330 16:57 10.04.2022
2130 Clear 8 1008 50 10000 8.75 310 15:40 10.04.2022
2131 Clear 7 1008 55 10000 7.2 300 14:42 10.04.2022
2132 Clouds 6 1007 62 10000 5.66 300 13:28 10.04.2022
2133 Clouds 7 1006 69 10000 6.17 310 12:32 10.04.2022
2134 Clouds 7 1006 67 10000 7.2 330 11:38 10.04.2022
2135 Clouds 7 1006 67 10000 7.2 330 11:18 10.04.2022
2136 Clouds 8 1005 66 10000 7.2 330 10:31 10.04.2022
2137 Clouds 8 1005 68 10000 5.14 300 09:41 10.04.2022
2138 Clouds 8 1005 70 10000 4.12 320 08:28 10.04.2022
2139 Clouds 8 1005 71 10000 2.24 10 07:56 10.04.2022
2140 Clouds 9 1005 71 10000 1.79 356 06:59 10.04.2022
2141 Clouds 9 1005 72 10000 5.66 320 03:37 10.04.2022
2142 Thunderstorm 10 1004 63 10000 5.66 360 02:18 10.04.2022
2143 Clouds 12 1002 57 10000 4.47 359 23:53 09.04.2022
2144 Clouds 13 1002 53 10000 7.2 270 22:55 09.04.2022
2145 Clouds 13 1002 55 10000 7.2 270 22:33 09.04.2022
2146 Clouds 12 1003 57 10000 5.14 250 21:19 09.04.2022
2147 Clouds 11 1003 63 10000 6.17 280 20:30 09.04.2022
2148 Clouds 11 1003 65 10000 7.2 310 19:56 09.04.2022
2149 Clouds 11 1003 66 10000 7.2 260 19:38 09.04.2022
2150 Clouds 10 1003 69 10000 9.26 240 18:23 09.04.2022
2151 Clouds 10 1003 71 10000 8.75 240 17:48 09.04.2022
2152 Clouds 10 1003 74 10000 10.29 240 16:56 09.04.2022
2153 Rain 11 1003 71 10000 4.63 180 16:38 09.04.2022
2154 Clouds 10 1003 73 10000 4.92 175 15:49 09.04.2022
2155 Clouds 10 1003 73 10000 4.92 175 15:49 09.04.2022
2156 Clouds 10 1003 73 10000 4.92 175 15:49 09.04.2022
2157 Clouds 10 1003 73 10000 4.92 175 15:49 09.04.2022
2158 Clouds 10 1003 73 10000 3.6 280 15:25 09.04.2022
2159 Clouds 9 1003 78 10000 3.09 110 14:25 09.04.2022
2160 Clouds 8 1003 79 10000 2.06 100 13:26 09.04.2022
2161 Clouds 8 1003 79 10000 2.06 250 12:54 09.04.2022
2162 Rain 9 1004 76 10000 3.09 310 11:45 09.04.2022
2163 Clouds 9 1003 75 10000 1.79 294 10:51 09.04.2022
2164 Clouds 9 1004 73 10000 3.6 280 10:18 09.04.2022
2165 Clouds 10 1004 70 10000 5.14 280 09:22 09.04.2022
2166 Clouds 11 1004 61 10000 4.63 310 08:18 09.04.2022
2167 Clouds 12 1005 52 10000 5.14 180 04:37 09.04.2022
2168 Clouds 16 1004 33 10000 5.66 230 00:34 09.04.2022
2169 Clouds 17 1004 28 10000 7.2 240 23:22 08.04.2022
2170 Clear 18 1003 31 10000 4.63 240 21:49 08.04.2022
2171 Clouds 17 1003 39 10000 7.72 290 20:43 08.04.2022
2172 Clouds 16 1004 46 10000 7.2 230 19:47 08.04.2022
2173 Clouds 15 1003 54 10000 6.17 260 18:46 08.04.2022
2174 Clouds 15 1004 56 10000 6.17 260 18:20 08.04.2022
2175 Clear 14 1003 62 10000 4.12 310 17:28 08.04.2022
2176 Clear 13 1003 64 10000 2.68 336 16:58 08.04.2022
2177 Clear 12 1003 66 10000 6.69 310 16:27 08.04.2022
2178 Clouds 11 1003 72 10000 6.69 290 15:36 08.04.2022
2179 Clouds 10 1002 78 10000 4.63 320 14:52 08.04.2022
2180 Clouds 10 1002 81 10000 7.2 300 14:20 08.04.2022
2181 Rain 9 1001 84 10000 5.81 227 13:31 08.04.2022
2182 Clouds 9 1001 87 10000 7.15 360 12:55 08.04.2022
2183 Mist 10 1000 91 10000 6.71 250 11:41 08.04.2022
2184 Mist 10 999 93 4828 5.66 290 10:20 08.04.2022
2185 Mist 10 998 93 9656 4.12 300 09:20 08.04.2022
2186 Clouds 11 998 93 10000 4.63 30 07:44 08.04.2022
2187 Rain 11 999 94 4828 4.02 123 06:46 08.04.2022
2188 Rain 11 1000 92 9656 11.83 120 03:35 08.04.2022
2189 Mist 10 1003 91 8047 10.8 120 00:31 08.04.2022
2190 Rain 10 1003 92 6437 9.77 60 23:53 07.04.2022
2191 Mist 10 1004 92 8047 10.29 110 22:57 07.04.2022
2192 Mist 10 1004 92 3219 10.29 110 22:37 07.04.2022
2193 Mist 10 1004 92 3219 10.29 110 22:19 07.04.2022
2194 Rain 10 1005 92 4828 10.29 110 21:33 07.04.2022
2195 Rain 9 1005 92 4023 7.72 90 20:56 07.04.2022
2196 Rain 9 1006 92 10000 9.26 90 20:26 07.04.2022
2197 Mist 8 1011 90 10000 6.69 70 17:51 07.04.2022
2198 Mist 8 1011 89 10000 7.2 120 17:24 07.04.2022
2199 Mist 8 1011 88 10000 6.69 60 16:42 07.04.2022
2200 Clouds 8 1010 88 10000 7.2 100 15:58 07.04.2022
2201 Clouds 8 1011 85 10000 6.69 80 14:29 07.04.2022
2202 Clouds 7 1010 83 10000 6.69 60 13:41 07.04.2022
2203 Clouds 8 1010 82 10000 6.17 50 12:28 07.04.2022
2204 Clouds 8 1011 84 10000 3.6 70 10:57 07.04.2022
2205 Clouds 9 1013 86 10000 3.09 30 09:36 07.04.2022
2206 Clouds 9 1013 86 10000 3.09 0 08:35 07.04.2022
2207 Clouds 9 1013 86 10000 4.12 50 06:29 07.04.2022
2208 Drizzle 10 1012 85 10000 5.14 50 02:43 07.04.2022
2209 Clouds 10 1012 86 10000 6.17 40 01:52 07.04.2022
2210 Clouds 11 1009 85 10000 6.69 50 23:57 06.04.2022
2211 Clouds 11 1009 87 10000 7.2 50 22:46 06.04.2022
2212 Clouds 11 1009 88 10000 7.2 50 22:24 06.04.2022
2213 Mist 10 1010 90 10000 7.72 30 21:31 06.04.2022
2214 Mist 10 1009 90 10000 7.72 30 20:28 06.04.2022
2215 Mist 10 1008 89 10000 8.23 40 19:53 06.04.2022
2216 Mist 10 1007 90 10000 8.75 60 18:51 06.04.2022
2217 Clouds 10 1008 92 10000 8.23 40 17:57 06.04.2022
2218 Rain 9 1008 92 10000 7.72 50 17:35 06.04.2022
2219 Rain 9 1008 92 10000 9.77 50 16:36 06.04.2022
2220 Rain 9 1008 93 10000 11.83 50 15:48 06.04.2022
2221 Rain 8 1007 94 10000 8.75 30 14:35 06.04.2022
2222 Rain 8 1007 94 9656 10.29 50 13:23 06.04.2022
2223 Rain 8 1007 93 8047 9.26 50 12:22 06.04.2022
2224 Rain 7 1009 94 6437 7.2 50 10:47 06.04.2022
2225 Rain 7 1009 94 6437 7.2 50 10:25 06.04.2022
2226 Rain 7 1010 93 8047 8.75 50 09:40 06.04.2022
2227 Rain 7 1011 92 9656 6.69 50 08:32 06.04.2022
2228 Rain 8 1012 91 9656 7.2 50 07:49 06.04.2022
2229 Drizzle 9 1015 80 10000 3.6 90 03:54 06.04.2022
2230 Clouds 11 1015 58 10000 5.66 170 23:53 05.04.2022
2231 Clouds 11 1016 53 10000 4.12 150 22:57 05.04.2022
2232 Clouds 12 1016 44 10000 5.14 150 21:23 05.04.2022
2233 Clouds 12 1017 42 10000 4.63 180 20:26 05.04.2022
2234 Clouds 12 1017 43 10000 4.63 180 19:42 05.04.2022
2235 Clouds 12 1018 42 10000 2.57 120 18:18 05.04.2022
2236 Clouds 11 1017 47 10000 3.09 80 16:54 05.04.2022
2237 Clouds 10 1018 51 10000 2.24 132 15:57 05.04.2022
2238 Clouds 9 1019 53 10000 1.54 0 15:35 05.04.2022
2239 Clouds 8 1019 61 10000 2.57 140 14:37 05.04.2022
2240 Clouds 6 1018 64 10000 3.09 60 13:37 05.04.2022
2241 Clouds 5 1017 68 10000 0.45 170 11:51 05.04.2022
2242 Clouds 5 1017 68 10000 0.45 170 11:51 05.04.2022
2243 Clouds 5 1017 68 10000 0.45 170 11:51 05.04.2022
2244 Clouds 6 1018 64 10000 1.54 100 11:33 05.04.2022
2245 Clouds 6 1017 65 10000 0 0 10:41 05.04.2022
2246 Clouds 6 1017 62 10000 0.89 348 08:55 05.04.2022
2247 Clear 7 1017 56 10000 2.57 310 07:24 05.04.2022
2248 Clear 10 1015 46 10000 6.69 280 02:39 05.04.2022
2249 Clouds 12 1014 41 10000 6.17 310 22:48 04.04.2022
2250 Clouds 12 1014 41 10000 6.17 310 22:29 04.04.2022
2251 Clear 12 1014 41 10000 5.66 310 21:22 04.04.2022
2252 Clouds 12 1014 41 10000 4.63 310 20:53 04.04.2022
2253 Clouds 12 1014 41 10000 4.63 310 20:35 04.04.2022
2254 Clear 11 1015 43 10000 6.69 330 19:26 04.04.2022
2255 Clouds 11 1015 45 10000 5.14 300 18:39 04.04.2022
2256 Clear 9 1015 51 10000 8.23 300 16:41 04.04.2022
2257 Clear 8 1015 52 10000 8.23 300 16:23 04.04.2022
2258 Clear 7 1015 59 10000 6.69 290 15:33 04.04.2022
2259 Clear 6 1015 64 10000 5.66 300 14:46 04.04.2022
2260 Clouds 5 1015 68 10000 4.12 260 13:58 04.04.2022
2261 Clear 4 1014 69 10000 5.14 330 12:41 04.04.2022
2262 Clear 4 1013 67 10000 6.69 320 11:29 04.04.2022
2263 Clouds 4 1012 68 10000 3.58 0 09:53 04.04.2022
2264 Clear 5 1010 65 10000 9.77 300 05:34 04.04.2022
2265 Clouds 7 1009 72 10000 7.2 290 02:51 04.04.2022
2266 Clouds 8 1007 77 10000 3.09 60 22:54 03.04.2022
2267 Clouds 8 1007 78 10000 2.06 230 21:59 03.04.2022
2268 Clouds 7 1007 80 10000 2.06 220 21:27 03.04.2022
2269 Clouds 7 1008 81 10000 3.09 170 20:30 03.04.2022
2270 Rain 7 1009 83 6437 4.12 190 18:46 03.04.2022
2271 Rain 7 1009 82 10000 3.09 160 17:55 03.04.2022
2272 Rain 7 1009 81 10000 3.09 60 17:35 03.04.2022
2273 Rain 7 1009 79 10000 2.57 60 16:49 03.04.2022
2274 Clouds 7 1009 80 10000 2.06 70 15:56 03.04.2022
2275 Clouds 6 1010 77 10000 2.06 140 14:25 03.04.2022
2276 Clouds 5 1011 77 10000 3.6 150 13:28 03.04.2022
2277 Clouds 5 1011 77 10000 0.45 0 11:50 03.04.2022
2278 Clouds 5 1013 74 10000 3.6 240 09:57 03.04.2022
2279 Clouds 5 1013 73 10000 4.12 210 09:18 03.04.2022
2280 Clear 6 1014 73 10000 3.6 170 06:28 03.04.2022
2281 Clouds 8 1016 62 10000 4.63 160 02:55 03.04.2022
2282 Clear 12 1015 33 10000 3.6 270 23:48 02.04.2022
2283 Clouds 12 1014 35 10000 2.68 193 22:51 02.04.2022
2284 Clouds 12 1014 35 10000 2.57 0 21:56 02.04.2022
2285 Clear 11 1015 34 10000 3.09 310 21:21 02.04.2022
2286 Clear 11 1016 37 10000 5.66 300 20:36 02.04.2022
2287 Clear 11 1016 37 10000 5.66 300 20:36 02.04.2022
2288 Clear 9 1018 42 10000 6.69 300 18:49 02.04.2022
2289 Clear 8 1019 44 10000 6.69 300 18:20 02.04.2022
2290 Clear 7 1019 46 10000 7.2 320 17:23 02.04.2022
2291 Clouds 5 1019 51 10000 6.69 320 15:55 02.04.2022
2292 Clouds 5 1019 51 10000 7.72 300 15:20 02.04.2022
2293 Clouds 4 1019 53 10000 9.77 310 14:31 02.04.2022
2294 Clouds 4 1018 54 10000 8.75 300 13:34 02.04.2022
2295 Clouds 4 1017 53 10000 9.26 310 12:32 02.04.2022
2296 Clouds 5 1015 51 10000 10.8 310 10:46 02.04.2022
2297 Clouds 6 1015 49 10000 9.77 290 08:33 02.04.2022
2298 Clear 7 1012 45 10000 4.47 0 05:58 02.04.2022
2299 Clear 7 1010 48 10000 11.32 300 03:28 02.04.2022
2300 Clouds 10 1006 52 10000 9.26 270 23:55 01.04.2022
2301 Clouds 11 1003 49 10000 13.89 260 22:55 01.04.2022
2302 Clouds 12 1002 43 10000 13.38 250 21:31 01.04.2022
2303 Clouds 13 1002 41 10000 10.29 260 20:50 01.04.2022
2304 Clouds 13 1001 45 10000 9.26 260 19:51 01.04.2022
2305 Clouds 13 1001 46 10000 9.26 260 19:27 01.04.2022
2306 Clouds 13 1002 49 10000 9.26 270 18:44 01.04.2022
2307 Clouds 13 1002 56 10000 8.75 260 17:46 01.04.2022
2308 Clouds 12 1001 63 10000 8.75 250 16:42 01.04.2022
2309 Clouds 11 1001 76 10000 4.63 290 15:23 01.04.2022
2310 Clouds 11 1001 80 10000 7.72 300 14:20 01.04.2022
2311 Clouds 11 1001 81 10000 9.26 310 13:33 01.04.2022
2312 Clouds 12 1000 81 10000 7.2 270 12:32 01.04.2022
2313 Clouds 12 1000 81 10000 7.2 270 12:32 01.04.2022
2314 Rain 13 998 82 10000 6.69 280 11:33 01.04.2022
2315 Rain 14 998 91 10000 4.63 310 10:18 01.04.2022
2316 Clouds 14 996 90 10000 3.09 140 08:30 01.04.2022
2317 Clouds 15 998 87 10000 8.23 200 06:39 01.04.2022
2318 Clouds 17 999 85 10000 6.71 360 04:47 01.04.2022
2319 Clouds 17 998 84 10000 6.69 170 04:28 01.04.2022
2320 Clouds 16 1000 82 10000 7.15 360 01:54 01.04.2022
2321 Clouds 15 1001 76 10000 6.26 360 22:58 31.03.2022
2322 Clouds 16 1003 73 10000 7.72 160 21:50 31.03.2022
2323 Clouds 17 1003 74 10000 7.72 160 21:31 31.03.2022
2324 Clouds 17 1004 74 10000 8.05 360 20:29 31.03.2022
2325 Clouds 17 1005 73 10000 9.77 200 19:48 31.03.2022
2326 Mist 16 1006 74 10000 12.35 200 18:43 31.03.2022
2327 Mist 15 1007 77 10000 7.72 200 17:49 31.03.2022
2328 Haze 13 1008 79 6437 5.36 360 16:37 31.03.2022
2329 Haze 10 1009 85 6437 2.57 20 15:37 31.03.2022
2330 Mist 9 1009 88 4828 3.13 360 15:19 31.03.2022
2331 Mist 8 1008 90 4828 3.58 360 14:35 31.03.2022
2332 Mist 7 1010 88 4023 3.09 50 11:43 31.03.2022
2333 Clouds 7 1011 83 10000 2.57 60 10:55 31.03.2022
2334 Clouds 7 1012 79 10000 1.79 360 09:44 31.03.2022
2335 Clouds 7 1014 76 10000 7.15 360 07:55 31.03.2022
2336 Clouds 5 1016 64 10000 6.17 180 04:46 31.03.2022
2337 Clouds 7 1019 42 10000 4.63 190 23:37 30.03.2022
2338 Clouds 7 1019 33 10000 5.66 230 22:32 30.03.2022
2339 Clouds 7 1021 30 10000 2.57 0 21:38 30.03.2022
2340 Clear 7 1021 29 10000 2.24 0 20:53 30.03.2022
2341 Clear 6 1022 29 10000 2.06 0 20:20 30.03.2022
2342 Clear 6 1022 29 10000 2.06 0 20:20 30.03.2022
2343 Clear 6 1023 31 10000 2.68 185 19:19 30.03.2022
2344 Clear 5 1024 32 10000 3.09 0 18:18 30.03.2022
2345 Clear 4 1024 33 10000 2.57 0 17:44 30.03.2022
2346 Clear 3 1024 36 10000 2.24 276 16:56 30.03.2022
2347 Clear 3 1024 37 10000 2.06 70 16:32 30.03.2022
2348 Clouds 1 1024 43 10000 3.6 350 14:59 30.03.2022
2349 Clear -2 1025 44 10000 4.12 300 13:35 30.03.2022
2350 Clear -2 1024 45 10000 4.12 310 12:47 30.03.2022
2351 Clear -2 1024 45 10000 1.34 324 10:58 30.03.2022
2352 Clear -1 1024 44 10000 4.63 320 09:59 30.03.2022
2353 Clear -1 1023 44 10000 5.14 340 09:20 30.03.2022
2354 Clear 0 1023 42 10000 6.17 320 07:32 30.03.2022
2355 Clear 1 1023 40 10000 5.66 310 05:40 30.03.2022
2356 Clear 1 1022 35 10000 7.2 300 03:39 30.03.2022
2357 Clouds 3 1019 33 10000 10.29 320 00:31 30.03.2022
2358 Clouds 3 1019 36 10000 10.29 300 22:20 29.03.2022
2359 Clouds 2 1019 37 10000 9.26 320 21:44 29.03.2022
2360 Clouds 2 1020 38 10000 6.26 303 20:52 29.03.2022
2361 Clouds 2 1020 39 10000 10.29 300 19:53 29.03.2022
2362 Clear 2 1020 41 10000 4.47 0 18:55 29.03.2022
2363 Clear 2 1020 41 10000 8.23 330 18:19 29.03.2022
2364 Clear 1 1021 43 10000 8.23 310 17:22 29.03.2022
2365 Clouds 0 1021 46 10000 8.23 300 16:56 29.03.2022
2366 Clouds -1 1021 48 10000 7.72 290 15:57 29.03.2022
2367 Clear -3 1021 52 10000 8.75 320 14:50 29.03.2022
2368 Clouds -3 1021 54 10000 8.23 310 13:56 29.03.2022
2369 Clouds -4 1020 55 10000 8.23 300 12:51 29.03.2022
2370 Clouds -4 1020 54 10000 7.2 310 11:43 29.03.2022
2371 Clouds -4 1019 53 10000 8.75 310 10:28 29.03.2022
2372 Clouds -4 1019 52 10000 9.77 310 09:33 29.03.2022
2373 Clouds -4 1017 48 10000 4.47 352 06:56 29.03.2022
2374 Clouds -4 1017 40 10000 12.35 320 03:54 29.03.2022
2375 Clouds -2 1013 39 10000 11.32 310 00:33 29.03.2022
2376 Clouds -1 1012 34 10000 11.32 300 23:22 28.03.2022
2377 Clouds -1 1012 35 10000 7.2 300 22:51 28.03.2022
2378 Clouds -1 1012 35 10000 9.77 290 22:23 28.03.2022
2379 Clouds -1 1011 35 10000 6.26 276 20:54 28.03.2022
2380 Clouds -1 1011 30 10000 9.26 300 20:20 28.03.2022
2381 Clouds -1 1012 29 10000 12.86 300 19:41 28.03.2022
2382 Clouds -1 1011 30 10000 6.69 270 18:56 28.03.2022
2383 Clouds -1 1012 30 10000 10.29 290 18:36 28.03.2022
2384 Clouds -1 1012 32 10000 10.8 300 17:39 28.03.2022
2385 Clouds -2 1013 37 10000 11.83 310 16:19 28.03.2022
2386 Clear -4 1013 42 10000 10.8 300 14:27 28.03.2022
2387 Clouds -5 1013 44 10000 6.17 290 13:58 28.03.2022
2388 Clear -5 1012 43 10000 10.29 300 12:20 28.03.2022
2389 Clear -5 1012 43 10000 10.29 290 11:23 28.03.2022
2390 Clear -4 1011 45 10000 12.35 300 09:42 28.03.2022
2391 Clear -3 1011 44 10000 12.35 300 09:19 28.03.2022
2392 Clear -3 1011 44 10000 8.75 300 08:22 28.03.2022
2393 Clear -2 1010 46 10000 8.75 300 07:28 28.03.2022
2394 Clouds 1 1008 55 10000 10.29 310 03:43 28.03.2022
2395 Clouds 4 1004 59 10000 10.8 300 23:28 27.03.2022
2396 Clouds 5 1003 56 10000 10.29 270 22:24 27.03.2022
2397 Clouds 6 1004 56 10000 10.8 270 21:41 27.03.2022
2398 Clouds 7 1003 48 10000 11.32 260 20:54 27.03.2022
2399 Clouds 7 1003 46 10000 8.75 300 20:54 27.03.2022
2400 Clouds 7 1003 46 10000 8.75 300 20:54 27.03.2022
2401 Clouds 7 1003 44 10000 7.2 280 19:47 27.03.2022
2402 Clouds 7 1003 45 10000 7.2 280 18:55 27.03.2022
2403 Clouds 7 1003 46 10000 7.72 330 18:27 27.03.2022
2404 Clouds 7 1003 47 10000 7.72 330 18:27 27.03.2022
2405 Clouds 7 1003 46 10000 7.72 330 18:27 27.03.2022
2406 Clouds 7 1004 48 10000 8.75 270 17:38 27.03.2022
2407 Clouds 6 1004 48 10000 8.23 280 16:21 27.03.2022
2408 Clouds 5 1003 54 10000 7.72 300 15:18 27.03.2022
2409 Clouds 4 1003 62 10000 7.2 260 13:55 27.03.2022
2410 Clouds 4 1002 62 10000 6.69 310 12:24 27.03.2022
2411 Clouds 4 1001 66 10000 4.47 360 10:53 27.03.2022
2412 Clouds 5 1000 72 10000 5.66 260 08:43 27.03.2022
2413 Clouds 6 1000 62 10000 7.2 270 05:54 27.03.2022
2414 Clear 9 997 50 10000 8.23 270 00:48 27.03.2022
2415 Clouds 10 996 47 10000 8.23 250 23:40 26.03.2022
2416 Clouds 10 996 48 10000 10.8 270 22:36 26.03.2022
2417 Clouds 10 995 51 10000 9.26 250 21:33 26.03.2022
2418 Clouds 10 996 54 10000 4.63 300 20:20 26.03.2022
2419 Thunderstorm 10 996 58 10000 8.75 260 19:21 26.03.2022
2420 Clouds 9 999 62 10000 5.14 270 17:53 26.03.2022
2421 Clouds 9 998 70 10000 7.72 280 17:32 26.03.2022
2422 Clouds 10 998 57 10000 7.2 260 16:27 26.03.2022
2423 Clouds 10 999 58 10000 4.47 253 14:57 26.03.2022
2424 Clouds 9 999 62 10000 5.66 270 13:52 26.03.2022
2425 Clouds 8 1000 61 10000 5.14 260 12:47 26.03.2022
2426 Clouds 9 999 62 10000 4.63 260 11:33 26.03.2022
2427 Clouds 9 999 62 10000 6.69 260 10:18 26.03.2022
2428 Clouds 10 1000 61 10000 4.63 230 08:33 26.03.2022
2429 Clouds 10 1002 56 10000 6.69 260 05:54 26.03.2022
2430 Clouds 11 1002 55 10000 4.63 260 04:21 26.03.2022
2431 Clouds 12 1000 52 10000 8.23 270 23:51 25.03.2022
2432 Clouds 13 1001 51 10000 8.75 270 21:35 25.03.2022
2433 Clouds 14 1000 52 10000 8.23 250 20:46 25.03.2022
2434 Clouds 14 1000 50 10000 7.2 260 19:36 25.03.2022
2435 Clouds 15 1001 52 10000 6.69 260 18:47 25.03.2022
2436 Clouds 14 1003 56 10000 5.14 280 17:37 25.03.2022
2437 Clear 13 1004 65 10000 4.63 250 16:50 25.03.2022
2438 Clear 12 1004 68 10000 4.63 250 16:18 25.03.2022
2439 Clear 9 1005 83 10000 4.63 300 14:26 25.03.2022
2440 Fog 7 1005 88 10000 3.6 300 12:48 25.03.2022
2441 Clouds 7 1005 90 10000 3.09 270 09:57 25.03.2022
2442 Clouds 7 1004 91 10000 2.24 276 09:27 25.03.2022
2443 Clouds 7 1005 92 10000 4.63 320 07:54 25.03.2022
2444 Clouds 7 1005 94 10000 5.66 300 07:27 25.03.2022
2445 Rain 7 1004 95 10000 3.6 40 05:55 25.03.2022
2446 Mist 7 1009 94 10000 6.69 40 00:46 25.03.2022
2447 Mist 8 1010 91 10000 6.69 30 22:39 24.03.2022
2448 Mist 8 1011 93 6437 7.72 30 21:42 24.03.2022
2449 Mist 7 1011 93 9656 8.23 40 20:26 24.03.2022
2450 Mist 7 1012 93 9656 9.26 50 19:47 24.03.2022
2451 Mist 7 1014 93 6437 10.29 50 17:47 24.03.2022
2452 Mist 7 1014 93 6437 10.29 50 17:19 24.03.2022
2453 Mist 6 1014 93 8047 10.29 50 15:45 24.03.2022
2454 Mist 6 1014 93 6437 8.23 30 14:48 24.03.2022
2455 Mist 6 1014 93 6437 9.26 50 14:18 24.03.2022
2456 Clouds 6 1015 93 10000 8.23 30 12:52 24.03.2022
2457 Clouds 6 1015 93 10000 9.77 30 11:47 24.03.2022
2458 Clouds 5 1016 93 10000 10.8 50 09:55 24.03.2022
2459 Rain 5 1016 93 10000 7.2 30 08:42 24.03.2022
2460 Rain 4 1017 87 9656 7.72 50 06:49 24.03.2022
2461 Rain 5 1020 72 8047 4.63 70 03:57 24.03.2022
2462 Clouds 6 1022 56 10000 6.69 100 23:20 23.03.2022
2463 Clouds 7 1022 51 10000 5.14 120 21:39 23.03.2022
2464 Clouds 7 1022 50 10000 5.14 120 21:18 23.03.2022
2465 Clouds 8 1023 44 10000 4.63 50 19:46 23.03.2022
2466 Clear 8 1023 41 10000 5.66 50 18:45 23.03.2022
2467 Clear 8 1025 40 10000 6.17 50 17:37 23.03.2022
2468 Clear 7 1025 41 10000 5.66 40 16:39 23.03.2022
2469 Clear 6 1024 40 10000 4.63 60 14:51 23.03.2022
2470 Clear 6 1025 41 10000 4.63 60 14:26 23.03.2022
2471 Clouds 5 1024 46 10000 2.68 360 12:54 23.03.2022
2472 Clear 5 1024 38 10000 5.66 20 09:45 23.03.2022
2473 Clear 7 1024 29 10000 5.14 360 06:48 23.03.2022
2474 Clear 8 1023 26 10000 5.14 340 05:23 23.03.2022
2475 Clear 13 1020 17 10000 7.72 320 00:35 23.03.2022
2476 Clear 13 1019 17 10000 7.72 310 23:39 22.03.2022
2477 Clear 14 1019 16 10000 9.77 320 21:30 22.03.2022
2478 Clear 14 1019 16 10000 9.77 320 21:30 22.03.2022
2479 Clear 15 1020 16 10000 9.77 300 20:49 22.03.2022
2480 Clear 14 1020 18 10000 4.92 301 19:51 22.03.2022
2481 Clear 13 1021 18 10000 7.72 330 19:23 22.03.2022
2482 Clear 13 1021 20 10000 8.23 290 18:38 22.03.2022
2483 Clear 11 1022 24 10000 7.72 290 17:37 22.03.2022
2484 Clear 10 1022 29 10000 9.26 310 16:28 22.03.2022
2485 Clear 8 1023 35 10000 7.2 300 15:23 22.03.2022
2486 Clouds 8 1022 36 10000 7.2 330 14:57 22.03.2022
2487 Clear 8 1022 37 10000 7.2 300 14:38 22.03.2022
2488 Clear 7 1022 38 10000 7.72 320 13:36 22.03.2022
2489 Clouds 8 1021 36 10000 9.26 320 11:52 22.03.2022
2490 Clouds 9 1020 40 10000 6.69 300 10:46 22.03.2022
2491 Clouds 10 1019 44 10000 7.72 320 08:38 22.03.2022
2492 Clouds 11 1019 41 10000 2.24 318 06:53 22.03.2022
2493 Clear 12 1018 39 10000 2.24 0 03:52 22.03.2022
2494 Clear 15 1016 26 10000 8.23 310 00:34 22.03.2022
2495 Clear 17 1015 23 10000 9.77 290 22:42 21.03.2022
2496 Clouds 17 1016 24 10000 10.8 310 21:18 21.03.2022
2497 Clear 17 1016 24 10000 11.32 300 20:42 21.03.2022
2498 Clear 16 1016 26 10000 7.72 280 19:59 21.03.2022
2499 Clear 16 1017 26 10000 8.75 300 19:35 21.03.2022
2500 Clear 15 1018 29 10000 7.72 270 18:46 21.03.2022
2501 Clear 13 1019 35 10000 7.2 280 17:32 21.03.2022
2502 Clear 13 1020 39 10000 4.47 306 16:58 21.03.2022
2503 Clear 12 1020 40 10000 7.2 320 16:24 21.03.2022
2504 Clear 10 1020 45 10000 5.66 290 15:21 21.03.2022
2505 Clear 9 1019 49 10000 4.63 290 14:28 21.03.2022
2506 Clear 7 1019 54 10000 3.13 331 12:53 21.03.2022
2507 Clear 6 1018 54 10000 6.17 290 11:57 21.03.2022
2508 Clear 7 1017 54 10000 6.17 300 10:59 21.03.2022
2509 Clear 7 1016 56 10000 7.72 310 09:42 21.03.2022
2510 Clear 8 1014 58 10000 6.17 320 07:22 21.03.2022
2511 Clouds 8 1013 63 10000 7.72 310 04:54 21.03.2022
2512 Clouds 11 1009 56 10000 8.75 290 00:46 21.03.2022
2513 Clouds 13 1008 56 10000 8.75 280 22:56 20.03.2022
2514 Clouds 13 1008 55 10000 6.69 290 22:22 20.03.2022
2515 Clouds 13 1007 55 10000 8.75 280 21:31 20.03.2022
2516 Clouds 13 1007 55 10000 8.75 280 21:31 20.03.2022
2517 Clouds 13 1007 54 10000 9.26 270 20:48 20.03.2022
2518 Clouds 14 1007 53 10000 9.26 270 20:25 20.03.2022
2519 Clouds 13 1008 54 10000 8.75 260 19:43 20.03.2022
2520 Clouds 13 1008 55 10000 8.75 260 19:19 20.03.2022
2521 Clouds 14 1008 54 10000 7.72 300 17:43 20.03.2022
2522 Clouds 14 1008 54 10000 7.72 300 17:24 20.03.2022
2523 Clouds 14 1008 56 10000 8.23 280 15:57 20.03.2022
2524 Clear 13 1009 59 10000 6.69 260 14:38 20.03.2022
2525 Clear 12 1009 63 10000 5.66 260 13:31 20.03.2022
2526 Clouds 12 1008 69 10000 4.47 360 11:58 20.03.2022
2527 Clouds 13 1007 69 10000 6.17 280 09:59 20.03.2022
2528 Clouds 13 1007 74 10000 4.12 240 08:19 20.03.2022
2529 Clouds 14 1007 84 10000 4.02 360 05:49 20.03.2022
2530 Rain 15 1005 81 10000 5.66 200 03:18 20.03.2022
2531 Clouds 17 1005 69 10000 5.36 360 00:53 20.03.2022
2532 Clear 17 1003 69 10000 4.47 360 23:37 19.03.2022
2533 Clear 18 1005 68 10000 4.63 140 22:25 19.03.2022
2534 Clear 19 1006 66 10000 5.66 150 21:26 19.03.2022
2535 Clear 17 1008 65 10000 4.63 90 19:22 19.03.2022
2536 Clear 17 1009 68 10000 5.14 200 18:38 19.03.2022
2537 Clouds 17 1010 72 10000 4.12 40 17:48 19.03.2022
2538 Clouds 15 1011 80 10000 2.57 40 16:46 19.03.2022
2539 Mist 13 1012 91 9656 3.6 30 15:26 19.03.2022
2540 Mist 11 1012 93 4828 2.24 360 13:45 19.03.2022
2541 Mist 11 1012 93 4828 3.6 30 12:43 19.03.2022
2542 Mist 10 1012 93 9656 3.6 30 12:20 19.03.2022
2543 Mist 10 1013 93 10000 4.63 30 11:45 19.03.2022
2544 Mist 10 1013 92 1609 4.92 360 09:23 19.03.2022
2545 Clouds 10 1015 87 10000 6.17 170 05:44 19.03.2022
2546 Clear 12 1016 81 10000 4.47 360 02:33 19.03.2022
2547 Clear 15 1015 72 10000 4.47 360 23:52 18.03.2022
2548 Clouds 17 1016 71 10000 4.92 360 22:58 18.03.2022
2549 Clear 19 1016 63 10000 6.17 180 22:22 18.03.2022
2550 Clear 22 1016 46 10000 4.63 170 20:31 18.03.2022
2551 Clear 21 1016 51 10000 3.6 210 19:45 18.03.2022
2552 Clear 21 1016 51 10000 3.6 210 19:18 18.03.2022
2553 Clear 17 1017 74 10000 1.34 257 16:59 18.03.2022
2554 Mist 15 1017 80 8047 3.6 330 16:34 18.03.2022
2555 Mist 11 1016 92 4023 3.09 240 14:29 18.03.2022
2556 Mist 10 1016 93 6437 3.09 240 13:41 18.03.2022
2557 Mist 10 1015 92 10000 3.09 260 11:43 18.03.2022
2558 Mist 11 1014 92 10000 4.12 280 10:27 18.03.2022
2559 Mist 11 1013 93 10000 3.09 320 08:50 18.03.2022
2560 Mist 11 1013 93 6437 3.6 300 07:43 18.03.2022
2561 Mist 12 1013 94 1609 0.89 45 05:20 18.03.2022
2562 Mist 12 1013 93 2816 4.12 10 01:55 18.03.2022
2563 Mist 12 1013 93 8047 6.17 40 00:21 18.03.2022
2564 Mist 11 1012 93 9656 6.69 50 22:54 17.03.2022
2565 Mist 11 1012 93 9656 6.69 50 22:21 17.03.2022
2566 Mist 11 1012 91 10000 6.17 30 21:46 17.03.2022
2567 Fog 11 1013 91 10000 7.2 30 20:58 17.03.2022
2568 Mist 11 1014 91 10000 7.2 30 20:30 17.03.2022
2569 Clouds 11 1014 91 10000 5.66 30 19:39 17.03.2022
2570 Mist 11 1016 93 8047 5.66 30 18:55 17.03.2022
2571 Mist 10 1017 91 10000 5.66 30 17:47 17.03.2022
2572 Rain 10 1017 92 10000 5.66 30 16:29 17.03.2022
2573 Rain 9 1018 92 10000 6.17 30 15:43 17.03.2022
2574 Clouds 9 1018 92 10000 7.72 30 15:21 17.03.2022
2575 Mist 8 1019 92 4023 4.63 40 13:48 17.03.2022
2576 Mist 8 1019 91 4023 4.63 20 12:48 17.03.2022
2577 Mist 8 1019 88 10000 5.66 50 11:47 17.03.2022
2578 Mist 8 1019 87 10000 5.66 50 11:22 17.03.2022
2579 Mist 8 1020 90 9656 4.63 50 09:41 17.03.2022
2580 Mist 8 1020 89 10000 4.12 40 08:31 17.03.2022
2581 Clear 8 1021 83 10000 5.14 50 06:25 17.03.2022
2582 Clear 8 1022 81 10000 4.63 30 05:39 17.03.2022
2583 Clear 11 1022 69 10000 5.14 160 00:42 17.03.2022
2584 Clouds 13 1021 61 10000 5.81 360 22:59 16.03.2022
2585 Clear 14 1021 59 10000 5.66 130 22:39 16.03.2022
2586 Clear 14 1021 57 10000 5.66 130 22:19 16.03.2022
2587 Clear 15 1021 54 10000 6.69 150 21:29 16.03.2022
2588 Clear 17 1022 45 10000 4.12 70 19:26 16.03.2022
2589 Clear 17 1023 45 10000 2.68 200 18:55 16.03.2022
2590 Clear 17 1023 45 10000 4.63 80 18:24 16.03.2022
2591 Clear 16 1024 47 10000 4.12 50 17:37 16.03.2022
2592 Clear 16 1024 49 10000 2.57 260 16:50 16.03.2022
2593 Clear 14 1024 52 10000 2.06 0 15:41 16.03.2022
2594 Clear 11 1023 65 10000 2.06 210 13:44 16.03.2022
2595 Clouds 9 1023 69 10000 2.68 228 12:59 16.03.2022
2596 Clear 8 1021 71 10000 0.45 0 11:51 16.03.2022
2597 Clear 9 1021 68 10000 2.06 320 11:19 16.03.2022
2598 Clear 10 1021 63 10000 3.13 271 09:59 16.03.2022
2599 Clear 11 1021 59 10000 3.09 260 08:37 16.03.2022
2600 Clouds 14 1021 45 10000 6.69 320 03:33 16.03.2022
2601 Clear 13 1019 52 10000 5.36 360 00:42 16.03.2022
2602 Clear 15 1019 48 10000 6.69 170 22:37 15.03.2022
2603 Clear 15 1020 46 10000 5.66 170 21:50 15.03.2022
2604 Clear 17 1022 39 10000 4.12 210 19:47 15.03.2022
2605 Clear 16 1023 39 10000 3.09 200 18:45 15.03.2022
2606 Clear 14 1024 45 10000 2.06 230 16:52 15.03.2022
2607 Clear 12 1024 44 10000 2.06 230 16:18 15.03.2022
2608 Clear 10 1025 53 10000 3.58 219 14:57 15.03.2022
2609 Clear 9 1024 56 10000 4.12 230 14:31 15.03.2022
2610 Clear 6 1025 63 10000 3.6 190 13:27 15.03.2022
2611 Clear 5 1025 65 10000 3.13 170 11:57 15.03.2022
2612 Clear 6 1025 63 10000 4.02 176 11:19 15.03.2022
2613 Clear 7 1025 60 10000 3.09 220 09:39 15.03.2022
2614 Clear 7 1026 58 10000 4.47 360 08:32 15.03.2022
2615 Clear 8 1026 58 10000 4.63 220 07:50 15.03.2022
2616 Clear 8 1026 58 10000 3.58 247 06:51 15.03.2022
2617 Clouds 9 1027 56 10000 4.12 170 02:59 15.03.2022
2618 Clear 11 1027 51 10000 5.66 180 23:39 14.03.2022
2619 Clear 11 1027 50 10000 5.66 180 23:21 14.03.2022
2620 Clear 12 1027 43 10000 6.69 160 22:19 14.03.2022
2621 Clear 13 1028 40 10000 6.69 260 21:26 14.03.2022
2622 Clear 13 1029 38 10000 6.69 240 20:35 14.03.2022
2623 Clouds 13 1029 38 10000 5.66 230 19:59 14.03.2022
2624 Clear 11 1029 38 10000 5.66 270 18:42 14.03.2022
2625 Clear 11 1030 39 10000 5.66 270 17:54 14.03.2022
2626 Clouds 9 1030 41 10000 5.66 240 16:58 14.03.2022
2627 Clear 6 1030 47 10000 6.17 250 15:37 14.03.2022
2628 Clear 5 1030 53 10000 6.26 223 14:38 14.03.2022
2629 Clear 1 1028 63 10000 5.66 240 12:22 14.03.2022
2630 Clouds 2 1027 62 10000 5.81 209 10:51 14.03.2022
2631 Clouds 1 1026 59 10000 6.26 360 09:44 14.03.2022
2632 Clouds 1 1026 59 10000 4.47 360 09:21 14.03.2022
2633 Clouds 1 1026 59 10000 5.36 360 08:55 14.03.2022
2634 Clouds 1 1026 58 10000 4.47 360 07:28 14.03.2022
2635 Clouds 0 1026 58 10000 4.92 360 05:45 14.03.2022
2636 Clouds -2 1025 67 10000 6.69 260 01:55 14.03.2022
2637 Clouds -2 1025 69 10000 6.69 260 01:24 14.03.2022
2638 Clouds 0 1022 42 10000 9.26 250 22:43 13.03.2022
2639 Clear 1 1021 39 10000 7.72 250 21:29 13.03.2022
2640 Clear 1 1021 40 10000 7.72 250 20:55 13.03.2022
2641 Clear 1 1022 40 10000 8.75 230 20:30 13.03.2022
2642 Clear 1 1022 42 10000 8.75 260 19:49 13.03.2022
2643 Clear 1 1023 43 10000 8.75 260 19:28 13.03.2022
2644 Clouds 0 1023 44 10000 8.23 220 18:59 13.03.2022
2645 Clouds 0 1023 44 10000 8.23 220 18:59 13.03.2022
2646 Clear 0 1024 44 10000 8.23 240 18:31 13.03.2022
2647 Clear 0 1023 46 10000 8.23 260 17:41 13.03.2022
2648 Clear -1 1023 47 10000 8.23 260 17:19 13.03.2022
2649 Clear -1 1023 47 10000 8.75 280 16:30 13.03.2022
2650 Clear -2 1022 48 10000 7.72 280 15:47 13.03.2022
2651 Clouds -3 1021 52 10000 6.17 280 14:56 13.03.2022
2652 Clear -4 1021 56 10000 6.69 290 13:43 13.03.2022
2653 Clear -5 1020 58 10000 5.66 270 12:55 13.03.2022
2654 Clear -5 1018 56 10000 10.29 300 11:52 13.03.2022
2655 Clear -5 1018 55 10000 10.29 300 11:32 13.03.2022
2656 Clouds -6 1016 55 10000 10.8 290 10:47 13.03.2022
2657 Clouds -5 1015 55 10000 10.8 290 10:24 13.03.2022
2658 Clouds -6 1014 55 10000 9.26 280 09:41 13.03.2022
2659 Clouds -5 1012 53 10000 10.29 270 08:46 13.03.2022
2660 Clouds -5 1010 50 10000 11.32 260 07:42 13.03.2022
2661 Clouds -5 1007 48 10000 13.38 290 05:41 13.03.2022
2662 Clouds -3 1002 54 10000 9.26 300 02:43 13.03.2022
2663 Clouds -4 998 73 1207 12.35 320 23:56 12.03.2022
2664 Snow -3 994 72 10000 11.83 310 22:31 12.03.2022
2665 Rain 0 991 76 10000 14.92 320 20:47 12.03.2022
2666 Rain -1 991 86 10000 12.86 320 19:48 12.03.2022
2667 Rain 0 991 87 10000 11.83 330 19:27 12.03.2022
2668 Snow 0 991 89 6437 9.77 340 18:27 12.03.2022
2669 Mist 1 992 91 4828 10.29 340 17:34 12.03.2022
2670 Rain 2 994 89 10000 11.83 320 16:24 12.03.2022
2671 Rain 7 994 93 6437 6.17 320 15:24 12.03.2022
2672 Rain 7 994 93 4828 4.12 40 14:40 12.03.2022
2673 Rain 7 997 93 4023 3.6 170 13:32 12.03.2022
2674 Clouds 7 1000 92 10000 2.06 140 11:56 12.03.2022
2675 Clouds 7 1000 92 10000 2.24 360 11:38 12.03.2022
2676 Mist 7 1000 91 10000 3.58 360 10:58 12.03.2022
2677 Mist 7 1003 90 10000 3.6 180 09:46 12.03.2022
2678 Clouds 7 1004 90 10000 2.68 360 08:56 12.03.2022
2679 Clouds 7 1007 88 10000 5.81 360 07:27 12.03.2022
2680 Clouds 7 1012 84 10000 3.09 0 03:36 12.03.2022
2681 Clear 7 1014 69 10000 4.12 150 23:56 11.03.2022
2682 Clear 7 1014 69 10000 4.12 150 23:56 11.03.2022
2683 Clear 7 1014 69 10000 4.12 150 23:56 11.03.2022
2684 Clear 8 1014 63 10000 5.14 180 23:18 11.03.2022
2685 Clear 8 1014 63 10000 5.14 180 23:18 11.03.2022
2686 Clear 10 1015 45 10000 6.17 150 21:41 11.03.2022
2687 Clouds 11 1015 42 10000 6.17 150 20:56 11.03.2022
2688 Clear 11 1016 39 10000 5.36 360 20:34 11.03.2022
2689 Clear 11 1017 40 10000 5.66 160 19:52 11.03.2022
2690 Clear 11 1018 38 10000 5.66 160 19:22 11.03.2022
2691 Clear 10 1020 44 10000 3.09 160 17:30 11.03.2022
2692 Clear 9 1020 47 10000 3.09 210 16:36 11.03.2022
2693 Clear 8 1020 51 10000 1.79 168 15:55 11.03.2022
2694 Clear 5 1020 64 10000 2.68 360 14:20 11.03.2022
2695 Clear 3 1020 73 10000 1.79 360 12:45 11.03.2022
2696 Clear 2 1020 72 10000 1.54 250 12:21 11.03.2022
2697 Clear 2 1020 72 10000 0.45 360 11:53 11.03.2022
2698 Clouds 3 1019 71 10000 1.34 360 09:59 11.03.2022
2699 Clouds 2 1020 73 10000 0.89 360 08:56 11.03.2022
2700 Clear 3 1020 70 10000 2.06 260 08:24 11.03.2022
2701 Clear 3 1020 68 10000 2.57 270 07:45 11.03.2022
2702 Clouds 4 1021 67 10000 2.57 200 05:44 11.03.2022
2703 Clear 4 1021 70 10000 2.57 270 03:48 11.03.2022
2704 Clear 8 1020 59 10000 4.12 160 23:38 10.03.2022
2705 Clear 9 1021 55 10000 3.09 90 22:30 10.03.2022
2706 Clear 9 1021 51 10000 3.6 220 21:40 10.03.2022
2707 Clear 9 1020 51 10000 3.6 220 21:18 10.03.2022
2708 Clear 9 1021 54 10000 3.09 10 19:45 10.03.2022
2709 Clear 8 1021 61 10000 2.57 60 18:53 10.03.2022
2710 Haze 6 1023 74 10000 2.06 270 17:28 10.03.2022
2711 Haze 3 1023 84 8047 1.79 264 15:55 10.03.2022
2712 Mist 2 1023 89 6437 2.57 30 14:44 10.03.2022
2713 Mist 0 1023 90 4828 2.57 340 13:21 10.03.2022
2714 Mist 0 1021 89 1609 3.09 60 11:58 10.03.2022
2715 Clear 0 1020 87 10000 2.57 270 10:53 10.03.2022
2716 Clear 0 1019 87 10000 3.09 260 09:18 10.03.2022
2717 Clouds 1 1018 88 10000 4.47 66 07:38 10.03.2022
2718 Rain 2 1017 87 10000 3.6 10 04:36 10.03.2022
2719 Rain 2 1015 90 10000 5.14 360 01:46 10.03.2022
2720 Rain 2 1013 93 6437 5.66 50 23:18 09.03.2022
2721 Mist 1 1013 91 4828 6.17 50 21:49 09.03.2022
2722 Mist 1 1012 91 3219 6.17 50 21:31 09.03.2022
2723 Rain 1 1013 90 6437 6.69 40 19:44 09.03.2022
2724 Snow 1 1014 91 4828 5.14 30 18:33 09.03.2022
2725 Rain 2 1016 91 8047 3.6 110 17:27 09.03.2022
2726 Rain 2 1018 87 10000 5.66 90 16:31 09.03.2022
2727 Rain 3 1019 83 10000 5.66 50 15:19 09.03.2022
2728 Clouds 3 1020 83 10000 5.14 40 13:53 09.03.2022
2729 Clouds 3 1020 80 10000 4.47 360 12:47 09.03.2022
2730 Rain 4 1020 65 10000 4.63 50 11:53 09.03.2022
2731 Rain 4 1020 63 10000 4.63 50 11:35 09.03.2022
2732 Clear 4 1021 59 10000 4.92 360 09:54 09.03.2022
2733 Clear 4 1021 54 10000 2.57 40 08:51 09.03.2022
2734 Clear 4 1023 49 10000 3.09 100 07:38 09.03.2022
2735 Clear 4 1022 43 10000 3.09 10 02:46 09.03.2022
2736 Clear 6 1021 37 10000 4.12 330 00:41 09.03.2022
2737 Clear 8 1020 34 10000 5.66 320 22:47 08.03.2022
2738 Clouds 8 1020 35 10000 5.14 320 21:59 08.03.2022
2739 Clear 8 1020 35 10000 7.72 300 21:23 08.03.2022
2740 Clear 8 1020 35 10000 7.2 360 20:35 08.03.2022
2741 Clear 7 1019 38 10000 1.79 275 19:31 08.03.2022
2742 Clear 7 1019 38 10000 10.8 310 18:44 08.03.2022
2743 Clear 7 1019 37 10000 9.26 310 17:30 08.03.2022
2744 Clouds 6 1018 43 10000 13.89 300 15:45 08.03.2022
2745 Clouds 5 1018 47 10000 14.92 310 14:19 08.03.2022
2746 Clouds 4 1015 51 10000 12.86 300 12:43 08.03.2022
2747 Clouds 5 1014 52 10000 13.38 300 11:45 08.03.2022
2748 Clouds 5 1012 53 10000 12.86 310 10:44 08.03.2022
2749 Clouds 6 1011 53 10000 13.89 310 09:43 08.03.2022
2750 Clouds 8 1007 55 10000 6.71 360 06:59 08.03.2022
2751 Clouds 15 1002 48 10000 10.73 360 04:52 08.03.2022
2752 Clouds 18 1002 69 10000 7.15 174 23:50 07.03.2022
2753 Clouds 21 1003 58 10000 10.29 260 21:54 07.03.2022
2754 Clouds 21 1003 56 10000 12.35 220 21:31 07.03.2022
2755 Clouds 22 1003 55 10000 12.35 220 20:46 07.03.2022
2756 Clouds 21 1004 55 10000 10.29 220 19:55 07.03.2022
2757 Clouds 21 1004 55 10000 10.29 220 19:31 07.03.2022
2758 Clouds 20 1006 57 10000 11.32 210 18:42 07.03.2022
2759 Clear 16 1008 65 10000 7.2 220 17:48 07.03.2022
2760 Clouds 15 1008 73 10000 7.2 220 16:55 07.03.2022
2761 Clear 16 1011 64 10000 5.14 190 15:35 07.03.2022
2762 Clouds 13 1013 71 10000 3.09 230 13:51 07.03.2022
2763 Clear 13 1012 76 10000 3.6 210 12:27 07.03.2022
2764 Clear 13 1012 73 10000 3.6 200 10:38 07.03.2022
2765 Clouds 15 1013 69 10000 2.57 190 08:57 07.03.2022
2766 Clear 16 1013 67 10000 7.6 179 04:43 07.03.2022
2767 Clear 17 1014 73 10000 6.17 210 00:22 07.03.2022
2768 Clear 16 1014 70 10000 8.23 210 23:35 06.03.2022
2769 Clouds 17 1014 69 10000 9.26 220 22:42 06.03.2022
2770 Clouds 17 1015 71 10000 11.32 230 21:47 06.03.2022
2771 Mist 17 1015 75 10000 9.77 230 20:49 06.03.2022
2772 Mist 17 1015 77 10000 8.23 210 20:22 06.03.2022
2773 Rain 14 1016 88 10000 8.05 185 18:56 06.03.2022
2774 Mist 13 1017 89 10000 6.26 360 18:23 06.03.2022
2775 Rain 11 1017 88 10000 7.6 360 17:21 06.03.2022
2776 Rain 10 1018 86 10000 5.14 280 16:41 06.03.2022
2777 Mist 10 1018 84 10000 9.39 360 15:52 06.03.2022
2778 Haze 9 1018 81 10000 3.58 196 14:49 06.03.2022
2779 Haze 8 1018 81 10000 5.81 360 14:31 06.03.2022
2780 Clouds 7 1019 80 10000 6.71 360 13:29 06.03.2022
2781 Clouds 6 1019 78 10000 4.92 360 12:35 06.03.2022
2782 Clouds 6 1021 77 10000 2.06 50 10:59 06.03.2022
2783 Clouds 6 1021 76 10000 2.57 50 10:22 06.03.2022
2784 Clouds 6 1023 76 10000 3.6 60 08:29 06.03.2022
2785 Clouds 6 1023 76 10000 3.6 60 08:29 06.03.2022
2786 Clouds 6 1023 76 10000 3.6 60 08:29 06.03.2022
2787 Clouds 6 1024 75 10000 4.12 60 07:35 06.03.2022
2788 Clouds 6 1026 70 10000 4.02 360 05:40 06.03.2022
2789 Clear 5 1030 65 10000 5.81 360 00:51 06.03.2022
2790 Clear 5 1030 64 10000 5.81 360 00:30 06.03.2022
2791 Clear 6 1030 62 10000 6.17 160 23:21 05.03.2022
2792 Clear 6 1030 59 10000 6.17 140 22:47 05.03.2022
2793 Clouds 7 1030 54 10000 6.17 140 21:56 05.03.2022
2794 Clouds 7 1031 49 10000 5.66 180 21:23 05.03.2022
2795 Clear 7 1032 42 10000 4.12 160 19:44 05.03.2022
2796 Clear 6 1033 39 10000 0.45 184 18:54 05.03.2022
2797 Clear 6 1033 39 10000 3.09 190 18:27 05.03.2022
2798 Clear 4 1034 46 10000 3.09 180 16:34 05.03.2022
2799 Clear 2 1035 51 10000 3.09 250 15:31 05.03.2022
2800 Clear 1 1034 57 10000 2.57 50 14:47 05.03.2022
2801 Clear 1 1034 58 10000 2.57 50 14:29 05.03.2022
2802 Clear -1 1033 60 10000 3.6 40 13:22 05.03.2022
2803 Clear -1 1033 53 10000 0.45 306 11:48 05.03.2022
2804 Clear -1 1033 55 10000 0.89 360 11:19 05.03.2022
2805 Clear -1 1032 53 10000 2.57 220 10:20 05.03.2022
2806 Clear -1 1032 52 10000 2.06 250 09:22 05.03.2022
2807 Clear -1 1032 48 10000 2.57 270 07:38 05.03.2022
2808 Clear -1 1032 44 10000 3.09 310 05:43 05.03.2022
2809 Clouds 0 1031 40 10000 3.13 269 03:49 05.03.2022
2810 Clear 2 1030 34 10000 5.66 200 23:38 04.03.2022
2811 Clear 3 1030 36 10000 7.2 240 22:42 04.03.2022
2812 Clear 3 1030 37 10000 7.2 240 22:19 04.03.2022
2813 Clear 3 1031 35 10000 5.66 270 20:56 04.03.2022
2814 Clear 3 1031 33 10000 6.69 220 20:27 04.03.2022
2815 Clear 2 1032 34 10000 4.12 220 19:36 04.03.2022
2816 Clear 1 1034 36 10000 3.6 250 18:45 04.03.2022
2817 Clear 0 1034 41 10000 2.68 0 17:48 04.03.2022
2818 Clear -1 1034 40 10000 2.57 200 17:28 04.03.2022
2819 Clear -3 1035 45 10000 3.6 240 15:31 04.03.2022
2820 Clear -4 1035 49 10000 4.63 340 14:33 04.03.2022
2821 Clear -6 1035 53 10000 4.63 330 13:26 04.03.2022
2822 Clear -6 1034 52 10000 3.09 0 11:54 04.03.2022
2823 Clear -6 1033 50 10000 3.6 320 10:57 04.03.2022
2824 Clear -6 1033 48 10000 4.63 340 10:18 04.03.2022
2825 Clear -5 1032 43 10000 5.66 330 08:40 04.03.2022
2826 Clear -5 1032 43 10000 5.66 330 08:40 04.03.2022
2827 Clear -5 1032 42 10000 7.2 340 07:41 04.03.2022
2828 Clear -3 1029 36 10000 4.47 45 04:59 04.03.2022
2829 Clear 1 1024 31 10000 1.34 293 00:41 04.03.2022
2830 Clear 4 1020 30 10000 9.77 290 22:39 03.03.2022
2831 Clear 5 1019 31 10000 7.72 340 21:50 03.03.2022
2832 Clear 5 1019 30 10000 7.72 340 21:29 03.03.2022
2833 Clear 6 1018 33 10000 10.29 310 20:21 03.03.2022
2834 Clouds 6 1017 36 10000 9.26 320 18:57 03.03.2022
2835 Clear 5 1018 38 10000 9.77 320 18:24 03.03.2022
2836 Clear 5 1018 39 10000 8.23 300 17:31 03.03.2022
2837 Clear 4 1017 40 10000 8.75 300 16:26 03.03.2022
2838 Clear 5 1016 49 10000 10.29 310 15:32 03.03.2022
2839 Clear 4 1015 59 10000 10.29 320 14:44 03.03.2022
2840 Clear 4 1015 60 10000 10.29 320 14:25 03.03.2022
2841 Clouds 4 1012 72 10000 9.26 320 12:28 03.03.2022
2842 Clouds 6 1011 81 10000 5.36 265 10:56 03.03.2022
2843 Rain 6 1010 80 10000 7.15 360 09:56 03.03.2022
2844 Clouds 7 1009 67 10000 8.94 360 08:42 03.03.2022
2845 Clouds 6 1011 65 10000 4.92 182 06:54 03.03.2022
2846 Clear 6 1012 71 10000 3.09 200 05:20 03.03.2022
2847 Clear 9 1015 41 10000 6.17 270 23:48 02.03.2022
2848 Clear 11 1014 36 10000 4.92 226 22:54 02.03.2022
2849 Clear 11 1014 36 10000 7.2 250 22:33 02.03.2022
2850 Clear 11 1015 38 10000 6.69 290 20:59 02.03.2022
2851 Clear 10 1015 39 10000 6.69 240 20:25 02.03.2022
2852 Clear 10 1015 42 10000 4.63 260 19:38 02.03.2022
2853 Clear 10 1015 43 10000 4.63 260 19:18 02.03.2022
2854 Clear 9 1017 44 10000 5.14 310 18:35 02.03.2022
2855 Clouds 8 1017 48 10000 6.17 300 17:42 02.03.2022
2856 Clear 7 1017 52 10000 4.63 250 16:53 02.03.2022
2857 Clouds 6 1017 55 10000 6.69 320 15:59 02.03.2022
2858 Clear 5 1017 63 10000 4.12 310 14:29 02.03.2022
2859 Clouds 4 1015 68 10000 4.02 324 12:58 02.03.2022
2860 Clouds 4 1016 69 10000 4.63 330 12:35 02.03.2022
2861 Clouds 5 1015 74 10000 4.12 310 11:28 02.03.2022
2862 Clear 5 1014 74 10000 6.69 310 10:50 02.03.2022
2863 Clear 6 1013 73 10000 7.2 290 09:37 02.03.2022
2864 Clouds 6 1013 71 10000 4.63 280 08:44 02.03.2022
2865 Clouds 7 1013 66 10000 4.47 360 07:24 02.03.2022
2866 Clouds 6 1014 72 10000 4.02 360 05:42 02.03.2022
2867 Clouds 6 1014 72 10000 4.02 360 05:42 02.03.2022
2868 Clouds 7 1015 77 10000 4.12 180 00:42 02.03.2022
2869 Clear 7 1015 74 10000 5.66 170 23:35 01.03.2022
2870 Clouds 7 1016 70 10000 6.71 360 22:40 01.03.2022
2871 Clouds 7 1016 69 10000 4.47 360 21:55 01.03.2022
2872 Clouds 7 1018 62 10000 7.72 180 20:44 01.03.2022
2873 Clouds 7 1018 62 10000 7.72 180 20:22 01.03.2022
2874 Clouds 6 1019 59 10000 4.02 240 18:59 01.03.2022
2875 Clouds 5 1021 58 10000 5.66 180 18:26 01.03.2022
2876 Clouds 5 1021 58 10000 3.13 198 17:55 01.03.2022
2877 Clouds 4 1023 55 10000 6.17 190 16:50 01.03.2022
2878 Clouds 3 1023 55 10000 5.36 360 15:51 01.03.2022
2879 Clouds 2 1024 54 10000 5.81 360 14:55 01.03.2022
2880 Clouds 2 1024 54 10000 4.63 190 14:34 01.03.2022
2881 Clouds 0 1025 55 10000 4.47 360 13:27 01.03.2022
2882 Clouds 0 1025 54 10000 2.06 130 12:39 01.03.2022
2883 Clouds -1 1025 54 10000 1.79 360 11:58 01.03.2022
2884 Clouds -2 1027 49 10000 2.57 110 10:26 01.03.2022
2885 Clouds -1 1026 41 10000 3.09 50 08:41 01.03.2022
2886 Clear -1 1026 40 10000 2.57 80 07:36 01.03.2022
2887 Clear -1 1026 37 10000 3.6 30 04:28 01.03.2022
2888 Clouds 0 1026 29 10000 3.09 320 00:59 01.03.2022
2889 Clear 1 1025 27 10000 4.12 320 23:48 28.02.2022
2890 Clouds 2 1025 26 10000 4.12 300 22:58 28.02.2022
2891 Clear 2 1025 25 10000 4.12 320 21:50 28.02.2022
2892 Clear 2 1025 26 10000 4.12 320 21:24 28.02.2022
2893 Clear 1 1025 28 10000 5.66 320 19:52 28.02.2022
2894 Clear 1 1025 29 10000 5.66 320 19:26 28.02.2022
2895 Clear 1 1025 30 10000 6.17 340 18:38 28.02.2022
2896 Clear 0 1026 32 10000 6.69 310 17:24 28.02.2022
2897 Clear -1 1026 34 10000 8.23 320 16:33 28.02.2022
2898 Clear -2 1025 39 10000 8.23 330 15:23 28.02.2022
2899 Clear -2 1025 44 10000 7.72 320 14:31 28.02.2022
2900 Clear -3 1024 45 10000 8.75 330 13:34 28.02.2022
2901 Clear -3 1022 44 10000 7.72 310 12:41 28.02.2022
2902 Clouds -2 1021 45 10000 5.36 340 11:55 28.02.2022
2903 Clear -2 1020 51 10000 7.72 320 10:48 28.02.2022
2904 Clouds -1 1020 53 10000 7.72 320 10:20 28.02.2022
2905 Clouds -1 1019 57 10000 7.2 330 09:32 28.02.2022
2906 Clouds 0 1018 53 10000 7.72 320 08:29 28.02.2022
2907 Clear 0 1017 57 10000 7.72 320 07:28 28.02.2022
2908 Clouds 2 1015 44 10000 7.2 300 04:55 28.02.2022
2909 Clouds 3 1015 40 10000 11.32 310 04:26 28.02.2022
2910 Clouds 8 1011 34 10000 9.77 260 23:42 27.02.2022
2911 Clear 9 1010 33 10000 10.8 270 22:34 27.02.2022
2912 Clear 9 1011 33 10000 6.69 260 21:51 27.02.2022
2913 Clear 9 1011 31 10000 8.75 260 21:21 27.02.2022
2914 Clear 8 1012 32 10000 9.77 270 20:32 27.02.2022
2915 Clouds 8 1012 35 10000 9.77 240 19:58 27.02.2022
2916 Clear 7 1014 35 10000 10.29 270 19:27 27.02.2022
2917 Clear 6 1014 37 10000 10.8 260 18:47 27.02.2022
2918 Clouds 5 1015 41 10000 7.72 280 17:56 27.02.2022
2919 Clear 4 1016 44 10000 10.29 250 17:18 27.02.2022
2920 Clear 3 1018 51 10000 8.23 250 16:21 27.02.2022
2921 Clear -2 1020 65 10000 5.14 270 13:34 27.02.2022
2922 Clear -2 1021 66 10000 5.66 270 12:33 27.02.2022
2923 Clear -2 1021 65 10000 5.14 270 11:27 27.02.2022
2924 Clear -2 1021 63 10000 6.17 260 10:20 27.02.2022
2925 Clear -2 1022 62 10000 5.66 250 09:50 27.02.2022
2926 Clear -2 1022 61 10000 6.71 360 09:20 27.02.2022
2927 Clear -2 1023 60 10000 6.71 360 08:31 27.02.2022
2928 Clear -1 1025 55 10000 6.69 270 05:39 27.02.2022
2929 Clear 0 1026 52 10000 4.02 360 02:45 27.02.2022
2930 Clouds 2 1025 50 10000 5.66 280 23:34 26.02.2022
2931 Clouds 3 1026 47 10000 5.66 270 22:31 26.02.2022
2932 Clouds 3 1026 46 10000 6.17 250 21:19 26.02.2022
2933 Clouds 3 1027 45 10000 5.66 240 20:33 26.02.2022
2934 Clear 2 1027 46 10000 3.6 210 19:52 26.02.2022
2935 Clear 2 1028 45 10000 4.12 310 19:33 26.02.2022
2936 Clear 0 1030 48 10000 4.63 260 17:58 26.02.2022
2937 Clear 0 1030 48 10000 4.63 260 17:30 26.02.2022
2938 Clear -1 1031 52 10000 5.14 300 16:36 26.02.2022
2939 Clear -3 1032 57 10000 4.63 320 15:27 26.02.2022
2940 Clouds -3 1032 59 10000 4.63 310 14:58 26.02.2022
2941 Clear -3 1032 59 10000 4.12 260 14:39 26.02.2022
2942 Clear -4 1032 60 10000 5.66 340 13:46 26.02.2022
2943 Clear -5 1031 61 10000 0.89 284 12:53 26.02.2022
2944 Clear -4 1031 59 10000 5.14 340 11:45 26.02.2022
2945 Clear -4 1030 59 10000 5.14 340 11:24 26.02.2022
2946 Clear -4 1029 60 10000 6.69 320 09:28 26.02.2022
2947 Clear -4 1029 60 10000 7.2 330 08:26 26.02.2022
2948 Clear -2 1027 53 10000 10.29 320 04:22 26.02.2022
2949 Clouds 5 1018 69 10000 7.72 280 23:50 25.02.2022
2950 Drizzle 5 1016 75 10000 9.26 260 22:31 25.02.2022
2951 Clouds 4 1015 79 10000 7.72 260 21:31 25.02.2022
2952 Mist 3 1015 85 10000 7.2 250 20:47 25.02.2022
2953 Mist 3 1014 89 10000 7.2 250 20:25 25.02.2022
2954 Rain 1 1014 91 10000 4.12 50 17:54 25.02.2022
2955 Mist 0 1015 92 10000 7.72 70 16:54 25.02.2022
2956 Snow 0 1016 93 2414 7.2 40 15:55 25.02.2022
2957 Snow 0 1016 92 4828 6.69 50 15:23 25.02.2022
2958 Rain 0 1017 91 6437 10.8 50 14:55 25.02.2022
2959 Rain 0 1018 92 6437 8.23 30 14:24 25.02.2022
2960 Rain 0 1018 91 8047 7.2 40 13:30 25.02.2022
2961 Mist 0 1019 89 8047 6.17 30 12:21 25.02.2022
2962 Rain 0 1020 89 10000 5.66 30 11:21 25.02.2022
2963 Snow 0 1022 89 10000 7.2 50 10:23 25.02.2022
2964 Mist -1 1024 87 4828 7.2 40 09:46 25.02.2022
2965 Snow -1 1026 83 6437 4.12 40 08:41 25.02.2022
2966 Snow -1 1027 72 10000 4.63 100 07:31 25.02.2022
2967 Clouds 0 1029 52 10000 5.14 100 05:42 25.02.2022
2968 Clouds 0 1031 45 10000 5.14 60 02:48 25.02.2022
2969 Clouds 1 1031 38 10000 4.63 80 22:48 24.02.2022
2970 Clouds 1 1030 39 10000 5.66 70 21:51 24.02.2022
2971 Clouds 1 1031 39 10000 5.66 70 21:31 24.02.2022
2972 Clouds 1 1031 40 10000 3.6 20 20:53 24.02.2022
2973 Clouds 1 1032 40 10000 6.17 20 19:38 24.02.2022
2974 Clouds 1 1032 44 10000 5.66 340 18:36 24.02.2022
2975 Clouds 0 1032 44 10000 5.66 340 18:18 24.02.2022
2976 Clouds 0 1032 45 10000 5.66 10 17:33 24.02.2022
2977 Clouds 0 1032 48 10000 5.66 350 16:29 24.02.2022
2978 Clear -1 1032 50 10000 5.14 40 15:46 24.02.2022
2979 Clouds -1 1031 53 10000 6.17 40 14:52 24.02.2022
2980 Clouds -1 1031 54 10000 6.17 40 14:24 24.02.2022
2981 Clear -1 1031 55 10000 6.17 340 13:39 24.02.2022
2982 Clear -1 1031 55 10000 6.17 340 13:39 24.02.2022
2983 Clear -1 1030 54 10000 4.12 350 12:33 24.02.2022
2984 Clear -1 1028 54 10000 5.14 330 10:40 24.02.2022
2985 Clouds 0 1027 54 10000 7.2 350 08:58 24.02.2022
2986 Clear 0 1027 54 10000 7.72 320 08:39 24.02.2022
2987 Clear 2 1025 51 10000 8.23 310 05:52 24.02.2022
2988 Clouds 7 1020 58 10000 5.36 360 01:56 24.02.2022
2989 Clear 19 1013 34 10000 11.83 280 22:38 23.02.2022
2990 Clear 19 1013 34 10000 11.83 280 22:38 23.02.2022
2991 Clouds 20 1013 37 10000 11.32 260 21:40 23.02.2022
2992 Clouds 18 1014 48 10000 10.8 260 20:31 23.02.2022
2993 Clouds 18 1014 63 10000 8.23 250 19:46 23.02.2022
2994 Clouds 18 1014 71 10000 5.14 230 18:32 23.02.2022
2995 Clouds 17 1014 76 10000 5.66 220 17:36 23.02.2022
2996 Clouds 14 1014 83 10000 5.66 240 14:42 23.02.2022
2997 Clouds 14 1014 85 10000 0.45 108 12:45 23.02.2022
2998 Clouds 14 1013 86 10000 4.92 360 11:59 23.02.2022
2999 Clouds 14 1013 86 10000 5.66 230 10:31 23.02.2022
3000 Clouds 14 1013 84 10000 6.26 360 08:59 23.02.2022
3001 Clouds 14 1014 83 10000 5.81 360 08:23 23.02.2022
3002 Clouds 14 1014 84 10000 7.2 200 05:49 23.02.2022
3003 Rain 13 1017 89 10000 12.07 360 00:40 23.02.2022
3004 Rain 12 1018 88 9656 10.73 360 23:38 22.02.2022
3005 Rain 12 1019 87 10000 7.15 360 22:32 22.02.2022
3006 Clouds 11 1020 87 10000 9.39 360 21:49 22.02.2022
3007 Clouds 11 1020 87 10000 8.49 360 21:31 22.02.2022
3008 Clouds 11 1021 86 8047 5.81 360 20:57 22.02.2022
3009 Rain 11 1021 82 8047 4.63 160 20:30 22.02.2022
3010 Rain 10 1022 77 10000 4.63 50 19:42 22.02.2022
3011 Clouds 10 1023 74 10000 4.63 50 19:23 22.02.2022
3012 Clouds 9 1025 77 10000 4.12 50 18:21 22.02.2022
3013 Haze 8 1026 82 9656 4.12 50 17:24 22.02.2022
3014 Mist 7 1026 85 8047 4.12 60 16:41 22.02.2022
3015 Mist 6 1027 88 6437 4.63 40 15:56 22.02.2022
3016 Mist 4 1028 90 6437 5.14 60 14:45 22.02.2022
3017 Mist 3 1027 88 10000 5.66 50 12:44 22.02.2022
3018 Clear 3 1026 89 10000 4.12 40 10:53 22.02.2022
3019 Clear 3 1027 85 10000 3.6 40 08:48 22.02.2022
3020 Clear 3 1027 83 10000 3.09 70 07:27 22.02.2022
3021 Clear 4 1028 82 10000 2.57 40 06:30 22.02.2022
3022 Clouds 5 1026 71 10000 1.54 170 02:45 22.02.2022
3023 Clear 9 1026 50 10000 3.6 130 22:53 21.02.2022
3024 Clear 11 1026 45 10000 4.12 180 21:46 21.02.2022
3025 Clear 11 1025 40 10000 3.09 150 20:37 21.02.2022
3026 Clear 10 1027 44 10000 2.57 200 18:47 21.02.2022
3027 Clear 8 1028 49 10000 3.09 240 17:39 21.02.2022
3028 Clear 3 1028 63 10000 5.66 210 15:25 21.02.2022
3029 Clear 1 1028 68 10000 5.36 360 14:22 21.02.2022
3030 Clear 0 1027 70 10000 4.92 360 13:30 21.02.2022
3031 Clear -1 1027 68 10000 5.36 360 12:24 21.02.2022
3032 Clear -1 1027 68 10000 3.6 240 11:20 21.02.2022
3033 Clear -1 1027 66 10000 5.36 360 09:54 21.02.2022
3034 Clear 0 1027 62 10000 7.15 360 05:35 21.02.2022
3035 Clear 1 1027 45 10000 6.69 170 00:19 21.02.2022
3036 Clear 2 1028 39 10000 6.17 210 22:28 20.02.2022
3037 Clear 2 1028 40 10000 6.17 200 21:43 20.02.2022
3038 Clear 2 1028 40 10000 6.17 200 21:19 20.02.2022
3039 Clear 2 1029 38 10000 6.17 210 20:41 20.02.2022
3040 Clear 1 1030 37 10000 5.66 230 19:42 20.02.2022
3041 Clear 0 1031 39 10000 4.63 230 18:54 20.02.2022
3042 Clear 0 1031 39 10000 4.63 230 18:34 20.02.2022
3043 Clear -1 1031 42 10000 3.09 190 17:53 20.02.2022
3044 Clear -3 1033 45 10000 3.09 0 15:54 20.02.2022
3045 Clear -4 1033 47 10000 4.12 250 14:52 20.02.2022
3046 Clear -6 1032 50 10000 4.63 260 13:53 20.02.2022
3047 Clear -7 1032 49 10000 5.14 280 12:34 20.02.2022
3048 Clear -6 1030 47 10000 7.72 290 10:47 20.02.2022
3049 Clear -6 1030 46 10000 7.72 290 10:20 20.02.2022
3050 Clear -6 1028 46 10000 2.68 335 08:56 20.02.2022
3051 Clear -2 1019 33 10000 12.35 310 01:19 20.02.2022
3052 Clouds -1 1017 32 10000 12.35 320 00:30 20.02.2022
3053 Clouds 1 1014 43 10000 13.38 310 23:19 19.02.2022
3054 Clouds 2 1013 58 10000 11.32 290 22:23 19.02.2022
3055 Clouds 2 1012 69 4828 13.89 260 21:39 19.02.2022
3056 Clouds 3 1011 60 10000 7.2 240 19:58 19.02.2022
3057 Clouds 2 1012 61 10000 7.2 270 19:33 19.02.2022
3058 Clouds 3 1012 49 10000 12.86 240 18:38 19.02.2022
3059 Clouds 3 1013 45 10000 7.72 210 17:37 19.02.2022
3060 Clear 3 1014 45 10000 7.2 210 16:44 19.02.2022
3061 Clear 1 1016 50 10000 7.72 190 15:20 19.02.2022
3062 Clear 0 1016 55 10000 5.66 210 14:52 19.02.2022
3063 Clear -2 1017 58 10000 4.12 220 13:47 19.02.2022
3064 Clear -3 1017 57 10000 3.09 170 11:39 19.02.2022
3065 Clear -3 1018 56 10000 3.09 150 10:30 19.02.2022
3066 Clear -3 1019 54 10000 2.57 10 08:31 19.02.2022
3067 Clear -3 1020 51 10000 4.12 50 06:30 19.02.2022
3068 Clear 2 1014 36 10000 10.29 330 23:45 18.02.2022
3069 Clear 4 1012 36 10000 10.8 320 22:24 18.02.2022
3070 Clear 5 1011 41 10000 5.36 360 20:57 18.02.2022
3071 Clear 6 1009 45 10000 6.26 50 19:55 18.02.2022
3072 Clouds 5 1009 48 10000 12.86 320 18:50 18.02.2022
3073 Clouds 5 1009 51 10000 12.86 320 18:24 18.02.2022
3074 Clouds 5 1009 53 10000 7.6 34 17:55 18.02.2022
3075 Clouds 6 1003 59 10000 13.38 290 15:23 18.02.2022
3076 Clouds 13 996 94 10000 5.14 270 13:56 18.02.2022
3077 Clouds 14 996 79 10000 8.23 260 13:25 18.02.2022
3078 Rain 15 994 85 10000 14.4 250 12:40 18.02.2022
3079 Clouds 16 994 84 10000 10.8 200 11:55 18.02.2022
3080 Clouds 15 995 84 10000 13.38 200 10:24 18.02.2022
3081 Rain 13 1001 88 10000 8.49 360 06:58 18.02.2022
3082 Rain 13 1005 89 10000 8.49 360 05:41 18.02.2022
3083 Clouds 13 1013 71 10000 6.17 180 23:43 17.02.2022
3084 Clouds 14 1015 63 10000 12.35 200 21:50 17.02.2022
3085 Clouds 14 1015 63 10000 12.35 200 21:26 17.02.2022
3086 Clouds 14 1017 59 10000 9.77 220 20:40 17.02.2022
3087 Clouds 14 1020 64 10000 5.66 250 19:52 17.02.2022
3088 Clouds 14 1021 61 10000 4.92 360 18:54 17.02.2022
3089 Clear 13 1022 61 10000 9.77 200 17:55 17.02.2022
3090 Clear 13 1023 61 10000 9.77 220 16:43 17.02.2022
3091 Clouds 12 1024 66 10000 6.69 210 15:40 17.02.2022
3092 Clouds 9 1024 71 10000 5.14 260 14:28 17.02.2022
3093 Clouds 8 1025 79 10000 4.12 240 12:50 17.02.2022
3094 Clouds 8 1025 79 10000 4.63 270 11:30 17.02.2022
3095 Clouds 7 1026 76 10000 5.14 210 09:30 17.02.2022
3096 Clouds 6 1028 73 10000 5.66 200 06:37 17.02.2022
3097 Clear 6 1032 77 10000 3.6 150 23:21 16.02.2022
3098 Clear 6 1034 75 10000 6.17 170 22:20 16.02.2022
3099 Clear 6 1035 67 10000 7.72 170 20:21 16.02.2022
3100 Clear 6 1037 57 10000 6.69 180 18:50 16.02.2022
3101 Clear 5 1039 57 10000 4.12 170 17:54 16.02.2022
3102 Clear 4 1040 58 10000 6.17 190 16:44 16.02.2022
3103 Clear 1 1041 62 10000 5.36 360 15:21 16.02.2022
3104 Clear -1 1040 64 10000 2.24 360 13:38 16.02.2022
3105 Clear -2 1040 62 10000 3.58 360 12:21 16.02.2022
3106 Clear -2 1040 59 10000 4.47 360 11:45 16.02.2022
3107 Clear -3 1040 56 10000 4.92 360 10:34 16.02.2022
3108 Clear -3 1040 55 10000 4.47 360 09:34 16.02.2022
3109 Clear -3 1041 52 10000 3.09 200 06:43 16.02.2022
3110 Clear -2 1039 41 10000 5.14 250 00:37 16.02.2022
3111 Clear -1 1037 35 10000 5.14 270 22:34 15.02.2022
3112 Clear -1 1037 34 10000 3.6 250 21:50 15.02.2022
3113 Clear -1 1037 33 10000 3.6 250 21:29 15.02.2022
3114 Clear -1 1037 34 10000 3.09 0 20:57 15.02.2022
3115 Clear -1 1037 33 10000 4.63 340 20:22 15.02.2022
3116 Snow -2 1037 33 10000 4.63 320 19:43 15.02.2022
3117 Clear -3 1038 37 10000 3.6 290 18:25 15.02.2022
3118 Clear -3 1038 40 10000 3.6 280 17:53 15.02.2022
3119 Clear -4 1038 40 10000 4.63 310 17:28 15.02.2022
3120 Clear -6 1038 49 10000 5.66 310 15:36 15.02.2022
3121 Clear -8 1037 52 10000 2.68 322 13:57 15.02.2022
3122 Clear -9 1036 52 10000 6.69 310 13:25 15.02.2022
3123 Clear -9 1034 50 10000 5.66 290 11:41 15.02.2022
3124 Clear -9 1033 50 10000 7.2 290 10:19 15.02.2022
3125 Clear -9 1032 51 10000 8.23 310 08:42 15.02.2022
3126 Clear -8 1031 48 10000 4.63 320 06:45 15.02.2022
3127 Clear -5 1023 38 10000 7.72 300 23:35 14.02.2022
3128 Clouds -4 1021 39 10000 5.36 341 21:56 14.02.2022
3129 Clouds -4 1020 39 10000 4.02 5 20:52 14.02.2022
3130 Clear -4 1020 39 10000 8.75 290 19:49 14.02.2022
3131 Clear -4 1020 40 10000 8.75 290 19:29 14.02.2022
3132 Clouds -5 1021 44 10000 9.26 310 18:23 14.02.2022
3133 Clear -6 1021 46 10000 10.29 300 17:28 14.02.2022
3134 Clear -7 1021 48 10000 8.75 310 16:33 14.02.2022
3135 Clear -8 1020 52 10000 8.75 320 14:44 14.02.2022
3136 Clear -9 1019 55 10000 4.02 76 13:34 14.02.2022
3137 Clouds -9 1019 55 10000 4.02 294 12:58 14.02.2022
3138 Clear -9 1018 53 10000 6.17 330 12:32 14.02.2022
3139 Clear -8 1018 53 10000 9.26 320 11:38 14.02.2022
3140 Clear -8 1017 53 10000 7.72 320 10:18 14.02.2022
3141 Clear -6 1017 51 10000 8.23 320 08:18 14.02.2022
3142 Clouds -5 1017 51 10000 4.92 360 07:26 14.02.2022
3143 Snow -1 1017 82 4828 4.63 360 22:49 13.02.2022
3144 Snow -1 1017 84 2816 4.63 10 22:30 13.02.2022
3145 Snow -1 1017 86 4023 5.66 30 21:59 13.02.2022
3146 Snow -1 1017 86 4828 6.17 20 21:23 13.02.2022
3147 Mist 0 1018 85 3219 5.66 20 20:27 13.02.2022
3148 Snow 0 1019 87 3219 6.17 360 19:23 13.02.2022
3149 Rain 0 1019 89 2012 6.17 360 18:41 13.02.2022
3150 Mist 0 1021 88 4828 4.63 60 17:32 13.02.2022
3151 Mist 0 1022 90 8047 5.14 20 15:53 13.02.2022
3152 Snow 0 1022 91 1609 4.12 70 14:50 13.02.2022
3153 Snow 0 1021 89 2816 3.6 60 13:39 13.02.2022
3154 Snow -1 1022 89 2414 4.63 10 12:44 13.02.2022
3155 Snow 0 1021 85 1609 5.66 20 10:46 13.02.2022
3156 Snow 0 1021 84 3219 5.66 20 10:27 13.02.2022
3157 Snow 3 1020 61 10000 6.17 360 08:57 13.02.2022
3158 Clouds 6 1019 50 10000 7.2 340 05:27 13.02.2022
3159 Clear 10 1017 39 10000 5.14 260 00:34 13.02.2022
3160 Clouds 12 1016 38 10000 6.26 217 22:58 12.02.2022
3161 Clear 12 1015 36 10000 9.77 270 22:33 12.02.2022
3162 Clear 13 1014 34 10000 9.77 270 21:18 12.02.2022
3163 Clear 14 1013 40 10000 8.75 260 20:25 12.02.2022
3164 Clear 14 1013 42 10000 10.8 260 19:18 12.02.2022
3165 Clear 14 1013 41 10000 8.23 280 18:41 12.02.2022
3166 Clear 14 1013 41 10000 8.23 280 18:23 12.02.2022
3167 Clear 13 1014 46 10000 4.47 280 16:55 12.02.2022
3168 Clear 12 1013 47 10000 5.36 360 16:25 12.02.2022
3169 Clear 11 1013 51 10000 5.14 230 15:32 12.02.2022
3170 Clear 9 1012 54 10000 4.92 162 14:30 12.02.2022
3171 Clear 9 1011 53 10000 4.92 360 12:55 12.02.2022
3172 Clear 9 1010 49 10000 4.12 210 10:35 12.02.2022
3173 Clear 10 1010 48 10000 5.14 210 09:38 12.02.2022
3174 Clear 10 1011 48 10000 6.71 360 08:48 12.02.2022
3175 Clear 10 1011 47 10000 7.15 360 07:50 12.02.2022
3176 Clear 10 1012 48 10000 7.6 360 05:33 12.02.2022
3177 Clear 9 1013 55 10000 5.81 360 02:20 12.02.2022
3178 Clear 9 1013 57 10000 5.14 180 01:44 12.02.2022
3179 Clear 12 1012 47 10000 7.72 170 22:28 11.02.2022
3180 Clear 12 1013 48 10000 8.23 170 21:47 11.02.2022
3181 Clear 13 1013 45 10000 8.75 180 20:39 11.02.2022
3182 Clear 13 1014 38 10000 9.77 190 19:35 11.02.2022
3183 Clouds 13 1014 42 10000 4.47 130 18:59 11.02.2022
3184 Clear 11 1016 39 10000 5.66 200 17:48 11.02.2022
3185 Clear 10 1016 41 10000 5.66 200 17:22 11.02.2022
3186 Clear 7 1016 49 10000 1.34 360 15:56 11.02.2022
3187 Clear 4 1016 62 10000 3.09 160 14:43 11.02.2022
3188 Clouds 3 1016 69 10000 3.09 160 14:20 11.02.2022
3189 Clear 2 1016 66 10000 2.57 360 13:52 11.02.2022
3190 Clear 2 1016 68 10000 2.57 110 13:34 11.02.2022
3191 Clear 2 1015 63 10000 1.54 230 11:41 11.02.2022
3192 Clouds 3 1015 60 10000 0 0 09:57 11.02.2022
3193 Clouds 3 1015 58 10000 1.79 360 08:42 11.02.2022
3194 Clouds 3 1015 58 10000 1.79 360 08:42 11.02.2022
3195 Clouds 4 1015 54 10000 3.6 190 08:22 11.02.2022
3196 Clouds 4 1015 51 10000 3.09 250 06:33 11.02.2022
3197 Clear 7 1014 43 10000 6.69 260 02:26 11.02.2022
3198 Clear 8 1012 43 10000 4.02 281 00:51 11.02.2022
3199 Clouds 10 1011 36 10000 9.26 270 22:49 10.02.2022
3200 Clouds 11 1010 35 10000 8.75 250 21:45 10.02.2022
3201 Clouds 11 1009 35 10000 11.83 250 20:59 10.02.2022
3202 Clouds 11 1010 35 10000 11.83 250 20:35 10.02.2022
3203 Clouds 11 1009 35 10000 10.29 250 19:26 10.02.2022
3204 Clear 11 1010 41 10000 0.45 215 18:45 10.02.2022
3205 Clear 10 1011 56 10000 7.2 230 17:26 10.02.2022
3206 Clear 9 1011 61 10000 5.14 220 16:50 10.02.2022
3207 Clear 6 1012 71 10000 3.58 109 15:51 10.02.2022
3208 Clear 6 1012 73 10000 3.6 210 15:30 10.02.2022
3209 Fog 4 1012 79 10000 4.02 360 14:48 10.02.2022
3210 Fog 3 1012 83 10000 5.36 360 14:24 10.02.2022
3211 Fog 1 1011 85 10000 2.06 200 13:29 10.02.2022
3212 Clouds 1 1010 85 10000 3.09 60 12:45 10.02.2022
3213 Clouds 1 1010 85 10000 3.09 90 11:34 10.02.2022
3214 Clouds 2 1011 83 10000 5.36 360 10:55 10.02.2022
3215 Clouds 2 1012 85 10000 1.79 170 09:59 10.02.2022
3216 Clouds 2 1012 86 10000 3.09 300 09:24 10.02.2022
3217 Clear 2 1013 84 10000 2.57 100 07:28 10.02.2022
3218 Clouds 2 1014 83 10000 2.24 360 04:58 10.02.2022
3219 Clear 3 1015 76 10000 4.47 360 01:51 10.02.2022
3220 Clear 4 1015 73 10000 5.81 360 00:49 10.02.2022
3221 Clear 4 1015 72 10000 4.92 360 00:28 10.02.2022
3222 Clear 5 1015 65 10000 5.14 170 23:23 09.02.2022
3223 Clear 6 1015 58 10000 4.63 160 22:35 09.02.2022
3224 Clear 7 1015 53 10000 5.14 180 21:52 09.02.2022
3225 Clear 7 1016 51 10000 5.14 180 21:29 09.02.2022
3226 Clear 7 1016 48 10000 6.17 180 20:48 09.02.2022
3227 Clear 7 1016 48 10000 6.17 180 20:29 09.02.2022
3228 Clear 7 1016 48 10000 4.63 150 19:54 09.02.2022
3229 Clear 6 1017 45 10000 4.63 180 19:31 09.02.2022
3230 Clear 4 1019 49 10000 3.09 230 17:37 09.02.2022
3231 Clear 3 1019 52 10000 3.6 200 16:52 09.02.2022
3232 Clear 2 1019 59 10000 2.57 250 15:51 09.02.2022
3233 Clear 0 1020 63 10000 3.6 240 14:42 09.02.2022
3234 Clear -2 1019 66 10000 3.09 240 12:28 09.02.2022
3235 Clear -2 1018 65 10000 4.12 250 10:55 09.02.2022
3236 Clear -2 1018 65 10000 4.12 250 10:30 09.02.2022
3237 Clear -2 1019 64 10000 4.47 360 09:40 09.02.2022
3238 Clear -2 1019 64 10000 4.47 360 09:19 09.02.2022
3239 Clear -1 1019 64 10000 4.02 360 07:55 09.02.2022
3240 Clear 0 1018 62 10000 5.36 250 05:30 09.02.2022
3241 Clear 1 1017 60 10000 4.92 360 03:50 09.02.2022
3242 Clear 2 1016 59 10000 4.92 360 00:53 09.02.2022
3243 Clouds 3 1015 57 10000 9.26 310 23:33 08.02.2022
3244 Clouds 3 1014 58 10000 11.32 310 22:47 08.02.2022
3245 Clouds 3 1014 58 10000 11.32 310 22:21 08.02.2022
3246 Clouds 4 1013 56 10000 10.29 310 21:49 08.02.2022
3247 Clouds 4 1013 57 10000 10.29 310 21:21 08.02.2022
3248 Clouds 5 1012 58 10000 10.29 320 20:45 08.02.2022
3249 Clouds 6 1012 55 10000 7.15 360 19:46 08.02.2022
3250 Clear 7 1012 53 10000 6.69 270 18:48 08.02.2022
3251 Clear 6 1013 60 10000 4.63 250 17:43 08.02.2022
3252 Clear 5 1014 70 10000 3.6 250 16:30 08.02.2022
3253 Clear 3 1014 77 10000 4.12 320 15:30 08.02.2022
3254 Clear 3 1014 77 10000 4.12 320 15:30 08.02.2022
3255 Clear 2 1014 83 10000 5.14 320 14:38 08.02.2022
3256 Clouds 2 1013 87 10000 5.66 310 13:24 08.02.2022
3257 Clouds 2 1012 90 10000 5.14 320 11:55 08.02.2022
3258 Clouds 2 1012 91 10000 5.14 330 10:23 08.02.2022
3259 Clouds 2 1012 91 10000 5.14 330 10:23 08.02.2022
3260 Mist 2 1012 92 10000 3.6 340 09:45 08.02.2022
3261 Clouds 2 1013 92 10000 3.6 10 07:55 08.02.2022
3262 Rain 2 1016 92 10000 4.12 50 05:41 08.02.2022
3263 Mist 2 1017 93 6437 3.6 20 04:39 08.02.2022
3264 Rain 2 1017 92 4828 3.6 20 04:21 08.02.2022
3265 Rain 3 1018 92 8047 3.09 340 03:36 08.02.2022
3266 Rain 2 1019 93 8047 2.57 10 03:18 08.02.2022
3267 Mist 2 1019 93 9656 2.57 10 02:59 08.02.2022
3268 Mist 3 1019 93 10000 3.09 20 02:36 08.02.2022
3269 Rain 3 1020 93 10000 3.09 20 02:18 08.02.2022
3270 Mist 3 1019 93 10000 3.09 20 02:18 08.02.2022
3271 Rain 3 1020 93 10000 5.14 360 01:44 08.02.2022
3272 Mist 3 1020 93 10000 5.14 360 01:24 08.02.2022
3273 Mist 3 1020 93 4828 4.63 330 00:55 08.02.2022
3274 Mist 3 1021 93 4828 4.12 360 23:58 07.02.2022
3275 Mist 3 1021 92 4023 3.6 30 23:40 07.02.2022
3276 Mist 3 1021 93 1609 3.6 30 23:18 07.02.2022
3277 Mist 3 1021 92 2816 5.66 350 22:42 07.02.2022
3278 Mist 3 1021 92 10000 5.66 350 22:18 07.02.2022
3279 Mist 3 1021 92 3219 5.14 40 21:43 07.02.2022
3280 Mist 3 1022 92 2816 4.63 50 21:25 07.02.2022
3281 Mist 3 1022 92 6437 4.63 30 20:41 07.02.2022
3282 Mist 3 1023 92 6437 4.63 30 19:56 07.02.2022
3283 Mist 2 1023 91 6437 5.14 40 19:38 07.02.2022
3284 Mist 2 1025 90 8047 5.66 60 18:21 07.02.2022
3285 Rain 1 1027 90 4828 4.12 40 16:53 07.02.2022
3286 Rain 0 1027 89 3219 4.12 20 16:20 07.02.2022
3287 Rain 0 1028 88 4023 4.63 60 15:48 07.02.2022
3288 Clouds 0 1028 82 10000 4.63 60 13:36 07.02.2022
3289 Clouds -1 1028 82 10000 3.09 70 13:18 07.02.2022
3290 Clouds -1 1029 82 10000 0.89 124 11:58 07.02.2022
3291 Clouds -1 1029 82 10000 0.89 124 11:58 07.02.2022
3292 Clouds -1 1029 81 10000 0.45 116 11:37 07.02.2022
3293 Clouds -1 1029 82 10000 3.09 60 10:52 07.02.2022
3294 Clouds -1 1029 82 10000 0.45 74 10:32 07.02.2022
3295 Clouds -1 1030 82 6437 0.45 360 09:53 07.02.2022
3296 Snow -1 1030 79 10000 0.45 86 09:18 07.02.2022
3297 Clouds -2 1030 79 10000 0.45 97 08:39 07.02.2022
3298 Clouds -2 1031 76 10000 0.45 124 07:26 07.02.2022
3299 Clouds -2 1032 77 10000 0.45 113 06:34 07.02.2022
3300 Clear -3 1033 74 10000 0.45 110 03:48 07.02.2022
3301 Clear -2 1034 71 10000 2.06 0 00:46 07.02.2022
3302 Clear -2 1033 68 10000 0.45 147 23:49 06.02.2022
3303 Clouds -1 1033 65 10000 0.89 90 22:55 06.02.2022
3304 Clear -1 1034 61 10000 1.34 207 22:34 06.02.2022
3305 Clear -1 1035 59 10000 0.89 125 21:36 06.02.2022
3306 Clouds -1 1034 58 10000 0.45 134 20:56 06.02.2022
3307 Clouds -1 1035 57 10000 0.45 98 20:32 06.02.2022
3308 Clear -2 1036 55 10000 0.89 114 19:45 06.02.2022
3309 Clear -3 1037 52 10000 0.45 288 18:48 06.02.2022
3310 Clouds -3 1037 53 10000 0.89 151 17:58 06.02.2022
3311 Clear -4 1038 50 10000 0.89 89 17:26 06.02.2022
3312 Clear -4 1038 50 10000 0.89 133 16:48 06.02.2022
3313 Clear -6 1038 52 10000 0.89 122 15:50 06.02.2022
3314 Clear -6 1039 52 10000 0.45 131 15:27 06.02.2022
3315 Clear -7 1038 56 10000 0.45 102 14:50 06.02.2022
3316 Clear -8 1038 59 10000 0.45 113 13:51 06.02.2022
3317 Clear -8 1038 60 10000 0.45 118 13:20 06.02.2022
3318 Clear -9 1036 63 10000 1.79 32 11:39 06.02.2022
3319 Clear -9 1036 64 10000 0.89 321 10:31 06.02.2022
3320 Clear -8 1036 65 10000 3.58 9 09:26 06.02.2022
3321 Clear -8 1036 63 10000 0.89 340 08:41 06.02.2022
3322 Clear -7 1035 59 10000 1.34 292 06:19 06.02.2022
3323 Clear -7 1035 58 10000 0.89 277 04:51 06.02.2022
3324 Clear -6 1033 52 10000 0.89 288 02:25 06.02.2022
3325 Clouds -5 1031 53 10000 0.89 289 00:30 06.02.2022
3326 Clouds -4 1029 52 10000 1.34 286 23:25 05.02.2022
3327 Clouds -3 1027 52 10000 1.34 286 21:43 05.02.2022
3328 Clouds -3 1026 53 10000 0.89 273 20:26 05.02.2022
3329 Clouds -3 1026 55 10000 1.34 282 19:51 05.02.2022
3330 Clouds -3 1025 55 10000 1.34 295 19:33 05.02.2022
3331 Clouds -3 1024 56 10000 1.34 299 18:26 05.02.2022
3332 Clear -3 1024 56 10000 1.79 287 17:33 05.02.2022
3333 Clouds -5 1023 65 10000 1.54 0 15:43 05.02.2022
3334 Clear -5 1023 67 10000 4.47 304 15:25 05.02.2022
3335 Clouds -5 1020 69 10000 0.89 285 13:24 05.02.2022
3336 Clouds -5 1019 69 10000 1.34 291 12:42 05.02.2022
3337 Clouds -5 1018 72 10000 1.34 302 11:29 05.02.2022
3338 Clouds -4 1017 76 10000 2.57 0 10:43 05.02.2022
3339 Clouds -4 1017 78 10000 0.89 266 09:49 05.02.2022
3340 Clouds -4 1016 79 10000 0.89 269 08:34 05.02.2022
3341 Clouds -3 1016 83 10000 0.89 242 06:58 05.02.2022
3342 Clouds -2 1017 85 10000 0.89 269 05:44 05.02.2022
3343 Rain -1 1015 88 10000 0.89 268 01:47 05.02.2022
3344 Rain -1 1015 90 10000 1.34 268 01:18 05.02.2022
3345 Rain -1 1015 90 10000 1.34 268 01:18 05.02.2022
3346 Rain -1 1014 91 10000 5.14 40 00:36 05.02.2022
3347 Rain 0 1013 90 6437 1.34 280 23:33 04.02.2022
3348 Rain 0 1013 91 4828 1.79 271 22:37 04.02.2022
3349 Rain 1 1012 91 4828 0.89 278 21:36 04.02.2022
3350 Mist 1 1012 90 4828 0.89 298 21:18 04.02.2022
3351 Rain 1 1012 89 8047 0.89 296 20:29 04.02.2022
3352 Rain 2 1012 91 10000 4.63 60 18:35 04.02.2022
3353 Rain 2 1013 91 6437 2.06 0 16:20 04.02.2022
3354 Rain 3 1013 92 6437 0.89 264 15:18 04.02.2022
3355 Rain 3 1012 92 6437 0.89 300 14:40 04.02.2022
3356 Clouds 9 1010 95 10000 3.6 270 12:43 04.02.2022
3357 Clouds 11 1010 95 10000 5.66 280 11:44 04.02.2022
3358 Rain 11 1010 94 10000 4.12 270 10:53 04.02.2022
3359 Rain 10 1012 93 10000 4.63 280 09:35 04.02.2022
3360 Clouds 9 1014 89 10000 2.57 0 07:56 04.02.2022
3361 Rain 7 1018 96 10000 1.54 0 03:31 04.02.2022
3362 Rain 7 1019 96 10000 0 0 02:34 04.02.2022
3363 Rain 6 1021 97 8047 0 0 23:40 03.02.2022
3364 Rain 6 1021 96 10000 1.54 130 22:50 03.02.2022
3365 Rain 6 1022 97 10000 0 0 21:51 03.02.2022
3366 Rain 7 1022 96 10000 0 0 21:22 03.02.2022
3367 Mist 6 1023 95 2816 0 0 20:22 03.02.2022
3368 Mist 6 1023 97 4828 0 0 20:22 03.02.2022
3369 Mist 6 1023 97 6437 2.57 170 19:42 03.02.2022
3370 Rain 6 1023 96 6437 2.06 170 18:56 03.02.2022
3371 Mist 6 1023 97 1609 1.54 160 17:59 03.02.2022
3372 Mist 6 1025 96 2816 0 0 16:55 03.02.2022
3373 Mist 5 1025 97 9656 1.54 250 15:28 03.02.2022
3374 Rain 4 1025 96 10000 2.06 260 13:45 03.02.2022
3375 Rain 4 1025 96 10000 2.57 270 12:22 03.02.2022
3376 Clouds 4 1023 97 42 0.89 255 08:56 03.02.2022
3377 Fog 4 1025 96 805 0.45 236 07:41 03.02.2022
3378 Clouds 4 1028 89 10000 2.57 160 00:47 03.02.2022
3379 Mist 4 1028 92 10000 3.09 170 00:22 03.02.2022
3380 Clouds 5 1028 86 10000 3.6 130 22:39 02.02.2022
3381 Clouds 6 1029 82 10000 2.06 140 21:46 02.02.2022
3382 Clouds 6 1029 79 10000 0 0 21:28 02.02.2022
3383 Clouds 7 1029 75 10000 0 0 20:24 02.02.2022
3384 Clouds 6 1030 76 10000 2.06 250 19:46 02.02.2022
3385 Clouds 6 1031 75 10000 0 0 18:56 02.02.2022
3386 Clouds 6 1031 76 10000 1.54 220 18:24 02.02.2022
3387 Clouds 4 1032 78 10000 2.57 30 17:20 02.02.2022
3388 Clouds 4 1032 79 10000 1.54 30 16:56 02.02.2022
3389 Clouds 2 1032 83 10000 3.09 30 15:29 02.02.2022
3390 Clear -1 1032 83 10000 0.45 120 12:31 02.02.2022
3391 Clouds -1 1031 83 10000 3.6 40 11:49 02.02.2022
3392 Clouds -1 1031 83 10000 0.89 108 11:30 02.02.2022
3393 Clear -1 1032 80 10000 0.45 129 08:48 02.02.2022
3394 Clouds 0 1034 72 10000 0.45 97 02:44 02.02.2022
3395 Clear 2 1034 60 10000 0.89 48 22:33 01.02.2022
3396 Clear 2 1033 58 10000 0.89 280 20:51 01.02.2022
3397 Clear 2 1033 58 10000 0.45 106 19:29 01.02.2022
3398 Clear 1 1035 57 10000 0.45 170 17:34 01.02.2022
3399 Clear -1 1035 56 10000 0.45 141 16:21 01.02.2022
3400 Clear -7 1034 66 10000 1.79 66 13:27 01.02.2022
3401 Clear -7 1033 64 10000 1.34 8 12:21 01.02.2022
3402 Clouds -7 1032 67 10000 2.74 22 08:52 01.02.2022
3403 Clear -6 1030 57 10000 3.09 50 02:21 01.02.2022
3404 Clear -3 1029 49 10000 2.06 70 23:38 31.01.2022
3405 Clear -1 1028 45 10000 1.54 0 22:42 31.01.2022
3406 Clear -1 1028 45 10000 0.89 195 21:35 31.01.2022
3407 Clear -1 1028 45 10000 1.34 158 20:35 31.01.2022
3408 Clouds -1 1028 46 10000 0.89 164 19:59 31.01.2022
3409 Snow -1 1029 46 10000 0.45 134 18:47 31.01.2022
3410 Clear -2 1029 48 10000 0.89 333 18:18 31.01.2022
3411 Clear -3 1029 51 10000 1.34 210 17:24 31.01.2022
3412 Clear -4 1028 56 10000 1.34 42 16:25 31.01.2022
3413 Clouds -7 1028 65 10000 0.45 340 14:53 31.01.2022
3414 Clear -9 1025 69 10000 1.54 50 13:43 31.01.2022
3415 Clear -11 1025 71 10000 2.06 70 12:38 31.01.2022
3416 Clear -11 1024 74 10000 3.09 20 11:31 31.01.2022
3417 Clear -10 1024 67 10000 0 0 10:48 31.01.2022
3418 Clouds -9 1023 65 10000 0 0 09:38 31.01.2022
3419 Clouds -9 1024 74 10000 1.44 1 08:57 31.01.2022
3420 Clouds -9 1023 66 10000 0 0 08:38 31.01.2022
3421 Clouds -9 1023 65 10000 0 0 08:19 31.01.2022
3422 Clear -7 1023 55 10000 1.54 310 06:18 31.01.2022
3423 Clear -6 1018 52 10000 2.24 246 00:43 31.01.2022
3424 Clear -4 1016 48 10000 0.45 173 22:34 30.01.2022
3425 Clouds -4 1016 47 10000 0.45 142 21:56 30.01.2022
3426 Clear -4 1015 47 10000 0.45 202 21:37 30.01.2022
3427 Clear -3 1015 47 10000 0.45 355 21:18 30.01.2022
3428 Clear -4 1015 47 10000 0.45 141 20:43 30.01.2022
3429 Clear -4 1015 47 10000 0.89 290 20:25 30.01.2022
3430 Clear -4 1015 51 10000 0.89 201 19:24 30.01.2022
3431 Clear -5 1016 53 10000 0.45 316 18:35 30.01.2022
3432 Clear -6 1016 55 10000 0.89 71 17:53 30.01.2022
3433 Clear -6 1017 56 10000 1.34 310 17:20 30.01.2022
3434 Clear -7 1017 59 10000 0.89 282 16:37 30.01.2022
3435 Clear -8 1017 60 10000 0.89 295 16:19 30.01.2022
3436 Clear -9 1017 60 10000 0.45 344 15:49 30.01.2022
3437 Clear -9 1017 61 10000 2.24 323 15:30 30.01.2022
3438 Clear -10 1016 63 10000 0.45 105 14:45 30.01.2022
3439 Clear -11 1015 63 10000 1.79 309 12:46 30.01.2022
3440 Clear -11 1013 61 10000 3.13 316 11:53 30.01.2022
3441 Clear -11 1012 61 10000 2.68 16 10:29 30.01.2022
3442 Clear -11 1012 60 10000 2.68 4 09:50 30.01.2022
3443 Clouds -11 1012 59 10000 4.47 281 08:52 30.01.2022
3444 Clear -11 1010 53 10000 0.45 282 06:55 30.01.2022
3445 Clouds -8 1006 53 10000 4.92 319 01:56 30.01.2022
3446 Clouds -8 1006 53 10000 4.92 319 01:56 30.01.2022
3447 Clouds -8 1004 53 10000 0.89 282 00:22 30.01.2022
3448 Clouds -8 1003 63 10000 0.89 217 22:58 29.01.2022
3449 Snow -8 1003 72 4828 6.26 291 21:47 29.01.2022
3450 Clouds -8 1003 77 4828 4.47 7 21:23 29.01.2022
3451 Snow -8 1002 83 1207 4.92 305 20:28 29.01.2022
3452 Snow -8 1003 86 805 0.89 273 19:34 29.01.2022
3453 Snow -9 1004 87 805 1.34 312 18:52 29.01.2022
3454 Snow -8 1004 88 1207 1.34 269 18:18 29.01.2022
3455 Snow -8 1005 87 805 1.79 300 17:29 29.01.2022
3456 Snow -8 1006 87 805 2.24 281 15:57 29.01.2022
3457 Snow -8 1006 87 805 2.24 290 14:23 29.01.2022
3458 Snow -7 1006 87 805 1.79 286 13:42 29.01.2022
3459 Snow -7 1006 88 402 1.79 276 13:23 29.01.2022
3460 Fog -6 1007 89 805 2.24 276 11:49 29.01.2022
3461 Snow -6 1007 90 805 2.24 275 11:24 29.01.2022
3462 Snow -4 1010 90 805 1.34 294 08:43 29.01.2022
3463 Fog -2 1012 91 805 1.34 257 06:55 29.01.2022
3464 Haze 0 1017 82 9656 0.89 118 00:36 29.01.2022
3465 Haze 0 1018 81 9656 0.89 302 23:52 28.01.2022
3466 Clouds 0 1018 81 4828 0.45 130 22:50 28.01.2022
3467 Clouds 0 1018 80 4828 0.45 126 22:21 28.01.2022
3468 Clouds 1 1018 80 4023 1.34 348 21:37 28.01.2022
3469 Haze 1 1018 80 4828 1.79 350 20:30 28.01.2022
3470 Clouds 1 1019 82 2414 0.45 129 19:31 28.01.2022
3471 Clouds 0 1019 83 3219 1.34 324 18:43 28.01.2022
3472 Clouds -1 1020 83 4023 0.89 276 16:54 28.01.2022
3473 Clouds -2 1021 80 2012 0.89 306 15:20 28.01.2022
3474 Clouds -1 1021 66 4023 0.89 239 13:52 28.01.2022
3475 Clouds -1 1021 56 10000 0.45 198 12:30 28.01.2022
3476 Clouds -1 1021 56 10000 0.45 242 11:25 28.01.2022
3477 Clouds -1 1021 56 10000 0.89 216 09:52 28.01.2022
3478 Clouds -1 1022 52 10000 1.79 228 08:22 28.01.2022
3479 Clouds -1 1023 50 10000 0.45 62 07:34 28.01.2022
3480 Clouds -2 1025 48 10000 2.24 226 03:57 28.01.2022
3481 Clear -2 1025 49 10000 1.79 224 03:20 28.01.2022
3482 Clear -2 1025 50 10000 1.79 224 02:22 28.01.2022
3483 Clear -2 1025 50 10000 1.79 224 02:22 28.01.2022
3484 Clear -2 1026 50 10000 1.79 250 01:31 28.01.2022
3485 Clouds 0 1025 51 10000 2.68 203 22:52 27.01.2022
3486 Clouds 0 1026 51 10000 0.89 64 21:47 27.01.2022
3487 Clouds 0 1026 52 10000 0.45 75 21:29 27.01.2022
3488 Clouds 0 1027 52 10000 0.45 56 20:26 27.01.2022
3489 Clouds -1 1030 50 10000 0.45 2 18:40 27.01.2022
3490 Clear -2 1031 49 10000 0.45 130 17:55 27.01.2022
3491 Clear -6 1032 56 10000 0.45 114 14:42 27.01.2022
3492 Clear -8 1033 58 10000 0.45 72 13:35 27.01.2022
3493 Clear -8 1032 57 10000 0.89 136 12:39 27.01.2022
3494 Clear -8 1031 54 10000 0.45 104 10:23 27.01.2022
3495 Clear -8 1032 52 10000 0.45 185 08:52 27.01.2022
3496 Clear -7 1032 50 10000 0.89 108 08:30 27.01.2022
3497 Clear -7 1032 50 10000 0.45 100 08:30 27.01.2022
3498 Clear -7 1032 45 10000 1.34 342 05:59 27.01.2022
3499 Clear -5 1031 38 10000 0.45 264 02:36 27.01.2022
3500 Clear -4 1029 34 10000 2.24 286 23:32 26.01.2022
3501 Clouds -3 1027 33 10000 0.89 291 21:57 26.01.2022
3502 Clear -2 1027 33 10000 0.89 332 21:33 26.01.2022
3503 Clear -2 1027 35 10000 0.89 301 20:36 26.01.2022
3504 Clouds -2 1026 36 10000 0.89 294 19:59 26.01.2022
3505 Clear -3 1026 35 10000 1.34 289 19:20 26.01.2022
3506 Clear -3 1027 35 10000 1.34 288 18:45 26.01.2022
3507 Clear -3 1028 38 10000 1.34 292 17:50 26.01.2022
3508 Clear -4 1028 40 10000 1.34 281 17:22 26.01.2022
3509 Clear -4 1028 45 10000 1.79 274 16:31 26.01.2022
3510 Clear -5 1028 49 10000 0.89 281 15:49 26.01.2022
3511 Clear -5 1028 49 10000 0.89 281 15:49 26.01.2022
3512 Clear -6 1027 58 10000 0.89 280 13:58 26.01.2022
3513 Clear -6 1025 55 10000 0.89 277 11:48 26.01.2022
3514 Clear -5 1024 53 10000 0.89 279 10:28 26.01.2022
3515 Clear -5 1024 52 10000 0.89 280 09:46 26.01.2022
3516 Clear -4 1023 50 10000 1.34 277 07:44 26.01.2022
3517 Clear 0 1020 55 10000 0.89 287 01:54 26.01.2022
3518 Clouds 2 1018 55 10000 2.68 330 23:57 25.01.2022
3519 Clouds 4 1017 53 10000 0.89 250 22:57 25.01.2022
3520 Clouds 5 1015 52 10000 0.45 284 22:21 25.01.2022
3521 Clouds 5 1016 52 10000 1.34 287 21:58 25.01.2022
3522 Smoke 5 1014 54 10000 0.45 323 20:46 25.01.2022
3523 Smoke 5 1014 54 10000 0.45 323 20:46 25.01.2022
3524 Smoke 5 1015 54 10000 2.24 28 20:23 25.01.2022
3525 Smoke 5 1014 58 10000 0.45 183 19:50 25.01.2022
3526 Smoke 4 1015 65 10000 0.45 252 18:37 25.01.2022
3527 Smoke 4 1015 67 10000 2.24 282 17:44 25.01.2022
3528 Smoke 3 1015 69 10000 1.34 307 16:35 25.01.2022
3529 Smoke 2 1014 70 10000 2.24 318 15:49 25.01.2022
3530 Smoke 2 1014 71 10000 0.89 313 15:31 25.01.2022
3531 Clouds 2 1014 73 10000 1.79 318 14:57 25.01.2022
3532 Haze 0 1012 75 10000 0.89 276 13:42 25.01.2022
3533 Haze 2 1011 72 9656 0.45 68 10:43 25.01.2022
3534 Clouds 2 1010 71 10000 0.45 270 08:37 25.01.2022
3535 Clouds 2 1010 71 10000 0.45 7 07:29 25.01.2022
3536 Clouds 2 1011 71 10000 0.45 127 06:49 25.01.2022
3537 Clouds 1 1011 68 10000 0.45 78 05:22 25.01.2022
3538 Clouds 0 1013 63 10000 1.79 180 23:37 24.01.2022
3539 Clouds 0 1012 62 10000 0.89 204 23:18 24.01.2022
3540 Clouds 0 1012 62 10000 1.79 180 22:59 24.01.2022
3541 Clouds 0 1012 61 10000 1.34 100 22:41 24.01.2022
3542 Clouds 0 1012 60 10000 0.89 206 21:53 24.01.2022
3543 Clouds 0 1012 60 10000 1.34 168 21:29 24.01.2022
3544 Clouds 0 1013 59 10000 0.45 306 20:30 24.01.2022
3545 Clouds 0 1013 59 10000 1.79 336 19:50 24.01.2022
3546 Clouds 0 1013 59 10000 0.89 336 19:24 24.01.2022
3547 Clouds -1 1014 61 10000 1.34 252 18:18 24.01.2022
3548 Clouds -2 1014 63 10000 0.89 272 17:24 24.01.2022
3549 Clouds -2 1014 66 10000 0.89 297 16:55 24.01.2022
3550 Clouds -2 1014 68 10000 0.89 290 16:19 24.01.2022
3551 Clouds -3 1014 75 10000 0.89 271 14:43 24.01.2022
3552 Haze -2 1012 78 9656 0.89 299 13:24 24.01.2022
3553 Haze -2 1011 81 6437 0.89 300 12:23 24.01.2022
3554 Mist -2 1010 82 10000 1.34 218 10:30 24.01.2022
3555 Clouds -1 1010 82 10000 0.89 258 09:48 24.01.2022
3556 Mist -1 1010 83 10000 0.89 288 08:41 24.01.2022
3557 Mist -1 1009 83 10000 0.45 294 06:41 24.01.2022
3558 Clouds 0 1010 69 10000 1.79 328 01:31 24.01.2022
3559 Clouds 1 1010 57 10000 1.79 288 00:38 24.01.2022
3560 Clouds 1 1010 53 10000 0.89 330 00:20 24.01.2022
3561 Clouds 2 1009 45 10000 0.45 278 22:37 23.01.2022
3562 Clouds 2 1009 43 10000 0.45 142 21:50 23.01.2022
3563 Clouds 2 1009 43 10000 0.45 353 21:26 23.01.2022
3564 Clouds 2 1009 43 10000 0.45 109 20:48 23.01.2022
3565 Clouds 2 1010 44 10000 0.45 163 19:54 23.01.2022
3566 Clouds 2 1011 45 10000 0.45 64 18:52 23.01.2022
3567 Clouds 1 1013 47 10000 0.45 6 17:50 23.01.2022
3568 Clouds -1 1014 48 10000 0.45 177 16:48 23.01.2022
3569 Clouds -3 1015 49 10000 0.45 182 15:18 23.01.2022
3570 Clear -4 1016 50 10000 0.45 254 14:32 23.01.2022
3571 Clear -5 1016 50 10000 0.45 115 13:27 23.01.2022
3572 Clear -5 1016 49 10000 0.45 294 12:36 23.01.2022
3573 Clear -5 1016 48 10000 0.45 18 12:18 23.01.2022
3574 Clear -5 1016 47 10000 0.45 169 11:24 23.01.2022
3575 Clear -5 1017 48 10000 1.34 252 10:57 23.01.2022
3576 Clouds -5 1017 46 10000 0.45 300 10:21 23.01.2022
3577 Clouds -4 1018 45 10000 0.45 92 09:22 23.01.2022
3578 Clouds -4 1020 50 10000 0.45 276 05:59 23.01.2022
3579 Clear -4 1021 54 10000 1.34 354 03:20 23.01.2022
3580 Clear -4 1022 57 10000 0.89 204 01:36 23.01.2022
3581 Clear -3 1023 55 10000 0.45 345 00:42 23.01.2022
3582 Clouds -3 1024 55 10000 0.45 264 23:57 22.01.2022
3583 Clear -2 1024 51 10000 1.34 294 22:48 22.01.2022
3584 Clear -1 1024 48 10000 1.79 312 22:19 22.01.2022
3585 Clear -1 1025 51 10000 0.45 247 20:29 22.01.2022
3586 Clear -2 1026 51 10000 0.45 54 19:37 22.01.2022
3587 Clear -3 1027 52 10000 0.45 160 18:37 22.01.2022
3588 Clear -3 1027 52 10000 0.45 160 18:37 22.01.2022
3589 Clouds -4 1029 52 10000 0.89 288 17:45 22.01.2022
3590 Clear -5 1030 54 10000 0.89 281 17:19 22.01.2022
3591 Clear -5 1030 55 10000 0.45 264 16:54 22.01.2022
3592 Clear -8 1031 55 10000 2.24 0 15:45 22.01.2022
3593 Clear -10 1031 57 10000 0.45 178 14:42 22.01.2022
3594 Clear -11 1031 56 10000 0.45 255 13:28 22.01.2022
3595 Clear -11 1031 54 10000 0.45 112 12:37 22.01.2022
3596 Clear -11 1031 54 10000 0.45 138 12:19 22.01.2022
3597 Clouds -10 1031 54 10000 0.89 221 10:54 22.01.2022
3598 Clear -10 1031 53 10000 0.89 178 10:23 22.01.2022
3599 Clouds -10 1032 53 10000 0.45 191 08:56 22.01.2022
3600 Clear -9 1032 52 10000 0.89 218 08:38 22.01.2022
3601 Clear -8 1034 50 10000 0.89 165 06:46 22.01.2022
3602 Clear -7 1035 42 10000 2.68 42 02:40 22.01.2022
3603 Clear -6 1034 42 10000 0.45 199 23:50 21.01.2022
3604 Clear -6 1034 42 10000 0.45 149 23:21 21.01.2022
3605 Clear -5 1034 40 10000 0.45 216 21:34 21.01.2022
3606 Clear -6 1034 42 10000 0.89 272 19:35 21.01.2022
3607 Clouds -7 1034 47 10000 0.89 271 17:53 21.01.2022
3608 Clear -9 1035 50 10000 1.34 274 16:37 21.01.2022
3609 Clear -9 1035 52 10000 1.79 276 15:23 21.01.2022
3610 Clear -10 1033 55 10000 0.89 270 12:50 21.01.2022
3611 Clear -9 1031 54 10000 0.89 277 11:29 21.01.2022
3612 Clouds -9 1031 54 10000 1.34 275 10:51 21.01.2022
3613 Clear -9 1031 54 10000 1.34 275 09:24 21.01.2022
3614 Clear -8 1030 53 10000 2.24 286 08:20 21.01.2022
3615 Clear -5 1028 50 10000 0.89 275 04:36 21.01.2022
3616 Clear 0 1023 51 10000 0.89 285 22:53 20.01.2022
3617 Clear 1 1022 56 10000 0.89 277 21:49 20.01.2022
3618 Clear 1 1021 57 10000 1.34 311 21:28 20.01.2022
3619 Clouds 1 1021 70 10000 0.89 271 19:56 20.01.2022
3620 Clouds 1 1021 73 10000 0.89 102 19:19 20.01.2022
3621 Snow 0 1021 89 1207 1.34 315 17:46 20.01.2022
3622 Mist 0 1021 90 1207 0.89 294 16:35 20.01.2022
3623 Snow 1 1020 89 2816 1.34 268 15:40 20.01.2022
3624 Rain 2 1019 89 6437 1.79 12 14:40 20.01.2022
3625 Rain 3 1018 90 9656 0.89 300 13:21 20.01.2022
3626 Rain 4 1017 89 10000 0.89 294 12:31 20.01.2022
3627 Rain 4 1016 86 9656 0.89 270 11:20 20.01.2022
3628 Rain 4 1016 81 10000 0.45 351 10:37 20.01.2022
3629 Rain 6 1016 62 10000 0.89 296 09:29 20.01.2022
3630 Clouds 6 1015 59 10000 0.45 276 07:33 20.01.2022
3631 Clouds 7 1015 52 10000 0.45 13 00:43 20.01.2022
3632 Clear 8 1014 46 10000 0.45 91 22:52 19.01.2022
3633 Clear 9 1015 44 10000 0.45 316 21:48 19.01.2022
3634 Clear 9 1015 44 10000 2.24 218 21:23 19.01.2022
3635 Clear 9 1015 43 10000 0.45 2 20:46 19.01.2022
3636 Clear 8 1016 45 10000 0.45 79 19:42 19.01.2022
3637 Clear 6 1017 53 10000 0.45 105 18:18 19.01.2022
3638 Clear 5 1018 58 10000 0.45 107 17:44 19.01.2022
3639 Clear 4 1020 62 10000 0.89 63 16:46 19.01.2022
3640 Clouds 1 1021 67 10000 0.45 86 14:42 19.01.2022
3641 Clouds -1 1021 66 10000 0.45 47 12:41 19.01.2022
3642 Clear -1 1021 71 10000 0.45 153 11:39 19.01.2022
3643 Clear -2 1022 70 10000 0.45 288 10:20 19.01.2022
3644 Clear -2 1022 69 10000 1.34 121 09:34 19.01.2022
3645 Clear -3 1023 65 10000 0.45 244 06:35 19.01.2022
3646 Clear -1 1021 54 10000 0.45 293 02:38 19.01.2022
3647 Clouds 1 1018 44 10000 0.89 284 23:19 18.01.2022
3648 Clouds 2 1016 42 10000 1.34 249 22:19 18.01.2022
3649 Clouds 3 1015 41 10000 1.79 306 20:58 18.01.2022
3650 Clouds 2 1014 43 10000 0.89 298 19:54 18.01.2022
3651 Clouds 2 1013 44 10000 1.34 194 19:36 18.01.2022
3652 Clouds 2 1012 45 10000 0.89 292 18:51 18.01.2022
3653 Clouds 2 1012 46 10000 1.34 303 17:58 18.01.2022
3654 Clouds 2 1012 50 10000 5.36 288 16:40 18.01.2022
3655 Clouds 1 1011 56 10000 0.89 260 15:41 18.01.2022
3656 Clouds 1 1010 57 10000 0.89 267 15:21 18.01.2022
3657 Clouds -1 1006 59 10000 0.89 311 12:33 18.01.2022
3658 Clouds -1 1004 58 10000 1.34 331 10:47 18.01.2022
3659 Clouds -1 1002 54 10000 1.34 29 08:59 18.01.2022
3660 Clouds 1 1000 61 10000 1.34 178 07:51 18.01.2022
3661 Clouds 2 992 71 10000 0.89 119 02:34 18.01.2022
3662 Clouds 2 988 76 10000 0.89 98 23:39 17.01.2022
3663 Clouds 3 988 72 10000 0.89 86 22:27 17.01.2022
3664 Clouds 3 987 74 10000 0.89 90 21:35 17.01.2022
3665 Clouds 3 986 76 10000 0.89 85 20:24 17.01.2022
3666 Clouds 3 986 79 10000 0.45 47 18:30 17.01.2022
3667 Clouds 3 986 81 10000 0.89 23 17:44 17.01.2022
3668 Mist 4 986 82 10000 0.45 95 16:44 17.01.2022
3669 Rain 4 986 86 8047 0.45 25 15:22 17.01.2022
3670 Clouds 4 986 84 10000 0.89 70 14:56 17.01.2022
3671 Clouds 6 986 82 10000 0.89 58 13:26 17.01.2022
3672 Rain 6 986 85 10000 0.89 43 12:56 17.01.2022
3673 Mist 5 987 92 8047 0.89 105 11:49 17.01.2022
3674 Rain 6 989 94 2414 1.79 99 10:25 17.01.2022
3675 Rain 6 989 94 2414 1.79 99 10:25 17.01.2022
3676 Rain 6 991 92 4023 1.79 92 09:34 17.01.2022
3677 Rain 5 998 91 4828 2.68 103 07:43 17.01.2022
3678 Rain 4 1000 92 4023 2.24 109 07:18 17.01.2022
3679 Snow -1 1018 78 10000 0.89 138 00:56 17.01.2022
3680 Clouds -3 1022 78 10000 4.02 40 22:30 16.01.2022
3681 Clouds -3 1025 67 10000 0.89 133 20:36 16.01.2022
3682 Clouds -5 1027 65 10000 0.45 305 18:53 16.01.2022
3683 Clouds -6 1028 63 10000 0.45 164 17:59 16.01.2022
3684 Clouds -7 1029 61 10000 0.45 150 17:23 16.01.2022
3685 Clouds -7 1030 61 10000 0.45 170 16:38 16.01.2022
3686 Clear -10 1031 57 10000 0.45 120 14:50 16.01.2022
3687 Clear -11 1031 60 10000 0.45 116 14:27 16.01.2022
3688 Clear -12 1030 56 10000 0.45 150 12:49 16.01.2022
3689 Clear -12 1029 56 10000 0.89 122 11:43 16.01.2022
3690 Clear -11 1029 57 10000 0.45 141 10:55 16.01.2022
3691 Clear -12 1029 57 10000 0.45 269 10:26 16.01.2022
3692 Clear -11 1029 57 10000 0.45 244 09:52 16.01.2022
3693 Clear -12 1029 57 10000 0.45 180 09:22 16.01.2022
3694 Clear -12 1030 56 10000 0.89 277 08:38 16.01.2022
3695 Clear -9 1029 49 10000 0.89 284 03:21 16.01.2022
3696 Clear -8 1028 40 10000 0.89 6 23:50 15.01.2022
3697 Clear -7 1027 37 10000 0.89 271 22:19 15.01.2022
3698 Clear -7 1026 36 10000 0.89 285 21:19 15.01.2022
3699 Clear -7 1026 35 10000 0.89 283 20:40 15.01.2022
3700 Clear -7 1026 36 10000 0.89 275 19:30 15.01.2022
3701 Clear -8 1026 38 10000 0.89 277 18:45 15.01.2022
3702 Clear -9 1026 42 10000 1.34 280 17:29 15.01.2022
3703 Clouds -10 1025 51 10000 1.34 280 15:59 15.01.2022
3704 Clouds -12 1024 55 10000 2.24 336 13:56 15.01.2022
3705 Clear -11 1022 55 10000 4.02 340 12:18 15.01.2022
3706 Clear -10 1019 55 10000 0.89 269 10:38 15.01.2022
3707 Smoke -8 1017 58 10000 1.34 290 08:31 15.01.2022
3708 Clouds 1 1011 64 10000 1.79 277 00:35 15.01.2022
3709 Clouds 5 1009 62 10000 1.34 277 21:52 14.01.2022
3710 Clouds 5 1009 62 10000 1.34 277 21:52 14.01.2022
3711 Clear 5 1008 60 10000 2.24 281 20:41 14.01.2022
3712 Clear 6 1008 60 10000 1.79 279 20:21 14.01.2022
3713 Clear 6 1008 62 10000 1.79 281 18:49 14.01.2022
3714 Clear 6 1008 62 10000 2.24 278 18:20 14.01.2022
3715 Clear 6 1009 67 10000 2.24 283 16:50 14.01.2022
3716 Clear 4 1009 68 10000 2.24 283 15:39 14.01.2022
3717 Clear 3 1009 71 10000 1.79 295 14:42 14.01.2022
3718 Clear 3 1009 77 10000 3.58 53 13:36 14.01.2022
3719 Clear 3 1009 80 10000 0.89 30 12:28 14.01.2022
3720 Clouds 3 1009 81 10000 0.89 318 10:53 14.01.2022
3721 Clouds 3 1010 82 10000 1.79 48 09:44 14.01.2022
3722 Clouds 3 1010 80 10000 0.89 239 08:44 14.01.2022
3723 Clear 3 1011 76 10000 0.89 158 06:45 14.01.2022
3724 Clear 3 1014 74 10000 2.24 18 01:20 14.01.2022
3725 Clear 5 1013 72 10000 0.45 120 23:19 13.01.2022
3726 Clear 7 1014 62 10000 2.06 90 21:38 13.01.2022
3727 Clear 7 1014 59 10000 2.06 90 21:19 13.01.2022
3728 Clear 7 1015 49 10000 2.57 0 19:40 13.01.2022
3729 Clear 7 1015 50 10000 2.57 0 19:22 13.01.2022
3730 Clear 7 1015 50 10000 2.57 0 19:22 13.01.2022
3731 Clouds 6 1016 59 10000 1.19 12 17:52 13.01.2022
3732 Clouds 4 1018 62 10000 1.79 301 16:21 13.01.2022
3733 Clouds 2 1018 65 10000 0.89 312 15:37 13.01.2022
3734 Clouds 1 1018 71 10000 1.54 310 14:46 13.01.2022
3735 Clouds -1 1017 75 10000 0.89 276 12:45 13.01.2022
3736 Clear 0 1017 73 10000 1.54 40 10:25 13.01.2022
3737 Clear -1 1018 69 10000 0.45 223 09:20 13.01.2022
3738 Clear -1 1018 69 10000 0.45 223 09:20 13.01.2022
3739 Clouds -1 1018 72 10000 0.45 0 08:27 13.01.2022
3740 Clouds -1 1019 69 10000 0.89 186 07:24 13.01.2022
3741 Clouds -1 1020 65 10000 1.34 224 05:59 13.01.2022
3742 Clouds 0 1020 62 10000 5.36 228 05:19 13.01.2022
3743 Clouds 0 1021 61 10000 3.58 180 02:33 13.01.2022
3744 Clouds 1 1020 59 10000 4.47 201 00:55 13.01.2022
3745 Clouds 2 1019 54 10000 0.89 276 23:49 12.01.2022
3746 Clouds 2 1019 54 10000 0.89 276 23:49 12.01.2022
3747 Clear 3 1019 52 10000 3.58 198 23:24 12.01.2022
3748 Clear 4 1019 49 10000 1.34 290 21:58 12.01.2022
3749 Clear 4 1019 48 10000 1.34 276 21:23 12.01.2022
3750 Clear 4 1019 47 10000 0.45 120 20:57 12.01.2022
3751 Clear 4 1020 47 10000 4.47 313 19:55 12.01.2022
3752 Clear 3 1021 51 10000 0.45 145 18:43 12.01.2022
3753 Clear 2 1021 54 10000 0.45 148 17:50 12.01.2022
3754 Clear 0 1023 58 10000 0.89 30 16:39 12.01.2022
3755 Clear -3 1024 59 10000 0.89 22 14:49 12.01.2022
3756 Clear -4 1025 59 10000 0.45 106 13:34 12.01.2022
3757 Clear -5 1026 62 10000 0.45 6 12:34 12.01.2022
3758 Clear -7 1030 52 10000 0.45 348 08:50 12.01.2022
3759 Clouds -7 1031 52 10000 0.45 110 07:52 12.01.2022
3760 Clear -7 1031 51 10000 0.45 64 07:32 12.01.2022
3761 Clear -8 1035 40 10000 1.34 330 01:26 12.01.2022
3762 Clear -7 1035 38 10000 1.79 288 23:25 11.01.2022
3763 Clear -7 1034 37 10000 0.45 306 22:24 11.01.2022
3764 Clear -6 1033 37 10000 1.34 286 21:28 11.01.2022
3765 Clear -6 1033 37 10000 0.89 292 20:35 11.01.2022
3766 Clouds -7 1032 41 10000 1.34 276 18:52 11.01.2022
3767 Clear -8 1034 42 10000 0.89 299 17:46 11.01.2022
3768 Clear -8 1034 42 10000 1.34 281 16:39 11.01.2022
3769 Clear -8 1034 43 10000 1.79 294 16:18 11.01.2022
3770 Clear -9 1032 47 10000 0.89 261 14:48 11.01.2022
3771 Clear -9 1032 48 10000 1.79 289 14:30 11.01.2022
3772 Clear -9 1031 51 10000 1.34 283 13:46 11.01.2022
3773 Clear -9 1031 52 10000 0.89 204 13:25 11.01.2022
3774 Clear -8 1030 53 10000 8.05 302 12:24 11.01.2022
3775 Clear -8 1027 48 10000 0.89 281 10:31 11.01.2022
3776 Clouds -6 1024 60 10000 1.34 309 07:50 11.01.2022
3777 Clouds -4 1021 56 10000 6.71 264 03:51 11.01.2022
3778 Clouds -3 1021 48 10000 4.47 269 00:27 11.01.2022
3779 Clear -3 1021 47 10000 7.6 278 23:39 10.01.2022
3780 Clouds -2 1020 44 10000 8.05 274 22:20 10.01.2022
3781 Clouds -2 1020 44 10000 9.39 257 21:57 10.01.2022
3782 Clouds -2 1020 43 10000 0.89 314 21:33 10.01.2022
3783 Clouds -1 1019 43 10000 1.34 308 20:59 10.01.2022
3784 Clouds -1 1019 43 10000 0.89 218 20:41 10.01.2022
3785 Clouds -1 1019 42 10000 0.89 309 20:19 10.01.2022
3786 Clouds -1 1019 41 10000 0.89 318 19:38 10.01.2022
3787 Clouds -1 1019 40 10000 1.34 285 19:19 10.01.2022
3788 Clouds -1 1020 42 10000 0.89 305 18:46 10.01.2022
3789 Clear -2 1021 45 10000 1.34 281 16:48 10.01.2022
3790 Clear -2 1022 46 10000 9.39 310 16:26 10.01.2022
3791 Clouds -2 1021 51 10000 0.89 299 14:43 10.01.2022
3792 Clouds -2 1020 53 10000 0.89 235 13:35 10.01.2022
3793 Clouds 0 1018 54 10000 0.89 302 11:56 10.01.2022
3794 Clouds 1 1017 58 10000 10.28 304 10:49 10.01.2022
3795 Clouds 2 1017 69 10000 5.36 360 09:40 10.01.2022
3796 Clouds 4 1015 87 10000 0.45 98 05:52 10.01.2022
3797 Rain 3 1015 90 8047 0.45 107 02:38 10.01.2022
3798 Rain 3 1016 90 9656 0.45 43 01:21 10.01.2022
3799 Rain 3 1016 87 6437 0.45 111 00:21 10.01.2022
3800 Rain 3 1017 82 10000 0.45 21 22:47 09.01.2022
3801 Rain 4 1017 81 10000 0.45 69 22:21 09.01.2022
3802 Clouds 4 1017 79 10000 0.45 75 21:41 09.01.2022
3803 Rain 4 1017 78 10000 0.45 65 21:22 09.01.2022
3804 Rain 4 1018 75 10000 0.45 56 20:47 09.01.2022
3805 Clouds 4 1018 74 10000 0.45 81 20:29 09.01.2022
3806 Clouds 4 1019 73 10000 0.45 93 19:42 09.01.2022
3807 Clouds 4 1020 73 10000 0.45 80 19:21 09.01.2022
3808 Clouds 4 1020 72 10000 0.45 44 18:49 09.01.2022
3809 Clouds 3 1020 72 10000 0.45 43 18:30 09.01.2022
3810 Clouds 3 1023 71 10000 0.89 65 17:30 09.01.2022
3811 Clouds 3 1024 70 10000 0.45 23 16:51 09.01.2022
3812 Clouds 2 1025 71 10000 0.45 120 15:52 09.01.2022
3813 Clouds 2 1026 70 10000 0.45 66 15:33 09.01.2022
3814 Clouds 1 1026 72 10000 0.45 16 14:40 09.01.2022
3815 Clouds 0 1027 72 10000 0.89 84 13:50 09.01.2022
3816 Clouds 0 1028 71 10000 0.45 18 12:44 09.01.2022
3817 Clouds -1 1029 69 10000 0.45 8 11:48 09.01.2022
3818 Clouds -2 1031 65 10000 0.89 37 09:59 09.01.2022
3819 Clouds -2 1032 64 10000 0.45 41 09:41 09.01.2022
3820 Clear -3 1034 61 10000 0.45 100 08:30 09.01.2022
3821 Clear -4 1036 51 10000 4.47 219 02:48 09.01.2022
3822 Clear -4 1037 52 10000 2.68 231 01:21 09.01.2022
3823 Clear -3 1036 45 10000 0.45 158 23:38 08.01.2022
3824 Clouds -2 1036 46 10000 0.89 258 22:59 08.01.2022
3825 Clear -1 1036 40 10000 1.79 319 21:33 08.01.2022
3826 Clouds -1 1035 41 10000 0.45 294 20:58 08.01.2022
3827 Clear -1 1035 41 10000 0.45 277 20:39 08.01.2022
3828 Clear -1 1036 41 10000 0.89 283 20:19 08.01.2022
3829 Clear -2 1035 48 10000 0.89 304 18:21 08.01.2022
3830 Clear -4 1036 50 10000 0.89 259 17:21 08.01.2022
3831 Clear -5 1036 57 10000 8.49 295 15:51 08.01.2022
3832 Clear -6 1034 60 10000 0.89 273 14:43 08.01.2022
3833 Clear -7 1033 62 10000 5.36 307 13:25 08.01.2022
3834 Clear -6 1030 62 10000 3.58 290 11:25 08.01.2022
3835 Clear -6 1029 60 10000 7.15 293 10:25 08.01.2022
3836 Clear -6 1027 59 10000 6.71 300 09:47 08.01.2022
3837 Clear -5 1024 57 10000 1.34 319 07:21 08.01.2022
3838 Clear -3 1020 63 10000 0.89 336 02:50 08.01.2022
3839 Snow -2 1017 64 10000 0.89 59 00:41 08.01.2022
3840 Clouds -1 1014 56 10000 1.34 46 22:47 07.01.2022
3841 Clouds 0 1011 57 10000 1.34 322 20:58 07.01.2022
3842 Clouds 0 1010 59 10000 1.34 316 20:19 07.01.2022
3843 Rain 1 1010 62 10000 1.79 301 19:23 07.01.2022
3844 Haze 1 1009 63 8047 0.89 286 18:44 07.01.2022
3845 Snow 0 1010 72 4828 0.89 122 17:28 07.01.2022
3846 Haze -1 1010 81 4828 0.89 255 16:39 07.01.2022
3847 Snow -2 1009 92 805 5.81 328 14:29 07.01.2022
3848 Snow -2 1008 94 805 4.47 311 13:41 07.01.2022
3849 Snow -2 1008 93 805 4.47 318 12:49 07.01.2022
3850 Snow -2 1008 91 805 6.26 308 12:49 07.01.2022
3851 Snow -2 1008 90 402 0.45 118 09:46 07.01.2022
3852 Clouds 1 1013 52 10000 0.89 286 02:57 07.01.2022
3853 Clear 1 1015 51 10000 1.34 269 01:56 07.01.2022
3854 Clear 1 1015 51 10000 2.24 253 01:28 07.01.2022
3855 Clouds 1 1015 51 10000 2.24 302 00:59 07.01.2022
3856 Clear 1 1015 49 10000 3.58 282 00:28 07.01.2022
3857 Clear 3 1012 43 10000 0.45 285 21:39 06.01.2022
3858 Clear 4 1013 43 10000 0.45 197 20:25 06.01.2022
3859 Clouds 4 1013 44 10000 0.45 235 19:54 06.01.2022
3860 Clear 3 1013 43 10000 0.45 47 19:28 06.01.2022
3861 Clear 3 1013 46 10000 0.89 136 17:51 06.01.2022
3862 Clear 3 1013 47 10000 0.89 100 17:19 06.01.2022
3863 Clear 2 1013 50 10000 8.05 275 16:21 06.01.2022
3864 Clear 2 1012 53 10000 5.36 274 15:40 06.01.2022
3865 Clear 2 1013 52 10000 7.15 281 15:19 06.01.2022
3866 Clear 2 1011 57 10000 0.89 101 14:19 06.01.2022
3867 Clouds 2 1010 70 10000 0.45 261 12:59 06.01.2022
3868 Clouds 2 1009 82 10000 2.24 276 11:58 06.01.2022
3869 Clear 2 1009 83 10000 1.79 278 11:29 06.01.2022
3870 Clear 3 1007 85 10000 0.45 276 09:33 06.01.2022
3871 Clouds 5 1007 86 10000 0.89 246 01:57 06.01.2022
3872 Clouds 6 1007 87 10000 3.13 169 23:54 05.01.2022
3873 Clouds 7 1008 87 10000 0.89 195 23:21 05.01.2022
3874 Clouds 7 1009 88 10000 0.45 187 22:41 05.01.2022
3875 Clouds 7 1008 89 10000 1.79 141 21:59 05.01.2022
3876 Clouds 7 1008 88 10000 0.45 84 21:23 05.01.2022
3877 Clouds 6 1009 89 10000 0.45 60 20:30 05.01.2022
3878 Clouds 5 1010 90 10000 0.45 61 19:29 05.01.2022
3879 Mist 4 1012 90 6437 0.45 45 18:20 05.01.2022
3880 Rain 3 1015 90 8047 0.45 69 16:56 05.01.2022
3881 Rain 2 1016 90 9656 0.45 11 16:18 05.01.2022
3882 Rain 1 1016 90 8047 3.58 139 14:56 05.01.2022
3883 Rain 0 1018 84 10000 0.45 355 13:34 05.01.2022
3884 Rain -1 1020 80 10000 2.24 287 12:20 05.01.2022
3885 Clear -1 1024 70 10000 2.68 238 08:35 05.01.2022
3886 Clear -2 1025 66 10000 0.45 84 06:46 05.01.2022
3887 Clear -1 1028 54 10000 3.13 207 01:46 05.01.2022
3888 Clouds 0 1028 48 10000 4.47 188 23:43 04.01.2022
3889 Clear 0 1028 48 10000 3.58 205 23:21 04.01.2022
3890 Clear 1 1028 45 10000 3.58 215 21:41 04.01.2022
3891 Clear 1 1028 47 10000 0.45 36 20:42 04.01.2022
3892 Clear 0 1028 48 10000 0.45 70 18:39 04.01.2022
3893 Clear -2 1030 51 10000 2.24 227 17:33 04.01.2022
3894 Clouds -4 1031 54 10000 0.45 305 16:38 04.01.2022
3895 Clear -5 1031 60 10000 2.68 328 15:25 04.01.2022
3896 Clear -6 1030 64 10000 0.45 263 14:38 04.01.2022
3897 Clear -7 1030 64 10000 4.92 281 13:56 04.01.2022
3898 Clear -7 1029 63 10000 0.89 296 12:23 04.01.2022
3899 Clear -7 1028 59 10000 0.45 253 10:24 04.01.2022
3900 Clear -6 1026 59 10000 1.34 293 08:57 04.01.2022
3901 Clear -6 1025 61 10000 1.34 286 06:28 04.01.2022
3902 Clear -3 1020 44 10000 1.79 291 00:43 04.01.2022
3903 Snow -3 1019 45 10000 2.24 285 23:56 03.01.2022
3904 Snow -2 1017 50 10000 2.68 280 22:28 03.01.2022
3905 Snow -2 1017 53 10000 1.79 284 21:41 03.01.2022
3906 Snow -2 1017 53 10000 1.79 276 21:41 03.01.2022
3907 Snow -2 1016 51 10000 1.79 279 20:42 03.01.2022
3908 Snow -2 1016 48 10000 1.34 259 19:43 03.01.2022
3909 Snow -2 1018 45 10000 0.45 274 18:31 03.01.2022
3910 Snow -1 1020 47 10000 1.34 243 17:34 03.01.2022
3911 Snow -1 1020 48 10000 1.34 203 16:56 03.01.2022
3912 Snow -1 1019 54 10000 1.79 278 14:33 03.01.2022
3913 Snow 0 1019 65 10000 1.34 226 13:25 03.01.2022
3914 Clouds 0 1019 67 10000 0.89 269 12:28 03.01.2022
3915 Clouds 1 1019 64 10000 0.89 161 11:30 03.01.2022
3916 Clouds 2 1019 66 10000 1.79 286 09:41 03.01.2022
3917 Clouds 2 1019 67 10000 0.89 267 08:18 03.01.2022
3918 Clouds 3 1015 70 10000 0.89 285 05:21 03.01.2022
3919 Clouds 8 1008 71 10000 4.47 307 23:45 02.01.2022
3920 Clouds 9 1008 74 10000 2.68 265 22:57 02.01.2022
3921 Clouds 10 1006 76 10000 3.13 325 22:38 02.01.2022
3922 Clouds 12 1005 76 10000 1.34 5 21:26 02.01.2022
3923 Clouds 14 1003 81 10000 0.45 266 20:30 02.01.2022
3924 Clouds 14 1003 85 10000 0.45 248 19:52 02.01.2022
3925 Clouds 14 1003 87 10000 0.45 169 19:25 02.01.2022
3926 Clouds 13 1003 91 10000 4.02 253 18:31 02.01.2022
3927 Mist 13 1003 93 10000 4.47 264 17:43 02.01.2022
3928 Mist 12 1003 94 10000 0.45 70 17:21 02.01.2022
3929 Mist 12 1003 94 10000 2.68 234 16:33 02.01.2022
3930 Mist 12 1003 95 9656 1.34 184 15:51 02.01.2022
3931 Mist 11 1002 94 9656 1.79 233 13:58 02.01.2022
3932 Mist 11 1001 94 2816 0.45 159 12:34 02.01.2022
3933 Mist 11 1001 95 4828 0.45 299 11:56 02.01.2022
3934 Mist 11 1000 95 2816 1.79 294 10:59 02.01.2022
3935 Mist 11 1001 94 9656 0.45 266 10:26 02.01.2022
3936 Mist 11 1000 94 8047 0.45 135 08:22 02.01.2022
3937 Rain 12 1004 93 4023 0.45 117 03:22 02.01.2022
3938 Rain 12 1006 93 10000 1.34 217 23:56 01.01.2022
3939 Rain 12 1006 93 10000 0.45 182 23:36 01.01.2022
3940 Mist 12 1006 92 10000 1.34 163 22:44 01.01.2022
3941 Mist 12 1006 92 10000 1.79 156 22:18 01.01.2022
3942 Mist 13 1006 92 10000 0.45 127 21:43 01.01.2022
3943 Clouds 13 1006 93 10000 1.79 122 20:51 01.01.2022
3944 Rain 12 1007 93 10000 0.45 208 19:55 01.01.2022
3945 Rain 12 1008 94 4828 0.45 104 18:58 01.01.2022
3946 Rain 12 1009 94 10000 0.89 238 17:56 01.01.2022
3947 Rain 11 1011 93 9656 1.79 238 16:35 01.01.2022
3948 Rain 11 1011 93 4828 0.45 62 15:57 01.01.2022
3949 Rain 10 1010 94 4828 3.13 167 14:56 01.01.2022
3950 Rain 10 1010 93 8047 1.34 136 13:42 01.01.2022
3951 Mist 10 1010 93 1207 1.34 111 12:43 01.01.2022
3952 Mist 10 1011 93 10000 2.24 119 11:47 01.01.2022
3953 Mist 10 1011 93 9656 0.89 96 11:20 01.01.2022
3954 Mist 10 1012 91 9656 3.13 130 09:49 01.01.2022
3955 Mist 10 1012 91 9656 4.02 118 09:21 01.01.2022
3956 Mist 10 1013 91 8047 0.89 105 08:24 01.01.2022
3957 Mist 10 1013 91 6437 1.79 150 07:41 01.01.2022
3958 Clouds 10 1013 91 10000 4.47 165 06:45 01.01.2022
3959 Mist 10 1013 90 10000 2.24 145 05:26 01.01.2022
3960 Mist 10 1014 90 9656 1.79 152 04:37 01.01.2022
3961 Mist 10 1014 89 9656 2.68 189 00:53 01.01.2022
3962 Mist 10 1014 87 9656 2.24 159 23:22 31.12.2021
3963 Mist 10 1014 86 10000 3.13 153 21:52 31.12.2021
3964 Clouds 11 1013 84 10000 0.45 100 20:33 31.12.2021
3965 Clouds 11 1013 85 10000 0.45 132 19:30 31.12.2021
3966 Haze 11 1014 79 9656 1.54 0 18:32 31.12.2021
3967 Haze 11 1014 84 9656 3.58 172 17:38 31.12.2021
3968 Haze 11 1014 84 9656 3.58 172 17:18 31.12.2021
3969 Mist 10 1015 87 10000 0.45 54 16:24 31.12.2021
3970 Mist 10 1015 90 10000 0.45 34 15:56 31.12.2021
3971 Mist 9 1015 91 8047 1.79 158 15:28 31.12.2021
3972 Mist 9 1015 92 3219 1.79 168 14:52 31.12.2021
3973 Mist 9 1015 92 10000 1.34 205 14:29 31.12.2021
3974 Mist 9 1014 93 9656 0.89 179 13:36 31.12.2021
3975 Mist 9 1014 94 9656 0.45 172 12:45 31.12.2021
3976 Mist 9 1013 93 9656 1.34 167 11:47 31.12.2021
3977 Mist 9 1013 93 4828 0.89 171 11:29 31.12.2021
3978 Mist 9 1013 93 6437 1.34 159 10:35 31.12.2021
3979 Mist 9 1013 92 8047 1.79 163 09:54 31.12.2021
3980 Mist 9 1013 92 8047 1.79 168 09:32 31.12.2021
3981 Mist 9 1014 92 9656 1.79 155 08:27 31.12.2021
3982 Mist 9 1013 92 9656 2.68 139 07:31 31.12.2021
3983 Clouds 8 1013 86 10000 2.24 245 23:32 30.12.2021
3984 Haze 9 1012 85 9656 1.34 44 22:33 30.12.2021
3985 Haze 9 1012 84 9656 0.89 29 21:56 30.12.2021
3986 Clouds 9 1013 84 10000 0.45 116 21:37 30.12.2021
3987 Haze 9 1013 85 9656 3.58 23 20:47 30.12.2021
3988 Haze 9 1013 85 9656 0.45 135 20:27 30.12.2021
3989 Clouds 9 1013 85 10000 3.58 20 19:48 30.12.2021
3990 Mist 9 1013 86 9656 0.45 289 18:51 30.12.2021
3991 Mist 8 1014 87 10000 2.68 31 18:20 30.12.2021
3992 Mist 7 1015 90 6437 1.79 27 16:27 30.12.2021
3993 Mist 7 1015 91 4828 1.79 281 15:52 30.12.2021
3994 Mist 7 1015 91 4828 1.79 281 15:52 30.12.2021
3995 Mist 6 1015 92 2816 0.89 329 14:41 30.12.2021
3996 Mist 6 1015 92 4828 1.34 298 14:19 30.12.2021
3997 Mist 6 1014 92 4023 1.79 293 13:23 30.12.2021
3998 Mist 6 1013 92 4023 3.13 326 11:34 30.12.2021
3999 Rain 6 1013 92 3219 0.45 101 10:27 30.12.2021
4000 Rain 6 1014 92 4023 0.45 121 09:27 30.12.2021
4001 Mist 6 1014 89 4023 0.89 93 06:55 30.12.2021
4002 Mist 6 1015 88 6437 0.45 74 04:25 30.12.2021
4003 Mist 6 1016 89 6437 0.45 127 03:40 30.12.2021
4004 Mist 6 1015 89 6437 0.45 115 01:56 30.12.2021
4005 Mist 6 1014 89 8047 0.45 112 23:36 29.12.2021
4006 Mist 6 1013 89 6437 0.89 14 22:32 29.12.2021
4007 Mist 6 1013 88 6437 0.45 216 21:54 29.12.2021
4008 Mist 6 1013 88 8047 0.45 19 20:56 29.12.2021
4009 Mist 6 1012 88 8047 2.57 60 20:25 29.12.2021
4010 Mist 6 1012 87 6437 0.45 113 19:31 29.12.2021
4011 Mist 6 1012 90 9656 0.45 257 18:35 29.12.2021
4012 Mist 6 1012 90 9656 0.45 121 17:41 29.12.2021
4013 Mist 6 1012 90 9656 0.89 98 17:20 29.12.2021
4014 Mist 5 1012 90 4828 0.45 247 16:19 29.12.2021
4015 Mist 5 1012 88 6437 0.45 113 15:21 29.12.2021
4016 Clouds 5 1010 89 10000 0.89 98 12:57 29.12.2021
4017 Clouds 5 1010 89 10000 0.45 157 12:32 29.12.2021
4018 Mist 5 1010 89 9656 0.45 115 11:23 29.12.2021
4019 Clouds 5 1009 88 10000 0.45 84 09:30 29.12.2021
4020 Rain 5 1010 86 10000 0.89 116 07:30 29.12.2021
4021 Rain 5 1011 81 6437 0.45 111 06:32 29.12.2021
4022 Rain 6 1011 75 9656 1.34 82 05:56 29.12.2021
4023 Clouds 6 1012 68 10000 0.45 314 04:58 29.12.2021
4024 Clouds 7 1012 65 10000 0.89 312 00:45 29.12.2021
4025 Clouds 7 1013 66 10000 1.79 282 23:58 28.12.2021
4026 Clouds 7 1012 64 10000 3.13 273 22:57 28.12.2021
4027 Clouds 8 1011 65 10000 2.24 277 22:25 28.12.2021
4028 Clouds 8 1010 64 10000 2.24 253 21:54 28.12.2021
4029 Clouds 8 1010 64 10000 2.68 264 21:35 28.12.2021
4030 Clouds 8 1009 64 10000 0.45 27 20:32 28.12.2021
4031 Clouds 7 1010 72 10000 0.45 151 18:54 28.12.2021
4032 Clear 7 1010 73 10000 0.45 299 18:28 28.12.2021
4033 Clear 7 1011 76 10000 0.45 302 17:42 28.12.2021
4034 Clear 6 1012 81 10000 4.92 280 16:25 28.12.2021
4035 Mist 5 1012 86 10000 1.79 293 15:41 28.12.2021
4036 Clouds 4 1012 88 10000 1.79 272 14:57 28.12.2021
4037 Clouds 4 1012 88 10000 1.79 272 14:57 28.12.2021
4038 Mist 4 1011 88 10000 2.24 260 14:38 28.12.2021
4039 Fog 3 1011 89 10000 2.24 266 14:20 28.12.2021
4040 Mist 3 1011 89 8047 0.89 253 13:38 28.12.2021
4041 Mist 3 1011 89 8047 0.89 253 13:38 28.12.2021
4042 Mist 3 1010 91 4828 2.68 262 12:57 28.12.2021
4043 Mist 3 1010 91 4828 4.02 269 12:38 28.12.2021
4044 Mist 3 1009 90 9656 0.45 115 10:52 28.12.2021
4045 Mist 3 1009 88 9656 0.89 282 07:40 28.12.2021
4046 Clouds 2 1010 88 10000 0.45 80 06:40 28.12.2021
4047 Clouds 3 1016 64 10000 2.68 129 23:42 27.12.2021
4048 Clouds 3 1016 63 10000 0.45 117 22:53 27.12.2021
4049 Clouds 3 1016 60 10000 0.45 145 21:33 27.12.2021
4050 Clouds 3 1016 59 10000 0.45 210 20:46 27.12.2021
4051 Clouds 3 1016 59 10000 0.89 260 19:57 27.12.2021
4052 Clouds 3 1017 58 10000 0.89 265 19:39 27.12.2021
4053 Clouds 2 1018 58 10000 2.24 294 18:23 27.12.2021
4054 Rain 2 1018 60 10000 0.45 103 17:46 27.12.2021
4055 Rain 1 1021 62 10000 3.13 13 16:38 27.12.2021
4056 Rain 1 1020 61 10000 4.92 22 15:51 27.12.2021
4057 Clear 1 1019 64 10000 5.81 17 14:32 27.12.2021
4058 Clear 1 1019 64 10000 5.36 20 13:39 27.12.2021
4059 Clouds 0 1020 68 10000 1.79 304 11:53 27.12.2021
4060 Clear 1 1019 63 10000 0.89 297 10:29 27.12.2021
4061 Clear 1 1019 62 10000 2.24 301 09:47 27.12.2021
4062 Clear 3 1019 59 10000 0.45 252 07:35 27.12.2021
4063 Clear 3 1018 59 10000 0.89 330 06:56 27.12.2021
4064 Clear 5 1017 54 10000 8.94 309 02:18 27.12.2021
4065 Clouds 6 1015 59 10000 4.92 333 23:58 26.12.2021
4066 Clouds 6 1015 57 10000 1.34 303 23:35 26.12.2021
4067 Clear 7 1014 55 10000 1.34 290 22:23 26.12.2021
4068 Clouds 9 1013 50 10000 1.34 297 20:54 26.12.2021
4069 Clear 9 1012 51 10000 1.79 297 19:47 26.12.2021
4070 Clear 9 1012 52 10000 0.89 275 18:24 26.12.2021
4071 Clouds 8 1012 57 10000 0.89 280 16:55 26.12.2021
4072 Clear 7 1011 64 10000 0.89 267 14:28 26.12.2021
4073 Clouds 6 1010 66 10000 0.89 276 13:40 26.12.2021
4074 Clouds 7 1010 66 10000 0.45 257 13:19 26.12.2021
4075 Clear 7 1009 67 10000 0.89 281 12:33 26.12.2021
4076 Clear 8 1005 70 10000 0.89 283 10:42 26.12.2021
4077 Clouds 9 1005 73 10000 1.79 297 09:25 26.12.2021
4078 Clouds 10 1005 75 10000 9.39 306 08:44 26.12.2021
4079 Clouds 10 1003 77 10000 0.89 300 07:58 26.12.2021
4080 Haze 8 1000 84 9656 0.45 148 01:30 26.12.2021
4081 Clouds 8 999 84 10000 2.24 302 23:58 25.12.2021
4082 Mist 8 999 83 10000 2.24 314 23:27 25.12.2021
4083 Mist 8 998 83 10000 2.24 239 22:28 25.12.2021
4084 Clouds 8 998 87 10000 3.58 264 21:00 25.12.2021
4085 Mist 6 999 91 6437 0.89 264 19:28 25.12.2021
4086 Mist 6 1000 92 4828 0.89 143 18:57 25.12.2021
4087 Mist 5 1000 92 2414 0.45 231 18:21 25.12.2021
4088 Rain 4 1002 92 2414 0.45 360 16:42 25.12.2021
4089 Rain 4 1003 90 1609 1.34 296 15:26 25.12.2021
4090 Mist 3 1004 90 4023 2.68 304 13:43 25.12.2021
4091 Rain 3 1005 89 10000 0.45 105 11:54 25.12.2021
4092 Rain 3 1008 87 8047 0.45 111 10:32 25.12.2021
4093 Rain 3 1009 84 10000 0.89 106 09:48 25.12.2021
4094 Clear 2 1014 80 10000 0.45 129 05:39 25.12.2021
4095 Clear 2 1016 78 10000 3.58 51 01:31 25.12.2021
4096 Clouds 2 1017 77 10000 0.89 54 23:55 24.12.2021
4097 Clear 4 1017 72 10000 0.45 285 21:46 24.12.2021
4098 Clouds 3 1017 77 10000 0.45 127 19:26 24.12.2021
4099 Mist 3 1018 80 10000 0.89 273 18:34 24.12.2021
4100 Clouds 2 1019 84 10000 3.13 292 16:40 24.12.2021
4101 Rain 1 1018 85 10000 0.45 132 15:49 24.12.2021
4102 Rain 1 1018 85 10000 0.45 114 15:20 24.12.2021
4103 Clouds 1 1018 83 10000 0.45 78 14:33 24.12.2021
4104 Clouds 0 1018 84 10000 0.89 103 13:50 24.12.2021
4105 Clouds 0 1018 84 10000 0.45 105 13:32 24.12.2021
4106 Clouds 0 1018 84 10000 0.89 82 12:39 24.12.2021
4107 Snow 0 1018 84 10000 0.89 122 11:43 24.12.2021
4108 Snow 0 1018 84 10000 0.89 96 11:24 24.12.2021
4109 Snow 0 1019 82 9656 0.45 115 10:35 24.12.2021
4110 Snow 1 1022 56 10000 1.79 116 08:48 24.12.2021
4111 Clouds 0 1021 55 10000 0.45 92 07:58 24.12.2021
4112 Clouds 0 1020 55 7127 3.13 115 06:59 24.12.2021
4113 Clear 0 1023 48 10000 1.34 304 00:22 24.12.2021
4114 Clear 1 1022 48 10000 3.58 344 23:50 23.12.2021
4115 Clouds 1 1022 47 10000 3.58 300 22:53 23.12.2021
4116 Clear 2 1022 45 10000 0.45 286 22:24 23.12.2021
4117 Clear 2 1022 46 10000 0.45 295 21:41 23.12.2021
4118 Clear 3 1021 45 10000 0.89 297 20:31 23.12.2021
4119 Clouds 2 1021 46 10000 0.89 294 19:30 23.12.2021
4120 Clouds 2 1022 49 10000 0.89 293 18:27 23.12.2021
4121 Clouds 2 1022 51 10000 0.89 231 17:46 23.12.2021
4122 Clouds 1 1022 51 10000 0.89 286 16:27 23.12.2021
4123 Clouds 1 1022 50 10000 0.89 262 15:54 23.12.2021
4124 Clouds 0 1022 50 10000 0.45 291 15:30 23.12.2021
4125 Clouds 0 1021 52 10000 0.89 329 14:42 23.12.2021
4126 Clear -1 1020 54 10000 5.36 288 13:49 23.12.2021
4127 Clear -1 1019 56 10000 0.89 179 12:39 23.12.2021
4128 Clear 0 1018 53 10000 7.6 304 10:36 23.12.2021
4129 Clouds 0 1017 52 10000 10.28 301 09:34 23.12.2021
4130 Clouds 0 1016 52 10000 5.36 302 08:58 23.12.2021
4131 Clear 1 1014 49 10000 0.89 8 06:23 23.12.2021
4132 Clouds 1 1011 47 10000 1.34 306 03:28 23.12.2021
4133 Clouds 5 1005 51 10000 0.89 281 22:55 22.12.2021
4134 Clouds 6 1004 48 10000 0.89 100 22:23 22.12.2021
4135 Clear 7 1003 47 10000 0.45 320 21:53 22.12.2021
4136 Clear 7 1003 46 10000 0.89 274 21:27 22.12.2021
4137 Clear 8 1001 48 10000 1.79 298 20:41 22.12.2021
4138 Clear 8 1001 51 10000 1.34 311 19:59 22.12.2021
4139 Clouds 8 1000 53 10000 1.34 264 18:57 22.12.2021
4140 Clear 7 1001 61 10000 0.89 284 17:39 22.12.2021
4141 Clouds 6 1002 70 10000 0.45 164 16:34 22.12.2021
4142 Clouds 5 1002 82 10000 0.45 116 15:36 22.12.2021
4143 Clouds 4 1002 91 10000 0.45 253 13:23 22.12.2021
4144 Mist 4 1003 91 2414 0.45 272 12:19 22.12.2021
4145 Mist 4 1004 86 4828 0.45 138 09:53 22.12.2021
4146 Mist 4 1004 85 4828 0.45 110 09:33 22.12.2021
4147 Clouds 4 1007 76 10000 0.45 155 07:22 22.12.2021
4148 Clouds 4 1010 70 10000 0.45 96 05:41 22.12.2021
4149 Clouds 4 1011 69 10000 0.45 116 05:22 22.12.2021
4150 Clouds 4 1011 70 10000 0.45 111 04:45 22.12.2021
4151 Clouds 4 1012 70 10000 0.45 127 04:22 22.12.2021
4152 Clouds 4 1013 67 10000 0.45 146 03:32 22.12.2021
4153 Clear 3 1014 60 10000 0.45 132 00:29 22.12.2021
4154 Clouds 4 1015 59 10000 2.24 110 22:51 21.12.2021
4155 Clear 5 1016 57 10000 0.89 49 22:27 21.12.2021
4156 Clear 5 1016 55 10000 0.89 174 21:43 21.12.2021
4157 Clouds 5 1016 56 10000 0.45 79 20:54 21.12.2021
4158 Clear 5 1017 54 10000 1.54 0 20:20 21.12.2021
4159 Clear 5 1018 53 10000 0.89 235 19:41 21.12.2021
4160 Clear 5 1019 54 10000 0.45 199 18:43 21.12.2021
4161 Clear 4 1019 55 10000 1.79 0 18:21 21.12.2021
4162 Clear 4 1020 56 10000 0.89 278 17:40 21.12.2021
4163 Clear 1 1021 62 10000 0.45 258 15:47 21.12.2021
4164 Clear 0 1021 64 10000 0.45 281 15:20 21.12.2021
4165 Clear -1 1020 68 10000 1.79 250 13:50 21.12.2021
4166 Clear -1 1020 69 10000 0.45 74 13:29 21.12.2021
4167 Clear -1 1020 70 10000 0.45 94 10:56 21.12.2021
4168 Clear -1 1020 69 10000 3.58 253 10:21 21.12.2021
4169 Clear 0 1021 68 10000 0.45 97 09:19 21.12.2021
4170 Clear 0 1022 64 10000 0.45 112 07:55 21.12.2021
4171 Clear 0 1022 64 10000 0.45 48 07:26 21.12.2021
4172 Clear 0 1023 60 10000 0.45 107 05:31 21.12.2021
4173 Clear 1 1024 52 10000 0.45 28 02:40 21.12.2021
4174 Clear 1 1025 49 10000 4.02 190 23:58 20.12.2021
4175 Clear 1 1025 49 10000 4.47 169 23:27 20.12.2021
4176 Clear 2 1025 47 10000 0.45 344 22:28 20.12.2021
4177 Clear 2 1025 47 10000 0.45 344 22:28 20.12.2021
4178 Clear 3 1025 46 10000 4.92 150 21:47 20.12.2021
4179 Clear 3 1025 44 10000 0.45 95 21:23 20.12.2021
4180 Clear 3 1026 44 10000 0.45 328 20:44 20.12.2021
4181 Clouds 3 1025 47 10000 3.13 198 19:53 20.12.2021
4182 Clear 2 1026 44 10000 0.45 313 19:31 20.12.2021
4183 Clouds 2 1027 47 10000 1.34 264 18:54 20.12.2021
4184 Clear 1 1028 53 10000 1.34 163 17:52 20.12.2021
4185 Clear 0 1028 54 10000 0.45 131 17:25 20.12.2021
4186 Clear -1 1029 54 10000 0.89 292 16:40 20.12.2021
4187 Clear -2 1029 59 10000 1.79 300 15:50 20.12.2021
4188 Clear -3 1029 62 10000 0.45 259 14:51 20.12.2021
4189 Clear -4 1027 65 10000 3.13 316 12:53 20.12.2021
4190 Clear -3 1026 63 10000 0.89 276 11:19 20.12.2021
4191 Clear -3 1026 62 10000 4.47 321 09:47 20.12.2021
4192 Clear -3 1026 61 10000 4.47 316 09:29 20.12.2021
4193 Clear -3 1026 60 10000 1.34 285 08:42 20.12.2021
4194 Clear -3 1026 59 10000 4.02 357 07:49 20.12.2021
4195 Clear -2 1025 60 10000 0.89 281 07:29 20.12.2021
4196 Clear -1 1025 59 10000 7.6 315 04:24 20.12.2021
4197 Clouds 1 1021 55 10000 5.81 306 23:58 19.12.2021
4198 Clear 2 1020 54 10000 0.89 272 22:45 19.12.2021
4199 Clear 3 1020 54 10000 1.34 290 21:50 19.12.2021
4200 Clear 3 1019 54 10000 1.34 276 21:29 19.12.2021
4201 Clear 3 1018 55 10000 1.79 290 20:31 19.12.2021
4202 Clouds 4 1018 55 10000 1.79 292 19:49 19.12.2021
4203 Clouds 4 1018 56 10000 1.34 255 19:22 19.12.2021
4204 Clear 3 1018 59 10000 1.34 284 18:29 19.12.2021
4205 Clear 3 1018 59 10000 1.34 284 18:29 19.12.2021
4206 Clouds 3 1018 61 10000 1.34 292 17:52 19.12.2021
4207 Clear 4 1018 59 10000 1.34 291 17:19 19.12.2021
4208 Clouds 4 1018 64 10000 0.89 288 16:26 19.12.2021
4209 Clouds 4 1017 64 10000 1.34 301 15:42 19.12.2021
4210 Clouds 4 1017 65 10000 1.79 271 15:20 19.12.2021
4211 Clouds 4 1016 66 10000 1.34 297 14:41 19.12.2021
4212 Clouds 5 1015 70 10000 1.34 302 13:22 19.12.2021
4213 Clouds 5 1014 73 10000 1.79 305 12:36 19.12.2021
4214 Clouds 5 1013 73 10000 0.89 278 12:18 19.12.2021
4215 Clouds 6 1012 81 10000 1.34 303 11:19 19.12.2021
4216 Mist 7 1010 91 10000 0.89 294 10:25 19.12.2021
4217 Mist 7 1010 93 9656 0.45 250 09:41 19.12.2021
4218 Mist 7 1010 93 4828 0.45 295 08:35 19.12.2021
4219 Mist 7 1009 92 4828 0.89 277 04:45 19.12.2021
4220 Mist 7 1009 92 4828 0.89 277 04:45 19.12.2021
4221 Mist 7 1012 91 2414 1.34 285 01:22 19.12.2021
4222 Mist 7 1013 91 4023 0.45 267 00:52 19.12.2021
4223 Mist 6 1014 89 3219 0.89 111 22:36 18.12.2021
4224 Mist 6 1015 88 9656 0.45 134 21:57 18.12.2021
4225 Mist 6 1015 86 10000 0.89 141 21:35 18.12.2021
4226 Clouds 6 1016 85 10000 0.45 149 20:44 18.12.2021
4227 Clouds 6 1016 85 10000 0.45 96 20:18 18.12.2021
4228 Clouds 5 1018 83 10000 0.45 163 19:20 18.12.2021
4229 Mist 5 1018 86 10000 0.45 73 18:21 18.12.2021
4230 Mist 5 1020 84 8047 0.45 102 17:48 18.12.2021
4231 Rain 4 1021 86 4023 0.45 105 16:26 18.12.2021
4232 Rain 4 1021 86 4023 0.45 105 16:26 18.12.2021
4233 Mist 4 1022 83 8047 0.45 127 15:27 18.12.2021
4234 Clouds 5 1022 79 10000 0.45 92 14:48 18.12.2021
4235 Rain 5 1022 64 10000 0.45 95 13:21 18.12.2021
4236 Clouds 6 1022 57 10000 1.79 31 11:22 18.12.2021
4237 Rain 7 1022 49 10000 3.58 7 09:40 18.12.2021
4238 Clear 7 1022 42 10000 5.36 350 08:47 18.12.2021
4239 Clear 8 1022 39 10000 0.45 271 08:24 18.12.2021
4240 Clouds 8 1022 37 10000 0.45 240 03:58 18.12.2021
4241 Clouds 11 1021 28 10000 4.02 276 00:30 18.12.2021
4242 Clear 12 1020 26 10000 2.24 273 23:46 17.12.2021
4243 Clouds 14 1018 24 10000 0.45 188 21:58 17.12.2021
4244 Clear 14 1018 22 10000 0.89 76 21:20 17.12.2021
4245 Clear 15 1018 21 10000 0.45 46 20:41 17.12.2021
4246 Clear 15 1018 22 10000 0.45 4 19:28 17.12.2021
4247 Clear 15 1018 23 10000 0.45 93 18:39 17.12.2021
4248 Clear 14 1019 25 10000 0.45 16 17:40 17.12.2021
4249 Clear 14 1019 30 10000 1.34 302 16:50 17.12.2021
4250 Clear 14 1019 31 10000 8.94 291 16:25 17.12.2021
4251 Clear 14 1018 38 10000 4.92 288 15:25 17.12.2021
4252 Clear 13 1017 43 10000 0.45 98 14:41 17.12.2021
4253 Clear 14 1016 48 10000 0.45 318 13:22 17.12.2021
4254 Clear 14 1015 62 10000 0.45 14 12:21 17.12.2021
4255 Clear 14 1015 62 10000 0.45 14 12:21 17.12.2021
4256 Clear 13 1012 70 10000 1.79 274 10:38 17.12.2021
4257 Clear 13 1012 69 10000 1.34 300 09:44 17.12.2021
4258 Clear 14 1012 68 10000 1.34 185 08:31 17.12.2021
4259 Clear 14 1012 67 10000 0.45 69 07:20 17.12.2021
4260 Clear 14 1013 65 10000 0.45 88 04:40 17.12.2021
4261 Clouds 15 1014 58 10000 2.24 213 23:58 16.12.2021
4262 Clear 15 1014 50 10000 3.13 247 22:24 16.12.2021
4263 Clear 16 1015 48 10000 2.68 224 21:51 16.12.2021
4264 Clear 16 1015 47 10000 0.45 103 21:30 16.12.2021
4265 Clear 16 1015 48 10000 0.45 81 20:31 16.12.2021
4266 Clear 16 1015 50 10000 0.45 38 19:49 16.12.2021
4267 Clouds 16 1016 52 10000 0.45 351 18:41 16.12.2021
4268 Clouds 15 1017 55 10000 0.45 82 17:57 16.12.2021
4269 Clouds 15 1018 56 10000 0.45 82 17:31 16.12.2021
4270 Clouds 14 1019 63 10000 0.45 61 16:23 16.12.2021
4271 Clouds 12 1020 77 10000 0.45 19 14:54 16.12.2021
4272 Clouds 12 1021 82 10000 0.45 11 13:43 16.12.2021
4273 Clouds 12 1021 84 10000 0.45 64 11:21 16.12.2021
4274 Clouds 12 1021 85 10000 0.45 39 11:00 16.12.2021
4275 Clouds 12 1021 84 10000 0.45 32 10:27 16.12.2021
4276 Clouds 12 1023 84 10000 0.45 61 08:37 16.12.2021
4277 Clouds 12 1024 84 10000 0.45 62 06:22 16.12.2021
4278 Clouds 10 1028 78 10000 2.68 109 02:54 16.12.2021
4279 Drizzle 11 1031 71 10000 0.45 234 23:35 15.12.2021
4280 Clouds 11 1032 67 10000 0.45 96 22:48 15.12.2021
4281 Clouds 11 1032 67 10000 0.45 138 21:57 15.12.2021
4282 Clouds 11 1032 65 10000 1.34 128 21:28 15.12.2021
4283 Clouds 11 1033 64 10000 0.89 97 20:31 15.12.2021
4284 Clouds 12 1032 64 10000 0.89 84 19:52 15.12.2021
4285 Clear 11 1035 57 10000 0.89 153 18:39 15.12.2021
4286 Clouds 11 1035 57 10000 0.89 147 17:56 15.12.2021
4287 Clear 10 1036 56 10000 1.34 131 17:37 15.12.2021
4288 Clear 9 1036 57 10000 1.34 96 16:35 15.12.2021
4289 Clear 7 1038 56 10000 0.45 120 15:47 15.12.2021
4290 Clear 6 1038 57 10000 0.45 128 15:29 15.12.2021
4291 Clear 6 1038 57 10000 0.89 99 14:43 15.12.2021
4292 Clouds 4 1038 56 10000 0.45 91 12:52 15.12.2021
4293 Clear 4 1038 56 10000 0.45 72 10:49 15.12.2021
4294 Clear 5 1038 56 10000 0.45 127 09:28 15.12.2021
4295 Clear 5 1037 51 10000 0.45 112 07:44 15.12.2021
4296 Clear 7 1036 35 10000 0.45 116 02:40 15.12.2021
4297 Clear 8 1035 31 10000 3.13 333 23:44 14.12.2021
4298 Clear 10 1034 31 10000 3.13 18 22:49 14.12.2021
4299 Clear 10 1034 31 10000 3.13 18 22:49 14.12.2021
4300 Clear 10 1034 30 10000 0.45 277 22:30 14.12.2021
4301 Clear 12 1033 33 10000 0.45 285 21:24 14.12.2021
4302 Clear 11 1032 39 10000 0.89 287 19:44 14.12.2021
4303 Clear 11 1032 40 10000 0.89 306 19:21 14.12.2021
4304 Clear 11 1032 42 10000 0.89 299 18:34 14.12.2021
4305 Clear 10 1033 46 10000 0.89 283 17:34 14.12.2021
4306 Clear 10 1032 48 10000 0.45 281 16:43 14.12.2021
4307 Clouds 9 1032 50 10000 0.45 252 15:52 14.12.2021
4308 Clear 6 1029 51 10000 1.34 298 13:33 14.12.2021
4309 Clear 6 1028 48 10000 1.34 300 12:41 14.12.2021
4310 Clear 6 1027 44 10000 0.89 284 11:24 14.12.2021
4311 Clear 6 1027 42 10000 1.79 270 10:27 14.12.2021
4312 Clouds 6 1026 42 10000 1.79 300 09:53 14.12.2021
4313 Clear 6 1026 40 10000 1.34 281 08:40 14.12.2021
4314 Clear 7 1025 40 10000 1.34 282 08:20 14.12.2021
4315 Clear 7 1025 39 10000 2.68 283 06:27 14.12.2021
4316 Clear 10 1023 32 10000 0.45 99 23:39 13.12.2021
4317 Clear 11 1022 33 10000 0.45 109 21:57 13.12.2021
4318 Clear 11 1022 32 10000 0.45 49 21:34 13.12.2021
4319 Clear 12 1022 32 10000 0.45 63 20:50 13.12.2021
4320 Clear 11 1022 34 10000 0.45 276 19:59 13.12.2021
4321 Clear 11 1023 35 10000 0.45 101 19:27 13.12.2021
4322 Clear 9 1025 40 10000 0.45 98 17:27 13.12.2021
4323 Clear 8 1026 43 10000 0.45 146 16:24 13.12.2021
4324 Clear 7 1025 46 10000 0.45 23 15:43 13.12.2021
4325 Clouds 4 1025 51 10000 0.45 109 13:57 13.12.2021
4326 Clear 4 1025 51 10000 0.45 300 13:31 13.12.2021
4327 Clear 4 1025 49 10000 0.45 81 12:39 13.12.2021
4328 Clear 4 1025 47 10000 0.45 145 11:44 13.12.2021
4329 Clear 4 1025 47 10000 4.92 264 11:24 13.12.2021
4330 Clear 4 1025 47 10000 0.45 92 10:21 13.12.2021
4331 Clear 4 1024 48 10000 0.45 65 08:43 13.12.2021
4332 Clear 5 1025 45 10000 1.34 222 05:38 13.12.2021
4333 Clear 5 1024 46 10000 3.58 266 03:57 13.12.2021
4334 Clear 7 1022 46 10000 0.45 104 23:55 12.12.2021
4335 Clear 9 1021 39 10000 6.26 262 21:57 12.12.2021
4336 Clear 9 1020 34 10000 0.89 321 20:49 12.12.2021
4337 Clear 9 1020 33 10000 0.89 80 19:35 12.12.2021
4338 Clear 8 1020 38 10000 0.89 294 17:58 12.12.2021
4339 Clear 7 1020 38 10000 1.79 298 16:29 12.12.2021
4340 Clouds 7 1019 40 10000 0.89 270 15:54 12.12.2021
4341 Clear 6 1019 43 10000 10.28 295 15:28 12.12.2021
4342 Clear 6 1018 48 10000 0.45 193 14:46 12.12.2021
4343 Clouds 6 1017 48 10000 0.45 297 13:56 12.12.2021
4344 Clear 6 1016 46 10000 0.89 281 12:48 12.12.2021
4345 Clear 7 1014 45 10000 1.34 310 11:45 12.12.2021
4346 Clear 7 1014 45 10000 0.45 210 11:27 12.12.2021
4347 Clear 7 1013 46 10000 0.89 298 10:44 12.12.2021
4348 Clouds 7 1012 51 10000 0.89 295 09:58 12.12.2021
4349 Clouds 8 1010 51 10000 1.34 298 08:44 12.12.2021
4350 Clouds 10 1007 53 10000 1.34 268 07:25 12.12.2021
4351 Rain 13 1003 71 10000 0.45 135 05:29 12.12.2021
4352 Rain 15 1002 82 10000 5.81 270 04:19 12.12.2021
4353 Clouds 18 1002 80 10000 0.45 68 00:54 12.12.2021
4354 Clouds 17 1003 80 10000 0.89 27 22:56 11.12.2021
4355 Clouds 17 1003 80 10000 1.34 35 22:20 11.12.2021
4356 Clouds 16 1003 82 10000 0.89 309 21:35 11.12.2021
4357 Clouds 15 1004 86 10000 0.45 67 20:18 11.12.2021
4358 Mist 15 1005 89 10000 0.45 101 19:21 11.12.2021
4359 Mist 14 1006 90 10000 7.6 205 18:45 11.12.2021
4360 Mist 14 1006 92 3219 0.45 69 17:54 11.12.2021
4361 Clouds 12 1009 93 10000 0.45 106 15:59 11.12.2021
4362 Mist 12 1010 93 4828 0.45 88 15:40 11.12.2021
4363 Mist 10 1011 93 4828 1.34 129 14:36 11.12.2021
4364 Mist 7 1013 91 3219 0.45 331 12:31 11.12.2021
4365 Mist 7 1015 90 2816 2.24 117 10:50 11.12.2021
4366 Rain 7 1017 83 10000 2.68 109 09:43 11.12.2021
4367 Clouds 6 1020 73 10000 2.68 17 03:58 11.12.2021
4368 Clouds 6 1021 68 10000 0.45 155 00:48 11.12.2021
4369 Clear 7 1021 64 10000 0.89 230 23:44 10.12.2021
4370 Clear 8 1020 60 10000 1.54 330 22:47 10.12.2021
4371 Clouds 9 1020 59 10000 0.89 162 21:51 10.12.2021
4372 Clouds 9 1020 58 10000 0.89 78 20:32 10.12.2021
4373 Clouds 9 1020 57 10000 0.89 278 19:19 10.12.2021
4374 Clouds 9 1021 59 10000 0.45 91 17:50 10.12.2021
4375 Clouds 8 1022 59 10000 0.45 45 16:41 10.12.2021
4376 Clouds 7 1022 62 10000 0.45 309 15:47 10.12.2021
4377 Clouds 6 1022 64 10000 0.45 17 15:28 10.12.2021
4378 Clouds 6 1022 68 10000 0.45 126 14:56 10.12.2021
4379 Clouds 5 1021 69 10000 5.81 157 13:50 10.12.2021
4380 Clouds 5 1021 67 10000 0.45 109 13:18 10.12.2021
4381 Clouds 4 1021 65 10000 0.45 107 12:23 10.12.2021
4382 Clouds 4 1022 62 10000 0.45 291 11:27 10.12.2021
4383 Clouds 3 1023 59 10000 3.58 194 09:54 10.12.2021
4384 Clouds 3 1023 59 10000 3.58 194 09:54 10.12.2021
4385 Clouds 3 1023 54 10000 5.36 195 08:23 10.12.2021
4386 Clear 3 1024 54 10000 3.58 174 05:46 10.12.2021
4387 Clouds 3 1025 50 10000 2.68 218 02:47 10.12.2021
4388 Clear 2 1023 49 10000 1.34 252 23:44 09.12.2021
4389 Clear 3 1023 48 10000 1.34 360 22:50 09.12.2021
4390 Clear 3 1023 48 10000 1.79 312 22:24 09.12.2021
4391 Clear 3 1023 47 10000 1.34 279 21:48 09.12.2021
4392 Clear 4 1023 47 10000 0.45 332 20:41 09.12.2021
4393 Clear 4 1023 47 10000 0.45 273 20:20 09.12.2021
4394 Clear 4 1023 47 10000 0.45 292 19:21 09.12.2021
4395 Clear 3 1023 48 10000 0.89 293 18:35 09.12.2021
4396 Clouds 3 1022 50 10000 0.89 310 17:51 09.12.2021
4397 Clear 3 1023 50 10000 1.34 299 17:25 09.12.2021
4398 Clear 3 1023 50 10000 1.34 299 17:25 09.12.2021
4399 Clouds 2 1023 54 10000 0.89 276 16:53 09.12.2021
4400 Clear 1 1023 58 10000 5.81 296 15:31 09.12.2021
4401 Clear 0 1022 61 10000 0.89 341 14:46 09.12.2021
4402 Clear -1 1021 65 10000 2.24 291 13:19 09.12.2021
4403 Clear -1 1021 65 10000 2.24 288 12:35 09.12.2021
4404 Clear 0 1020 65 10000 0.89 284 11:21 09.12.2021
4405 Clear 0 1017 68 10000 0.89 321 08:54 09.12.2021
4406 Clouds 1 1015 79 10000 4.47 284 06:21 09.12.2021
4407 Snow 1 1013 88 4023 3.58 289 03:40 09.12.2021
4408 Clouds 4 1012 70 10000 2.68 309 23:43 08.12.2021
4409 Clouds 4 1012 69 10000 2.68 311 23:21 08.12.2021
4410 Clouds 4 1012 70 10000 2.24 340 22:47 08.12.2021
4411 Clouds 5 1012 69 10000 4.92 311 21:42 08.12.2021
4412 Clouds 5 1012 68 10000 4.92 311 21:24 08.12.2021
4413 Clouds 5 1012 68 10000 4.02 304 19:58 08.12.2021
4414 Clouds 5 1014 67 10000 3.58 314 19:34 08.12.2021
4415 Clouds 5 1015 66 10000 2.68 320 18:46 08.12.2021
4416 Clouds 4 1017 64 10000 2.24 356 17:37 08.12.2021
4417 Clouds 4 1018 64 10000 1.34 61 15:57 08.12.2021
4418 Clouds 3 1018 63 10000 0.45 144 15:28 08.12.2021
4419 Clouds 3 1019 64 10000 1.34 44 14:40 08.12.2021
4420 Clear 2 1020 63 10000 0.89 293 11:36 08.12.2021
4421 Clouds 2 1020 60 10000 1.34 79 10:32 08.12.2021
4422 Clouds 2 1020 59 10000 0.45 119 09:25 08.12.2021
4423 Clear 2 1021 58 10000 0.45 278 07:26 08.12.2021
4424 Clouds 2 1022 57 10000 1.79 281 04:57 08.12.2021
4425 Clear 4 1022 50 10000 2.68 269 23:34 07.12.2021
4426 Clouds 5 1021 49 10000 4.02 289 21:55 07.12.2021
4427 Clouds 5 1021 46 10000 0.45 287 21:23 07.12.2021
4428 Clouds 5 1021 46 10000 0.45 170 20:24 07.12.2021
4429 Clear 6 1021 43 10000 0.89 281 18:47 07.12.2021
4430 Clouds 5 1021 45 10000 0.45 257 17:53 07.12.2021
4431 Clear 5 1021 46 10000 0.45 291 17:20 07.12.2021
4432 Clear 5 1022 48 10000 4.02 266 16:31 07.12.2021
4433 Clear 3 1022 53 10000 4.92 273 15:34 07.12.2021
4434 Clear 2 1021 56 10000 0.45 76 14:30 07.12.2021
4435 Clear 2 1019 56 10000 0.45 140 12:56 07.12.2021
4436 Clouds 2 1020 58 10000 0.45 49 12:56 07.12.2021
4437 Clouds 2 1018 56 10000 0.45 356 11:52 07.12.2021
4438 Clear 3 1017 52 10000 0.45 92 10:43 07.12.2021
4439 Clear 4 1016 49 10000 0.45 68 08:42 07.12.2021
4440 Clouds 6 1013 43 10000 1.34 327 06:21 07.12.2021
4441 Clouds 8 1010 52 10000 13.86 314 05:39 07.12.2021
4442 Clouds 15 1003 81 10000 0.45 16 23:58 06.12.2021
4443 Clouds 15 1003 85 10000 0.45 55 22:58 06.12.2021
4444 Haze 14 1003 84 10000 0.45 88 22:38 06.12.2021
4445 Clouds 15 1005 83 10000 2.68 165 21:54 06.12.2021
4446 Clear 15 1005 81 10000 1.34 121 20:44 06.12.2021
4447 Clear 15 1006 79 10000 1.34 99 20:26 06.12.2021
4448 Clouds 14 1007 81 10000 0.89 123 19:23 06.12.2021
4449 Clouds 13 1009 85 10000 0.45 76 18:29 06.12.2021
4450 Clouds 13 1010 88 10000 0.45 109 17:52 06.12.2021
4451 Mist 12 1011 87 10000 0.45 102 17:20 06.12.2021
4452 Mist 11 1014 90 8047 0.45 75 15:49 06.12.2021
4453 Mist 10 1014 93 2414 0.89 314 13:47 06.12.2021
4454 Mist 10 1014 91 2816 1.34 141 12:40 06.12.2021
4455 Mist 10 1014 92 1207 3.58 312 11:54 06.12.2021
4456 Rain 9 1018 90 4828 0.45 192 09:37 06.12.2021
4457 Clouds 9 1021 76 10000 0.45 97 06:59 06.12.2021
4458 Clouds 7 1027 48 10000 0.45 95 00:33 06.12.2021
4459 Clouds 8 1028 44 10000 0.45 132 21:54 05.12.2021
4460 Clear 8 1027 42 10000 0.45 26 21:25 05.12.2021
4461 Clear 9 1028 40 10000 1.79 170 20:20 05.12.2021
4462 Clouds 9 1028 40 10000 1.79 169 19:57 05.12.2021
4463 Clear 9 1028 40 10000 0.89 126 19:22 05.12.2021
4464 Clear 8 1028 40 10000 1.34 147 18:25 05.12.2021
4465 Clear 8 1029 40 10000 0.45 84 17:49 05.12.2021
4466 Clouds 7 1029 41 10000 1.34 303 16:58 05.12.2021
4467 Clear 7 1030 42 10000 0.45 300 16:28 05.12.2021
4468 Clouds 6 1030 44 10000 0.45 264 15:58 05.12.2021
4469 Clear 5 1029 49 10000 0.45 286 14:47 05.12.2021
4470 Clear 4 1029 50 10000 0.89 262 14:29 05.12.2021
4471 Clear 3 1028 56 10000 0.45 149 13:31 05.12.2021
4472 Clear 3 1027 58 10000 0.45 294 12:41 05.12.2021
4473 Clear 3 1027 58 10000 1.34 291 12:23 05.12.2021
4474 Clear 3 1026 56 10000 0.45 286 11:41 05.12.2021
4475 Clear 4 1026 57 10000 0.45 283 10:21 05.12.2021
4476 Clear 4 1025 59 10000 0.45 216 09:26 05.12.2021
4477 Clouds 5 1021 68 10000 1.79 272 04:56 05.12.2021
4478 Clear 6 1020 64 10000 0.45 159 01:23 05.12.2021
4479 Clear 7 1018 59 10000 3.58 243 22:42 04.12.2021
4480 Clear 8 1018 57 10000 0.45 62 21:37 04.12.2021
4481 Clear 9 1018 55 10000 0.45 137 20:40 04.12.2021
4482 Clear 9 1018 52 10000 0.45 102 19:43 04.12.2021
4483 Clear 9 1018 52 10000 0.45 322 19:23 04.12.2021
4484 Clouds 8 1019 53 10000 0.45 144 17:52 04.12.2021
4485 Clear 8 1020 51 10000 2.24 146 17:22 04.12.2021
4486 Clear 7 1020 53 10000 1.79 151 16:46 04.12.2021
4487 Clear 6 1021 53 10000 0.89 172 16:27 04.12.2021
4488 Clouds 3 1020 57 10000 1.79 220 12:44 04.12.2021
4489 Clouds 3 1020 57 10000 0.89 294 11:39 04.12.2021
4490 Clouds 3 1019 58 10000 1.34 288 10:59 04.12.2021
4491 Clouds 2 1019 56 10000 0.45 305 09:42 04.12.2021
4492 Clouds 2 1020 56 10000 0.89 308 08:29 04.12.2021
4493 Clear 3 1018 55 10000 0.89 272 04:43 04.12.2021
4494 Clear 3 1018 52 10000 1.34 297 03:36 04.12.2021
4495 Clear 6 1016 45 10000 0.89 356 23:47 03.12.2021
4496 Clouds 6 1016 45 10000 1.34 310 22:53 03.12.2021
4497 Clouds 7 1015 43 10000 1.34 295 21:57 03.12.2021
4498 Clear 8 1014 41 10000 0.89 329 21:24 03.12.2021
4499 Clear 8 1014 41 10000 0.89 312 20:42 03.12.2021
4500 Clear 9 1013 41 10000 0.89 309 19:28 03.12.2021
4501 Clouds 8 1013 45 10000 1.34 113 18:24 03.12.2021
4502 Clouds 8 1013 47 10000 0.89 282 17:32 03.12.2021
4503 Clear 5 1012 54 10000 0.89 312 13:45 03.12.2021
4504 Clear 6 1011 53 10000 6.26 288 12:49 03.12.2021
4505 Clear 6 1009 52 10000 0.89 337 11:23 03.12.2021
4506 Clear 7 1008 51 10000 1.34 325 09:44 03.12.2021
4507 Clear 8 1006 57 10000 0.89 324 08:21 03.12.2021
4508 Clear 8 1006 59 10000 1.34 311 07:23 03.12.2021
4509 Clouds 14 1001 62 10000 0.89 93 01:51 03.12.2021
4510 Clouds 14 1002 62 10000 0.45 108 00:42 03.12.2021
4511 Clouds 13 1002 63 10000 2.68 239 23:42 02.12.2021
4512 Clouds 13 1003 63 10000 1.79 162 21:42 02.12.2021
4513 Clouds 13 1003 64 10000 0.45 71 20:56 02.12.2021
4514 Clouds 14 1004 64 10000 0.45 47 20:35 02.12.2021
4515 Clouds 13 1004 64 10000 0.45 39 20:35 02.12.2021
4516 Clear 13 1005 67 10000 0.45 90 19:24 02.12.2021
4517 Clear 12 1007 70 10000 0.45 107 17:36 02.12.2021
4518 Clear 11 1010 76 10000 0.45 143 15:42 02.12.2021
4519 Clouds 10 1010 80 10000 2.68 224 14:58 02.12.2021
4520 Clouds 10 1010 83 10000 0.45 157 13:56 02.12.2021
4521 Drizzle 10 1012 85 10000 0.45 80 12:52 02.12.2021
4522 Clouds 9 1012 86 10000 0.45 113 11:56 02.12.2021
4523 Rain 8 1015 85 10000 0.45 223 09:34 02.12.2021
4524 Clouds 7 1016 84 10000 0.45 132 08:35 02.12.2021
4525 Clouds 7 1020 63 10000 3.13 160 04:54 02.12.2021
4526 Clouds 6 1021 58 10000 0.45 295 00:52 02.12.2021
4527 Clear 7 1020 51 10000 1.34 280 23:19 01.12.2021
4528 Clear 8 1020 49 10000 0.89 281 22:23 01.12.2021
4529 Clear 9 1020 46 10000 0.45 161 20:36 01.12.2021
4530 Clouds 9 1020 47 10000 1.79 229 19:54 01.12.2021
4531 Clear 9 1020 46 10000 0.45 201 19:28 01.12.2021
4532 Clear 9 1021 45 10000 0.89 58 17:45 01.12.2021
4533 Clear 8 1021 48 10000 0.89 298 16:46 01.12.2021
4534 Clouds 5 1021 58 10000 0.45 23 14:52 01.12.2021
4535 Clear 4 1020 60 10000 0.45 296 13:45 01.12.2021
4536 Clear 4 1020 62 10000 0.45 183 12:50 01.12.2021
4537 Clear 4 1018 63 10000 0.45 118 10:42 01.12.2021
4538 Clear 4 1017 64 10000 0.45 115 09:20 01.12.2021
4539 Clouds 4 1016 64 10000 0.45 107 08:30 01.12.2021
4540 Clouds 4 1015 63 10000 0.45 134 07:34 01.12.2021
4541 Clouds 5 1015 64 10000 0.45 133 06:59 01.12.2021
4542 Clouds 4 1015 65 10000 0.45 276 03:46 01.12.2021
4543 Clouds 4 1014 63 10000 1.79 252 00:59 01.12.2021
4544 Clouds 4 1014 64 10000 2.24 274 23:55 30.11.2021
4545 Clouds 4 1014 65 10000 1.79 223 23:25 30.11.2021
4546 Clouds 4 1014 71 10000 0.89 227 21:40 30.11.2021
4547 Clouds 3 1014 74 10000 0.45 115 20:45 30.11.2021
4548 Clouds 3 1014 75 10000 0.89 283 20:19 30.11.2021
4549 Rain 3 1015 73 10000 0.45 114 19:38 30.11.2021
4550 Clouds 4 1015 67 10000 3.13 232 18:37 30.11.2021
4551 Clouds 4 1017 57 10000 5.36 259 16:50 30.11.2021
4552 Clouds 3 1017 65 10000 0.45 119 15:44 30.11.2021
4553 Clouds 0 1017 68 10000 2.24 233 14:23 30.11.2021
4554 Clouds -1 1017 69 10000 1.34 224 13:27 30.11.2021
4555 Clouds -1 1017 71 10000 0.89 218 12:52 30.11.2021
4556 Clear -1 1017 68 10000 0.45 245 11:50 30.11.2021
4557 Clear -1 1017 67 10000 1.34 272 11:25 30.11.2021
4558 Clear -1 1017 66 10000 1.79 261 10:34 30.11.2021
4559 Clear -1 1016 64 10000 0.45 277 08:53 30.11.2021
4560 Clear -1 1016 64 10000 0.89 297 08:31 30.11.2021
4561 Clear -1 1016 63 10000 2.24 276 07:48 30.11.2021
4562 Clear 0 1016 61 10000 2.24 285 04:59 30.11.2021
4563 Clear 1 1015 57 10000 0.45 26 01:45 30.11.2021
4564 Clouds 3 1014 57 10000 0.89 334 00:33 30.11.2021
4565 Clouds 4 1013 55 10000 0.45 337 23:25 29.11.2021
4566 Clouds 4 1013 56 10000 0.89 280 22:58 29.11.2021
4567 Clouds 4 1013 53 10000 0.89 286 22:34 29.11.2021
4568 Clouds 5 1013 51 10000 0.45 305 21:44 29.11.2021
4569 Clouds 5 1013 51 10000 1.34 298 21:18 29.11.2021
4570 Clouds 5 1012 57 10000 0.89 266 20:41 29.11.2021
4571 Clouds 5 1011 61 10000 0.45 246 19:56 29.11.2021
4572 Clouds 5 1011 65 10000 0.89 293 19:37 29.11.2021
4573 Rain 5 1012 64 10000 1.34 293 18:56 29.11.2021
4574 Clouds 6 1012 44 10000 5.28 335 18:37 29.11.2021
4575 Clouds 4 1012 57 10000 4.47 342 17:21 29.11.2021
4576 Clouds 4 1012 57 10000 4.47 342 16:33 29.11.2021
4577 Clear 4 1012 57 10000 4.98 338 15:55 29.11.2021
4578 Clear 3 1012 59 10000 5.37 327 14:45 29.11.2021
4579 Clear 2 1012 65 10000 5.06 319 13:52 29.11.2021
4580 Clouds 2 1011 71 10000 4.73 324 12:56 29.11.2021
4581 Clouds 3 1011 70 10000 4.66 322 11:51 29.11.2021
4582 Clouds 4 1010 69 10000 4.38 307 10:59 29.11.2021
4583 Clouds 4 1010 67 10000 3.67 297 09:57 29.11.2021
4584 Clouds 3 1010 72 10000 2.06 260 06:44 29.11.2021
4585 Clouds 4 1011 68 10000 1.54 0 04:53 29.11.2021
4586 Clear 4 1011 68 10000 1.54 300 00:44 29.11.2021
4587 Clouds 4 1011 69 10000 1.54 0 23:47 28.11.2021
4588 Clouds 4 1011 69 10000 1.54 0 23:29 28.11.2021
4589 Clouds 5 1009 67 10000 0 0 21:53 28.11.2021
4590 Clouds 5 1009 67 10000 0 0 21:34 28.11.2021
4591 Clouds 4 1010 70 10000 2.06 40 20:36 28.11.2021
4592 Clouds 4 1011 71 10000 1.54 80 19:37 28.11.2021
4593 Clouds 3 1011 71 10000 1.54 80 18:40 28.11.2021
4594 Clouds 3 1010 57 10000 2.35 240 17:57 28.11.2021
4595 Clouds 2 1012 75 10000 2.06 20 17:32 28.11.2021
4596 Clouds 2 1013 76 10000 2.06 80 16:45 28.11.2021
4597 Clouds 2 1013 76 10000 2.06 80 16:27 28.11.2021
4598 Snow 2 1013 76 10000 0 0 15:45 28.11.2021
4599 Snow 2 1013 75 10000 0 0 14:51 28.11.2021
4600 Snow 1 1013 75 9656 1.54 30 13:53 28.11.2021
4601 Clouds 1 1014 75 10000 0 0 12:54 28.11.2021
4602 Snow 1 1013 68 10000 0 0 11:29 28.11.2021
4603 Snow 1 1014 68 10000 0 0 10:23 28.11.2021
4604 Snow 1 1014 62 10000 1.54 270 09:40 28.11.2021
4605 Snow 2 1015 49 10000 2.57 0 08:28 28.11.2021
4606 Clear 2 1014 48 10000 2.57 0 00:50 28.11.2021
4607 Clouds 4 1012 41 10000 8.75 290 21:49 27.11.2021
4608 Clouds 4 1012 47 10000 6.17 290 19:50 27.11.2021
4609 Clouds 4 1012 47 10000 5.14 280 18:26 27.11.2021
4610 Clouds 3 1012 50 10000 7.61 301 16:00 27.11.2021
4611 Clouds 3 1012 51 10000 4.12 280 14:44 27.11.2021
4612 Clouds 2 1010 50 10000 3.6 280 13:38 27.11.2021
4613 Clouds 2 1009 51 10000 3.6 280 11:28 27.11.2021
4614 Clouds 2 1008 52 10000 5.14 290 10:19 27.11.2021
4615 Clouds 3 1007 52 10000 3.6 290 08:54 27.11.2021
4616 Clouds 3 1007 58 10000 8.07 296 06:59 27.11.2021
4617 Clouds 3 1006 49 10000 3.6 280 04:40 27.11.2021
4618 Clouds 5 1005 47 10000 4.12 280 00:23 27.11.2021
4619 Clouds 6 1004 52 10000 8.22 291 22:51 26.11.2021
4620 Clouds 6 1004 50 10000 5.14 300 22:24 26.11.2021
4621 Clouds 6 1003 54 10000 7.72 290 21:31 26.11.2021
4622 Rain 7 1003 54 10000 5.66 280 20:41 26.11.2021
4623 Clouds 5 1002 48 10000 8.09 300 19:56 26.11.2021
4624 Clouds 8 1003 61 10000 7.72 310 18:47 26.11.2021
4625 Clouds 8 1003 67 10000 7.2 300 17:46 26.11.2021
4626 Clouds 8 1003 67 10000 7.2 300 17:21 26.11.2021
4627 Mist 7 1003 84 8047 4.63 240 15:23 26.11.2021
4628 Clouds 6 1004 87 10000 2.68 266 13:35 26.11.2021
4629 Rain 6 1004 86 10000 2.68 266 13:35 26.11.2021
4630 Clouds 6 1004 83 10000 1.79 251 11:30 26.11.2021
4631 Clouds 6 1005 83 10000 3.58 147 10:35 26.11.2021
4632 Rain 7 1006 79 8757 0.89 239 08:56 26.11.2021
4633 Clouds 7 1006 79 10000 1.34 179 08:21 26.11.2021
4634 Rain 8 1007 73 10000 0.89 199 07:24 26.11.2021
4635 Rain 8 1008 66 10000 0.45 233 06:25 26.11.2021
4636 Clouds 10 1010 50 10000 0.89 267 03:54 26.11.2021
4637 Clouds 10 1012 47 10000 1.34 219 01:27 26.11.2021
4638 Clear 12 1013 41 10000 1.34 231 22:46 25.11.2021
4639 Clear 13 1013 34 10000 1.34 233 21:24 25.11.2021
4640 Clouds 13 1014 35 10000 1.79 160 20:27 25.11.2021
4641 Clouds 12 1016 39 10000 0.45 183 18:46 25.11.2021
4642 Clear 10 1017 43 10000 1.79 249 17:47 25.11.2021
4643 Clear 10 1017 43 10000 0.45 45 17:25 25.11.2021
4644 Clear 8 1018 47 10000 0.45 94 16:32 25.11.2021
4645 Clouds 5 1019 59 10000 1.34 271 14:59 25.11.2021
4646 Clear 3 1020 63 10000 0.89 233 13:26 25.11.2021
4647 Clear 3 1021 62 10000 0.89 243 12:25 25.11.2021
4648 Clear 3 1021 60 10000 0.89 225 11:49 25.11.2021
4649 Clear 3 1022 60 10000 1.34 288 09:26 25.11.2021
4650 Clear 4 1024 52 10000 1.79 271 05:48 25.11.2021
4651 Clear 5 1025 54 10000 1.34 255 02:49 25.11.2021
4652 Clouds 6 1026 45 10000 2.68 281 22:57 24.11.2021
4653 Clear 7 1026 41 10000 0.45 291 22:24 24.11.2021
4654 Clear 7 1026 38 10000 0.45 311 21:32 24.11.2021
4655 Clear 7 1026 39 10000 0.45 290 20:52 24.11.2021
4656 Clear 7 1025 39 10000 0.45 305 20:19 24.11.2021
4657 Clear 6 1026 39 10000 0.89 281 18:31 24.11.2021
4658 Clear 5 1026 41 10000 1.34 296 17:57 24.11.2021
4659 Clear 2 1028 50 10000 6.71 295 15:47 24.11.2021
4660 Clear 1 1027 58 10000 0.89 292 14:53 24.11.2021
4661 Clear 0 1027 61 10000 0.89 281 14:20 24.11.2021
4662 Clear -1 1026 65 10000 5.81 307 12:47 24.11.2021
4663 Clear -1 1025 64 10000 0.89 180 11:21 24.11.2021
4664 Clear -1 1025 64 10000 0.89 308 10:49 24.11.2021
4665 Clear -1 1024 64 10000 1.34 295 10:23 24.11.2021
4666 Clear 0 1022 62 10000 0.89 316 07:55 24.11.2021
4667 Clear 0 1022 60 10000 1.34 284 06:55 24.11.2021
4668 Clear 1 1021 47 10000 0.45 277 03:55 24.11.2021
4669 Clouds 2 1020 44 10000 7.15 292 00:58 24.11.2021
4670 Clouds 4 1017 39 10000 1.34 290 22:58 23.11.2021
4671 Clouds 4 1017 38 10000 1.34 276 22:34 23.11.2021
4672 Clear 5 1016 40 10000 1.34 286 21:44 23.11.2021
4673 Clouds 6 1015 40 10000 1.34 150 20:19 23.11.2021
4674 Clouds 5 1015 47 10000 1.34 303 18:43 23.11.2021
4675 Clouds 5 1015 48 10000 0.89 287 18:24 23.11.2021
4676 Clear 5 1015 49 10000 1.34 287 17:23 23.11.2021
4677 Clear 4 1015 51 10000 0.89 288 16:34 23.11.2021
4678 Clear 3 1015 58 10000 0.89 264 15:23 23.11.2021
4679 Clear 1 1016 61 10000 1.34 280 14:32 23.11.2021
4680 Clouds 0 1015 62 10000 0.89 287 11:57 23.11.2021
4681 Clear 1 1014 59 10000 0.89 283 10:24 23.11.2021
4682 Clear 1 1014 57 10000 0.89 286 09:23 23.11.2021
4683 Clear 1 1013 54 10000 0.89 288 07:28 23.11.2021
4684 Clouds 3 1014 47 10000 1.34 294 03:56 23.11.2021
4685 Clear 3 1014 47 10000 0.89 303 02:58 23.11.2021
4686 Clear 6 1011 55 10000 1.34 296 23:23 22.11.2021
4687 Clouds 7 1011 58 10000 0.89 288 22:53 22.11.2021
4688 Clouds 8 1011 59 10000 0.89 284 22:29 22.11.2021
4689 Clouds 8 1010 63 10000 1.34 299 21:44 22.11.2021
4690 Clouds 9 1009 64 10000 1.34 284 20:56 22.11.2021
4691 Clouds 10 1009 63 10000 0.45 293 20:21 22.11.2021
4692 Clouds 10 1009 65 10000 0.89 310 19:19 22.11.2021
4693 Clear 10 1010 66 10000 0.45 338 18:40 22.11.2021
4694 Clear 10 1010 69 10000 0.45 100 17:46 22.11.2021
4695 Clear 9 1011 76 10000 2.68 45 16:26 22.11.2021
4696 Clouds 9 1011 84 10000 5.36 62 14:26 22.11.2021
4697 Rain 9 1011 83 10000 3.58 278 12:47 22.11.2021
4698 Rain 11 1011 82 10000 0.89 136 10:45 22.11.2021
4699 Rain 12 1011 82 10000 0.45 79 09:48 22.11.2021
4700 Clouds 12 1012 83 10000 0.45 138 08:41 22.11.2021
4701 Clouds 12 1013 83 10000 2.68 198 06:59 22.11.2021
4702 Clouds 11 1020 72 10000 3.58 167 00:21 22.11.2021
4703 Clouds 11 1021 68 10000 5.36 180 22:54 21.11.2021
4704 Clouds 12 1020 66 10000 0.45 129 22:26 21.11.2021
4705 Clouds 13 1021 54 10000 0.45 101 20:42 21.11.2021
4706 Clouds 13 1021 54 10000 0.45 101 20:42 21.11.2021
4707 Clouds 13 1021 50 10000 0.45 62 20:22 21.11.2021
4708 Clear 12 1024 49 10000 2.68 177 18:30 21.11.2021
4709 Clouds 11 1025 55 10000 0.45 291 17:40 21.11.2021
4710 Clouds 11 1025 57 10000 0.45 210 17:19 21.11.2021
4711 Clouds 7 1027 71 10000 2.68 30 14:48 21.11.2021
4712 Clouds 6 1027 73 10000 2.68 16 13:57 21.11.2021
4713 Clouds 6 1027 74 10000 0.89 338 12:55 21.11.2021
4714 Clouds 6 1028 74 10000 2.68 292 12:19 21.11.2021
4715 Clear 6 1028 73 10000 1.34 282 11:36 21.11.2021
4716 Clear 6 1028 74 10000 1.79 282 10:19 21.11.2021
4717 Clouds 6 1028 73 10000 2.24 233 09:44 21.11.2021
4718 Clouds 6 1029 71 10000 0.45 244 08:31 21.11.2021
4719 Clouds 6 1029 72 10000 3.13 207 07:51 21.11.2021
4720 Clear 6 1029 70 10000 2.68 205 06:26 21.11.2021
4721 Clouds 6 1030 69 10000 4.47 293 05:41 21.11.2021
4722 Clear 7 1031 66 10000 0.45 111 03:22 21.11.2021
4723 Clouds 7 1031 67 10000 0.45 97 02:55 21.11.2021
4724 Clear 7 1031 62 10000 0.45 56 01:25 21.11.2021
4725 Clear 6 1032 61 10000 0.45 67 00:42 21.11.2021
4726 Clear 7 1031 56 10000 0.89 127 22:30 20.11.2021
4727 Clear 8 1032 50 10000 0.45 133 21:32 20.11.2021
4728 Clouds 8 1032 47 10000 0.45 279 19:56 20.11.2021
4729 Clear 8 1034 47 10000 0.45 115 18:45 20.11.2021
4730 Clear 8 1034 48 10000 0.45 145 18:23 20.11.2021
4731 Clear 7 1035 50 10000 0.45 325 17:22 20.11.2021
4732 Clear 4 1035 67 10000 1.79 314 14:57 20.11.2021
4733 Clear 3 1035 69 10000 3.13 286 14:28 20.11.2021
4734 Clear 3 1035 69 10000 0.45 283 13:53 20.11.2021
4735 Clear 2 1034 68 10000 1.34 295 11:46 20.11.2021
4736 Clouds 2 1033 66 10000 0.45 295 09:57 20.11.2021
4737 Clear 2 1033 64 10000 0.45 266 08:40 20.11.2021
4738 Clear 3 1032 61 10000 0.89 299 06:50 20.11.2021
4739 Clear 4 1032 56 10000 0.89 311 05:18 20.11.2021
4740 Clear 4 1032 56 10000 0.89 258 04:49 20.11.2021
4741 Clouds 6 1028 48 10000 0.89 340 00:43 20.11.2021
4742 Clouds 6 1028 46 10000 0.89 346 00:18 20.11.2021
4743 Clear 7 1026 46 10000 0.89 272 22:54 19.11.2021
4744 Clouds 8 1025 43 10000 0.89 316 21:29 19.11.2021
4745 Clear 8 1025 44 10000 0.89 263 20:48 19.11.2021
4746 Clear 8 1024 43 10000 1.79 287 20:29 19.11.2021
4747 Clouds 9 1024 43 10000 1.34 308 19:47 19.11.2021
4748 Clouds 9 1024 42 10000 1.79 305 18:49 19.11.2021
4749 Clouds 8 1024 45 10000 1.34 339 17:45 19.11.2021
4750 Clear 7 1024 49 10000 0.89 295 16:43 19.11.2021
4751 Clear 6 1023 54 10000 1.34 262 15:22 19.11.2021
4752 Clear 5 1020 58 10000 0.89 7 12:43 19.11.2021
4753 Clouds 6 1018 60 10000 1.34 341 10:25 19.11.2021
4754 Clouds 8 1017 76 10000 5.81 283 08:39 19.11.2021
4755 Clouds 8 1016 82 10000 3.13 272 07:26 19.11.2021
4756 Rain 11 1015 79 4828 0.45 318 04:22 19.11.2021
4757 Clouds 18 1012 62 10000 0.45 81 23:59 18.11.2021
4758 Clear 18 1013 63 10000 0.45 5 23:41 18.11.2021
4759 Clear 19 1013 57 10000 0.45 133 21:41 18.11.2021
4760 Clear 20 1013 54 10000 0.45 339 20:47 18.11.2021
4761 Clear 20 1013 54 10000 0.45 312 20:29 18.11.2021
4762 Clear 20 1014 55 10000 0.89 91 19:43 18.11.2021
4763 Clear 19 1015 59 10000 2.24 173 18:40 18.11.2021
4764 Clouds 18 1015 65 10000 1.34 240 17:58 18.11.2021
4765 Clear 17 1016 65 10000 0.45 2 17:36 18.11.2021
4766 Clear 16 1017 70 10000 3.13 238 16:43 18.11.2021
4767 Fog 13 1018 78 10000 1.34 198 15:24 18.11.2021
4768 Fog 11 1018 85 10000 1.34 201 13:25 18.11.2021
4769 Clear 11 1018 84 10000 1.34 143 11:45 18.11.2021
4770 Fog 11 1018 84 10000 0.45 149 11:26 18.11.2021
4771 Clear 11 1018 85 10000 0.45 135 10:56 18.11.2021
4772 Fog 11 1019 85 10000 3.13 205 09:32 18.11.2021
4773 Fog 11 1019 86 10000 0.89 152 07:34 18.11.2021
4774 Fog 12 1020 85 10000 0.89 213 05:47 18.11.2021
4775 Fog 12 1021 85 10000 0.89 212 04:31 18.11.2021
4776 Clear 12 1022 82 10000 0.45 144 01:22 18.11.2021
4777 Clouds 13 1023 73 10000 0.89 145 22:48 17.11.2021
4778 Clouds 13 1023 72 10000 0.89 94 22:20 17.11.2021
4779 Clouds 13 1023 69 10000 0.89 129 21:37 17.11.2021
4780 Clouds 13 1023 66 10000 0.89 140 20:50 17.11.2021
4781 Clouds 11 1025 56 10000 0.45 120 17:53 17.11.2021
4782 Clouds 11 1027 54 10000 0.45 329 17:25 17.11.2021
4783 Clear 6 1027 63 10000 0.89 297 14:47 17.11.2021
4784 Clear 4 1026 70 10000 1.34 280 12:40 17.11.2021
4785 Clear 4 1026 68 10000 0.89 281 11:44 17.11.2021
4786 Clear 4 1026 66 10000 1.34 280 10:28 17.11.2021
4787 Clear 4 1025 63 10000 2.68 288 09:24 17.11.2021
4788 Clear 4 1025 62 10000 1.79 283 07:44 17.11.2021
4789 Clear 5 1024 54 10000 1.34 278 03:51 17.11.2021
4790 Clear 5 1024 54 10000 1.34 278 03:51 17.11.2021
4791 Clear 6 1023 50 10000 3.13 270 01:21 17.11.2021
4792 Clouds 7 1022 47 10000 4.92 274 23:26 16.11.2021
4793 Clear 10 1020 43 10000 0.45 275 21:27 16.11.2021
4794 Clouds 10 1019 44 10000 0.45 320 20:18 16.11.2021
4795 Clear 9 1019 49 10000 0.45 140 18:54 16.11.2021
4796 Clear 9 1020 50 10000 0.89 304 18:35 16.11.2021
4797 Clear 8 1020 53 10000 0.45 153 17:40 16.11.2021
4798 Clear 8 1020 57 10000 0.45 170 16:49 16.11.2021
4799 Clear 6 1021 62 10000 6.26 281 15:56 16.11.2021
4800 Clear 6 1020 64 10000 5.36 267 15:29 16.11.2021
4801 Clear 2 1019 70 10000 0.45 293 12:29 16.11.2021
4802 Clear 3 1018 68 10000 0.45 325 09:49 16.11.2021
4803 Clear 3 1017 66 10000 0.45 176 08:48 16.11.2021
4804 Clouds 4 1017 66 10000 0.45 115 07:34 16.11.2021
4805 Clear 5 1015 70 10000 0.89 116 02:50 16.11.2021
4806 Clear 8 1012 56 10000 0.45 32 23:23 15.11.2021
4807 Clouds 8 1011 57 10000 0.45 191 22:39 15.11.2021
4808 Clouds 9 1010 57 10000 0.89 337 21:54 15.11.2021
4809 Clouds 9 1010 56 10000 0.89 43 21:29 15.11.2021
4810 Clouds 9 1008 60 10000 1.34 328 20:26 15.11.2021
4811 Clouds 8 1008 64 10000 0.89 131 18:53 15.11.2021
4812 Clouds 7 1009 71 10000 0.89 98 16:56 15.11.2021
4813 Clouds 7 1009 71 10000 0.89 98 16:56 15.11.2021
4814 Clouds 6 1008 76 10000 0.45 130 15:48 15.11.2021
4815 Clouds 6 1008 78 10000 0.45 133 15:29 15.11.2021
4816 Clouds 4 1008 83 10000 5.81 254 13:49 15.11.2021
4817 Clouds 3 1007 85 10000 1.79 240 12:18 15.11.2021
4818 Clear 4 1007 82 10000 1.34 288 09:30 15.11.2021
4819 Clouds 5 1007 82 10000 1.34 273 07:59 15.11.2021
4820 Clouds 5 1009 79 10000 0.45 175 06:21 15.11.2021
4821 Clouds 7 1011 60 10000 0.45 175 00:33 15.11.2021
4822 Clear 8 1011 61 10000 0.45 324 22:39 14.11.2021
4823 Clouds 8 1011 60 10000 0.45 286 21:18 14.11.2021
4824 Clear 8 1012 62 10000 0.45 357 19:18 14.11.2021
4825 Clouds 8 1011 62 10000 2.68 198 18:54 14.11.2021
4826 Clear 8 1013 61 10000 0.45 79 18:36 14.11.2021
4827 Clear 8 1013 62 10000 0.45 101 18:18 14.11.2021
4828 Clouds 8 1013 63 10000 0.45 59 17:57 14.11.2021
4829 Clear 8 1013 62 10000 2.24 252 17:39 14.11.2021
4830 Clear 8 1014 62 10000 0.45 105 17:21 14.11.2021
4831 Clear 7 1014 64 10000 0.45 204 16:50 14.11.2021
4832 Clear 7 1014 66 10000 0.45 109 16:22 14.11.2021
4833 Clouds 6 1014 68 10000 3.58 249 15:52 14.11.2021
4834 Clear 6 1015 68 10000 0.45 283 15:19 14.11.2021
4835 Clear 5 1015 71 10000 4.47 250 14:37 14.11.2021
4836 Clear 4 1015 73 10000 2.24 218 14:18 14.11.2021
4837 Clear 3 1014 76 10000 2.24 250 13:40 14.11.2021
4838 Clear 2 1014 77 10000 0.45 95 12:53 14.11.2021
4839 Clear 3 1014 76 10000 0.45 52 12:21 14.11.2021
4840 Clear 3 1013 75 10000 3.13 248 10:54 14.11.2021
4841 Clear 3 1013 73 10000 1.79 244 10:31 14.11.2021
4842 Clear 4 1013 72 10000 0.45 159 09:22 14.11.2021
4843 Clear 4 1013 71 10000 0.45 149 08:46 14.11.2021
4844 Clear 5 1012 68 10000 0.89 172 04:46 14.11.2021
4845 Clouds 6 1006 78 10000 0.89 113 22:31 13.11.2021
4846 Clouds 7 1005 80 10000 2.24 318 21:59 13.11.2021
4847 Mist 8 1004 79 8047 3.13 319 21:30 13.11.2021
4848 Mist 11 1002 84 1609 0.89 320 20:43 13.11.2021
4849 Clouds 17 1004 62 10000 0.89 350 18:54 13.11.2021
4850 Clouds 17 1004 62 10000 0.89 68 18:32 13.11.2021
4851 Clear 17 1007 56 10000 1.34 142 17:34 13.11.2021
4852 Clear 15 1008 61 10000 0.89 125 15:53 13.11.2021
4853 Clear 13 1010 68 10000 0.45 75 14:43 13.11.2021
4854 Clear 11 1011 75 10000 0 0 13:47 13.11.2021
4855 Clear 9 1012 76 10000 0 0 12:43 13.11.2021
4856 Clear 10 1012 74 10000 2.06 280 11:48 13.11.2021
4857 Clear 10 1012 73 10000 2.06 280 11:21 13.11.2021
4858 Clear 9 1012 71 10000 0 0 10:33 13.11.2021
4859 Clear 10 1012 69 10000 0.45 104 09:47 13.11.2021
4860 Clear 10 1012 64 10000 1.54 20 09:22 13.11.2021
4861 Clear 10 1012 63 10000 0.45 92 08:49 13.11.2021
4862 Clear 10 1012 65 10000 2.06 150 07:51 13.11.2021
4863 Clear 10 1014 62 10000 3.09 250 04:43 13.11.2021
4864 Clear 10 1014 62 10000 3.09 250 04:20 13.11.2021
4865 Clear 15 1013 64 10000 0.45 112 23:35 12.11.2021
4866 Clear 16 1011 67 10000 3.6 250 22:34 12.11.2021
4867 Clouds 17 1011 83 10000 3.6 250 20:49 12.11.2021
4868 Clouds 16 1011 90 10000 3.09 250 19:40 12.11.2021
4869 Clouds 16 1011 90 10000 3.09 250 19:22 12.11.2021
4870 Rain 16 1011 88 10000 0.45 55 18:20 12.11.2021
4871 Mist 18 1012 90 10000 1.79 97 16:18 12.11.2021
4872 Rain 18 1014 87 10000 1.34 92 14:46 12.11.2021
4873 Clouds 17 1016 88 10000 1.34 116 11:31 12.11.2021
4874 Clouds 17 1017 86 10000 1.34 98 10:43 12.11.2021
4875 Clouds 16 1018 85 10000 0.89 158 08:59 12.11.2021
4876 Clouds 16 1019 83 10000 0.89 166 08:29 12.11.2021
4877 Clouds 15 1023 81 10000 0.45 133 02:19 12.11.2021
4878 Clouds 14 1024 73 10000 0.89 148 23:30 11.11.2021
4879 Clouds 14 1024 70 10000 0.45 135 22:27 11.11.2021
4880 Clouds 15 1024 66 10000 0.45 131 21:26 11.11.2021
4881 Clear 15 1024 59 10000 0.89 123 20:26 11.11.2021
4882 Clouds 15 1024 60 10000 0.89 129 18:54 11.11.2021
4883 Clouds 14 1026 57 10000 0.45 104 17:42 11.11.2021
4884 Clear 12 1027 55 10000 0.89 109 16:24 11.11.2021
4885 Clear 10 1027 58 10000 0.45 62 14:44 11.11.2021
4886 Clear 9 1027 60 10000 0.45 62 14:26 11.11.2021
4887 Clear 8 1026 61 10000 0.45 90 13:36 11.11.2021
4888 Clear 8 1026 61 10000 0.45 85 12:48 11.11.2021
4889 Clear 8 1025 55 10000 0.45 94 10:34 11.11.2021
4890 Clear 8 1025 52 10000 0.45 80 09:33 11.11.2021
4891 Clear 9 1025 48 10000 1.54 250 07:36 11.11.2021
4892 Clear 12 1022 37 10000 1.34 279 02:35 11.11.2021
4893 Clear 16 1020 35 10000 0.45 166 22:49 10.11.2021
4894 Clear 18 1019 37 10000 0.89 301 21:58 10.11.2021
4895 Clear 18 1018 38 10000 0.45 302 21:18 10.11.2021
4896 Clear 18 1018 40 10000 0.45 338 20:36 10.11.2021
4897 Clear 19 1018 44 10000 1.34 309 19:46 10.11.2021
4898 Clear 18 1018 54 10000 1.34 303 17:40 10.11.2021
4899 Clear 17 1018 56 10000 0.89 273 16:33 10.11.2021
4900 Clear 14 1017 67 10000 3.6 250 14:44 10.11.2021
4901 Clear 13 1016 73 10000 2.57 240 13:40 10.11.2021
4902 Clouds 12 1015 75 10000 3.09 260 12:44 10.11.2021
4903 Clouds 12 1015 77 10000 0 0 10:39 10.11.2021
4904 Clear 12 1016 77 10000 0 0 08:45 10.11.2021
4905 Clear 12 1016 76 10000 0 0 07:32 10.11.2021
4906 Clear 12 1016 76 10000 0 0 07:32 10.11.2021
4907 Clear 13 1016 73 10000 1.54 170 06:26 10.11.2021
4908 Clear 13 1017 70 10000 0 0 05:51 10.11.2021
4909 Clear 16 1017 53 10000 0.45 284 23:52 09.11.2021
4910 Clear 20 1017 44 10000 2.06 220 21:48 09.11.2021
4911 Clear 21 1017 42 10000 2.06 0 20:31 09.11.2021
4912 Clear 21 1018 42 10000 0.45 53 19:25 09.11.2021
4913 Clear 19 1019 47 10000 2.57 0 17:37 09.11.2021
4914 Clear 15 1020 60 10000 3.6 240 15:45 09.11.2021
4915 Clear 13 1021 69 10000 4.12 270 14:43 09.11.2021
4916 Clear 10 1020 75 10000 3.6 250 12:53 09.11.2021
4917 Clear 10 1020 75 10000 3.6 250 12:53 09.11.2021
4918 Clear 10 1020 75 10000 3.09 260 11:43 09.11.2021
4919 Clear 10 1020 75 10000 3.09 220 10:45 09.11.2021
4920 Clear 10 1019 79 10000 0 0 09:28 09.11.2021
4921 Clear 10 1020 78 10000 1.54 170 08:26 09.11.2021
4922 Clear 12 1020 72 10000 2.57 230 05:53 09.11.2021
4923 Clear 13 1020 66 10000 0 0 02:23 09.11.2021
4924 Clear 12 1021 66 10000 1.54 50 01:46 09.11.2021
4925 Clear 13 1019 62 10000 1.94 8 23:58 08.11.2021
4926 Clear 16 1019 50 10000 0.45 310 22:50 08.11.2021
4927 Clear 17 1019 46 10000 0.45 293 22:27 08.11.2021
4928 Clear 18 1019 43 10000 0.45 259 20:56 08.11.2021
4929 Clear 18 1019 44 10000 0.89 275 19:52 08.11.2021
4930 Clear 18 1020 46 10000 0.89 285 18:56 08.11.2021
4931 Clear 14 1021 49 10000 0.45 283 16:34 08.11.2021
4932 Clear 12 1021 53 10000 2.06 270 15:26 08.11.2021
4933 Clear 11 1021 55 10000 0.45 261 14:42 08.11.2021
4934 Clear 9 1020 58 10000 0.45 301 13:49 08.11.2021
4935 Clear 8 1019 59 10000 1.34 285 12:35 08.11.2021
4936 Clear 8 1019 59 10000 0.89 281 11:24 08.11.2021
4937 Clouds 8 1018 57 10000 0.45 275 09:59 08.11.2021
4938 Clear 8 1018 54 10000 0.89 286 08:55 08.11.2021
4939 Clear 8 1019 57 10000 0.45 270 07:36 08.11.2021
4940 Clouds 8 1019 56 10000 2.68 307 04:56 08.11.2021
4941 Clear 9 1020 53 10000 0.89 72 03:30 08.11.2021
4942 Clear 10 1020 51 10000 1.79 311 23:51 07.11.2021
4943 Clear 12 1020 44 10000 0.45 266 22:26 07.11.2021
4944 Clear 13 1020 41 10000 0.45 293 21:21 07.11.2021
4945 Clear 13 1021 42 10000 1.54 0 19:55 07.11.2021
4946 Clear 12 1022 42 10000 0.45 284 18:26 07.11.2021
4947 Clear 12 1023 46 10000 0.89 287 17:38 07.11.2021
4948 Clear 9 1024 62 10000 0.45 196 15:55 07.11.2021
4949 Clear 7 1024 68 10000 0.45 274 14:42 07.11.2021
4950 Clear 6 1024 74 10000 0.45 264 13:55 07.11.2021
4951 Clear 5 1024 75 10000 2.06 50 11:53 07.11.2021
4952 Clear 6 1024 73 10000 2.06 30 10:19 07.11.2021
4953 Clear 6 1025 72 10000 0.45 275 08:48 07.11.2021
4954 Clear 8 1026 58 10000 0.45 102 02:49 07.11.2021
4955 Clear 8 1026 56 10000 2.24 121 23:42 06.11.2021
4956 Clear 9 1026 55 10000 1.34 241 22:52 06.11.2021
4957 Clear 11 1027 44 10000 0.45 15 21:36 06.11.2021
4958 Clear 12 1027 43 10000 0.89 104 20:52 06.11.2021
4959 Clear 12 1028 41 10000 0.45 125 19:39 06.11.2021
4960 Clear 11 1030 45 10000 0.89 126 17:25 06.11.2021
4961 Clear 9 1031 58 10000 2.57 80 15:46 06.11.2021
4962 Clear 5 1031 67 10000 3.6 30 13:39 06.11.2021
4963 Clear 5 1031 67 10000 3.6 30 13:39 06.11.2021
4964 Clear 5 1031 67 10000 3.6 40 12:38 06.11.2021
4965 Clear 5 1030 68 10000 3.6 50 09:55 06.11.2021
4966 Clear 5 1030 68 10000 3.09 40 08:33 06.11.2021
4967 Clear 7 1029 54 10000 0.45 103 03:22 06.11.2021
4968 Clear 8 1028 46 10000 0.45 326 23:40 05.11.2021
4969 Clear 9 1028 43 10000 0.45 261 23:19 05.11.2021
4970 Clear 10 1027 40 10000 0.45 287 22:32 05.11.2021
4971 Clear 11 1027 35 10000 4.92 34 20:25 05.11.2021
4972 Clear 11 1027 36 10000 3.09 0 19:51 05.11.2021
4973 Clear 11 1028 40 10000 2.06 0 18:43 05.11.2021
4974 Clear 10 1028 43 10000 4.12 90 17:45 05.11.2021
4975 Clear 9 1028 47 10000 3.6 70 16:37 05.11.2021
4976 Clear 5 1028 66 10000 3.09 270 14:18 05.11.2021
4977 Clear 4 1027 69 10000 2.57 270 12:26 05.11.2021
4978 Clear 4 1025 67 10000 2.57 290 09:27 05.11.2021
4979 Clear 5 1025 62 10000 2.57 0 07:48 05.11.2021
4980 Clear 6 1025 59 10000 3.6 50 05:36 05.11.2021
4981 Clear 7 1025 49 10000 2.06 90 02:28 05.11.2021
4982 Clouds 7 1025 49 10000 1.79 316 02:00 05.11.2021
4983 Clouds 8 1026 45 10000 2.24 7 23:56 04.11.2021
4984 Clear 9 1025 40 10000 1.79 293 22:21 04.11.2021
4985 Clouds 10 1025 38 10000 3.13 302 21:54 04.11.2021
4986 Clear 10 1025 37 10000 1.79 307 21:27 04.11.2021
4987 Clear 11 1026 36 10000 2.06 0 20:28 04.11.2021
4988 Clear 11 1025 36 10000 0.45 111 19:49 04.11.2021
4989 Clear 11 1026 36 10000 0.45 18 19:25 04.11.2021
4990 Clear 10 1027 39 10000 0 0 18:23 04.11.2021
4991 Clear 10 1028 43 10000 0.89 42 17:26 04.11.2021
4992 Clear 7 1028 63 10000 3.09 70 15:42 04.11.2021
4993 Clear 5 1028 68 10000 3.6 60 13:45 04.11.2021
4994 Clear 4 1028 66 10000 2.68 301 10:22 04.11.2021
4995 Clear 5 1027 65 10000 2.06 0 08:31 04.11.2021
4996 Clear 5 1027 61 10000 2.57 60 07:36 04.11.2021
4997 Clouds 5 1027 61 10000 2.68 347 06:59 04.11.2021
4998 Clear 9 1024 46 10000 5.81 314 23:18 03.11.2021
4999 Clear 10 1024 42 10000 6.26 308 22:22 03.11.2021
5000 Clouds 10 1024 42 10000 8.05 290 21:37 03.11.2021
5001 Clouds 11 1023 41 10000 5.36 292 20:44 03.11.2021
5002 Clouds 11 1023 42 10000 8.49 296 20:25 03.11.2021
5003 Clouds 11 1023 43 10000 4.92 294 19:29 03.11.2021
5004 Clear 11 1023 48 10000 7.15 290 18:26 03.11.2021
5005 Clouds 10 1024 49 10000 3.6 240 17:42 03.11.2021
5006 Clear 10 1024 55 10000 5.14 250 16:48 03.11.2021
5007 Clear 8 1024 61 10000 2.06 0 15:49 03.11.2021
5008 Clear 8 1025 62 10000 2.06 0 15:29 03.11.2021
5009 Clear 5 1024 72 10000 3.6 250 13:41 03.11.2021
5010 Clear 4 1023 72 10000 2.68 289 11:35 03.11.2021
5011 Clear 4 1023 73 10000 1.79 295 10:50 03.11.2021
5012 Clear 5 1023 74 10000 2.24 306 09:46 03.11.2021
5013 Clear 5 1023 78 10000 3.13 290 08:53 03.11.2021
5014 Clear 5 1023 80 10000 2.24 295 07:55 03.11.2021
5015 Clear 5 1023 78 10000 2.57 270 07:32 03.11.2021
5016 Clouds 7 1022 77 10000 4.12 260 04:23 03.11.2021
5017 Clouds 9 1022 77 10000 5.36 265 00:58 03.11.2021
5018 Clouds 10 1022 67 10000 6.17 240 23:21 02.11.2021
5019 Clouds 11 1021 60 10000 4.92 257 21:57 02.11.2021
5020 Clouds 11 1021 58 10000 5.66 260 20:43 02.11.2021
5021 Clouds 11 1020 58 10000 4.02 247 19:58 02.11.2021
5022 Clouds 12 1021 58 10000 4.63 270 19:27 02.11.2021
5023 Clouds 12 1022 56 10000 6.17 270 18:35 02.11.2021
5024 Clouds 11 1023 54 10000 3.6 270 17:46 02.11.2021
5025 Clouds 12 1023 51 10000 3.6 270 17:21 02.11.2021
5026 Clouds 11 1023 56 10000 3.58 272 15:58 02.11.2021
5027 Clouds 10 1023 62 10000 1.34 294 14:57 02.11.2021
5028 Clouds 8 1023 70 10000 2.24 289 13:31 02.11.2021
5029 Clouds 8 1023 72 10000 1.79 276 12:59 02.11.2021
5030 Clouds 8 1023 69 10000 0.89 290 12:18 02.11.2021
5031 Clouds 8 1022 67 10000 1.79 264 11:26 02.11.2021
5032 Clouds 8 1022 68 10000 0.45 253 10:38 02.11.2021
5033 Clouds 8 1022 65 10000 1.79 281 10:18 02.11.2021
5034 Clear 9 1022 57 10000 1.79 4 07:47 02.11.2021
5035 Clear 10 1022 58 10000 1.34 286 05:55 02.11.2021
5036 Clear 10 1022 52 10000 2.06 250 03:27 02.11.2021
5037 Clear 11 1020 47 10000 1.34 311 00:19 02.11.2021
5038 Clear 15 1018 39 10000 6.26 295 21:57 01.11.2021
5039 Clear 15 1018 41 10000 7.6 281 20:45 01.11.2021
5040 Clear 15 1018 41 10000 7.6 296 20:26 01.11.2021
5041 Clear 15 1018 41 10000 2.57 0 19:42 01.11.2021
5042 Clear 15 1018 43 10000 4.12 260 18:50 01.11.2021
5043 Clouds 15 1018 48 10000 2.06 0 17:49 01.11.2021
5044 Clear 14 1018 50 10000 9.39 295 16:57 01.11.2021
5045 Clouds 14 1018 52 10000 3.09 0 16:25 01.11.2021
5046 Clouds 14 1018 59 10000 3.09 0 15:39 01.11.2021
5047 Clouds 14 1017 62 10000 3.09 0 15:18 01.11.2021
5048 Clouds 13 1017 70 10000 2.57 0 14:38 01.11.2021
5049 Clouds 13 1017 73 10000 2.57 0 14:19 01.11.2021
5050 Clouds 11 1015 76 10000 3.6 260 12:41 01.11.2021
5051 Clear 11 1014 78 10000 5.66 270 11:39 01.11.2021
5052 Clear 11 1013 79 10000 4.12 270 10:20 01.11.2021
5053 Clear 12 1012 79 10000 4.12 270 08:19 01.11.2021
5054 Clear 12 1011 78 10000 3.58 248 07:46 01.11.2021
5055 Clouds 14 1010 75 10000 3.58 266 03:55 01.11.2021
5056 Clouds 14 1007 70 10000 4.63 260 01:44 01.11.2021
5057 Clouds 16 1005 68 10000 5.81 266 23:30 31.10.2021
5058 Clouds 18 1002 64 10000 6.71 276 20:58 31.10.2021
5059 Clouds 18 1001 64 10000 5.66 260 19:49 31.10.2021
5060 Clouds 18 1001 67 10000 6.69 260 18:43 31.10.2021
5061 Clouds 18 1001 67 10000 6.69 260 18:43 31.10.2021
5062 Clouds 17 1001 68 10000 6.69 260 18:20 31.10.2021
5063 Clouds 16 1001 79 10000 5.14 250 16:41 31.10.2021
5064 Mist 14 1001 91 10000 4.63 250 14:45 31.10.2021
5065 Mist 13 1000 91 10000 4.63 250 12:55 31.10.2021
5066 Rain 13 999 92 10000 2.06 240 11:44 31.10.2021
5067 Rain 13 999 93 10000 3.09 270 10:48 31.10.2021
5068 Rain 14 998 92 10000 1.54 260 09:26 31.10.2021
5069 Rain 14 998 94 10000 0 0 08:44 31.10.2021
5070 Rain 15 1002 87 10000 3.6 50 02:26 31.10.2021
5071 Clouds 15 1003 81 10000 2.06 30 00:32 31.10.2021
5072 Clouds 17 1003 78 10000 2.57 110 22:20 30.10.2021
5073 Clouds 17 1003 73 10000 4.12 120 21:27 30.10.2021
5074 Clouds 18 1003 68 10000 5.14 130 19:42 30.10.2021
5075 Clouds 17 1004 77 10000 0 0 17:49 30.10.2021
5076 Mist 15 1004 91 10000 3.09 40 15:42 30.10.2021
5077 Mist 14 1003 92 10000 4.12 40 13:59 30.10.2021
5078 Mist 14 1003 92 10000 4.12 40 13:59 30.10.2021
5079 Mist 14 1003 91 10000 4.12 40 13:38 30.10.2021
5080 Mist 14 1003 91 10000 4.12 40 13:20 30.10.2021
5081 Clouds 14 1002 91 10000 5.66 30 11:49 30.10.2021
5082 Clouds 15 1002 94 10000 4.12 30 10:57 30.10.2021
5083 Clouds 14 1002 91 10000 7.6 60 08:59 30.10.2021
5084 Clouds 13 1004 92 10000 1.34 13 07:57 30.10.2021
5085 Clouds 12 1005 91 10000 7.72 40 05:47 30.10.2021
5086 Rain 12 1003 86 4828 14.4 60 03:28 30.10.2021
5087 Clouds 13 1008 70 10000 10.8 60 23:21 29.10.2021
5088 Clouds 13 1008 70 10000 0.89 101 22:35 29.10.2021
5089 Clouds 13 1009 70 10000 1.34 102 21:19 29.10.2021
5090 Clouds 13 1010 70 10000 1.34 105 20:33 29.10.2021
5091 Clouds 14 1011 68 10000 0.89 122 19:33 29.10.2021
5092 Clouds 13 1012 68 10000 0.89 129 18:18 29.10.2021
5093 Clouds 11 1013 69 10000 1.34 105 16:20 29.10.2021
5094 Clouds 9 1014 78 10000 0.45 141 13:23 29.10.2021
5095 Clear 10 1014 74 10000 0.89 121 10:49 29.10.2021
5096 Clear 10 1014 73 10000 0.89 106 10:31 29.10.2021
5097 Clouds 12 1015 72 10000 0.89 123 05:43 29.10.2021
5098 Clouds 13 1014 72 10000 0.45 102 00:35 29.10.2021
5099 Clouds 14 1013 66 10000 0.45 121 22:34 28.10.2021
5100 Clear 15 1013 62 10000 1.79 212 21:20 28.10.2021
5101 Clear 15 1014 62 10000 0.45 204 20:19 28.10.2021
5102 Clouds 14 1014 66 10000 0.89 253 18:47 28.10.2021
5103 Clouds 13 1014 67 10000 0.89 281 17:57 28.10.2021
5104 Clear 12 1015 67 10000 0.89 279 16:54 28.10.2021
5105 Clouds 10 1015 72 10000 0.45 121 14:59 28.10.2021
5106 Clear 9 1014 73 10000 0.45 129 13:35 28.10.2021
5107 Clear 9 1013 73 10000 0.45 187 12:50 28.10.2021
5108 Clear 9 1013 73 10000 1.54 0 11:51 28.10.2021
5109 Smoke 10 1013 71 10000 0.45 340 10:48 28.10.2021
5110 Smoke 10 1012 69 10000 0.45 274 09:38 28.10.2021
5111 Clouds 11 1012 67 10000 0.45 282 08:37 28.10.2021
5112 Clouds 11 1012 64 10000 0.89 286 07:47 28.10.2021
5113 Clouds 13 1011 63 10000 0.89 271 04:19 28.10.2021
5114 Clouds 15 1008 64 10000 0.89 262 23:26 27.10.2021
5115 Clouds 16 1007 63 10000 1.79 282 22:30 27.10.2021
5116 Clouds 16 1006 62 10000 1.34 273 21:32 27.10.2021
5117 Clouds 16 1006 61 10000 1.34 272 20:49 27.10.2021
5118 Clouds 16 1006 63 10000 1.34 282 19:52 27.10.2021
5119 Clouds 16 1004 65 10000 2.24 288 18:58 27.10.2021
5120 Clouds 16 1004 63 10000 1.79 276 18:38 27.10.2021
5121 Clouds 15 1003 67 10000 1.79 274 16:26 27.10.2021
5122 Clouds 15 1002 70 10000 1.79 279 15:30 27.10.2021
5123 Clouds 15 1002 70 10000 2.24 289 15:30 27.10.2021
5124 Clouds 15 1002 70 10000 2.24 289 15:30 27.10.2021
5125 Clouds 14 1001 76 10000 1.79 279 14:38 27.10.2021
5126 Clouds 13 999 87 10000 1.34 287 11:21 27.10.2021
5127 Rain 13 998 90 10000 1.34 290 10:58 27.10.2021
5128 Rain 13 998 91 10000 1.34 281 09:43 27.10.2021
5129 Rain 13 998 92 10000 1.34 288 07:53 27.10.2021
5130 Rain 13 998 90 10000 1.34 278 06:38 27.10.2021
5131 Rain 15 996 86 10000 0.45 292 01:45 27.10.2021
5132 Clouds 15 996 81 10000 0.45 245 00:56 27.10.2021
5133 Clouds 16 996 80 10000 0 0 00:24 27.10.2021
5134 Clouds 16 995 78 10000 0 0 23:40 26.10.2021
5135 Clouds 17 995 79 10000 0 0 22:36 26.10.2021
5136 Clouds 17 995 80 10000 2.06 0 21:57 26.10.2021
5137 Clouds 16 994 84 10000 4.63 220 20:27 26.10.2021
5138 Clouds 15 994 88 10000 0.45 151 19:26 26.10.2021
5139 Mist 15 994 90 10000 0.45 14 18:40 26.10.2021
5140 Mist 15 994 90 10000 0.45 14 18:40 26.10.2021
5141 Rain 15 994 93 2012 3.09 190 16:22 26.10.2021
5142 Rain 15 996 93 4828 1.34 103 14:19 26.10.2021
5143 Rain 14 1000 95 8047 0.45 266 11:34 26.10.2021
5144 Rain 14 1001 94 3219 0.89 239 09:59 26.10.2021
5145 Rain 17 1005 93 10000 0.45 97 07:24 26.10.2021
5146 Thunderstorm 19 1008 88 10000 0.45 120 03:39 26.10.2021
5147 Thunderstorm 19 1008 88 10000 0.45 120 03:39 26.10.2021
5148 Clear 21 1010 79 10000 0.45 124 23:50 25.10.2021
5149 Clear 22 1010 74 10000 0.89 89 22:39 25.10.2021
5150 Clear 22 1010 74 10000 2.57 120 22:18 25.10.2021
5151 Clear 23 1011 72 10000 0.45 131 21:38 25.10.2021
5152 Clear 22 1012 71 10000 0.45 18 19:50 25.10.2021
5153 Clear 22 1013 72 10000 0.45 351 19:25 25.10.2021
5154 Clear 21 1013 75 10000 0.45 56 18:54 25.10.2021
5155 Clouds 20 1014 77 10000 0.45 108 17:59 25.10.2021
5156 Mist 18 1015 87 10000 2.57 210 15:45 25.10.2021
5157 Fog 16 1016 89 10000 0 0 14:20 25.10.2021
5158 Mist 16 1016 88 10000 2.06 240 12:29 25.10.2021
5159 Clouds 16 1017 89 10000 0.45 78 10:20 25.10.2021
5160 Clouds 15 1018 87 10000 0.45 113 08:34 25.10.2021
5161 Clouds 14 1020 75 10000 0.45 110 05:59 25.10.2021
5162 Clouds 13 1021 64 10000 0.45 146 00:54 25.10.2021
5163 Clouds 14 1020 62 10000 2.68 127 00:35 25.10.2021
5164 Clouds 15 1020 57 10000 0.45 110 23:46 24.10.2021
5165 Clouds 15 1021 55 10000 2.06 260 22:44 24.10.2021
5166 Clouds 15 1021 55 10000 2.06 260 22:21 24.10.2021
5167 Clouds 15 1021 55 10000 0.45 144 21:41 24.10.2021
5168 Clouds 15 1021 57 10000 0.45 32 20:42 24.10.2021
5169 Clouds 15 1021 57 10000 0.45 21 20:23 24.10.2021
5170 Clouds 14 1022 60 10000 0 0 18:52 24.10.2021
5171 Clouds 14 1022 57 10000 0.45 322 17:55 24.10.2021
5172 Clear 13 1022 62 10000 0.45 275 16:48 24.10.2021
5173 Clear 10 1022 74 10000 3.6 260 15:28 24.10.2021
5174 Clear 8 1021 81 10000 2.24 286 13:49 24.10.2021
5175 Clear 8 1020 80 10000 2.68 304 12:41 24.10.2021
5176 Clear 8 1020 80 10000 0.45 10 11:37 24.10.2021
5177 Clear 8 1019 82 10000 0.45 281 10:43 24.10.2021
5178 Clear 9 1019 80 10000 0.89 318 09:38 24.10.2021
5179 Clouds 13 1015 70 10000 0.89 289 03:36 24.10.2021
5180 Clouds 15 1014 64 10000 3.09 0 00:40 24.10.2021
5181 Clouds 15 1014 62 10000 4.12 270 23:24 23.10.2021
5182 Clouds 16 1013 60 10000 3.09 0 21:45 23.10.2021
5183 Clouds 14 1014 61 10000 0.45 240 19:39 23.10.2021
5184 Clouds 14 1015 64 10000 0.45 323 18:46 23.10.2021
5185 Clouds 13 1016 65 10000 0.45 180 18:21 23.10.2021
5186 Clouds 12 1016 70 10000 1.54 190 17:42 23.10.2021
5187 Clouds 11 1016 70 10000 0.45 235 16:18 23.10.2021
5188 Clouds 10 1015 69 10000 0.45 356 13:57 23.10.2021
5189 Clouds 15 1013 67 10000 0.45 292 03:32 23.10.2021
5190 Clouds 19 1012 59 10000 0.45 270 23:42 22.10.2021
5191 Clouds 20 1012 53 10000 3.09 250 22:28 22.10.2021
5192 Clouds 21 1011 55 10000 0.45 115 19:51 22.10.2021
5193 Clouds 20 1012 56 10000 0.45 296 18:40 22.10.2021
5194 Clouds 19 1012 60 10000 4.63 250 17:25 22.10.2021
5195 Clouds 17 1011 71 10000 0.45 88 14:58 22.10.2021
5196 Clouds 16 1009 75 10000 0.45 118 12:54 22.10.2021
5197 Clouds 17 1009 75 10000 0.45 37 10:58 22.10.2021
5198 Clouds 17 1008 74 10000 0.45 100 10:37 22.10.2021
5199 Clouds 18 1008 71 10000 0.45 140 09:41 22.10.2021
5200 Clouds 18 1008 72 10000 0.45 17 08:30 22.10.2021
5201 Clouds 17 1009 72 10000 0.45 45 07:21 22.10.2021
5202 Clouds 18 1011 72 10000 0.45 96 02:56 22.10.2021
5203 Clear 22 1011 61 10000 0.45 154 23:53 21.10.2021
5204 Clear 23 1012 51 10000 1.34 116 22:47 21.10.2021
5205 Clear 24 1013 46 10000 0.89 91 21:39 21.10.2021
5206 Clear 24 1014 46 10000 0.89 88 20:27 21.10.2021
5207 Clouds 24 1014 46 10000 0.45 144 19:57 21.10.2021
5208 Clear 24 1015 45 10000 0.45 110 19:26 21.10.2021
5209 Clear 23 1015 47 10000 0.45 167 18:43 21.10.2021
5210 Clouds 22 1016 50 10000 0.45 119 17:54 21.10.2021
5211 Clear 22 1016 51 10000 0.45 115 17:32 21.10.2021
5212 Clear 18 1017 66 10000 2.57 240 15:34 21.10.2021
5213 Clouds 16 1017 71 10000 0.45 162 14:57 21.10.2021
5214 Clear 16 1017 72 10000 2.06 240 14:37 21.10.2021
5215 Clear 15 1017 72 10000 2.06 240 14:37 21.10.2021
5216 Clear 14 1017 73 10000 2.06 260 12:44 21.10.2021
5217 Clouds 15 1016 71 10000 0.89 270 09:56 21.10.2021
5218 Clear 16 1016 65 10000 2.57 260 08:21 21.10.2021
5219 Clear 17 1016 65 10000 2.06 240 07:23 21.10.2021
5220 Clouds 21 1016 52 10000 1.79 274 00:58 21.10.2021
5221 Clear 24 1015 42 10000 0.45 92 23:20 20.10.2021
5222 Clear 25 1015 41 10000 0.45 125 21:51 20.10.2021
5223 Clear 25 1015 42 10000 0.45 286 21:28 20.10.2021
5224 Clear 25 1015 42 10000 0.89 310 20:46 20.10.2021
5225 Clear 25 1015 42 10000 1.34 324 20:26 20.10.2021
5226 Clear 24 1016 45 10000 0.89 283 19:32 20.10.2021
5227 Clear 23 1016 48 10000 0.45 60 18:49 20.10.2021
5228 Clear 21 1017 54 10000 0.89 133 17:40 20.10.2021
5229 Clear 16 1017 65 10000 0.45 231 15:26 20.10.2021
5230 Clear 14 1015 62 10000 0.45 180 10:23 20.10.2021
5231 Clear 15 1015 58 10000 0.45 117 08:36 20.10.2021
5232 Clear 16 1014 52 10000 0.45 134 02:47 20.10.2021
5233 Clear 18 1013 45 10000 0.45 104 00:35 20.10.2021
5234 Clear 19 1013 39 10000 0.89 79 23:32 19.10.2021
5235 Clear 20 1014 36 10000 0.89 120 21:41 19.10.2021
5236 Clear 19 1014 39 10000 0.89 49 20:45 19.10.2021
5237 Clear 19 1014 40 10000 0.89 159 20:22 19.10.2021
5238 Clear 17 1015 46 10000 0.89 134 19:39 19.10.2021
5239 Clear 17 1015 50 10000 0.89 156 18:52 19.10.2021
5240 Clouds 15 1016 55 10000 0.89 228 17:57 19.10.2021
5241 Clear 11 1017 67 10000 0.45 91 15:38 19.10.2021
5242 Clear 10 1017 69 10000 0.45 93 15:18 19.10.2021
5243 Clear 9 1017 71 10000 0.45 246 14:23 19.10.2021
5244 Clear 8 1016 73 10000 0.89 318 12:34 19.10.2021
5245 Clear 8 1016 72 10000 0.45 294 11:31 19.10.2021
5246 Clear 8 1016 74 10000 0.45 161 09:56 19.10.2021
5247 Clear 8 1016 71 10000 0.89 312 08:57 19.10.2021
5248 Clouds 9 1015 62 10000 0.45 331 05:23 19.10.2021
5249 Clouds 12 1012 51 10000 1.34 316 00:23 19.10.2021
5250 Clouds 13 1012 50 10000 1.34 305 23:49 18.10.2021
5251 Clouds 13 1012 47 10000 1.79 332 23:19 18.10.2021
5252 Clouds 14 1011 49 10000 1.34 283 22:51 18.10.2021
5253 Clouds 15 1010 46 10000 1.34 335 21:18 18.10.2021
5254 Clouds 15 1009 48 10000 1.34 315 20:41 18.10.2021
5255 Clouds 15 1009 51 10000 0.89 243 19:50 18.10.2021
5256 Clouds 15 1009 50 10000 1.34 68 19:29 18.10.2021
5257 Clouds 15 1009 53 10000 1.34 293 18:54 18.10.2021
5258 Clouds 11 1011 73 10000 0.45 102 15:32 18.10.2021
5259 Clear 9 1011 78 10000 0.45 327 13:32 18.10.2021
5260 Clear 9 1011 77 10000 0.45 105 10:42 18.10.2021
5261 Clear 9 1011 74 10000 3.09 0 09:30 18.10.2021
5262 Clear 12 1010 67 10000 0.89 190 03:22 18.10.2021
5263 Clouds 15 1008 63 10000 0.89 76 23:31 17.10.2021
5264 Clouds 16 1007 58 10000 0.89 126 21:55 17.10.2021
5265 Clouds 16 1008 58 10000 1.34 309 21:18 17.10.2021
5266 Clouds 17 1008 56 10000 1.34 326 20:38 17.10.2021
5267 Clouds 17 1008 54 10000 0.89 107 19:42 17.10.2021
5268 Clouds 17 1008 54 10000 0.89 298 19:23 17.10.2021
5269 Clouds 16 1010 59 10000 0.89 317 17:34 17.10.2021
5270 Clear 14 1010 72 10000 0.89 283 15:46 17.10.2021
5271 Clear 12 1010 78 10000 0.45 83 14:26 17.10.2021
5272 Clouds 11 1010 80 10000 0.45 358 13:56 17.10.2021
5273 Clear 11 1009 81 10000 0.45 350 11:58 17.10.2021
5274 Clear 12 1008 81 10000 0.45 72 10:44 17.10.2021
5275 Clear 12 1008 79 10000 4.47 279 09:43 17.10.2021
5276 Clouds 13 1008 79 10000 0.45 312 07:39 17.10.2021
5277 Clouds 19 1004 76 10000 0.89 284 00:56 17.10.2021
5278 Clouds 20 1004 75 10000 0.45 5 00:24 17.10.2021
5279 Clear 24 1002 73 10000 1.79 107 22:31 16.10.2021
5280 Clear 25 1004 68 10000 0.89 83 20:35 16.10.2021
5281 Clouds 25 1005 68 10000 0.89 84 19:56 16.10.2021
5282 Clouds 25 1005 69 10000 1.34 122 19:37 16.10.2021
5283 Clouds 25 1005 67 10000 0.89 95 19:18 16.10.2021
5284 Clouds 24 1006 67 10000 0.89 109 18:42 16.10.2021
5285 Clouds 24 1006 68 10000 0.89 350 18:19 16.10.2021
5286 Clouds 23 1008 70 10000 0.45 352 17:28 16.10.2021
5287 Clouds 21 1009 71 10000 0.45 74 15:39 16.10.2021
5288 Clouds 19 1009 76 10000 0.45 119 12:44 16.10.2021
5289 Clear 19 1009 78 10000 2.57 270 10:51 16.10.2021
5290 Clear 20 1010 78 10000 0.45 327 08:54 16.10.2021
5291 Clear 22 1012 72 10000 0.45 146 01:27 16.10.2021
5292 Clouds 24 1012 69 10000 0.89 86 23:59 15.10.2021
5293 Clear 25 1012 64 10000 0.89 125 23:25 15.10.2021
5294 Clear 26 1012 61 10000 0.89 133 22:20 15.10.2021
5295 Clear 27 1012 57 10000 0.45 307 21:37 15.10.2021
5296 Clear 27 1012 57 10000 0.45 318 20:52 15.10.2021
5297 Clear 26 1012 56 10000 0.45 337 20:22 15.10.2021
5298 Clear 26 1014 55 10000 0.45 300 19:19 15.10.2021
5299 Clouds 24 1015 60 10000 0.89 311 17:59 15.10.2021
5300 Clear 21 1014 75 10000 2.57 260 15:45 15.10.2021
5301 Clouds 17 1013 86 10000 0 0 13:49 15.10.2021
5302 Clouds 16 1013 89 10000 0.89 302 11:52 15.10.2021
5303 Clouds 16 1013 90 10000 0.89 296 10:58 15.10.2021
5304 Clear 17 1013 87 10000 0.89 284 10:22 15.10.2021
5305 Clear 17 1013 80 10000 0.45 282 07:33 15.10.2021
5306 Clouds 20 1013 66 10000 2.24 360 02:31 15.10.2021
5307 Clouds 23 1013 58 10000 0.45 257 00:22 15.10.2021
5308 Clouds 25 1012 55 10000 0.89 300 22:54 14.10.2021
5309 Clouds 25 1012 53 10000 1.34 288 21:46 14.10.2021
5310 Clouds 25 1012 54 10000 0.89 293 21:19 14.10.2021
5311 Clouds 25 1013 54 10000 0.89 273 20:20 14.10.2021
5312 Clouds 25 1013 55 10000 0.89 288 19:43 14.10.2021
5313 Clear 24 1014 61 10000 0.89 297 18:26 14.10.2021
5314 Clouds 22 1014 69 10000 0.45 301 16:57 14.10.2021
5315 Clear 21 1015 71 10000 0.89 275 16:31 14.10.2021
5316 Mist 18 1015 87 10000 0.45 326 14:44 14.10.2021
5317 Mist 17 1015 89 8047 0.45 288 14:26 14.10.2021
5318 Mist 16 1014 90 10000 3.09 250 12:35 14.10.2021
5319 Mist 17 1014 91 10000 2.57 250 11:26 14.10.2021
5320 Clear 17 1014 89 10000 1.34 246 08:26 14.10.2021
5321 Clouds 18 1014 86 10000 1.79 280 05:52 14.10.2021
5322 Clouds 20 1015 81 10000 1.34 153 00:36 14.10.2021
5323 Clouds 21 1015 81 10000 2.06 220 22:40 13.10.2021
5324 Clouds 21 1015 80 10000 3.09 230 21:36 13.10.2021
5325 Clouds 20 1016 79 10000 3.09 210 20:43 13.10.2021
5326 Clouds 20 1016 80 10000 2.57 220 19:24 13.10.2021
5327 Clouds 20 1017 77 10000 2.57 230 18:38 13.10.2021
5328 Clouds 19 1018 82 10000 0.45 110 16:37 13.10.2021
5329 Clouds 18 1018 86 10000 0.89 214 14:47 13.10.2021
5330 Clouds 17 1018 86 10000 0.89 261 14:24 13.10.2021
5331 Clouds 17 1017 86 10000 1.54 270 12:48 13.10.2021
5332 Clouds 17 1017 87 10000 2.06 260 11:37 13.10.2021
5333 Clear 16 1017 88 10000 2.68 267 09:56 13.10.2021
5334 Clouds 17 1018 89 10000 2.06 260 07:53 13.10.2021
5335 Clouds 17 1018 84 10000 0.45 107 03:39 13.10.2021
5336 Clouds 18 1018 83 10000 2.57 240 02:21 13.10.2021
5337 Clouds 21 1018 71 10000 0.45 145 23:36 12.10.2021
5338 Clouds 21 1018 69 10000 2.57 210 22:51 12.10.2021
5339 Clouds 21 1018 70 10000 2.57 210 22:29 12.10.2021
5340 Clouds 21 1018 69 10000 0.45 7 20:54 12.10.2021
5341 Clouds 21 1018 68 10000 0.45 287 20:31 12.10.2021
5342 Clouds 21 1019 69 10000 0.45 297 19:42 12.10.2021
5343 Clouds 20 1020 73 10000 0.45 93 18:26 12.10.2021
5344 Clouds 19 1020 77 10000 0.45 106 17:29 12.10.2021
5345 Clouds 18 1020 80 10000 0.89 134 16:24 12.10.2021
5346 Clouds 18 1021 83 10000 0.45 153 15:35 12.10.2021
5347 Clouds 16 1020 85 10000 0.89 107 13:46 12.10.2021
5348 Clouds 16 1020 85 10000 0.45 93 13:18 12.10.2021
5349 -273 0 0 0 0 0 11:31 12.10.2021
5350 Clouds 16 1019 87 10000 0.89 111 11:30 12.10.2021
5351 Clear 16 1019 87 10000 0.45 115 09:41 12.10.2021
5352 Clear 16 1019 85 10000 4.12 30 08:26 12.10.2021
5353 Clear 17 1019 83 10000 0.45 113 06:46 12.10.2021
5354 Clouds 17 1019 82 10000 0.45 128 04:49 12.10.2021
5355 Clouds 18 1019 81 10000 3.13 94 04:28 12.10.2021
5356 Clouds 21 1018 68 10000 0.89 91 23:56 11.10.2021
5357 Clouds 21 1018 65 10000 0.89 75 23:36 11.10.2021
5358 Clouds 22 1018 65 10000 1.34 111 22:51 11.10.2021
5359 Clear 23 1017 64 10000 1.34 241 21:27 11.10.2021
5360 Clouds 22 1018 67 10000 0.89 99 20:28 11.10.2021
5361 Clouds 22 1018 69 10000 1.79 276 19:35 11.10.2021
5362 Clouds 21 1018 72 10000 1.34 239 18:23 11.10.2021
5363 Clouds 19 1018 81 10000 1.34 90 16:41 11.10.2021
5364 Clouds 18 1019 81 10000 1.34 97 16:21 11.10.2021
5365 Clouds 18 1019 83 10000 0.89 142 15:44 11.10.2021
5366 Clouds 17 1019 83 10000 0.89 152 14:54 11.10.2021
5367 Clouds 17 1018 83 10000 0.89 131 14:19 11.10.2021
5368 Clouds 17 1019 84 10000 0.89 224 13:35 11.10.2021
5369 Clouds 17 1017 84 10000 0.89 233 11:24 11.10.2021
5370 Clouds 17 1017 87 10000 0.89 310 09:47 11.10.2021
5371 Clouds 17 1018 85 10000 0.45 289 08:40 11.10.2021
5372 Clouds 18 1020 87 10000 0.89 75 01:47 11.10.2021
5373 Clouds 18 1020 87 10000 0.89 141 00:59 11.10.2021
5374 Clouds 18 1020 87 10000 0.89 141 00:59 11.10.2021
5375 Mist 18 1019 88 10000 0.89 130 00:41 11.10.2021
5376 Clouds 19 1020 87 10000 0.89 196 22:42 10.10.2021
5377 Mist 18 1020 89 10000 0.89 89 21:50 10.10.2021
5378 Mist 18 1020 89 10000 0.89 78 21:20 10.10.2021
5379 Clouds 18 1020 91 10000 0.89 116 20:40 10.10.2021
5380 Clouds 18 1020 91 10000 0.89 90 20:40 10.10.2021
5381 Clouds 18 1021 91 10000 0.89 89 20:19 10.10.2021
5382 Mist 17 1021 92 6437 0.45 89 19:49 10.10.2021
5383 Rain 18 1021 92 6437 0.45 134 19:30 10.10.2021
5384 Rain 17 1021 88 10000 0.89 118 18:23 10.10.2021
5385 Clouds 17 1022 88 10000 0.89 161 15:54 10.10.2021
5386 Clouds 17 1022 87 10000 0.45 153 15:35 10.10.2021
5387 Clouds 17 1022 85 10000 0.89 123 13:41 10.10.2021
5388 Clouds 17 1022 85 10000 0.89 131 12:44 10.10.2021
5389 Mist 16 1022 84 8047 0.45 107 11:59 10.10.2021
5390 Clouds 17 1022 82 10000 0.89 83 10:31 10.10.2021
5391 Clouds 17 1023 79 10000 0.89 124 09:22 10.10.2021
5392 Clouds 17 1023 79 10000 0.89 92 08:51 10.10.2021
5393 Clouds 17 1023 78 10000 0.89 79 06:19 10.10.2021
5394 Clouds 18 1023 76 10000 1.34 96 02:23 10.10.2021
5395 Clouds 18 1023 76 10000 1.34 101 00:52 10.10.2021
5396 Clouds 19 1023 74 10000 0.89 121 23:52 09.10.2021
5397 Clouds 19 1022 73 10000 0.89 111 22:21 09.10.2021
5398 Clouds 20 1022 72 10000 0.45 73 21:30 09.10.2021
5399 Clouds 20 1022 72 10000 0.45 73 21:30 09.10.2021
5400 Clouds 20 1023 71 10000 0.89 94 20:19 09.10.2021
5401 Clouds 20 1023 70 10000 0.89 115 19:41 09.10.2021
5402 Clouds 20 1024 69 10000 0.89 99 18:45 09.10.2021
5403 Clouds 19 1023 74 10000 0.89 216 17:57 09.10.2021
5404 Clouds 18 1024 77 10000 0.89 122 16:20 09.10.2021
5405 Clouds 16 1024 81 10000 0.45 114 14:28 09.10.2021
5406 Clouds 16 1024 82 10000 5.14 30 13:38 09.10.2021
5407 Clouds 16 1023 82 10000 5.66 30 12:27 09.10.2021
5408 Clear 16 1023 80 10000 6.69 30 10:44 09.10.2021
5409 Clear 17 1023 79 10000 6.69 30 10:19 09.10.2021
5410 Clouds 18 1023 79 10000 6.17 40 08:45 09.10.2021
5411 Clouds 18 1023 79 10000 6.17 40 08:20 09.10.2021
5412 Clouds 18 1022 79 10000 5.66 50 06:37 09.10.2021
5413 Clear 19 1022 76 10000 3.6 50 04:43 09.10.2021
5414 Clouds 20 1022 78 10000 2.57 70 02:46 09.10.2021
5415 Clouds 22 1021 75 10000 3.6 70 00:24 09.10.2021
5416 Clouds 22 1020 71 10000 3.09 140 23:33 08.10.2021
5417 Clear 24 1020 65 10000 3.09 240 22:46 08.10.2021
5418 Haze 24 1020 64 9656 0 0 21:44 08.10.2021
5419 Haze 24 1021 63 9656 2.06 0 20:27 08.10.2021
5420 Clear 23 1021 67 10000 2.57 0 18:23 08.10.2021
5421 Clouds 22 1022 73 10000 2.06 90 17:18 08.10.2021
5422 Clouds 21 1022 78 10000 0.45 291 16:43 08.10.2021
5423 Clouds 20 1022 81 10000 0 0 16:21 08.10.2021
5424 Mist 16 1021 91 4023 0.89 288 13:47 08.10.2021
5425 Clouds 16 1020 91 10000 0.89 303 11:56 08.10.2021
5426 Mist 16 1020 91 9656 0.89 285 10:43 08.10.2021
5427 Fog 16 1021 90 10000 2.06 260 09:48 08.10.2021
5428 Clear 17 1022 85 10000 0.89 185 05:56 08.10.2021
5429 Clouds 23 1022 61 10000 3.09 0 23:26 07.10.2021
5430 Clouds 24 1022 61 10000 2.06 220 22:54 07.10.2021
5431 Clear 24 1023 60 10000 0.45 10 21:29 07.10.2021
5432 Clouds 23 1024 62 10000 0.45 225 20:41 07.10.2021
5433 Clouds 23 1026 64 10000 2.57 0 19:34 07.10.2021
5434 Clouds 22 1026 70 10000 1.54 200 18:41 07.10.2021
5435 Clouds 21 1026 76 10000 0.45 219 17:34 07.10.2021
5436 Clouds 20 1026 81 10000 0.45 306 16:42 07.10.2021
5437 Clouds 18 1027 88 10000 0.89 272 14:56 07.10.2021
5438 Clouds 16 1027 91 10000 0 0 13:44 07.10.2021
5439 Clouds 16 1027 91 10000 2.24 278 13:19 07.10.2021
5440 Fog 16 1026 90 10000 0.89 294 11:26 07.10.2021
5441 Fog 16 1026 90 10000 2.06 260 10:47 07.10.2021
5442 Fog 17 1026 88 10000 1.54 260 09:47 07.10.2021
5443 Clouds 17 1026 87 10000 1.54 280 08:54 07.10.2021
5444 Clouds 17 1027 87 10000 1.54 280 08:20 07.10.2021
5445 Clouds 17 1027 85 10000 0 0 07:39 07.10.2021
5446 Clouds 18 1027 85 10000 0.45 284 06:47 07.10.2021
5447 Clouds 20 1027 75 10000 0.45 243 00:55 07.10.2021
5448 Clouds 20 1027 71 10000 0.45 102 23:30 06.10.2021
5449 Clouds 21 1027 71 10000 0.45 4 22:40 06.10.2021
5450 Clouds 21 1027 72 10000 0.45 309 21:40 06.10.2021
5451 Clouds 21 1027 72 10000 1.54 250 20:33 06.10.2021
5452 Clouds 20 1028 74 10000 0.45 265 19:23 06.10.2021
5453 Clouds 19 1029 78 10000 0.45 244 17:56 06.10.2021
5454 Clouds 18 1029 82 10000 1.54 100 16:40 06.10.2021
5455 Clouds 17 1029 82 10000 0.45 122 15:18 06.10.2021
5456 Clouds 16 1028 84 10000 2.06 110 13:31 06.10.2021
5457 Clouds 16 1028 84 10000 2.06 60 12:47 06.10.2021
5458 Clouds 16 1028 84 10000 2.06 80 12:28 06.10.2021
5459 Clouds 16 1028 84 10000 2.57 80 11:38 06.10.2021
5460 Clouds 16 1028 84 10000 2.06 70 09:45 06.10.2021
5461 Clouds 17 1028 84 10000 2.06 70 09:26 06.10.2021
5462 Clouds 17 1028 84 10000 3.09 40 08:39 06.10.2021
5463 Clouds 17 1027 85 10000 3.6 50 06:18 06.10.2021
5464 Drizzle 17 1027 84 10000 3.6 40 04:24 06.10.2021
5465 Drizzle 17 1027 84 10000 3.6 40 04:24 06.10.2021
5466 Clouds 18 1024 84 10000 3.09 50 00:24 06.10.2021
5467 Clouds 18 1024 82 10000 3.09 60 23:51 05.10.2021
5468 Clouds 18 1024 82 10000 3.09 60 23:51 05.10.2021
5469 Clouds 18 1024 82 10000 3.09 60 23:51 05.10.2021
5470 Clouds 18 1024 81 10000 3.09 60 23:31 05.10.2021
5471 Clouds 18 1023 80 10000 4.63 10 22:38 05.10.2021
5472 Clouds 19 1024 80 10000 3.09 60 21:57 05.10.2021
5473 Clouds 19 1024 78 10000 3.09 60 21:32 05.10.2021
5474 Clouds 18 1024 77 10000 3.09 50 20:38 05.10.2021
5475 Clouds 18 1024 77 10000 3.09 50 20:18 05.10.2021
5476 Clouds 18 1024 79 10000 2.57 50 19:25 05.10.2021
5477 Clouds 17 1024 81 10000 4.12 40 18:21 05.10.2021
5478 Clouds 16 1023 86 10000 4.63 30 16:18 05.10.2021
5479 Clouds 15 1023 88 10000 4.12 40 14:29 05.10.2021
5480 Clouds 16 1022 87 10000 4.12 30 13:27 05.10.2021
5481 Clouds 16 1021 89 10000 4.12 30 12:36 05.10.2021
5482 Clouds 16 1020 88 10000 5.36 46 11:58 05.10.2021
5483 Clouds 16 1020 86 10000 6.17 30 10:39 05.10.2021
5484 Clouds 16 1019 89 10000 5.66 40 08:38 05.10.2021
5485 Mist 18 1016 91 10000 5.14 30 01:47 05.10.2021
5486 Rain 19 1015 90 9656 5.66 30 23:40 04.10.2021
5487 Mist 20 1014 87 10000 4.12 50 21:54 04.10.2021
5488 Mist 20 1015 88 10000 5.66 20 18:54 04.10.2021
5489 Clouds 20 1014 88 10000 0.89 272 17:58 04.10.2021
5490 Mist 21 1014 87 10000 0.89 175 16:20 04.10.2021
5491 Mist 21 1014 88 10000 0.45 97 15:30 04.10.2021
5492 Mist 20 1014 88 10000 0.45 97 14:39 04.10.2021
5493 Mist 20 1013 89 10000 2.06 20 13:48 04.10.2021
5494 Mist 20 1013 89 10000 2.06 20 13:23 04.10.2021
5495 Rain 20 1013 89 10000 0 0 11:35 04.10.2021
5496 Mist 20 1013 88 10000 0 0 10:48 04.10.2021
5497 Rain 20 1012 87 10000 2.06 200 09:48 04.10.2021
5498 Clouds 20 1012 82 10000 2.06 280 08:33 04.10.2021
5499 Clear 21 1013 82 10000 1.54 250 06:51 04.10.2021
5500 Clear 24 1013 65 10000 1.54 0 23:43 03.10.2021
5501 Clouds 25 1013 59 10000 3.09 200 22:33 03.10.2021
5502 Clouds 26 1013 55 10000 3.09 200 21:37 03.10.2021
5503 Clouds 25 1014 53 10000 2.57 210 20:54 03.10.2021
5504 Clouds 26 1015 50 10000 0.89 233 19:56 03.10.2021
5505 Clear 24 1016 51 10000 0 0 18:33 03.10.2021
5506 Clear 23 1016 55 10000 2.06 220 17:43 03.10.2021
5507 Clear 20 1016 70 10000 3.09 240 15:51 03.10.2021
5508 Mist 17 1016 81 9656 1.54 250 14:45 03.10.2021
5509 Fog 15 1016 85 10000 2.06 270 13:57 03.10.2021
5510 Fog 15 1016 86 10000 0 0 13:20 03.10.2021
5511 Fog 15 1016 84 10000 2.06 250 12:24 03.10.2021
5512 Clear 15 1016 81 10000 2.06 270 10:36 03.10.2021
5513 Clear 16 1017 77 10000 2.57 280 08:36 03.10.2021
5514 Clear 22 1018 53 10000 3.6 270 00:41 03.10.2021
5515 Clear 24 1018 48 10000 3.6 260 22:33 02.10.2021
5516 Clear 24 1018 50 10000 5.14 270 20:55 02.10.2021
5517 Clear 23 1020 51 10000 5.66 260 19:32 02.10.2021
5518 Clear 22 1020 51 10000 6.17 260 18:50 02.10.2021
5519 Clear 21 1021 54 10000 4.12 270 17:39 02.10.2021
5520 Clear 19 1022 61 10000 3.09 250 16:54 02.10.2021
5521 Fog 15 1022 74 10000 2.06 250 14:49 02.10.2021
5522 Clear 16 1019 61 10000 2.06 0 15:49 30.09.2021
5523 Clouds 15 1019 62 10000 0 0 14:48 30.09.2021
5524 Clouds 14 1018 66 10000 4.47 308 12:36 30.09.2021
5525 Clouds 14 1018 67 10000 5.81 287 11:34 30.09.2021
5526 Clouds 15 1017 66 10000 4.47 299 10:40 30.09.2021
5527 Clear 14 1017 67 10000 4.47 305 08:56 30.09.2021
5528 Clouds 15 1017 65 10000 4.02 305 08:27 30.09.2021
5529 Clouds 15 1017 63 10000 4.02 300 06:41 30.09.2021
5530 Clouds 16 1017 58 10000 2.06 250 04:36 30.09.2021
5531 Clouds 18 1015 46 10000 2.68 306 00:46 30.09.2021
5532 Clouds 20 1015 44 10000 6.26 302 23:30 29.09.2021
5533 Clear 20 1013 46 10000 8.05 308 21:55 29.09.2021
5534 Clear 20 1014 45 10000 5.36 309 20:57 29.09.2021
5535 Clouds 20 1014 44 10000 5.81 293 20:23 29.09.2021
5536 Clouds 20 1015 44 10000 3.09 310 19:43 29.09.2021
5537 Clouds 19 1015 44 10000 1.54 0 18:25 29.09.2021
5538 Clear 18 1016 46 10000 3.09 0 17:26 29.09.2021
5539 Clear 17 1016 51 10000 1.54 0 16:43 29.09.2021
5540 Clear 15 1016 57 10000 3.6 120 15:48 29.09.2021
5541 Clear 13 1016 67 10000 1.54 0 14:38 29.09.2021
5542 Clear 12 1015 70 10000 0 0 13:40 29.09.2021
5543 Clear 12 1015 68 10000 3.58 311 12:47 29.09.2021
5544 Clear 13 1014 69 10000 5.36 323 11:39 29.09.2021
5545 Clear 13 1013 67 10000 5.36 310 10:39 29.09.2021
5546 Clear 14 1013 67 10000 4.47 326 09:48 29.09.2021
5547 Clear 14 1013 65 10000 4.02 311 08:45 29.09.2021
5548 Clear 16 1013 60 10000 2.06 0 06:55 29.09.2021
5549 Clouds 19 1012 73 10000 2.57 260 03:29 29.09.2021
5550 Clouds 22 1009 73 10000 4.02 290 23:23 28.09.2021
5551 Clouds 22 1009 72 10000 5.14 260 22:22 28.09.2021
5552 Clouds 22 1010 78 10000 4.63 240 21:33 28.09.2021
5553 Clouds 22 1010 80 10000 3.09 0 20:27 28.09.2021
5554 Clouds 20 1011 88 10000 0 0 19:42 28.09.2021
5555 Clouds 19 1011 88 10000 2.06 260 18:44 28.09.2021
5556 Rain 20 1011 78 10000 4.12 270 17:53 28.09.2021
5557 Clear 20 1011 68 10000 3.09 250 15:22 28.09.2021
5558 Clear 18 1010 75 10000 3.6 260 13:38 28.09.2021
5559 Clear 18 1010 75 10000 3.09 240 12:30 28.09.2021
5560 Clear 18 1010 76 10000 3.09 240 12:30 28.09.2021
5561 Clouds 18 1010 75 10000 1.79 194 11:59 28.09.2021
5562 Clouds 18 1010 74 10000 3.09 260 11:40 28.09.2021
5563 Clear 18 1010 73 10000 3.09 220 10:49 28.09.2021
5564 Clear 19 1011 70 10000 4.12 240 09:45 28.09.2021
5565 Clear 19 1011 69 10000 5.14 240 08:49 28.09.2021
5566 Clear 19 1011 68 10000 5.14 240 08:28 28.09.2021
5567 Clear 20 1012 64 10000 5.66 240 06:51 28.09.2021
5568 Clear 21 1012 60 10000 5.14 250 05:27 28.09.2021
5569 Clear 23 1011 49 10000 5.66 240 01:22 28.09.2021
5570 Clear 25 1011 45 10000 8.75 260 00:24 28.09.2021
5571 Clear 26 1012 40 10000 7.2 240 23:31 27.09.2021
5572 Clear 26 1012 39 10000 8.23 240 22:55 27.09.2021
5573 Clear 26 1012 40 10000 7.2 240 21:44 27.09.2021
5574 Clear 26 1013 42 10000 6.69 240 20:44 27.09.2021
5575 Clear 26 1013 45 10000 5.14 260 19:53 27.09.2021
5576 Clear 25 1014 45 10000 5.14 260 19:27 27.09.2021
5577 Clear 24 1014 46 10000 5.14 240 18:48 27.09.2021
5578 Clear 23 1015 49 10000 5.14 250 17:29 27.09.2021
5579 Clear 21 1016 51 10000 5.14 260 16:48 27.09.2021
5580 Clouds 19 1016 56 10000 3.6 260 15:43 27.09.2021
5581 Clouds 19 1016 57 10000 3.6 260 15:18 27.09.2021
5582 Clouds 16 1016 63 10000 3.6 260 13:32 27.09.2021
5583 Clear 15 1015 63 10000 2.57 250 11:31 27.09.2021
5584 Clear 15 1016 63 10000 3.09 260 10:32 27.09.2021
5585 Clouds 16 1015 59 10000 2.06 260 08:50 27.09.2021
5586 Clear 17 1015 56 10000 4.12 270 05:22 27.09.2021
5587 Clear 18 1014 53 10000 3.6 270 03:18 27.09.2021
5588 Clear 22 1012 38 10000 5.81 283 22:33 26.09.2021
5589 Clouds 23 1012 39 10000 2.57 0 21:53 26.09.2021
5590 Clouds 23 1012 38 10000 2.57 0 21:25 26.09.2021
5591 Clouds 22 1012 42 10000 1.54 0 20:22 26.09.2021
5592 Clouds 22 1012 43 10000 2.57 0 19:52 26.09.2021
5593 Clear 21 1013 44 10000 2.06 0 18:46 26.09.2021
5594 Clear 21 1013 47 10000 3.6 240 17:57 26.09.2021
5595 Clear 20 1013 48 10000 3.6 240 17:23 26.09.2021
5596 Clear 20 1013 54 10000 3.6 240 16:54 26.09.2021
5597 Clear 19 1013 57 10000 7.15 289 16:20 26.09.2021
5598 Clear 18 1013 63 10000 2.57 0 15:22 26.09.2021
5599 Clear 16 1012 74 10000 4.92 290 13:57 26.09.2021
5600 Clouds 16 1012 75 10000 5.36 293 13:21 26.09.2021
5601 Clear 16 1011 74 10000 4.92 315 12:25 26.09.2021
5602 Clear 16 1011 74 10000 1.54 0 11:42 26.09.2021
5603 Clear 16 1011 74 10000 1.54 0 11:42 26.09.2021
5604 Clear 16 1011 75 10000 2.57 250 10:37 26.09.2021
5605 Clouds 16 1011 78 10000 2.57 250 09:21 26.09.2021
5606 Clouds 16 1012 78 10000 1.34 283 07:56 26.09.2021
5607 Clear 22 1013 55 10000 2.06 220 00:23 26.09.2021
5608 Clear 22 1013 55 10000 2.06 220 00:23 26.09.2021
5609 Clear 23 1013 51 10000 2.57 220 23:33 25.09.2021
5610 Clear 24 1014 46 10000 4.92 167 22:38 25.09.2021
5611 Clear 24 1014 45 10000 3.09 270 21:56 25.09.2021
5612 Clear 24 1015 43 10000 3.09 270 21:33 25.09.2021
5613 Clear 24 1015 44 10000 2.57 0 20:51 25.09.2021
5614 Clear 24 1016 45 10000 2.57 260 19:32 25.09.2021
5615 Clear 23 1017 46 10000 2.06 0 18:26 25.09.2021
5616 Clear 21 1018 56 10000 1.54 0 16:51 25.09.2021
5617 Clear 16 1018 77 10000 2.06 70 14:24 25.09.2021
5618 Clear 15 1018 79 10000 3.13 5 13:46 25.09.2021
5619 Clear 14 1018 80 10000 2.68 319 12:29 25.09.2021
5620 Clear 14 1018 80 10000 3.13 297 10:36 25.09.2021
5621 Clear 14 1017 84 10000 1.34 300 09:56 25.09.2021
5622 Clear 14 1018 79 10000 1.79 311 08:45 25.09.2021
5623 Clear 15 1018 75 10000 2.68 289 07:27 25.09.2021
5624 Clear 21 1017 50 10000 3.13 269 00:50 25.09.2021
5625 Clear 21 1017 50 10000 3.13 269 00:50 25.09.2021
5626 Clear 23 1016 45 10000 4.63 270 21:57 24.09.2021
5627 Clear 23 1016 43 10000 4.63 270 21:25 24.09.2021
5628 Clear 23 1017 46 10000 2.06 210 20:19 24.09.2021
5629 Clear 21 1018 48 10000 4.63 240 18:36 24.09.2021
5630 Clouds 21 1018 52 10000 4.47 293 17:56 24.09.2021
5631 Clear 20 1018 55 10000 3.6 240 17:38 24.09.2021
5632 Clear 20 1018 56 10000 3.6 240 17:19 24.09.2021
5633 Clouds 17 1018 77 10000 3.09 250 15:38 24.09.2021
5634 Clouds 14 1017 87 10000 2.57 250 13:20 24.09.2021
5635 Clouds 15 1017 88 10000 1.54 0 12:42 24.09.2021
5636 Clouds 15 1017 87 10000 1.54 0 12:24 24.09.2021
5637 Rain 15 1016 93 10000 0 0 10:49 24.09.2021
5638 Rain 16 1016 91 10000 0 0 08:59 24.09.2021
5639 Clouds 17 1015 91 10000 0 0 07:55 24.09.2021
5640 Clouds 18 1015 92 10000 2.06 250 06:57 24.09.2021
5641 Rain 19 1015 89 10000 3.6 250 05:22 24.09.2021
5642 Rain 21 1014 92 10000 3.09 260 02:29 24.09.2021
5643 Clouds 25 1012 79 10000 5.66 120 22:37 23.09.2021
5644 Clouds 25 1012 79 10000 12.52 122 21:58 23.09.2021
5645 Clouds 26 1013 78 10000 5.66 150 20:52 23.09.2021
5646 Clouds 26 1013 74 10000 5.66 150 20:27 23.09.2021
5647 Clouds 26 1013 76 10000 4.63 140 18:27 23.09.2021
5648 Clouds 25 1014 82 10000 4.12 110 15:53 23.09.2021
5649 Clouds 25 1014 82 10000 4.12 110 15:19 23.09.2021
5650 Clouds 24 1014 84 10000 4.63 130 14:24 23.09.2021
5651 Clouds 24 1014 85 10000 5.14 110 13:26 23.09.2021
5652 Clouds 24 1013 87 10000 4.12 80 12:54 23.09.2021
5653 Clouds 24 1013 86 10000 4.12 80 12:26 23.09.2021
5654 Clouds 24 1013 87 10000 8.05 73 11:57 23.09.2021
5655 Clouds 24 1015 83 10000 2.06 0 10:30 23.09.2021
5656 Clouds 23 1014 86 10000 2.57 0 09:54 23.09.2021
5657 Clear 23 1015 84 10000 3.09 0 08:55 23.09.2021
5658 Clouds 23 1016 83 10000 2.57 0 05:32 23.09.2021
5659 Clouds 25 1016 82 10000 5.66 170 23:50 22.09.2021
5660 Clear 26 1016 76 10000 4.63 180 22:50 22.09.2021
5661 Clear 26 1016 74 10000 4.63 180 22:18 22.09.2021
5662 Clouds 27 1017 73 10000 6.17 150 21:42 22.09.2021
5663 Clouds 27 1016 75 10000 9.83 136 20:57 22.09.2021
5664 Clouds 26 1018 75 10000 4.63 130 19:47 22.09.2021
5665 Clouds 26 1019 75 10000 4.63 130 19:26 22.09.2021
5666 Clouds 26 1019 77 10000 5.14 180 18:30 22.09.2021
5667 Clouds 25 1019 82 10000 7.15 132 17:18 22.09.2021
5668 Clouds 24 1020 90 10000 2.57 190 15:38 22.09.2021
5669 Clouds 23 1020 92 10000 2.57 200 14:27 22.09.2021
5670 Clouds 22 1021 91 10000 1.54 0 12:55 22.09.2021
5671 Clouds 22 1021 91 10000 0 0 11:20 22.09.2021
5672 Clouds 22 1022 91 10000 2.06 160 09:30 22.09.2021
5673 Mist 22 1022 91 10000 1.54 0 08:44 22.09.2021
5674 Mist 22 1023 91 10000 0 0 07:33 22.09.2021
5675 Mist 22 1024 91 10000 1.54 0 06:31 22.09.2021
5676 Mist 21 1024 90 10000 3.6 50 05:48 22.09.2021
5677 Rain 21 1025 88 6437 1.54 20 04:20 22.09.2021
5678 Mist 22 1025 84 8047 4.12 40 03:23 22.09.2021
5679 Clouds 23 1025 75 10000 3.6 150 23:54 21.09.2021
5680 Clear 24 1026 68 10000 2.06 130 22:26 21.09.2021
5681 Clouds 24 1027 65 10000 3.13 122 20:58 21.09.2021
5682 Haze 24 1028 64 8047 5.66 250 19:37 21.09.2021
5683 Clouds 24 1028 65 10000 3.13 129 19:18 21.09.2021
5684 Clouds 22 1028 68 10000 2.57 70 16:48 21.09.2021
5685 Clouds 21 1028 73 10000 4.02 62 15:57 21.09.2021
5686 Clouds 20 1028 74 10000 3.6 90 15:24 21.09.2021
5687 Clouds 19 1028 78 10000 3.6 50 14:43 21.09.2021
5688 Clouds 17 1028 79 10000 3.6 40 13:40 21.09.2021
5689 Clouds 16 1027 80 10000 3.09 40 12:45 21.09.2021
5690 Clear 17 1027 74 10000 2.57 40 10:51 21.09.2021
5691 Clear 18 1028 70 10000 2.57 40 09:54 21.09.2021
5692 Clear 19 1028 68 10000 2.57 120 07:47 21.09.2021
5693 Clouds 19 1028 67 10000 3.09 120 06:18 21.09.2021
5694 Haze 24 1028 60 2012 4.12 10 23:58 20.09.2021
5695 Clouds 25 1028 50 10000 4.12 140 21:58 20.09.2021
5696 Clouds 24 1027 53 10000 4.12 140 21:32 20.09.2021
5697 Clouds 24 1027 57 10000 2.06 0 20:27 20.09.2021
5698 Clouds 24 1027 62 10000 2.57 180 19:24 20.09.2021
5699 Clouds 23 1028 64 10000 2.06 250 17:39 20.09.2021
5700 Clouds 21 1027 68 10000 2.06 270 16:27 20.09.2021
5701 Clear 21 1027 73 10000 0 0 15:47 20.09.2021
5702 Clear 19 1027 75 10000 0 0 15:18 20.09.2021
5703 Clear 17 1026 80 10000 2.06 270 13:42 20.09.2021
5704 Clear 15 1025 81 10000 2.24 305 12:34 20.09.2021
5705 Clear 15 1025 80 10000 1.79 289 11:19 20.09.2021
5706 Clear 15 1024 78 10000 1.79 294 09:55 20.09.2021
5707 Clear 16 1024 77 10000 1.79 277 09:34 20.09.2021
5708 Clear 15 1024 77 10000 1.34 288 08:56 20.09.2021
5709 Clear 17 1024 73 10000 0.89 284 06:51 20.09.2021
5710 Clear 24 1021 44 10000 3.58 15 23:45 19.09.2021
5711 Clear 25 1021 44 10000 3.13 14 22:21 19.09.2021
5712 Clear 25 1021 43 10000 1.54 0 21:39 19.09.2021
5713 Clear 24 1021 45 10000 2.06 0 20:34 19.09.2021
5714 Clear 24 1022 47 10000 2.06 0 19:18 19.09.2021
5715 Clear 23 1022 50 10000 2.57 240 18:26 19.09.2021
5716 Clear 22 1022 52 10000 2.57 0 17:22 19.09.2021
5717 Clear 21 1021 63 10000 2.06 50 15:55 19.09.2021
5718 Clear 21 1021 63 10000 2.06 50 15:55 19.09.2021
5719 Clear 19 1021 71 10000 1.54 0 14:51 19.09.2021
5720 Clear 19 1021 73 10000 1.54 0 14:30 19.09.2021
5721 Clear 17 1020 77 10000 2.06 0 13:21 19.09.2021
5722 Clear 18 1020 75 10000 2.06 0 12:50 19.09.2021
5723 Clear 19 1019 74 10000 1.54 0 11:27 19.09.2021
5724 Clear 19 1019 75 10000 2.06 0 10:35 19.09.2021
5725 Clear 20 1018 75 10000 2.57 0 09:39 19.09.2021
5726 Clouds 21 1018 75 10000 3.6 60 08:31 19.09.2021
5727 Clear 23 1017 71 10000 0 0 05:55 19.09.2021
5728 Clouds 28 1015 58 10000 3.09 0 23:37 18.09.2021
5729 Clouds 29 1016 59 10000 8.75 260 21:59 18.09.2021
5730 Clear 29 1016 59 10000 1.54 0 20:51 18.09.2021
5731 Clear 29 1017 60 10000 1.54 0 20:31 18.09.2021
5732 Clouds 28 1017 63 10000 2.06 0 19:39 18.09.2021
5733 Clouds 28 1017 63 10000 2.06 0 19:20 18.09.2021
5734 Clouds 27 1018 67 10000 1.54 0 18:32 18.09.2021
5735 Clear 26 1018 71 10000 2.06 0 17:31 18.09.2021
5736 Clouds 24 1018 76 10000 1.54 0 16:18 18.09.2021
5737 Clouds 21 1019 88 10000 3.58 310 13:49 18.09.2021
5738 Clouds 20 1019 89 10000 3.58 314 13:29 18.09.2021
5739 Clouds 20 1019 88 10000 0 0 12:49 18.09.2021
5740 Clouds 20 1019 87 10000 4.02 317 11:41 18.09.2021
5741 Clouds 21 1019 88 10000 3.13 309 10:32 18.09.2021
5742 Clouds 21 1019 88 10000 3.09 60 09:28 18.09.2021
5743 Clouds 21 1019 88 10000 4.12 40 08:57 18.09.2021
5744 Clouds 22 1020 89 10000 3.58 29 05:49 18.09.2021
5745 Clouds 23 1020 88 10000 4.47 23 00:41 18.09.2021
5746 Clouds 23 1021 86 10000 4.92 45 23:49 17.09.2021
5747 Clouds 23 1021 85 10000 2.68 346 22:38 17.09.2021
5748 Clouds 23 1021 85 10000 1.79 352 22:19 17.09.2021
5749 Clouds 23 1022 82 10000 5.66 30 20:51 17.09.2021
5750 Clouds 23 1024 82 10000 5.66 50 19:22 17.09.2021
5751 Clouds 22 1024 86 10000 6.17 40 17:21 17.09.2021
5752 Drizzle 21 1024 88 10000 6.17 30 16:27 17.09.2021
5753 Mist 21 1024 91 10000 6.69 30 13:29 17.09.2021
5754 Clouds 21 1023 89 10000 4.63 50 10:53 17.09.2021
5755 Clouds 22 1023 87 10000 4.63 40 08:52 17.09.2021
5756 Clouds 22 1024 88 10000 5.14 30 07:19 17.09.2021
5757 Clouds 22 1024 84 10000 4.12 50 03:54 17.09.2021
5758 Clouds 24 1023 76 10000 5.66 40 23:25 16.09.2021
5759 Clouds 24 1022 71 10000 6.69 40 22:28 16.09.2021
5760 Clouds 24 1021 71 10000 6.17 50 21:51 16.09.2021
5761 Clouds 25 1022 66 10000 6.17 50 21:24 16.09.2021
5762 Clouds 25 1023 67 10000 6.69 40 20:18 16.09.2021
5763 Clouds 24 1023 69 10000 5.14 70 18:21 16.09.2021
5764 Clouds 24 1023 72 10000 4.47 13 17:33 16.09.2021
5765 Clouds 22 1021 78 10000 5.36 19 14:58 16.09.2021
5766 Clouds 22 1021 78 10000 5.14 40 14:24 16.09.2021
5767 Clouds 21 1020 78 10000 1.34 349 12:51 16.09.2021
5768 Clouds 21 1020 77 10000 4.92 359 12:29 16.09.2021
5769 Clouds 22 1019 74 10000 5.14 50 11:28 16.09.2021
5770 Clouds 22 1019 75 10000 3.09 40 10:33 16.09.2021
5771 Clouds 22 1018 77 10000 6.26 5 09:58 16.09.2021
5772 Clear 22 1018 77 10000 2.57 40 08:42 16.09.2021
5773 Clear 23 1018 76 10000 0 0 07:36 16.09.2021
5774 Clear 23 1018 77 10000 2.24 327 06:47 16.09.2021
5775 Clouds 23 1017 74 10000 2.57 40 05:40 16.09.2021
5776 Clouds 25 1015 77 10000 4.92 160 01:56 16.09.2021
5777 Clouds 28 1014 65 10000 3.6 230 00:37 16.09.2021
5778 Clouds 29 1013 58 10000 4.12 250 22:47 15.09.2021
5779 Clear 30 1013 56 10000 4.12 230 21:48 15.09.2021
5780 Clear 30 1013 56 10000 4.12 230 21:29 15.09.2021
5781 Clear 30 1014 60 10000 4.12 210 20:22 15.09.2021
5782 Clear 30 1015 64 10000 3.6 220 19:28 15.09.2021
5783 Clear 29 1015 68 10000 3.09 220 18:23 15.09.2021
5784 Clear 27 1016 72 10000 2.06 230 17:23 15.09.2021
5785 Clouds 26 1015 78 10000 1.54 230 16:20 15.09.2021
5786 Mist 23 1015 89 10000 1.54 260 14:45 15.09.2021
5787 Mist 23 1015 88 10000 1.54 260 14:24 15.09.2021
5788 Mist 22 1015 90 10000 1.54 260 13:39 15.09.2021
5789 Mist 22 1015 90 10000 1.54 260 13:21 15.09.2021
5790 Clouds 22 1015 90 10000 1.54 260 12:21 15.09.2021
5791 Clouds 22 1015 89 10000 1.54 240 11:41 15.09.2021
5792 Clouds 22 1015 89 10000 3.13 150 10:56 15.09.2021
5793 Clear 22 1015 88 10000 1.54 260 09:31 15.09.2021
5794 Clear 22 1015 89 10000 0 0 08:41 15.09.2021
5795 Clear 22 1016 89 10000 0 0 05:54 15.09.2021
5796 Clouds 25 1015 74 10000 4.92 126 23:56 14.09.2021
5797 Clouds 26 1017 65 10000 4.12 160 21:58 14.09.2021
5798 Clouds 26 1017 63 10000 4.92 122 20:56 14.09.2021
5799 Clear 27 1019 62 10000 2.57 0 19:54 14.09.2021
5800 Clear 26 1018 62 10000 3.09 250 18:24 14.09.2021
5801 Clear 25 1019 65 10000 2.57 260 17:28 14.09.2021
5802 Clouds 23 1019 72 10000 0.89 193 15:58 14.09.2021
5803 Fog 20 1019 84 10000 3.09 40 14:32 14.09.2021
5804 Fog 21 1019 83 10000 3.09 40 14:32 14.09.2021
5805 Clear 19 1019 86 10000 0 0 13:20 14.09.2021
5806 Clouds 19 1017 89 10000 0.89 268 10:57 14.09.2021
5807 Clouds 20 1018 89 10000 1.34 320 09:51 14.09.2021
5808 Clear 20 1018 88 10000 1.34 291 09:18 14.09.2021
5809 Clouds 20 1018 90 10000 2.06 260 07:25 14.09.2021
5810 Clouds 27 1016 62 10000 0 0 00:53 14.09.2021
5811 Clouds 29 1015 58 10000 2.57 260 22:58 13.09.2021
5812 Clouds 29 1015 55 10000 2.57 260 22:26 13.09.2021
5813 Clouds 29 1015 56 10000 1.54 0 21:54 13.09.2021
5814 Clouds 29 1016 58 10000 7.6 288 20:58 13.09.2021
5815 Clear 29 1016 58 10000 0 0 19:29 13.09.2021
5816 Clear 28 1017 60 10000 2.06 0 18:43 13.09.2021
5817 Clouds 27 1017 63 10000 7.6 309 16:58 13.09.2021
5818 Clear 26 1017 68 10000 3.6 260 15:50 13.09.2021
5819 Clear 23 1016 78 10000 3.6 260 13:36 13.09.2021
5820 Clouds 23 1015 79 10000 3.09 260 11:21 13.09.2021
5821 Clear 23 1016 78 10000 5.14 270 09:54 13.09.2021
5822 Clouds 24 1016 71 10000 5.14 260 07:30 13.09.2021
5823 Clear 28 1016 59 10000 6.17 270 23:50 12.09.2021
5824 Clear 28 1016 57 10000 5.66 250 22:26 12.09.2021
5825 Clear 28 1017 56 10000 6.17 260 21:43 12.09.2021
5826 Smoke 28 1017 57 10000 6.17 240 20:41 12.09.2021
5827 Smoke 27 1018 58 10000 6.69 240 19:54 12.09.2021
5828 Smoke 27 1018 59 10000 6.69 240 19:54 12.09.2021
5829 Smoke 27 1018 59 10000 6.69 240 19:28 12.09.2021
5830 Smoke 26 1018 61 10000 6.69 240 18:31 12.09.2021
5831 Smoke 23 1020 70 10000 5.66 250 16:42 12.09.2021
5832 Clear 20 1020 80 10000 4.63 250 14:59 12.09.2021
5833 Clear 19 1020 81 10000 5.14 240 13:55 12.09.2021
5834 Clear 18 1020 79 10000 5.66 250 11:47 12.09.2021
5835 Clear 19 1020 77 10000 6.17 240 10:18 12.09.2021
5836 Clear 19 1021 74 10000 5.66 250 08:38 12.09.2021
5837 Clear 21 1020 58 10000 3.6 270 02:56 12.09.2021
5838 Clear 24 1020 47 10000 4.02 264 00:44 12.09.2021
5839 Clouds 25 1020 44 10000 4.12 260 22:29 11.09.2021
5840 Clouds 25 1020 49 10000 5.66 240 21:37 11.09.2021
5841 Clouds 25 1022 49 10000 4.63 210 19:33 11.09.2021
5842 Clear 24 1023 49 10000 3.58 164 17:56 11.09.2021
5843 Clear 22 1023 53 10000 3.09 0 16:24 11.09.2021
5844 Clear 17 1022 71 10000 2.06 260 14:27 11.09.2021
5845 Clear 14 1022 77 10000 1.79 297 13:22 11.09.2021
5846 Clear 14 1021 75 10000 1.34 264 11:35 11.09.2021
5847 Clear 15 1020 70 10000 2.06 260 09:42 11.09.2021
5848 Clear 15 1020 68 10000 1.34 262 08:21 11.09.2021
5849 Clear 15 1019 67 10000 0.89 288 07:34 11.09.2021
5850 Clear 21 1015 44 10000 6.71 298 01:23 11.09.2021
5851 Clouds 24 1013 42 10000 8.49 286 22:27 10.09.2021
5852 Clear 24 1012 43 10000 9.39 314 21:56 10.09.2021
5853 Clear 23 1012 44 10000 0 0 20:41 10.09.2021
5854 Clouds 22 1012 51 10000 1.54 0 18:43 10.09.2021
5855 Clear 21 1012 55 10000 1.54 0 17:33 10.09.2021
5856 Clear 20 1012 67 10000 2.06 0 15:37 10.09.2021
5857 Clear 17 1011 78 10000 1.54 190 13:18 10.09.2021
5858 Clear 18 1009 79 10000 0 0 10:32 10.09.2021
5859 Clouds 19 1008 81 10000 2.24 297 07:51 10.09.2021
5860 Clear 20 1008 84 10000 1.79 286 04:33 10.09.2021
5861 Clouds 22 1007 84 10000 1.54 0 23:24 09.09.2021
5862 Clouds 22 1007 88 10000 1.54 250 21:47 09.09.2021
5863 Mist 22 1009 85 10000 1.54 0 20:47 09.09.2021
5864 Mist 22 1008 85 10000 2.06 240 20:23 09.09.2021
5865 Mist 22 1008 85 10000 2.06 240 20:23 09.09.2021
5866 Clouds 22 1008 86 10000 2.57 240 18:37 09.09.2021
5867 Rain 21 1010 93 10000 2.57 250 16:45 09.09.2021
5868 Rain 21 1010 90 10000 3.09 250 16:26 09.09.2021
5869 Clouds 20 1009 89 10000 2.06 260 13:35 09.09.2021
5870 Clear 20 1008 84 10000 2.57 60 11:50 09.09.2021
5871 Clear 21 1008 83 10000 0 0 10:48 09.09.2021
5872 Clouds 22 1008 83 10000 1.54 190 09:27 09.09.2021
5873 Clouds 23 1008 79 10000 2.06 0 06:55 09.09.2021
5874 Clear 24 1009 80 10000 2.57 230 04:18 09.09.2021
5875 Clear 27 1009 74 10000 7.72 170 22:58 08.09.2021
5876 Clouds 28 1009 66 10000 4.63 190 21:47 08.09.2021
5877 Clouds 28 1010 66 10000 5.14 190 20:21 08.09.2021
5878 Clouds 28 1011 64 10000 3.6 190 19:37 08.09.2021
5879 Clouds 27 1011 67 10000 3.09 0 18:33 08.09.2021
5880 Clouds 26 1012 71 10000 3.6 210 17:58 08.09.2021
5881 Clouds 26 1012 70 10000 3.6 210 17:39 08.09.2021
5882 Clear 23 1013 78 10000 3.6 240 14:50 08.09.2021
5883 Clear 20 1013 79 10000 3.09 240 13:21 08.09.2021
5884 Clear 20 1012 78 10000 2.57 230 12:41 08.09.2021
5885 Clear 20 1012 78 10000 2.57 230 12:41 08.09.2021
5886 Clear 20 1012 78 10000 2.57 230 12:19 08.09.2021
5887 Clear 20 1012 77 10000 2.24 218 10:59 08.09.2021
5888 Clear 20 1012 76 10000 3.6 240 10:27 08.09.2021
5889 Clouds 21 1013 75 10000 3.6 260 09:36 08.09.2021
5890 Clear 21 1013 75 10000 2.06 260 07:43 08.09.2021
5891 Clear 21 1014 75 10000 3.09 270 05:46 08.09.2021
5892 Clear 27 1013 46 10000 3.09 210 23:18 07.09.2021
5893 Clear 27 1013 43 10000 3.09 240 22:19 07.09.2021
5894 Clear 27 1014 41 10000 3.09 240 22:19 07.09.2021
5895 Clear 27 1014 43 10000 2.57 190 20:37 07.09.2021
5896 Clear 25 1015 46 10000 2.06 190 18:49 07.09.2021
5897 Clear 25 1016 47 10000 2.06 190 18:24 07.09.2021
5898 Clear 24 1015 53 10000 1.34 130 16:59 07.09.2021
5899 Clear 22 1015 59 10000 1.54 300 15:55 07.09.2021
5900 Clear 20 1016 65 10000 1.54 260 14:47 07.09.2021
5901 Clear 17 1015 74 10000 0.89 283 13:29 07.09.2021
5902 Clear 16 1015 79 10000 1.79 277 11:58 07.09.2021
5903 Clear 17 1014 76 10000 0.89 261 10:45 07.09.2021
5904 Clear 18 1013 72 10000 0.89 290 08:47 07.09.2021
5905 Clear 19 1013 70 10000 2.24 314 07:45 07.09.2021
5906 Clouds 20 1013 66 10000 0 0 05:47 07.09.2021
5907 Clouds 23 1010 54 10000 2.06 330 02:38 07.09.2021
5908 Clouds 26 1009 43 10000 7.6 272 00:55 07.09.2021
5909 Clouds 27 1008 38 10000 4.63 260 23:43 06.09.2021
5910 Clouds 28 1008 39 10000 4.63 260 23:21 06.09.2021
5911 Clouds 28 1008 40 10000 5.66 250 22:46 06.09.2021
5912 Clouds 28 1007 43 10000 6.69 260 21:52 06.09.2021
5913 Clouds 28 1009 44 10000 6.17 250 19:44 06.09.2021
5914 Clouds 28 1009 45 10000 6.17 250 19:18 06.09.2021
5915 Clear 27 1010 47 10000 5.66 260 18:33 06.09.2021
5916 Clear 26 1010 56 10000 2.57 230 17:37 06.09.2021
5917 Clouds 24 1010 71 10000 1.54 0 16:19 06.09.2021
5918 Clouds 24 1010 70 10000 1.54 0 16:19 06.09.2021
5919 Clouds 21 1009 88 10000 2.06 250 14:37 06.09.2021
5920 Clouds 21 1009 90 10000 2.06 260 12:48 06.09.2021
5921 Clouds 21 1009 89 10000 3.6 260 11:43 06.09.2021
5922 Clouds 21 1009 88 10000 1.79 245 09:59 06.09.2021
5923 Clouds 21 1009 86 10000 3.09 260 07:35 06.09.2021
5924 Clouds 22 1009 80 10000 6.17 240 02:54 06.09.2021
5925 Clouds 23 1009 77 10000 3.6 230 23:20 05.09.2021
5926 Clouds 23 1009 78 10000 2.06 220 22:32 05.09.2021
5927 Clouds 23 1010 79 10000 2.57 240 21:55 05.09.2021
5928 Clouds 23 1010 78 10000 2.57 240 21:19 05.09.2021
5929 Clouds 22 1011 80 10000 2.57 230 19:30 05.09.2021
5930 Clouds 23 1011 77 10000 3.6 210 17:51 05.09.2021
5931 Clouds 22 1012 74 10000 2.06 210 15:43 05.09.2021
5932 Clouds 21 1012 74 10000 2.06 210 15:19 05.09.2021
5933 Clear 18 1013 81 10000 2.57 0 12:44 05.09.2021
5934 Clear 18 1013 79 10000 3.6 240 11:31 05.09.2021
5935 Clear 18 1013 79 10000 2.06 220 10:39 05.09.2021
5936 Clear 18 1013 76 10000 3.09 270 09:33 05.09.2021
5937 Clear 18 1013 75 10000 1.54 210 08:31 05.09.2021
5938 Clear 20 1015 69 10000 4.47 178 03:52 05.09.2021
5939 Clear 24 1014 57 10000 3.09 200 00:39 05.09.2021
5940 Clear 25 1013 55 10000 3.09 210 23:55 04.09.2021
5941 Clear 25 1014 50 10000 3.09 210 23:22 04.09.2021
5942 Clear 26 1014 47 10000 2.57 210 22:34 04.09.2021
5943 Clear 26 1014 47 10000 2.57 210 22:34 04.09.2021
5944 Clear 25 1016 46 10000 3.09 210 20:21 04.09.2021
5945 Clear 25 1016 48 10000 1.54 0 19:33 04.09.2021
5946 Clear 23 1017 56 10000 3.09 250 17:25 04.09.2021
5947 Clear 18 1018 74 10000 0 0 14:37 04.09.2021
5948 Clear 15 1017 78 10000 2.24 282 11:26 04.09.2021
5949 Clear 15 1017 77 10000 1.79 317 10:32 04.09.2021
5950 Clear 16 1018 73 10000 3.58 343 07:43 04.09.2021
5951 Clouds 22 1016 52 10000 4.02 295 00:50 04.09.2021
5952 Clouds 23 1016 51 10000 6.26 281 23:49 03.09.2021
5953 Clouds 23 1016 51 10000 4.47 310 23:20 03.09.2021
5954 Clouds 23 1016 51 10000 3.09 260 21:43 03.09.2021
5955 Clouds 23 1016 53 10000 5.36 300 20:58 03.09.2021
5956 Clouds 23 1016 52 10000 3.6 260 20:28 03.09.2021
5957 Clouds 22 1017 53 10000 3.6 270 19:35 03.09.2021
5958 Clear 22 1017 56 10000 4.12 80 18:27 03.09.2021
5959 Clear 20 1017 61 10000 2.06 0 16:50 03.09.2021
5960 Clear 18 1017 67 10000 2.57 260 15:39 03.09.2021
5961 Clear 16 1017 72 10000 2.06 0 14:28 03.09.2021
5962 Clear 16 1017 72 10000 2.06 0 14:28 03.09.2021
5963 Clouds 14 1016 78 10000 3.58 306 11:21 03.09.2021
5964 Clear 15 1016 75 10000 2.68 289 09:55 03.09.2021
5965 Clear 16 1016 69 10000 3.58 305 08:22 03.09.2021
5966 Clear 17 1016 62 10000 1.54 0 06:50 03.09.2021
5967 Clouds 23 1012 47 10000 8.05 290 23:56 02.09.2021
5968 Clear 25 1011 43 10000 6.26 283 22:21 02.09.2021
5969 Clear 25 1011 43 10000 2.06 0 20:51 02.09.2021
5970 Clear 23 1011 48 10000 0.89 293 18:49 02.09.2021
5971 Clear 21 1010 61 10000 0.89 299 16:39 02.09.2021
5972 Clear 19 1009 68 10000 1.34 312 15:31 02.09.2021
5973 Clouds 16 1007 76 10000 0.89 282 13:33 02.09.2021
5974 Clouds 16 1005 84 10000 1.34 314 11:44 02.09.2021
5975 Clouds 16 1005 85 10000 1.34 274 11:18 02.09.2021
5976 Clouds 17 1002 90 10000 1.34 276 09:19 02.09.2021
5977 Rain 17 1001 93 8047 1.79 293 07:36 02.09.2021
5978 Rain 18 1000 94 4023 1.34 290 05:53 02.09.2021
5979 Thunderstorm 21 999 95 3219 9.77 30 02:37 02.09.2021
5980 Rain 21 1003 93 4023 9.26 40 01:49 02.09.2021
5981 Rain 21 1005 87 9656 0.89 81 23:41 01.09.2021
5982 Rain 21 1006 87 10000 1.34 40 23:23 01.09.2021
5983 Clouds 22 1006 85 10000 1.34 111 22:30 01.09.2021
5984 Clouds 22 1006 84 10000 0.89 120 21:32 01.09.2021
5985 Clouds 22 1008 83 10000 0.89 84 19:37 01.09.2021
5986 Clouds 22 1008 85 10000 0.89 129 17:55 01.09.2021
5987 Clouds 21 1009 87 10000 0.45 88 16:59 01.09.2021
5988 Mist 21 1009 88 10000 0.45 45 16:36 01.09.2021
5989 Rain 21 1009 87 10000 0.45 103 14:59 01.09.2021
5990 Rain 22 1009 83 10000 0 0 11:47 01.09.2021
5991 Clouds 23 1008 78 10000 1.34 316 10:39 01.09.2021
5992 Clouds 23 1008 70 10000 0 0 08:42 01.09.2021
5993 Clouds 24 1009 69 10000 0.89 236 06:59 01.09.2021
5994 Clear 28 1008 48 10000 0.45 305 23:33 31.08.2021
5995 Clear 28 1008 45 10000 5.81 302 22:23 31.08.2021
5996 Clear 29 1008 48 10000 5.14 260 20:34 31.08.2021
5997 Clouds 29 1008 48 10000 0.45 308 19:43 31.08.2021
5998 Clear 28 1010 59 10000 1.54 0 17:53 31.08.2021
5999 Clear 28 1009 60 10000 0.45 343 17:26 31.08.2021
6000 Clear 27 1009 64 10000 0.45 259 16:41 31.08.2021
6001 Clear 25 1009 75 10000 0.45 337 15:39 31.08.2021
6002 Clouds 22 1011 85 10000 0.45 360 12:54 31.08.2021
6003 Clear 22 1009 86 10000 0 0 11:20 31.08.2021
6004 Clear 23 1008 85 10000 2.24 304 10:44 31.08.2021
6005 Clear 23 1008 84 10000 1.54 250 09:42 31.08.2021
6006 Clouds 24 1008 83 10000 0.45 249 07:57 31.08.2021
6007 Clouds 24 1008 82 10000 0.89 291 05:57 31.08.2021
6008 Clear 29 1008 71 10000 0.45 99 23:37 30.08.2021
6009 Clear 30 1009 68 10000 0.89 96 22:54 30.08.2021
6010 Clouds 30 1010 66 10000 0.89 117 21:41 30.08.2021
6011 Clouds 30 1011 70 10000 3.6 210 20:42 30.08.2021
6012 Clouds 29 1012 72 10000 0.45 104 19:54 30.08.2021
6013 Clouds 29 1012 72 10000 2.57 220 19:28 30.08.2021
6014 Clouds 28 1013 74 10000 0.45 21 18:18 30.08.2021
6015 Clouds 26 1013 83 10000 0.45 110 16:32 30.08.2021
6016 Mist 24 1014 87 10000 0.45 269 15:50 30.08.2021
6017 Mist 23 1014 91 10000 0.45 54 14:37 30.08.2021
6018 Mist 23 1015 92 9656 1.54 210 13:22 30.08.2021
6019 Mist 22 1015 93 10000 3.09 260 11:48 30.08.2021
6020 Mist 22 1017 91 10000 1.54 250 08:23 30.08.2021
6021 Clouds 24 1020 78 10000 0 0 22:18 29.08.2021
6022 Clouds 24 1020 77 10000 0.45 111 21:25 29.08.2021
6023 Clouds 23 1022 79 10000 0.45 299 19:32 29.08.2021
6024 Clouds 22 1023 81 10000 0.45 258 18:30 29.08.2021
6025 Clouds 20 1024 83 10000 0.45 116 16:25 29.08.2021
6026 Clouds 20 1024 83 10000 0.45 116 16:25 29.08.2021
6027 Clouds 20 1023 82 10000 0.89 97 14:34 29.08.2021
6028 Clouds 20 1023 81 10000 0.45 95 13:57 29.08.2021
6029 Clouds 20 1023 78 10000 0.45 64 12:58 29.08.2021
6030 Clouds 20 1023 76 10000 0.45 49 12:19 29.08.2021
6031 Clouds 20 1023 76 10000 0.89 126 11:41 29.08.2021
6032 Clouds 20 1023 75 10000 0.89 217 10:49 29.08.2021
6033 Clouds 20 1023 75 10000 0.45 88 10:30 29.08.2021
6034 Clouds 20 1024 74 10000 0.89 87 09:35 29.08.2021
6035 Clouds 21 1025 77 10000 0.89 72 04:39 29.08.2021
6036 Clouds 23 1023 70 10000 6.68 109 22:58 28.08.2021
6037 Clouds 24 1024 67 10000 0.89 101 20:34 28.08.2021
6038 Clouds 24 1025 69 10000 0.89 87 19:36 28.08.2021
6039 Clouds 24 1024 68 10000 1.34 110 18:27 28.08.2021
6040 Clouds 23 1024 69 10000 1.34 84 17:47 28.08.2021
6041 Clouds 23 1024 73 10000 0.89 119 16:56 28.08.2021
6042 Clouds 22 1023 80 10000 1.34 124 15:20 28.08.2021
6043 Clouds 22 1022 84 6437 1.79 91 13:59 28.08.2021
6044 Clouds 22 1022 84 6437 1.79 80 13:41 28.08.2021
6045 Rain 23 1021 85 10000 2.24 92 12:35 28.08.2021
6046 Clouds 24 1021 84 10000 0.89 160 11:40 28.08.2021
6047 Clouds 25 1020 82 10000 0.89 196 10:18 28.08.2021
6048 Clouds 25 1022 83 10000 0.89 5 07:57 28.08.2021
6049 Clear 26 1019 77 10000 0 0 02:36 28.08.2021
6050 Clear 33 1016 52 10000 0.45 284 21:45 27.08.2021
6051 Clear 34 1019 52 10000 0.45 3 20:53 27.08.2021
6052 Clear 33 1018 54 10000 3.6 240 19:57 27.08.2021
6053 Clear 33 1018 55 10000 0.45 315 18:39 27.08.2021
6054 Clear 32 1019 57 10000 0.89 322 17:54 27.08.2021
6055 Clear 31 1019 62 10000 0.89 286 16:46 27.08.2021
6056 Clear 28 1018 70 10000 0 0 15:21 27.08.2021
6057 Clear 26 1019 76 10000 0 0 14:36 27.08.2021
6058 Clear 24 1018 84 10000 2.57 260 12:28 27.08.2021
6059 Clear 25 1018 84 10000 2.57 270 11:23 27.08.2021
6060 Clear 25 1018 83 10000 2.06 270 10:41 27.08.2021
6061 Clear 25 1018 81 10000 1.54 250 09:19 27.08.2021
6062 Clear 25 1018 79 10000 0 0 08:38 27.08.2021
6063 Clear 27 1018 75 10000 2.57 190 05:51 27.08.2021
6064 Clear 30 1017 67 10000 0.45 3 00:49 27.08.2021
6065 Clear 30 1018 65 10000 0.45 102 00:28 27.08.2021
6066 Clear 33 1018 57 10000 0.89 105 22:28 26.08.2021
6067 Clouds 33 1019 57 10000 0.89 100 21:57 26.08.2021
6068 Clear 34 1019 52 10000 0.45 107 19:53 26.08.2021
6069 Clear 33 1020 54 10000 0.45 60 18:36 26.08.2021
6070 Clear 32 1021 56 10000 0.45 341 17:28 26.08.2021
6071 Clear 30 1020 62 10000 2.06 250 16:31 26.08.2021
6072 Clear 29 1020 67 10000 0.45 92 15:37 26.08.2021
6073 Clear 24 1020 79 10000 2.57 260 13:27 26.08.2021
6074 Clouds 23 1020 80 10000 0.89 284 12:47 26.08.2021
6075 Clear 24 1019 79 10000 1.54 220 11:49 26.08.2021
6076 Clear 24 1019 78 10000 0 0 09:30 26.08.2021
6077 Clear 25 1018 79 10000 1.54 210 08:27 26.08.2021
6078 Clear 31 1018 56 10000 0.45 103 00:46 26.08.2021
6079 Clear 33 1018 48 10000 2.57 0 22:46 25.08.2021
6080 Clear 33 1019 48 10000 0.45 67 22:26 25.08.2021
6081 Clouds 33 1018 47 10000 0.45 252 20:58 25.08.2021
6082 Clear 33 1019 46 10000 0.45 353 20:31 25.08.2021
6083 Clear 33 1019 47 10000 1.54 240 19:55 25.08.2021
6084 Clear 31 1020 48 10000 2.06 260 18:18 25.08.2021
6085 Clear 29 1020 59 10000 0.45 332 16:31 25.08.2021
6086 Clear 27 1020 66 10000 3.09 270 15:41 25.08.2021
6087 Clear 25 1020 71 10000 2.06 30 14:47 25.08.2021
6088 Clear 23 1020 76 10000 2.24 262 13:58 25.08.2021
6089 Clear 21 1019 85 10000 1.88 338 12:53 25.08.2021
6090 Clear 21 1018 82 10000 1.79 297 11:25 25.08.2021
6091 Clear 22 1018 77 10000 0.89 276 10:26 25.08.2021
6092 Clear 22 1018 77 10000 0.89 276 10:26 25.08.2021
6093 Clouds 22 1018 76 10000 0.89 284 09:42 25.08.2021
6094 Clear 22 1017 76 10000 1.79 293 08:39 25.08.2021
6095 Clear 23 1017 76 10000 0.45 282 07:43 25.08.2021
6096 Clear 30 1014 48 10000 0.45 300 01:26 25.08.2021
6097 Clear 32 1014 43 10000 0.89 284 23:40 24.08.2021
6098 Clear 32 1014 44 10000 2.57 250 21:41 24.08.2021
6099 Clouds 32 1014 47 10000 0.89 294 20:23 24.08.2021
6100 Clear 32 1014 48 10000 0.45 306 19:44 24.08.2021
6101 Clouds 30 1014 54 10000 0.89 273 17:56 24.08.2021
6102 Clear 30 1014 56 10000 0.45 310 17:22 24.08.2021
6103 Clear 29 1014 62 10000 0.45 320 16:38 24.08.2021
6104 Clear 25 1013 80 10000 0.45 53 14:24 24.08.2021
6105 Clear 23 1013 86 10000 2.06 250 13:23 24.08.2021
6106 Clear 22 1011 86 10000 2.57 260 11:25 24.08.2021
6107 Clear 22 1011 85 10000 2.06 260 10:47 24.08.2021
6108 Clear 22 1011 85 10000 2.06 260 10:25 24.08.2021
6109 Clear 23 1011 82 10000 1.79 287 08:46 24.08.2021
6110 Clear 23 1010 82 10000 1.54 0 06:35 24.08.2021
6111 Clear 24 1010 78 10000 0.45 308 03:59 24.08.2021
6112 Clouds 28 1008 66 10000 0.45 17 00:01 24.08.2021
6113 Clouds 28 1007 64 10000 1.34 320 22:51 23.08.2021
6114 Clouds 28 1007 67 10000 0.89 306 21:54 23.08.2021
6115 Mist 27 1007 76 10000 0.45 127 20:27 23.08.2021
6116 Mist 26 1007 85 10000 0.45 333 18:47 23.08.2021
6117 Mist 24 1008 91 10000 0.45 49 16:35 23.08.2021
6118 Rain 22 1007 95 6437 0.45 336 13:58 23.08.2021
6119 Rain 22 1006 95 6437 0.89 94 12:35 23.08.2021
6120 Rain 22 1007 94 10000 0.89 81 11:48 23.08.2021
6121 Rain 22 1007 94 10000 0.45 5 10:37 23.08.2021
6122 Rain 22 1007 91 10000 0.45 13 09:31 23.08.2021
6123 Mist 22 1008 90 9656 0.89 49 07:58 23.08.2021
6124 Clouds 22 1008 90 10000 0.45 104 06:48 23.08.2021
6125 Clouds 22 1008 91 10000 0.45 186 04:51 23.08.2021
6126 Rain 22 1008 94 10000 0.45 126 00:50 23.08.2021
6127 Rain 22 1009 92 10000 0.45 114 22:44 22.08.2021
6128 Rain 22 1009 92 10000 0.45 67 22:23 22.08.2021
6129 Rain 23 1010 92 4023 0.45 3 20:21 22.08.2021
6130 Rain 23 1009 93 3219 0.89 301 19:22 22.08.2021
6131 Rain 23 1010 93 10000 0.45 319 16:28 22.08.2021
6132 Rain 23 1011 92 10000 0.89 21 14:56 22.08.2021
6133 Rain 23 1011 91 10000 0.45 256 14:35 22.08.2021
6134 Rain 23 1011 91 10000 0.45 292 13:21 22.08.2021
6135 Clouds 23 1011 92 10000 0.45 308 12:51 22.08.2021
6136 Clouds 23 1010 92 10000 0.45 328 12:19 22.08.2021
6137 Mist 23 1010 93 10000 0.45 259 11:41 22.08.2021
6138 Mist 24 1010 93 10000 0.45 97 10:21 22.08.2021
6139 Mist 23 1010 94 10000 0.89 178 08:18 22.08.2021
6140 Rain 23 1012 94 9656 0.45 5 04:55 22.08.2021
6141 Clouds 27 1012 73 10000 0.45 90 23:39 21.08.2021
6142 Clouds 27 1013 71 10000 0.89 123 22:31 21.08.2021
6143 Clouds 27 1013 70 10000 0.45 77 20:24 21.08.2021
6144 Clouds 27 1013 71 10000 0.89 134 18:39 21.08.2021
6145 Clouds 27 1014 74 10000 0.45 127 17:48 21.08.2021
6146 Clouds 26 1013 78 10000 2.06 140 16:53 21.08.2021
6147 Clear 25 1014 81 10000 0.45 146 15:52 21.08.2021
6148 Clear 25 1014 83 10000 0.45 93 15:26 21.08.2021
6149 Clouds 23 1014 87 10000 0 0 14:32 21.08.2021
6150 Clouds 22 1013 89 10000 0 0 13:29 21.08.2021
6151 Clouds 22 1013 89 10000 0.89 279 12:24 21.08.2021
6152 Clear 22 1012 87 10000 0 0 09:28 21.08.2021
6153 Clear 24 1012 82 10000 1.54 280 05:32 21.08.2021
6154 Clouds 28 1011 67 10000 0.45 347 22:43 20.08.2021
6155 Clouds 27 1012 67 10000 0.45 292 21:18 20.08.2021
6156 Clouds 26 1013 69 10000 0.45 51 17:47 20.08.2021
6157 Clouds 26 1012 70 10000 0.89 305 15:57 20.08.2021
6158 Clear 24 1012 77 10000 0.45 299 13:36 20.08.2021
6159 Clear 24 1012 79 10000 0.45 102 11:37 20.08.2021
6160 Clear 24 1012 79 10000 0.45 339 10:43 20.08.2021
6161 Clear 24 1012 78 10000 1.54 0 09:40 20.08.2021
6162 Clear 24 1012 78 10000 1.79 297 08:41 20.08.2021
6163 Clouds 25 1013 75 10000 3.13 271 06:59 20.08.2021
6164 Clear 26 1013 68 10000 0.45 303 04:22 20.08.2021
6165 Clouds 30 1012 62 10000 0.45 102 00:19 20.08.2021
6166 Clouds 30 1012 61 10000 0.89 134 23:18 19.08.2021
6167 Clouds 30 1012 65 10000 0.89 141 22:31 19.08.2021
6168 Clouds 29 1012 64 10000 0.89 125 20:32 19.08.2021
6169 Clouds 28 1012 69 10000 6.17 250 19:35 19.08.2021
6170 Clouds 27 1013 74 10000 0.45 118 17:25 19.08.2021
6171 Clouds 26 1013 81 10000 0.45 101 15:54 19.08.2021
6172 Clouds 25 1014 89 10000 0.45 49 13:29 19.08.2021
6173 Clouds 24 1014 90 10000 3.6 240 12:33 19.08.2021
6174 Mist 25 1014 91 6437 4.12 250 11:24 19.08.2021
6175 Rain 25 1014 90 10000 0.89 106 10:23 19.08.2021
6176 Clouds 25 1014 91 10000 0.89 76 09:47 19.08.2021
6177 Rain 25 1014 91 10000 1.34 118 09:19 19.08.2021
6178 Clouds 26 1017 88 10000 0.89 128 06:53 19.08.2021
6179 Clouds 26 1019 89 10000 0.89 74 02:22 19.08.2021
6180 Clouds 26 1019 89 10000 0.89 88 01:51 19.08.2021
6181 Clouds 28 1020 79 10000 0.89 79 22:56 18.08.2021
6182 Clouds 28 1021 79 10000 0.89 116 21:40 18.08.2021
6183 Clouds 28 1021 79 10000 0.89 116 21:40 18.08.2021
6184 Clouds 27 1022 81 10000 0.89 101 20:31 18.08.2021
6185 Clouds 27 1022 81 10000 0.89 113 19:32 18.08.2021
6186 Clouds 27 1022 80 10000 0.45 78 18:54 18.08.2021
6187 Clouds 27 1023 82 10000 0.89 113 17:57 18.08.2021
6188 Clouds 25 1023 85 10000 0.45 104 15:47 18.08.2021
6189 Clouds 25 1023 84 10000 3.6 160 15:24 18.08.2021
6190 Clouds 24 1023 86 10000 0.45 124 14:51 18.08.2021
6191 Clouds 23 1023 86 10000 0.45 71 12:43 18.08.2021
6192 Clouds 23 1023 86 10000 0.45 76 12:24 18.08.2021
6193 Clouds 23 1023 85 10000 0.45 67 10:21 18.08.2021
6194 Clouds 23 1023 83 10000 0.45 202 07:47 18.08.2021
6195 Clear 25 1021 73 10000 1.34 102 00:44 18.08.2021
6196 Clouds 27 1022 68 10000 0.89 92 22:30 17.08.2021
6197 Clouds 27 1022 65 10000 0.45 128 21:27 17.08.2021
6198 Clouds 27 1022 64 10000 4.63 130 20:45 17.08.2021
6199 Clouds 26 1023 68 10000 0.89 139 19:18 17.08.2021
6200 Clouds 26 1023 69 10000 0.89 116 17:33 17.08.2021
6201 Clouds 26 1023 69 10000 0.89 116 17:33 17.08.2021
6202 Clouds 25 1023 71 10000 0.89 86 16:39 17.08.2021
6203 Clouds 24 1023 74 10000 0.45 106 15:37 17.08.2021
6204 Clouds 24 1023 75 10000 0.89 142 14:28 17.08.2021
6205 Clouds 23 1022 77 10000 0.45 85 11:54 17.08.2021
6206 Clouds 23 1022 75 10000 0.45 33 09:21 17.08.2021
6207 Clear 22 1022 75 10000 0.45 111 07:48 17.08.2021
6208 Clear 23 1022 73 10000 0.45 134 04:33 17.08.2021
6209 Clouds 26 1022 62 10000 0.89 37 22:58 16.08.2021
6210 Clouds 27 1022 60 10000 0.45 83 22:40 16.08.2021
6211 Clouds 27 1022 59 10000 0.45 67 22:21 16.08.2021
6212 Clouds 27 1022 55 10000 0.45 97 21:35 16.08.2021
6213 Clouds 27 1023 52 10000 0.45 70 20:49 16.08.2021
6214 Clouds 27 1023 55 10000 3.6 260 19:24 16.08.2021
6215 Clouds 26 1023 55 10000 0.89 125 18:24 16.08.2021
6216 Clouds 26 1023 57 10000 1.54 0 17:51 16.08.2021
6217 Clear 23 1023 64 10000 0.89 273 15:49 16.08.2021
6218 Clouds 22 1023 71 10000 0.45 282 14:56 16.08.2021
6219 Clouds 21 1023 70 10000 0.89 94 13:38 16.08.2021
6220 Clouds 20 1023 72 10000 3.6 40 12:55 16.08.2021
6221 Clouds 20 1022 70 10000 0.45 103 11:29 16.08.2021
6222 Clouds 21 1022 67 10000 1.54 270 08:53 16.08.2021
6223 Clouds 21 1022 67 10000 1.54 270 08:53 16.08.2021
6224 Clear 21 1022 68 10000 0.45 352 07:45 16.08.2021
6225 Clear 22 1022 63 10000 0 0 07:25 16.08.2021
6226 Clouds 23 1021 54 10000 0.45 130 02:45 16.08.2021
6227 Clear 27 1021 41 10000 2.06 0 23:32 15.08.2021
6228 Clear 28 1021 43 10000 0.45 294 20:51 15.08.2021
6229 Clear 27 1023 47 10000 0.89 181 18:48 15.08.2021
6230 Clear 26 1023 48 10000 0.45 155 18:20 15.08.2021
6231 Clear 26 1023 49 10000 0.89 138 17:41 15.08.2021
6232 Clear 24 1023 54 10000 0.45 243 16:28 15.08.2021
6233 Clear 22 1023 55 10000 0.89 272 15:28 15.08.2021
6234 Clear 21 1022 58 10000 6.69 50 14:30 15.08.2021
6235 Clouds 21 1022 57 10000 0.89 141 11:44 15.08.2021
6236 Clouds 22 1021 54 10000 0.45 282 09:41 15.08.2021
6237 Clouds 24 1021 52 10000 0.89 280 06:31 15.08.2021
6238 Clouds 30 1017 61 10000 0.45 122 00:43 15.08.2021
6239 Clouds 31 1017 58 10000 2.06 0 23:25 14.08.2021
6240 Clouds 32 1018 57 10000 0.89 313 21:21 14.08.2021
6241 Clear 31 1018 54 10000 0.45 314 19:44 14.08.2021
6242 Clear 31 1017 55 10000 0.45 294 19:25 14.08.2021
6243 Clear 30 1018 62 10000 2.57 240 17:31 14.08.2021
6244 Clear 29 1018 64 10000 3.09 0 16:35 14.08.2021
6245 Clouds 26 1018 74 10000 1.79 249 14:57 14.08.2021
6246 Clear 25 1016 75 10000 0 0 12:41 14.08.2021
6247 Clear 26 1016 72 10000 3.09 250 10:54 14.08.2021
6248 Clear 27 1016 68 10000 0.45 172 08:28 14.08.2021
6249 Clear 34 1015 47 10000 0.89 89 23:55 13.08.2021
6250 Clear 35 1015 44 10000 0.45 180 23:26 13.08.2021
6251 Clear 35 1016 42 10000 0.45 345 21:47 13.08.2021
6252 Clear 34 1017 54 10000 0.45 338 18:54 13.08.2021
6253 Clear 33 1018 54 10000 2.06 0 18:35 13.08.2021
6254 Clear 31 1018 61 10000 0.45 321 16:49 13.08.2021
6255 Clear 29 1017 66 10000 2.57 240 15:41 13.08.2021
6256 Clear 25 1016 75 10000 0.45 312 11:21 13.08.2021
6257 Clear 25 1016 74 10000 2.57 260 10:39 13.08.2021
6258 Clear 27 1016 69 10000 2.57 260 08:39 13.08.2021
6259 Clouds 28 1016 70 10000 2.57 0 07:48 13.08.2021
6260 Clear 28 1015 70 10000 2.06 250 05:36 13.08.2021
6261 Thunderstorm 33 1014 50 10000 0.89 243 23:59 12.08.2021
6262 Clear 35 1014 52 10000 0.45 326 21:43 12.08.2021
6263 Clear 34 1015 55 10000 0.45 111 20:26 12.08.2021
6264 Clear 34 1016 58 10000 0.45 89 19:49 12.08.2021
6265 Clouds 32 1016 63 10000 0.45 106 17:56 12.08.2021
6266 Clear 30 1016 68 10000 0.45 100 16:50 12.08.2021
6267 Clear 28 1016 75 10000 0.45 200 15:35 12.08.2021
6268 Clear 24 1016 85 10000 1.54 260 13:46 12.08.2021
6269 Clouds 23 1016 88 10000 3.09 270 11:37 12.08.2021
6270 Clouds 23 1015 86 10000 1.79 176 08:57 12.08.2021
6271 Clear 24 1016 88 10000 2.06 250 07:21 12.08.2021
6272 Clouds 33 1014 64 10000 0.45 260 23:21 11.08.2021
6273 Clear 33 1016 65 10000 0.45 300 21:37 11.08.2021
6274 Clear 31 1016 68 10000 0.45 324 18:55 11.08.2021
6275 Clear 30 1017 70 10000 0.45 196 18:24 11.08.2021
6276 Clouds 25 1017 87 10000 0.45 158 15:22 11.08.2021
6277 Clear 24 1017 88 10000 0.45 46 14:54 11.08.2021
6278 Clouds 22 1018 90 10000 2.06 250 12:47 11.08.2021
6279 Clouds 22 1018 91 10000 2.06 250 12:29 11.08.2021
6280 Clouds 22 1017 91 10000 2.57 240 11:40 11.08.2021
6281 Clouds 22 1017 91 10000 2.57 240 11:21 11.08.2021
6282 Clear 23 1017 91 10000 2.06 240 08:53 11.08.2021
6283 Mist 23 1017 91 10000 2.06 240 08:53 11.08.2021
6284 Clouds 23 1018 91 10000 0.45 106 03:29 11.08.2021
6285 Clouds 29 1018 74 10000 0.89 94 22:33 10.08.2021
6286 Clouds 29 1018 73 10000 0.89 124 21:44 10.08.2021
6287 Clouds 29 1019 74 10000 0.89 100 20:51 10.08.2021
6288 Clouds 28 1020 73 10000 0.45 110 19:26 10.08.2021
6289 Clouds 27 1021 75 10000 1.54 220 17:33 10.08.2021
6290 Clouds 24 1021 86 10000 2.57 230 15:37 10.08.2021
6291 Mist 23 1021 90 10000 0.45 137 14:40 10.08.2021
6292 Clouds 21 1021 89 10000 0.45 128 10:54 10.08.2021
6293 Clouds 21 1021 88 10000 1.79 119 09:33 10.08.2021
6294 Clouds 22 1022 86 10000 0.45 128 05:27 10.08.2021
6295 Clouds 25 1020 75 10000 0.89 104 00:45 10.08.2021
6296 Clouds 26 1020 72 10000 0.45 96 23:35 09.08.2021
6297 Clouds 27 1019 73 10000 0.89 86 21:53 09.08.2021
6298 Clouds 27 1020 72 10000 0.89 279 21:28 09.08.2021
6299 Clouds 26 1021 73 10000 1.34 167 18:53 09.08.2021
6300 Clouds 25 1021 81 10000 0.45 37 16:57 09.08.2021
6301 Clouds 22 1020 87 10000 0.45 158 14:42 09.08.2021
6302 Mist 21 1020 90 10000 0.45 211 13:32 09.08.2021
6303 Clouds 21 1019 91 10000 0.45 93 11:54 09.08.2021
6304 Clouds 21 1019 89 10000 0.45 306 09:45 09.08.2021
6305 Clouds 21 1019 89 10000 0.89 271 08:25 09.08.2021
6306 Clouds 24 1019 70 10000 0.89 233 22:40 08.08.2021
6307 Clouds 23 1019 69 10000 1.34 112 21:24 08.08.2021
6308 Clouds 23 1019 69 10000 1.34 112 21:24 08.08.2021
6309 Clouds 24 1019 67 10000 1.34 99 18:25 08.08.2021
6310 Clouds 23 1018 74 10000 0.89 86 16:39 08.08.2021
6311 Clouds 21 1018 84 10000 0.45 167 15:30 08.08.2021
6312 Rain 19 1018 89 9656 0.45 34 12:48 08.08.2021
6313 Rain 20 1018 87 10000 0.45 120 10:44 08.08.2021
6314 Rain 24 1017 73 10000 1.54 280 06:43 08.08.2021
6315 Clear 24 1017 74 10000 1.54 260 05:35 08.08.2021
6316 Clear 27 1016 67 10000 0.45 344 00:29 08.08.2021
6317 Clear 30 1018 50 10000 0.89 126 22:19 07.08.2021
6318 Clear 31 1017 49 10000 0.45 54 21:39 07.08.2021
6319 Clouds 30 1018 48 10000 0.45 319 18:59 07.08.2021
6320 Clear 28 1019 49 10000 0 0 17:27 07.08.2021
6321 Clear 27 1019 53 10000 0 0 16:25 07.08.2021
6322 Clear 23 1019 72 10000 0 0 14:25 07.08.2021
6323 Clear 21 1019 75 10000 2.06 280 12:26 07.08.2021
6324 Clouds 22 1019 74 10000 1.34 234 09:56 07.08.2021
6325 Clouds 24 1019 68 10000 3.13 165 04:56 07.08.2021
6326 Clouds 24 1019 68 10000 3.13 165 04:56 07.08.2021
6327 Clear 30 1019 52 10000 1.34 107 23:54 06.08.2021
6328 Clouds 31 1020 51 10000 0.89 115 21:23 06.08.2021
6329 Clouds 31 1021 47 10000 0.89 360 20:27 06.08.2021
6330 Clear 31 1021 46 10000 0.45 336 19:55 06.08.2021
6331 Clear 30 1021 48 10000 0.45 39 17:51 06.08.2021
6332 Fog 21 1021 81 10000 2.06 250 13:50 06.08.2021
6333 Clouds 20 1020 87 10000 0.89 268 09:58 06.08.2021
6334 Fog 20 1020 86 10000 2.06 270 09:25 06.08.2021
6335 Clouds 26 1018 62 10000 0.45 204 00:39 06.08.2021
6336 Clouds 27 1018 61 10000 2.57 220 23:26 05.08.2021
6337 Clouds 26 1018 62 10000 1.54 0 21:31 05.08.2021
6338 Clouds 26 1018 64 10000 0.89 281 19:53 05.08.2021
6339 Clouds 25 1019 67 10000 0.89 283 18:29 05.08.2021
6340 Clouds 22 1019 75 10000 0.89 270 15:47 05.08.2021
6341 Clouds 20 1018 79 10000 0.45 283 13:53 05.08.2021
6342 Clouds 20 1019 80 10000 0.45 179 09:56 05.08.2021
6343 Clouds 20 1019 80 10000 0.45 174 08:19 05.08.2021
6344 Clouds 21 1020 70 10000 0.45 110 03:37 05.08.2021
6345 Clouds 23 1019 70 10000 0.45 114 22:41 04.08.2021
6346 Clouds 24 1020 65 10000 0.89 119 21:26 04.08.2021
6347 Clear 24 1020 63 10000 0.89 122 20:23 04.08.2021
6348 Clear 23 1020 65 10000 0.45 232 17:24 04.08.2021
6349 Clear 21 1020 72 10000 0.45 294 14:48 04.08.2021
6350 Clear 18 1020 79 10000 0.45 281 12:23 04.08.2021
6351 Clouds 19 1019 75 10000 0.89 264 08:53 04.08.2021
6352 Clear 26 1018 44 10000 0.45 293 22:32 03.08.2021
6353 Clear 25 1020 43 10000 2.06 240 20:32 03.08.2021
6354 Clouds 24 1019 49 10000 0.45 37 18:58 03.08.2021
6355 Clouds 24 1019 49 10000 0.45 37 18:58 03.08.2021
6356 Clear 23 1021 49 10000 1.54 40 17:31 03.08.2021
6357 Clouds 18 1020 70 10000 1.34 284 13:58 03.08.2021
6358 Clouds 17 1019 62 10000 1.79 292 10:58 03.08.2021
6359 Clear 18 1019 61 10000 2.68 354 10:38 03.08.2021
6360 Clouds 27 1015 42 10000 0.45 135 22:59 02.08.2021
6361 Clouds 23 1014 65 10000 0.45 30 16:52 02.08.2021
6362 Clear 21 1014 72 10000 2.57 250 15:35 02.08.2021
6363 Clouds 17 1013 83 10000 0.45 319 12:47 02.08.2021
6364 Clouds 16 1012 86 10000 0.89 350 11:58 02.08.2021
6365 Clouds 17 1011 86 10000 0.89 0 10:58 02.08.2021
6366 Clouds 18 1011 86 10000 0.89 23 09:42 02.08.2021
6367 Rain 24 1012 66 10000 1.34 122 20:29 01.08.2021
6368 Clouds 24 1013 63 10000 1.34 77 17:47 01.08.2021
6369 Clear 18 1014 79 10000 2.06 240 12:55 01.08.2021
6370 Clear 17 1013 80 10000 0.89 272 11:35 01.08.2021
6371 Clear 20 1014 57 10000 0 0 04:53 01.08.2021
6372 Clear 21 1014 53 10000 0 0 03:46 01.08.2021
6373 Clear 25 1014 41 10000 4.12 240 22:41 31.07.2021
6374 Clear 24 1015 42 10000 3.09 240 19:47 31.07.2021
6375 Clear 21 1016 51 10000 2.57 0 16:38 31.07.2021
6376 Clear 19 1016 62 10000 3.09 250 15:27 31.07.2021
6377 Clear 15 1015 68 10000 0.45 313 11:49 31.07.2021
6378 Clear 20 1014 48 10000 0.89 291 05:50 31.07.2021
6379 Clouds 28 1009 38 10000 0.89 77 22:43 30.07.2021
6380 Clouds 28 1008 45 10000 0.45 281 20:25 30.07.2021
6381 Clear 23 1008 69 10000 0 0 15:56 30.07.2021
6382 Clouds 24 1011 81 10000 1.34 75 22:26 29.07.2021
6383 Clouds 21 1016 82 10000 2.06 230 08:43 29.07.2021
6384 Clear 22 1016 77 10000 0.45 81 04:52 29.07.2021
6385 Clear 22 1016 77 10000 0.45 326 04:27 29.07.2021
6386 Clouds 27 1016 55 10000 0.45 301 19:55 28.07.2021
6387 Clouds 25 1016 69 10000 0.89 267 17:18 28.07.2021
6388 Rain 21 1014 86 4023 3.13 191 09:56 28.07.2021
6389 Haze 31 1012 44 9656 0.45 24 23:56 27.07.2021
6390 Clear 33 1013 40 10000 0.89 39 21:36 27.07.2021
6391 Haze 32 1014 40 10000 0.45 295 18:26 27.07.2021
6392 Clouds 26 1014 64 10000 0.45 304 14:51 27.07.2021
6393 Clear 23 1013 66 10000 0 0 10:36 27.07.2021
6394 Haze 26 1013 49 9656 1.34 292 03:46 27.07.2021
6395 Mist 26 1012 79 10000 2.06 250 15:34 26.07.2021
6396 Mist 23 1011 88 9656 0.45 268 10:59 26.07.2021
6397 Clouds 28 1012 67 10000 0.45 79 21:44 25.07.2021
6398 Clouds 28 1012 68 10000 0.45 26 20:54 25.07.2021
6399 Clouds 24 1013 81 10000 0.45 333 17:45 25.07.2021
6400 Clouds 21 1014 84 10000 0.45 62 15:27 25.07.2021
6401 Rain 21 1015 80 9656 0.45 336 10:19 25.07.2021
6402 Clouds 23 1016 64 10000 0.45 342 08:18 25.07.2021
6403 Clouds 28 1019 44 10000 0.45 70 20:23 24.07.2021
6404 Clouds 28 1020 45 10000 3.09 240 19:37 24.07.2021
6405 Clear 18 1019 77 10000 1.79 296 11:59 24.07.2021
6406 Clear 26 1020 43 10000 1.54 0 17:36 23.07.2021
6407 Clear 22 1021 55 10000 2.06 270 14:35 23.07.2021
6408 Clear 19 1020 65 10000 0.45 276 12:40 23.07.2021
6409 Clouds 27 1017 43 10000 0.45 8 22:53 22.07.2021
6410 Clear 23 1018 64 10000 3.09 260 15:27 22.07.2021
6411 Clear 18 1016 81 10000 0.45 60 11:19 22.07.2021
6412 Clear 20 1015 73 10000 0.89 332 08:34 22.07.2021
6413 Haze 25 1012 69 10000 2.06 230 01:43 22.07.2021
6414 Clear 27 1011 62 10000 0.89 300 21:42 21.07.2021
6415 Clear 27 1011 62 10000 0.45 321 21:22 21.07.2021
6416 Clouds 21 1012 79 10000 0.89 30 11:52 21.07.2021
6417 Haze 23 1011 78 6437 0.89 287 09:20 21.07.2021
6418 Haze 25 1011 71 10000 2.06 250 05:45 21.07.2021
6419 Haze 31 1012 55 9656 0.45 283 21:54 20.07.2021
6420 Haze 27 1013 67 10000 0.45 342 16:36 20.07.2021
6421 Haze 25 1014 74 10000 1.54 260 15:28 20.07.2021
6422 Haze 21 1013 81 10000 0.45 102 12:36 20.07.2021
6423 Clear 22 1014 77 10000 0.89 300 07:57 20.07.2021
6424 Clouds 24 1014 69 10000 1.54 250 03:20 20.07.2021
6425 Clouds 24 1015 75 10000 0.89 263 19:21 19.07.2021
6426 Drizzle 22 1014 80 10000 0.45 343 12:52 19.07.2021
6427 Clouds 23 1015 76 10000 0.45 346 07:29 19.07.2021
6428 Clouds 27 1014 76 10000 0.45 99 17:22 18.07.2021
6429 Clouds 22 1014 93 10000 3.6 240 10:53 18.07.2021
6430 Mist 29 1014 79 10000 0.45 94 23:36 17.07.2021
6431 Thunderstorm 27 1017 82 8047 3.09 280 22:18 17.07.2021
6432 Thunderstorm 28 1016 77 10000 2.57 320 21:41 17.07.2021
6433 Clear 32 1017 62 10000 0.45 306 17:33 17.07.2021
6434 Clear 24 1017 77 10000 0 0 11:34 17.07.2021
6435 Clouds 27 1017 60 10000 0 0 04:55 17.07.2021
6436 Clear 32 1016 58 10000 0.45 113 17:58 16.07.2021
6437 Clear 25 1016 83 10000 2.06 230 13:20 16.07.2021
6438 Clear 26 1016 75 10000 2.06 260 07:25 16.07.2021
6439 Clear 31 1018 61 10000 0.45 297 22:52 15.07.2021
6440 Clouds 24 1020 79 10000 0 0 13:51 15.07.2021
6441 Clear 23 1019 86 10000 1.54 250 09:52 15.07.2021
6442 Clear 29 1020 68 10000 1.54 270 00:32 15.07.2021
6443 Mist 25 1021 87 10000 2.57 230 16:57 14.07.2021
6444 Mist 21 1022 92 10000 0.45 307 13:50 14.07.2021
6445 Mist 21 1022 91 10000 0.45 49 05:45 14.07.2021
6446 Haze 24 1023 81 10000 0.45 142 21:38 13.07.2021
6447 Clouds 24 1023 82 10000 0.45 291 19:55 13.07.2021
6448 Clouds 23 1023 81 10000 0.89 261 19:27 13.07.2021
6449 Clouds 23 1024 83 10000 0.45 169 18:45 13.07.2021
6450 Clouds 23 1024 84 10000 0.45 283 18:25 13.07.2021
6451 Clouds 22 1024 87 10000 0.45 280 17:40 13.07.2021
6452 Clouds 22 1024 87 10000 0.45 280 17:40 13.07.2021
6453 Clouds 21 1023 91 10000 0.45 175 09:51 13.07.2021
6454 Mist 22 1023 88 10000 0.45 66 07:44 13.07.2021
6455 Mist 29 1020 72 10000 0.45 327 19:59 12.07.2021
6456 Haze 26 1019 83 10000 2.06 190 16:45 12.07.2021
6457 Clouds 22 1017 92 10000 1.54 250 09:58 12.07.2021
6458 Clouds 26 1018 75 10000 1.34 129 21:59 11.07.2021
6459 Clouds 25 1020 83 10000 0.89 126 19:48 11.07.2021
6460 Mist 23 1017 86 10000 0 0 04:42 11.07.2021
6461 Clouds 27 1015 65 10000 0.45 297 21:46 10.07.2021
6462 Clear 21 1012 89 10000 0.45 269 11:37 10.07.2021
6463 Mist 22 1012 90 10000 1.54 0 07:24 10.07.2021
6464 Clouds 29 1010 55 10000 3.09 250 22:39 09.07.2021
6465 Clouds 26 1009 73 10000 0.45 197 18:20 09.07.2021
6466 Rain 22 1005 93 8047 0.89 296 14:48 09.07.2021
6467 Rain 22 1013 92 6437 0.45 83 07:36 09.07.2021
6468 Thunderstorm 24 1014 89 8047 4.12 80 23:48 08.07.2021
6469 Clouds 24 1015 82 10000 0.89 67 22:18 08.07.2021
6470 Clouds 29 1014 67 10000 0.45 122 18:56 08.07.2021
6471 Clear 29 1014 71 10000 0.89 125 17:37 08.07.2021
6472 Clear 24 1015 79 10000 3.6 40 13:31 08.07.2021
6473 Clear 24 1014 78 10000 0.45 98 12:40 08.07.2021
6474 Clear 24 1014 77 10000 0.45 74 11:30 08.07.2021
6475 Clouds 25 1014 72 10000 5.14 50 09:51 08.07.2021
6476 Clear 26 1012 73 10000 0.45 267 04:42 08.07.2021
6477 Clear 32 1012 50 10000 0.45 313 00:34 08.07.2021
6478 Clouds 34 1013 45 10000 0.45 234 22:21 07.07.2021
6479 Clear 34 1013 46 10000 0.45 31 21:55 07.07.2021
6480 Clear 34 1013 47 10000 0.45 44 21:37 07.07.2021
6481 Clear 34 1013 47 10000 0.45 33 21:18 07.07.2021
6482 Clear 33 1013 50 10000 0.45 298 19:55 07.07.2021
6483 Clear 33 1014 52 10000 0.45 15 19:27 07.07.2021
6484 Clear 30 1015 70 10000 1.54 220 16:52 07.07.2021
6485 Clear 27 1015 77 10000 0.45 108 15:28 07.07.2021
6486 Fog 21 1015 90 10000 2.06 240 12:24 07.07.2021
6487 Fog 21 1015 90 10000 2.06 240 12:24 07.07.2021
6488 Fog 21 1015 90 10000 2.06 240 12:24 07.07.2021
6489 Mist 22 1015 88 10000 0.45 126 07:45 07.07.2021
6490 Clouds 22 1016 90 10000 4.12 280 06:18 07.07.2021
6491 Mist 22 1015 92 10000 0.45 68 05:41 07.07.2021
6492 Clear 34 1012 46 10000 0.45 149 21:29 06.07.2021
6493 Clear 33 1014 51 10000 0.45 88 19:29 06.07.2021
6494 Clear 32 1015 54 10000 0.45 201 18:46 06.07.2021
6495 Clear 32 1015 55 10000 4.63 250 18:24 06.07.2021
6496 Clouds 24 1016 76 10000 0.45 37 13:45 06.07.2021
6497 Clouds 23 1016 75 10000 0.45 103 10:57 06.07.2021
6498 Rain 23 1016 73 10000 5.14 240 09:41 06.07.2021
6499 Rain 23 1016 73 10000 0.45 65 08:33 06.07.2021
6500 Rain 24 1017 71 10000 0.45 66 06:30 06.07.2021
6501 Rain 24 1017 71 10000 0.45 66 06:30 06.07.2021
6502 Clouds 28 1016 55 10000 0.45 54 00:59 06.07.2021
6503 Clear 28 1017 56 10000 1.34 129 22:39 05.07.2021
6504 Clear 27 1018 65 10000 0 0 18:35 05.07.2021
6505 Haze 24 1018 78 10000 3.09 30 15:45 05.07.2021
6506 Haze 19 1016 85 10000 2.06 30 07:21 05.07.2021
6507 Haze 20 1015 83 10000 0.45 129 05:45 05.07.2021
6508 Haze 21 1015 80 10000 0.45 127 04:40 05.07.2021
6509 Haze 21 1015 80 10000 0.45 127 04:40 05.07.2021
6510 Clouds 25 1012 57 10000 1.34 108 23:18 04.07.2021
6511 Clouds 25 1012 53 10000 0.45 147 19:24 04.07.2021
6512 Clouds 22 1012 69 10000 2.06 210 16:51 04.07.2021
6513 Clouds 17 1011 87 10000 1.34 231 12:58 04.07.2021
6514 Clouds 16 1011 86 10000 0.89 176 09:25 04.07.2021
6515 Clouds 18 1008 77 10000 0.89 103 23:34 03.07.2021
6516 Clouds 18 1008 78 10000 0.89 206 22:40 03.07.2021
6517 Clouds 16 1009 92 10000 1.34 285 14:58 03.07.2021
6518 Mist 16 1008 92 6437 0.89 285 12:38 03.07.2021
6519 Clouds 16 1008 88 10000 0.89 130 09:39 03.07.2021
6520 Clouds 16 1008 88 10000 0.45 241 09:20 03.07.2021
6521 Clouds 16 1008 88 10000 0.89 103 08:44 03.07.2021
6522 Clouds 23 1007 81 10000 2.24 164 17:57 02.07.2021
6523 Rain 22 1008 95 10000 2.57 240 07:41 02.07.2021
6524 Rain 22 1008 93 10000 1.54 220 06:34 02.07.2021
6525 Rain 24 1009 77 10000 0 0 23:25 01.07.2021
6526 Clouds 25 1009 73 10000 0 0 22:29 01.07.2021
6527 Clouds 26 1011 75 10000 0.45 305 21:34 01.07.2021
6528 Rain 26 1012 77 8047 2.06 0 19:37 01.07.2021
6529 Rain 26 1012 77 8047 2.06 0 19:18 01.07.2021
6530 Rain 28 1011 59 10000 2.57 260 18:38 01.07.2021
6531 Clouds 29 1012 57 10000 0.45 340 17:33 01.07.2021
6532 Clear 27 1012 67 10000 2.57 250 15:45 01.07.2021
6533 Clear 26 1012 69 10000 0.45 193 15:22 01.07.2021
6534 Mist 23 1012 88 10000 2.06 250 11:27 01.07.2021
6535 Clouds 23 1012 88 10000 2.57 280 08:53 01.07.2021
6536 Clouds 35 1011 42 10000 0.45 357 23:23 30.06.2021
6537 Clear 36 1011 42 10000 0.45 12 22:21 30.06.2021
6538 Clouds 36 1012 44 10000 0.45 103 21:55 30.06.2021
6539 Clouds 36 1013 43 10000 0.45 245 20:59 30.06.2021
6540 Clouds 36 1014 43 10000 3.6 240 20:20 30.06.2021
6541 Clouds 36 1014 43 10000 3.6 240 20:20 30.06.2021
6542 Clear 32 1016 57 10000 0.45 308 16:42 30.06.2021
6543 Clear 27 1017 75 10000 1.54 230 13:25 30.06.2021
6544 Clear 27 1018 71 10000 3.13 252 09:59 30.06.2021
6545 Clouds 34 1019 49 10000 0.45 333 23:58 29.06.2021
6546 Clear 35 1022 48 10000 2.06 240 19:31 29.06.2021
6547 Clear 33 1022 56 10000 0.45 36 17:46 29.06.2021
6548 Clear 32 1022 57 10000 2.57 250 17:28 29.06.2021
6549 Clear 30 1023 65 10000 3.6 250 15:51 29.06.2021
6550 Clear 29 1023 65 10000 3.6 250 15:51 29.06.2021
6551 Clear 28 1023 69 10000 0.45 226 14:55 29.06.2021
6552 Clear 26 1024 74 10000 0.45 98 13:23 29.06.2021
6553 Clear 28 1022 69 10000 0.45 337 04:38 29.06.2021
6554 Clouds 32 1021 55 10000 4.12 230 23:24 28.06.2021
6555 Clouds 34 1023 50 10000 0.89 216 20:59 28.06.2021
6556 Clear 32 1023 56 10000 2.57 240 18:42 28.06.2021
6557 Clear 29 1023 65 10000 3.6 270 16:58 28.06.2021
6558 Clear 26 1024 76 10000 3.09 250 14:31 28.06.2021
6559 Clear 23 1023 82 10000 3.09 270 12:24 28.06.2021
6560 Clear 30 1020 55 10000 0.45 71 23:47 27.06.2021
6561 Clouds 31 1021 53 10000 0.89 77 22:32 27.06.2021
6562 Clouds 31 1022 59 10000 0.89 356 19:44 27.06.2021
6563 Clouds 30 1022 59 10000 0.45 26 18:56 27.06.2021
6564 Clouds 25 1022 83 10000 0.45 57 15:39 27.06.2021
6565 Clouds 23 1022 86 10000 2.57 250 11:23 27.06.2021
6566 Clear 27 1022 72 10000 0.89 106 00:54 27.06.2021
6567 Clouds 27 1022 79 10000 0.89 114 22:22 26.06.2021
6568 Clouds 27 1023 78 10000 0.89 80 20:54 26.06.2021
6569 Smoke 27 1023 75 10000 0.89 128 20:35 26.06.2021
6570 Clouds 26 1024 76 10000 0.45 108 16:22 26.06.2021
6571 Clouds 24 1025 94 10000 3.6 210 14:37 26.06.2021
6572 Mist 21 1024 89 10000 0 0 12:24 26.06.2021
6573 Clear 20 1024 85 10000 0.45 147 07:25 26.06.2021
6574 Clear 26 1024 58 10000 1.34 117 22:49 25.06.2021
6575 Clear 26 1026 46 10000 0.45 117 20:38 25.06.2021
6576 Clear 25 1026 49 10000 0.45 325 18:59 25.06.2021
6577 Clear 23 1026 57 10000 0.45 312 17:31 25.06.2021
6578 Clear 21 1027 69 10000 3.09 230 16:23 25.06.2021
6579 Clouds 17 1027 77 10000 1.54 270 13:58 25.06.2021
6580 Clouds 16 1026 78 10000 3.6 50 10:31 25.06.2021
6581 Clouds 17 1027 69 10000 0.45 170 07:27 25.06.2021
6582 Clear 17 1027 70 10000 0.45 183 06:32 25.06.2021
6583 Clear 21 1027 54 10000 0.45 122 01:40 25.06.2021
6584 Clear 24 1028 42 10000 0.89 112 21:49 24.06.2021
6585 Clear 24 1029 39 10000 0.45 321 20:44 24.06.2021
6586 Clear 24 1029 40 10000 0.89 82 20:21 24.06.2021
6587 Clear 24 1029 40 10000 0.89 126 18:35 24.06.2021
6588 Clear 21 1029 60 10000 1.54 250 15:24 24.06.2021
6589 Clear 20 1029 59 10000 0 0 14:55 24.06.2021
6590 Clear 18 1029 72 10000 1.54 260 13:39 24.06.2021
6591 Clear 14 1027 70 10000 1.54 230 10:37 24.06.2021
6592 Clear 15 1027 65 10000 2.06 230 08:53 24.06.2021
6593 Clear 16 1026 62 10000 2.06 230 07:38 24.06.2021
6594 Clouds 23 1023 38 10000 0.45 279 01:24 24.06.2021
6595 Clouds 24 1022 36 10000 3.09 260 22:30 23.06.2021
6596 Clouds 24 1022 36 10000 0.89 306 21:35 23.06.2021
6597 Clouds 23 1022 37 10000 0.89 297 20:21 23.06.2021
6598 Clear 22 1022 38 10000 3.09 0 18:32 23.06.2021
6599 Clear 21 1022 41 10000 1.34 352 17:21 23.06.2021
6600 Clear 16 1021 61 10000 1.54 0 14:32 23.06.2021
6601 Clear 13 1020 75 10000 0.45 273 12:50 23.06.2021
6602 Clear 12 1018 77 10000 0.45 311 11:44 23.06.2021
6603 Clear 13 1017 76 10000 0.89 329 09:55 23.06.2021
6604 Clear 13 1016 74 10000 0.45 282 08:42 23.06.2021
6605 Clear 14 1015 71 10000 0.45 72 07:50 23.06.2021
6606 Clear 14 1014 71 10000 0.45 166 06:37 23.06.2021
6607 Clouds 17 1010 78 10000 0.89 315 02:29 23.06.2021
6608 Rain 17 1008 88 10000 0.89 74 00:22 23.06.2021
6609 Mist 18 1007 87 8047 3.58 297 23:47 22.06.2021
6610 Rain 18 1008 87 10000 1.34 291 22:44 22.06.2021
6611 Rain 18 1008 87 10000 1.34 291 22:44 22.06.2021
6612 Rain 18 1007 89 8047 0.45 292 21:47 22.06.2021
6613 Rain 18 1007 87 10000 0.89 268 20:55 22.06.2021
6614 Clouds 19 1008 69 10000 4.92 350 19:32 22.06.2021
6615 Clouds 21 1007 66 10000 2.57 0 18:53 22.06.2021
6616 Clouds 21 1007 69 10000 2.57 0 18:19 22.06.2021
6617 Clouds 22 1006 68 10000 0.89 30 17:21 22.06.2021
6618 Clouds 24 1006 72 10000 0.45 73 16:20 22.06.2021
6619 Clouds 24 1005 80 10000 0.45 119 14:34 22.06.2021
6620 Clouds 23 1005 83 10000 0.45 119 13:43 22.06.2021
6621 Clear 22 1004 86 10000 3.09 280 12:35 22.06.2021
6622 Clear 22 1004 86 10000 1.34 207 10:58 22.06.2021
6623 Rain 23 1004 82 10000 3.09 260 09:18 22.06.2021
6624 Clouds 25 1003 74 10000 0.45 111 04:43 22.06.2021
6625 Clouds 29 1002 68 10000 1.79 96 00:37 22.06.2021
6626 Clear 30 1003 67 10000 0.45 130 22:59 21.06.2021
6627 Clouds 30 1004 60 10000 0 0 21:41 21.06.2021
6628 Clouds 29 1005 69 10000 4.63 160 20:52 21.06.2021
6629 Clouds 29 1005 68 10000 0.89 119 20:21 21.06.2021
6630 Clouds 29 1005 66 10000 1.34 106 19:49 21.06.2021
6631 Clouds 28 1006 69 10000 0.89 350 18:25 21.06.2021
6632 Clouds 27 1007 76 10000 0.45 77 16:56 21.06.2021
6633 Clouds 26 1007 77 10000 0.45 325 16:30 21.06.2021
6634 Clouds 26 1007 79 10000 0.45 325 16:30 21.06.2021
6635 Clouds 25 1007 82 10000 0.45 327 15:57 21.06.2021
6636 Clouds 25 1007 83 10000 0 0 15:29 21.06.2021
6637 Clouds 23 1007 84 10000 0.45 348 13:52 21.06.2021
6638 Clouds 23 1007 85 10000 1.54 260 12:56 21.06.2021
6639 Clear 23 1007 86 10000 0 0 12:35 21.06.2021
6640 Clear 23 1007 84 10000 0.45 84 10:55 21.06.2021
6641 Clear 23 1008 84 10000 2.06 270 10:23 21.06.2021
6642 Clear 23 1007 80 10000 3.13 144 08:47 21.06.2021
6643 Clear 24 1007 79 10000 3.58 171 08:18 21.06.2021
6644 Clear 24 1008 73 10000 1.54 270 06:24 21.06.2021
6645 Clouds 30 1009 54 10000 2.24 173 23:57 20.06.2021
6646 Clear 30 1008 56 10000 2.06 210 23:34 20.06.2021
6647 Clouds 30 1009 57 10000 1.54 200 22:55 20.06.2021
6648 Clear 30 1009 55 10000 0.89 104 21:55 20.06.2021
6649 Clouds 30 1009 53 10000 0.89 58 20:28 20.06.2021
6650 Clouds 29 1010 55 10000 3.09 230 19:40 20.06.2021
6651 Clouds 29 1010 56 10000 3.09 230 19:20 20.06.2021
6652 Clear 28 1010 57 10000 0.45 71 17:47 20.06.2021
6653